<?xml version="1.0" encoding="UTF-8" standalone="no" ?>
<gpx xmlns="http://www.topografix.com/GPX/1/1" xmlns:xsi="http://www.w3.org/2001/XMLSchema-instance" xsi:schemaLocation="http://www.topografix.com/GPX/1/1 http://www.topografix.com/GPX/1/1/gpx.xsd" version="1.1" creator="VisuGPX - https://www.visugpx.com">
  <metadata>
    <name>Des Mouettes aux Cigales 2021</name>
  </metadata>
  <trk>
    <name><![CDATA[Étape 3 : Mortagne-au-Perche - Chateaudun]]></name>
    <extensions>
      <line xmlns="http://www.topografix.com/GPX/gpx_style/0/2">
        <color>00FFFF</color>
        <width>4</width>
      </line>
    </extensions>
    <trkseg>
      <trkpt lat="48.47661" lon="0.5939">
        <ele>165.590773</ele>
        <time>2021-09-07T06:47:03.000Z</time>
      </trkpt>
      <trkpt lat="48.47644" lon="0.5941">
        <ele>165.590773</ele>
        <time>2021-09-07T06:47:10.000Z</time>
      </trkpt>
      <trkpt lat="48.4763" lon="0.59427">
        <ele>165.590773</ele>
        <time>2021-09-07T06:47:15.000Z</time>
      </trkpt>
      <trkpt lat="48.4761" lon="0.59448">
        <ele>165.590773</ele>
        <time>2021-09-07T06:47:21.000Z</time>
      </trkpt>
      <trkpt lat="48.47595" lon="0.59468">
        <ele>165.590773</ele>
        <time>2021-09-07T06:47:26.000Z</time>
      </trkpt>
      <trkpt lat="48.4758" lon="0.5949">
        <ele>165.609537</ele>
        <time>2021-09-07T06:47:31.000Z</time>
      </trkpt>
      <trkpt lat="48.47573" lon="0.59499">
        <ele>165.621073</ele>
        <time>2021-09-07T06:47:33.000Z</time>
      </trkpt>
      <trkpt lat="48.47562" lon="0.59515">
        <ele>165.640807</ele>
        <time>2021-09-07T06:47:36.000Z</time>
      </trkpt>
      <trkpt lat="48.47558" lon="0.5952">
        <ele>165.647003</ele>
        <time>2021-09-07T06:47:37.000Z</time>
      </trkpt>
      <trkpt lat="48.47546" lon="0.59534">
        <ele>165.665914</ele>
        <time>2021-09-07T06:47:40.000Z</time>
      </trkpt>
      <trkpt lat="48.47525" lon="0.59559">
        <ele>165.700278</ele>
        <time>2021-09-07T06:47:45.000Z</time>
      </trkpt>
      <trkpt lat="48.47498" lon="0.59593">
        <ele>165.745376</ele>
        <time>2021-09-07T06:47:51.000Z</time>
      </trkpt>
      <trkpt lat="48.47493" lon="0.59599">
        <ele>165.753408</ele>
        <time>2021-09-07T06:47:52.000Z</time>
      </trkpt>
      <trkpt lat="48.47479" lon="0.59616">
        <ele>165.77665</ele>
        <time>2021-09-07T06:47:55.000Z</time>
      </trkpt>
      <trkpt lat="48.47469" lon="0.59627">
        <ele>165.792459</ele>
        <time>2021-09-07T06:47:57.000Z</time>
      </trkpt>
      <trkpt lat="48.47439" lon="0.59666">
        <ele>165.457285</ele>
        <time>2021-09-07T06:48:03.000Z</time>
      </trkpt>
      <trkpt lat="48.47431" lon="0.59677">
        <ele>165.219772</ele>
        <time>2021-09-07T06:48:05.000Z</time>
      </trkpt>
      <trkpt lat="48.47424" lon="0.59686">
        <ele>165.036849</ele>
        <time>2021-09-07T06:48:07.000Z</time>
      </trkpt>
      <trkpt lat="48.47417" lon="0.59695">
        <ele>164.844414</ele>
        <time>2021-09-07T06:48:11.000Z</time>
      </trkpt>
      <trkpt lat="48.47406" lon="0.59709">
        <ele>164.543535</ele>
        <time>2021-09-07T06:48:16.000Z</time>
      </trkpt>
      <trkpt lat="48.47403" lon="0.59713">
        <ele>164.458822</ele>
        <time>2021-09-07T06:48:17.000Z</time>
      </trkpt>
      <trkpt lat="48.47396" lon="0.59722">
        <ele>164.263142</ele>
        <time>2021-09-07T06:48:19.000Z</time>
      </trkpt>
      <trkpt lat="48.47392" lon="0.59726">
        <ele>164.168613</ele>
        <time>2021-09-07T06:48:20.000Z</time>
      </trkpt>
      <trkpt lat="48.4737" lon="0.59754">
        <ele>163.570164</ele>
        <time>2021-09-07T06:48:25.000Z</time>
      </trkpt>
      <trkpt lat="48.47332" lon="0.59804">
        <ele>162.532242</ele>
        <time>2021-09-07T06:48:33.000Z</time>
      </trkpt>
      <trkpt lat="48.47299" lon="0.59846">
        <ele>161.80813</ele>
        <time>2021-09-07T06:48:40.000Z</time>
      </trkpt>
      <trkpt lat="48.47271" lon="0.59883">
        <ele>161.351992</ele>
        <time>2021-09-07T06:48:46.000Z</time>
      </trkpt>
      <trkpt lat="48.47266" lon="0.59889">
        <ele>161.272649</ele>
        <time>2021-09-07T06:48:47.000Z</time>
      </trkpt>
      <trkpt lat="48.47251" lon="0.59906">
        <ele>161.037176</ele>
        <time>2021-09-07T06:48:50.000Z</time>
      </trkpt>
      <trkpt lat="48.47241" lon="0.59919">
        <ele>160.875787</ele>
        <time>2021-09-07T06:48:52.000Z</time>
      </trkpt>
      <trkpt lat="48.47203" lon="0.59968">
        <ele>160.252454</ele>
        <time>2021-09-07T06:49:00.000Z</time>
      </trkpt>
      <trkpt lat="48.47169" lon="0.60009">
        <ele>159.790005</ele>
        <time>2021-09-07T06:49:07.000Z</time>
      </trkpt>
      <trkpt lat="48.47133" lon="0.60048">
        <ele>159.551859</ele>
        <time>2021-09-07T06:49:14.000Z</time>
      </trkpt>
      <trkpt lat="48.47114" lon="0.60071">
        <ele>159.420345</ele>
        <time>2021-09-07T06:49:18.000Z</time>
      </trkpt>
      <trkpt lat="48.47109" lon="0.60077">
        <ele>159.386636</ele>
        <time>2021-09-07T06:49:19.000Z</time>
      </trkpt>
      <trkpt lat="48.47079" lon="0.60112">
        <ele>159.181373</ele>
        <time>2021-09-07T06:49:25.000Z</time>
      </trkpt>
      <trkpt lat="48.47038" lon="0.60154">
        <ele>158.918113</ele>
        <time>2021-09-07T06:49:33.000Z</time>
      </trkpt>
      <trkpt lat="48.47008" lon="0.60184">
        <ele>158.614167</ele>
        <time>2021-09-07T06:49:39.000Z</time>
      </trkpt>
      <trkpt lat="48.46967" lon="0.60226">
        <ele>158.157283</ele>
        <time>2021-09-07T06:49:47.000Z</time>
      </trkpt>
      <trkpt lat="48.46961" lon="0.60231">
        <ele>158.098781</ele>
        <time>2021-09-07T06:49:48.000Z</time>
      </trkpt>
      <trkpt lat="48.46939" lon="0.60251">
        <ele>157.867887</ele>
        <time>2021-09-07T06:49:52.000Z</time>
      </trkpt>
      <trkpt lat="48.46901" lon="0.60285">
        <ele>157.459777</ele>
        <time>2021-09-07T06:49:59.000Z</time>
      </trkpt>
      <trkpt lat="48.46873" lon="0.60312">
        <ele>157.186085</ele>
        <time>2021-09-07T06:50:04.000Z</time>
      </trkpt>
      <trkpt lat="48.46846" lon="0.6034">
        <ele>156.974236</ele>
        <time>2021-09-07T06:50:09.000Z</time>
      </trkpt>
      <trkpt lat="48.46817" lon="0.60366">
        <ele>156.755584</ele>
        <time>2021-09-07T06:50:14.000Z</time>
      </trkpt>
      <trkpt lat="48.46791" lon="0.60394">
        <ele>156.552072</ele>
        <time>2021-09-07T06:50:19.000Z</time>
      </trkpt>
      <trkpt lat="48.4677" lon="0.60414">
        <ele>156.391735</ele>
        <time>2021-09-07T06:50:23.000Z</time>
      </trkpt>
      <trkpt lat="48.46761" lon="0.60421">
        <ele>156.325877</ele>
        <time>2021-09-07T06:50:25.000Z</time>
      </trkpt>
      <trkpt lat="48.46751" lon="0.60431">
        <ele>156.25542</ele>
        <time>2021-09-07T06:50:27.000Z</time>
      </trkpt>
      <trkpt lat="48.46736" lon="0.60446">
        <ele>156.138757</ele>
        <time>2021-09-07T06:50:30.000Z</time>
      </trkpt>
      <trkpt lat="48.46696" lon="0.60481">
        <ele>155.933535</ele>
        <time>2021-09-07T06:50:37.000Z</time>
      </trkpt>
      <trkpt lat="48.46653" lon="0.6052">
        <ele>155.733499</ele>
        <time>2021-09-07T06:50:44.000Z</time>
      </trkpt>
      <trkpt lat="48.46617" lon="0.60553">
        <ele>155.563827</ele>
        <time>2021-09-07T06:50:50.000Z</time>
      </trkpt>
      <trkpt lat="48.46572" lon="0.60594">
        <ele>155.390126</ele>
        <time>2021-09-07T06:50:57.000Z</time>
      </trkpt>
      <trkpt lat="48.46536" lon="0.60629">
        <ele>155.606442</ele>
        <time>2021-09-07T06:51:03.000Z</time>
      </trkpt>
      <trkpt lat="48.465" lon="0.60663">
        <ele>155.815212</ele>
        <time>2021-09-07T06:51:09.000Z</time>
      </trkpt>
      <trkpt lat="48.46463" lon="0.607">
        <ele>156.036513</ele>
        <time>2021-09-07T06:51:15.000Z</time>
      </trkpt>
      <trkpt lat="48.46419" lon="0.60742">
        <ele>156.263145</ele>
        <time>2021-09-07T06:51:22.000Z</time>
      </trkpt>
      <trkpt lat="48.46388" lon="0.60772">
        <ele>156.255239</ele>
        <time>2021-09-07T06:51:27.000Z</time>
      </trkpt>
      <trkpt lat="48.46351" lon="0.60807">
        <ele>156.245771</ele>
        <time>2021-09-07T06:51:33.000Z</time>
      </trkpt>
      <trkpt lat="48.46307" lon="0.60852">
        <ele>156.234291</ele>
        <time>2021-09-07T06:51:40.000Z</time>
      </trkpt>
      <trkpt lat="48.46258" lon="0.60901">
        <ele>155.87779</ele>
        <time>2021-09-07T06:51:48.000Z</time>
      </trkpt>
      <trkpt lat="48.46253" lon="0.60908">
        <ele>155.740613</ele>
        <time>2021-09-07T06:51:49.000Z</time>
      </trkpt>
      <trkpt lat="48.46231" lon="0.60933">
        <ele>155.2249</ele>
        <time>2021-09-07T06:51:53.000Z</time>
      </trkpt>
      <trkpt lat="48.46199" lon="0.60972">
        <ele>154.460466</ele>
        <time>2021-09-07T06:51:59.000Z</time>
      </trkpt>
      <trkpt lat="48.4617" lon="0.61007">
        <ele>153.755346</ele>
        <time>2021-09-07T06:52:05.000Z</time>
      </trkpt>
      <trkpt lat="48.46164" lon="0.61017">
        <ele>153.589334</ele>
        <time>2021-09-07T06:52:08.000Z</time>
      </trkpt>
      <trkpt lat="48.4616" lon="0.61023">
        <ele>153.489376</ele>
        <time>2021-09-07T06:52:14.000Z</time>
      </trkpt>
      <trkpt lat="48.46157" lon="0.61027">
        <ele>153.410537</ele>
        <time>2021-09-07T06:52:16.000Z</time>
      </trkpt>
      <trkpt lat="48.46154" lon="0.61031">
        <ele>153.327221</ele>
        <time>2021-09-07T06:52:18.000Z</time>
      </trkpt>
      <trkpt lat="48.46142" lon="0.61044">
        <ele>153.058871</ele>
        <time>2021-09-07T06:52:22.000Z</time>
      </trkpt>
      <trkpt lat="48.46135" lon="0.61052">
        <ele>152.887188</ele>
        <time>2021-09-07T06:52:24.000Z</time>
      </trkpt>
      <trkpt lat="48.46121" lon="0.61071">
        <ele>151.927738</ele>
        <time>2021-09-07T06:52:28.000Z</time>
      </trkpt>
      <trkpt lat="48.46109" lon="0.61085">
        <ele>151.104464</ele>
        <time>2021-09-07T06:52:31.000Z</time>
      </trkpt>
      <trkpt lat="48.46105" lon="0.61091">
        <ele>150.799344</ele>
        <time>2021-09-07T06:52:32.000Z</time>
      </trkpt>
      <trkpt lat="48.46078" lon="0.61127">
        <ele>148.822781</ele>
        <time>2021-09-07T06:52:38.000Z</time>
      </trkpt>
      <trkpt lat="48.46054" lon="0.61162">
        <ele>146.977466</ele>
        <time>2021-09-07T06:52:44.000Z</time>
      </trkpt>
      <trkpt lat="48.46028" lon="0.612">
        <ele>144.998662</ele>
        <time>2021-09-07T06:52:50.000Z</time>
      </trkpt>
      <trkpt lat="48.46003" lon="0.61238">
        <ele>143.08686</ele>
        <time>2021-09-07T06:52:56.000Z</time>
      </trkpt>
      <trkpt lat="48.45983" lon="0.61271">
        <ele>141.526579</ele>
        <time>2021-09-07T06:53:01.000Z</time>
      </trkpt>
      <trkpt lat="48.45978" lon="0.61278">
        <ele>141.199666</ele>
        <time>2021-09-07T06:53:02.000Z</time>
      </trkpt>
      <trkpt lat="48.45965" lon="0.61301">
        <ele>140.181573</ele>
        <time>2021-09-07T06:53:05.000Z</time>
      </trkpt>
      <trkpt lat="48.45949" lon="0.61331">
        <ele>138.849993</ele>
        <time>2021-09-07T06:53:09.000Z</time>
      </trkpt>
      <trkpt lat="48.45945" lon="0.61338">
        <ele>138.520275</ele>
        <time>2021-09-07T06:53:10.000Z</time>
      </trkpt>
      <trkpt lat="48.45936" lon="0.61353">
        <ele>137.842906</ele>
        <time>2021-09-07T06:53:12.000Z</time>
      </trkpt>
      <trkpt lat="48.45924" lon="0.61375">
        <ele>136.889206</ele>
        <time>2021-09-07T06:53:15.000Z</time>
      </trkpt>
      <trkpt lat="48.45912" lon="0.61396">
        <ele>135.943278</ele>
        <time>2021-09-07T06:53:18.000Z</time>
      </trkpt>
      <trkpt lat="48.45904" lon="0.61413">
        <ele>135.233681</ele>
        <time>2021-09-07T06:53:20.000Z</time>
      </trkpt>
      <trkpt lat="48.45879" lon="0.61455">
        <ele>133.801848</ele>
        <time>2021-09-07T06:53:26.000Z</time>
      </trkpt>
      <trkpt lat="48.45857" lon="0.61498">
        <ele>133.928427</ele>
        <time>2021-09-07T06:53:32.000Z</time>
      </trkpt>
      <trkpt lat="48.45838" lon="0.61545">
        <ele>134.059317</ele>
        <time>2021-09-07T06:53:38.000Z</time>
      </trkpt>
      <trkpt lat="48.45834" lon="0.61553">
        <ele>134.082464</ele>
        <time>2021-09-07T06:53:39.000Z</time>
      </trkpt>
      <trkpt lat="48.45821" lon="0.61585">
        <ele>134.173501</ele>
        <time>2021-09-07T06:53:43.000Z</time>
      </trkpt>
      <trkpt lat="48.45818" lon="0.61594">
        <ele>134.195608</ele>
        <time>2021-09-07T06:53:44.000Z</time>
      </trkpt>
      <trkpt lat="48.45811" lon="0.61608">
        <ele>134.237636</ele>
        <time>2021-09-07T06:53:46.000Z</time>
      </trkpt>
      <trkpt lat="48.45807" lon="0.61615">
        <ele>134.260299</ele>
        <time>2021-09-07T06:53:47.000Z</time>
      </trkpt>
      <trkpt lat="48.45788" lon="0.61664">
        <ele>134.394535</ele>
        <time>2021-09-07T06:53:53.000Z</time>
      </trkpt>
      <trkpt lat="48.45774" lon="0.61702">
        <ele>135.806693</ele>
        <time>2021-09-07T06:53:58.000Z</time>
      </trkpt>
      <trkpt lat="48.4577" lon="0.61716">
        <ele>136.398729</ele>
        <time>2021-09-07T06:54:01.000Z</time>
      </trkpt>
      <trkpt lat="48.45765" lon="0.61738">
        <ele>137.295937</ele>
        <time>2021-09-07T06:54:06.000Z</time>
      </trkpt>
      <trkpt lat="48.45763" lon="0.61751">
        <ele>137.837814</ele>
        <time>2021-09-07T06:54:11.000Z</time>
      </trkpt>
      <trkpt lat="48.45764" lon="0.61757">
        <ele>138.076256</ele>
        <time>2021-09-07T06:54:15.000Z</time>
      </trkpt>
      <trkpt lat="48.45761" lon="0.61762">
        <ele>138.295789</ele>
        <time>2021-09-07T06:55:18.000Z</time>
      </trkpt>
      <trkpt lat="48.45758" lon="0.61767">
        <ele>138.577088</ele>
        <time>2021-09-07T06:55:20.000Z</time>
      </trkpt>
      <trkpt lat="48.45754" lon="0.61771">
        <ele>138.860499</ele>
        <time>2021-09-07T06:55:22.000Z</time>
      </trkpt>
      <trkpt lat="48.45752" lon="0.61779">
        <ele>139.193796</ele>
        <time>2021-09-07T06:55:24.000Z</time>
      </trkpt>
      <trkpt lat="48.45747" lon="0.61796">
        <ele>139.891386</ele>
        <time>2021-09-07T06:55:27.000Z</time>
      </trkpt>
      <trkpt lat="48.45742" lon="0.61808">
        <ele>140.468511</ele>
        <time>2021-09-07T06:55:29.000Z</time>
      </trkpt>
      <trkpt lat="48.45728" lon="0.61849">
        <ele>142.260177</ele>
        <time>2021-09-07T06:55:35.000Z</time>
      </trkpt>
      <trkpt lat="48.45721" lon="0.6187">
        <ele>143.18593</ele>
        <time>2021-09-07T06:55:38.000Z</time>
      </trkpt>
      <trkpt lat="48.45713" lon="0.61892">
        <ele>144.151627</ele>
        <time>2021-09-07T06:55:41.000Z</time>
      </trkpt>
      <trkpt lat="48.45695" lon="0.61948">
        <ele>145.261105</ele>
        <time>2021-09-07T06:55:48.000Z</time>
      </trkpt>
      <trkpt lat="48.45679" lon="0.62006">
        <ele>145.723847</ele>
        <time>2021-09-07T06:55:55.000Z</time>
      </trkpt>
      <trkpt lat="48.45664" lon="0.62058">
        <ele>146.131546</ele>
        <time>2021-09-07T06:56:01.000Z</time>
      </trkpt>
      <trkpt lat="48.45646" lon="0.62118">
        <ele>146.616111</ele>
        <time>2021-09-07T06:56:08.000Z</time>
      </trkpt>
      <trkpt lat="48.45639" lon="0.62144">
        <ele>146.818467</ele>
        <time>2021-09-07T06:56:11.000Z</time>
      </trkpt>
      <trkpt lat="48.45636" lon="0.62152">
        <ele>146.886476</ele>
        <time>2021-09-07T06:56:12.000Z</time>
      </trkpt>
      <trkpt lat="48.45623" lon="0.62195">
        <ele>147.095905</ele>
        <time>2021-09-07T06:56:17.000Z</time>
      </trkpt>
      <trkpt lat="48.45615" lon="0.62221">
        <ele>147.204509</ele>
        <time>2021-09-07T06:56:20.000Z</time>
      </trkpt>
      <trkpt lat="48.45609" lon="0.62239">
        <ele>147.2798</ele>
        <time>2021-09-07T06:56:22.000Z</time>
      </trkpt>
      <trkpt lat="48.45594" lon="0.62291">
        <ele>147.497006</ele>
        <time>2021-09-07T06:56:28.000Z</time>
      </trkpt>
      <trkpt lat="48.45591" lon="0.62299">
        <ele>147.530536</ele>
        <time>2021-09-07T06:56:29.000Z</time>
      </trkpt>
      <trkpt lat="48.45581" lon="0.62331">
        <ele>147.665149</ele>
        <time>2021-09-07T06:56:33.000Z</time>
      </trkpt>
      <trkpt lat="48.45579" lon="0.62339">
        <ele>147.699647</ele>
        <time>2021-09-07T06:56:34.000Z</time>
      </trkpt>
      <trkpt lat="48.45566" lon="0.62381">
        <ele>147.875994</ele>
        <time>2021-09-07T06:56:39.000Z</time>
      </trkpt>
      <trkpt lat="48.45564" lon="0.62389">
        <ele>147.908689</ele>
        <time>2021-09-07T06:56:40.000Z</time>
      </trkpt>
      <trkpt lat="48.45549" lon="0.62438">
        <ele>148.129142</ele>
        <time>2021-09-07T06:56:46.000Z</time>
      </trkpt>
      <trkpt lat="48.45539" lon="0.6247">
        <ele>148.274112</ele>
        <time>2021-09-07T06:56:50.000Z</time>
      </trkpt>
      <trkpt lat="48.45535" lon="0.62487">
        <ele>148.347225</ele>
        <time>2021-09-07T06:56:52.000Z</time>
      </trkpt>
      <trkpt lat="48.45533" lon="0.62495">
        <ele>148.385653</ele>
        <time>2021-09-07T06:56:53.000Z</time>
      </trkpt>
      <trkpt lat="48.45523" lon="0.62527">
        <ele>148.534375</ele>
        <time>2021-09-07T06:56:57.000Z</time>
      </trkpt>
      <trkpt lat="48.4552" lon="0.62535">
        <ele>148.569429</ele>
        <time>2021-09-07T06:56:58.000Z</time>
      </trkpt>
      <trkpt lat="48.45512" lon="0.62565">
        <ele>148.709947</ele>
        <time>2021-09-07T06:57:02.000Z</time>
      </trkpt>
      <trkpt lat="48.45508" lon="0.6258">
        <ele>148.774776</ele>
        <time>2021-09-07T06:57:04.000Z</time>
      </trkpt>
      <trkpt lat="48.45502" lon="0.62594">
        <ele>148.844256</ele>
        <time>2021-09-07T06:57:06.000Z</time>
      </trkpt>
      <trkpt lat="48.45497" lon="0.62617">
        <ele>148.948157</ele>
        <time>2021-09-07T06:57:09.000Z</time>
      </trkpt>
      <trkpt lat="48.45482" lon="0.62664">
        <ele>149.122917</ele>
        <time>2021-09-07T06:57:15.000Z</time>
      </trkpt>
      <trkpt lat="48.4548" lon="0.62681">
        <ele>149.139372</ele>
        <time>2021-09-07T06:57:17.000Z</time>
      </trkpt>
      <trkpt lat="48.45474" lon="0.62696">
        <ele>149.156411</ele>
        <time>2021-09-07T06:57:19.000Z</time>
      </trkpt>
      <trkpt lat="48.45466" lon="0.62723">
        <ele>149.184808</ele>
        <time>2021-09-07T06:57:23.000Z</time>
      </trkpt>
      <trkpt lat="48.45461" lon="0.62741">
        <ele>149.204328</ele>
        <time>2021-09-07T06:57:26.000Z</time>
      </trkpt>
      <trkpt lat="48.45458" lon="0.62754">
        <ele>149.217706</ele>
        <time>2021-09-07T06:57:28.000Z</time>
      </trkpt>
      <trkpt lat="48.45456" lon="0.6276">
        <ele>149.224161</ele>
        <time>2021-09-07T06:57:29.000Z</time>
      </trkpt>
      <trkpt lat="48.45452" lon="0.62773">
        <ele>149.238792</ele>
        <time>2021-09-07T06:57:31.000Z</time>
      </trkpt>
      <trkpt lat="48.45442" lon="0.62804">
        <ele>149.271328</ele>
        <time>2021-09-07T06:57:35.000Z</time>
      </trkpt>
      <trkpt lat="48.45439" lon="0.62811">
        <ele>149.280196</ele>
        <time>2021-09-07T06:57:36.000Z</time>
      </trkpt>
      <trkpt lat="48.45434" lon="0.62828">
        <ele>149.297836</ele>
        <time>2021-09-07T06:57:38.000Z</time>
      </trkpt>
      <trkpt lat="48.4543" lon="0.62845">
        <ele>149.315508</ele>
        <time>2021-09-07T06:57:40.000Z</time>
      </trkpt>
      <trkpt lat="48.45414" lon="0.62889">
        <ele>149.364196</ele>
        <time>2021-09-07T06:57:45.000Z</time>
      </trkpt>
      <trkpt lat="48.45401" lon="0.62932">
        <ele>149.437593</ele>
        <time>2021-09-07T06:57:50.000Z</time>
      </trkpt>
      <trkpt lat="48.45396" lon="0.62948">
        <ele>149.466912</ele>
        <time>2021-09-07T06:57:52.000Z</time>
      </trkpt>
      <trkpt lat="48.45391" lon="0.62964">
        <ele>149.497677</ele>
        <time>2021-09-07T06:57:54.000Z</time>
      </trkpt>
      <trkpt lat="48.45383" lon="0.62991">
        <ele>149.548073</ele>
        <time>2021-09-07T06:57:57.000Z</time>
      </trkpt>
      <trkpt lat="48.45365" lon="0.63038">
        <ele>149.639598</ele>
        <time>2021-09-07T06:58:02.000Z</time>
      </trkpt>
      <trkpt lat="48.45337" lon="0.63103">
        <ele>149.772626</ele>
        <time>2021-09-07T06:58:09.000Z</time>
      </trkpt>
      <trkpt lat="48.45329" lon="0.6312">
        <ele>149.807232</ele>
        <time>2021-09-07T06:58:11.000Z</time>
      </trkpt>
      <trkpt lat="48.45321" lon="0.63138">
        <ele>149.81377</ele>
        <time>2021-09-07T06:58:13.000Z</time>
      </trkpt>
      <trkpt lat="48.45312" lon="0.63156">
        <ele>149.714783</ele>
        <time>2021-09-07T06:58:15.000Z</time>
      </trkpt>
      <trkpt lat="48.45303" lon="0.63175">
        <ele>149.612258</ele>
        <time>2021-09-07T06:58:17.000Z</time>
      </trkpt>
      <trkpt lat="48.45298" lon="0.63184">
        <ele>149.561844</ele>
        <time>2021-09-07T06:58:18.000Z</time>
      </trkpt>
      <trkpt lat="48.45264" lon="0.63245">
        <ele>149.205484</ele>
        <time>2021-09-07T06:58:25.000Z</time>
      </trkpt>
      <trkpt lat="48.45235" lon="0.63297">
        <ele>148.906148</ele>
        <time>2021-09-07T06:58:31.000Z</time>
      </trkpt>
      <trkpt lat="48.45206" lon="0.63349">
        <ele>148.579811</ele>
        <time>2021-09-07T06:58:37.000Z</time>
      </trkpt>
      <trkpt lat="48.45171" lon="0.63412">
        <ele>147.951925</ele>
        <time>2021-09-07T06:58:44.000Z</time>
      </trkpt>
      <trkpt lat="48.45157" lon="0.63439">
        <ele>147.689439</ele>
        <time>2021-09-07T06:58:47.000Z</time>
      </trkpt>
      <trkpt lat="48.45148" lon="0.63457">
        <ele>147.516912</ele>
        <time>2021-09-07T06:58:49.000Z</time>
      </trkpt>
      <trkpt lat="48.45118" lon="0.63511">
        <ele>146.978086</ele>
        <time>2021-09-07T06:58:55.000Z</time>
      </trkpt>
      <trkpt lat="48.45093" lon="0.63556">
        <ele>146.510058</ele>
        <time>2021-09-07T06:59:00.000Z</time>
      </trkpt>
      <trkpt lat="48.45058" lon="0.63619">
        <ele>145.623239</ele>
        <time>2021-09-07T06:59:07.000Z</time>
      </trkpt>
      <trkpt lat="48.45025" lon="0.63684">
        <ele>144.730466</ele>
        <time>2021-09-07T06:59:14.000Z</time>
      </trkpt>
      <trkpt lat="48.4502" lon="0.63694">
        <ele>144.605827</ele>
        <time>2021-09-07T06:59:15.000Z</time>
      </trkpt>
      <trkpt lat="48.45" lon="0.63742">
        <ele>143.987951</ele>
        <time>2021-09-07T06:59:20.000Z</time>
      </trkpt>
      <trkpt lat="48.44982" lon="0.63789">
        <ele>143.555366</ele>
        <time>2021-09-07T06:59:25.000Z</time>
      </trkpt>
      <trkpt lat="48.44979" lon="0.63798">
        <ele>143.521669</ele>
        <time>2021-09-07T06:59:26.000Z</time>
      </trkpt>
      <trkpt lat="48.44956" lon="0.63873">
        <ele>143.268629</ele>
        <time>2021-09-07T06:59:34.000Z</time>
      </trkpt>
      <trkpt lat="48.44955" lon="0.63891">
        <ele>143.215552</ele>
        <time>2021-09-07T06:59:36.000Z</time>
      </trkpt>
      <trkpt lat="48.44953" lon="0.639">
        <ele>143.186911</ele>
        <time>2021-09-07T06:59:37.000Z</time>
      </trkpt>
      <trkpt lat="48.44941" lon="0.63953">
        <ele>143.013319</ele>
        <time>2021-09-07T06:59:43.000Z</time>
      </trkpt>
      <trkpt lat="48.44938" lon="0.63972">
        <ele>142.955383</ele>
        <time>2021-09-07T06:59:45.000Z</time>
      </trkpt>
      <trkpt lat="48.44934" lon="0.63988">
        <ele>142.901529</ele>
        <time>2021-09-07T06:59:47.000Z</time>
      </trkpt>
      <trkpt lat="48.44932" lon="0.63997">
        <ele>142.873876</ele>
        <time>2021-09-07T06:59:48.000Z</time>
      </trkpt>
      <trkpt lat="48.44931" lon="0.64006">
        <ele>142.845036</ele>
        <time>2021-09-07T06:59:49.000Z</time>
      </trkpt>
      <trkpt lat="48.44928" lon="0.64021">
        <ele>142.796668</ele>
        <time>2021-09-07T06:59:51.000Z</time>
      </trkpt>
      <trkpt lat="48.44925" lon="0.64034">
        <ele>142.768906</ele>
        <time>2021-09-07T06:59:53.000Z</time>
      </trkpt>
      <trkpt lat="48.44923" lon="0.6404">
        <ele>142.758262</ele>
        <time>2021-09-07T06:59:54.000Z</time>
      </trkpt>
      <trkpt lat="48.44919" lon="0.64071">
        <ele>142.708465</ele>
        <time>2021-09-07T06:59:57.000Z</time>
      </trkpt>
      <trkpt lat="48.44917" lon="0.64093">
        <ele>142.673502</ele>
        <time>2021-09-07T06:59:59.000Z</time>
      </trkpt>
      <trkpt lat="48.44914" lon="0.64124">
        <ele>142.624225</ele>
        <time>2021-09-07T07:00:02.000Z</time>
      </trkpt>
      <trkpt lat="48.44913" lon="0.64133">
        <ele>142.60844</ele>
        <time>2021-09-07T07:00:03.000Z</time>
      </trkpt>
      <trkpt lat="48.44909" lon="0.64173">
        <ele>142.54532</ele>
        <time>2021-09-07T07:00:07.000Z</time>
      </trkpt>
      <trkpt lat="48.44906" lon="0.64202">
        <ele>142.497776</ele>
        <time>2021-09-07T07:00:10.000Z</time>
      </trkpt>
      <trkpt lat="48.44904" lon="0.64222">
        <ele>142.465456</ele>
        <time>2021-09-07T07:00:12.000Z</time>
      </trkpt>
      <trkpt lat="48.44901" lon="0.64298">
        <ele>142.366111</ele>
        <time>2021-09-07T07:00:20.000Z</time>
      </trkpt>
      <trkpt lat="48.449" lon="0.64315">
        <ele>142.405649</ele>
        <time>2021-09-07T07:00:22.000Z</time>
      </trkpt>
      <trkpt lat="48.44899" lon="0.64342">
        <ele>142.463599</ele>
        <time>2021-09-07T07:00:25.000Z</time>
      </trkpt>
      <trkpt lat="48.44899" lon="0.64368">
        <ele>142.522358</ele>
        <time>2021-09-07T07:00:28.000Z</time>
      </trkpt>
      <trkpt lat="48.449" lon="0.64384">
        <ele>142.558798</ele>
        <time>2021-09-07T07:00:30.000Z</time>
      </trkpt>
      <trkpt lat="48.44902" lon="0.6443">
        <ele>142.659044</ele>
        <time>2021-09-07T07:00:35.000Z</time>
      </trkpt>
      <trkpt lat="48.44903" lon="0.64438">
        <ele>142.679006</ele>
        <time>2021-09-07T07:00:36.000Z</time>
      </trkpt>
      <trkpt lat="48.44905" lon="0.64464">
        <ele>142.736288</ele>
        <time>2021-09-07T07:00:39.000Z</time>
      </trkpt>
      <trkpt lat="48.44905" lon="0.64472">
        <ele>142.753833</ele>
        <time>2021-09-07T07:00:40.000Z</time>
      </trkpt>
      <trkpt lat="48.4491" lon="0.64508">
        <ele>142.835436</ele>
        <time>2021-09-07T07:00:44.000Z</time>
      </trkpt>
      <trkpt lat="48.44917" lon="0.6456">
        <ele>142.953577</ele>
        <time>2021-09-07T07:00:50.000Z</time>
      </trkpt>
      <trkpt lat="48.44918" lon="0.64568">
        <ele>142.963434</ele>
        <time>2021-09-07T07:00:51.000Z</time>
      </trkpt>
      <trkpt lat="48.44923" lon="0.64596">
        <ele>142.995814</ele>
        <time>2021-09-07T07:00:54.000Z</time>
      </trkpt>
      <trkpt lat="48.44925" lon="0.64604">
        <ele>143.005375</ele>
        <time>2021-09-07T07:00:55.000Z</time>
      </trkpt>
      <trkpt lat="48.44927" lon="0.64613">
        <ele>143.015331</ele>
        <time>2021-09-07T07:00:56.000Z</time>
      </trkpt>
      <trkpt lat="48.44932" lon="0.64639">
        <ele>143.04648</ele>
        <time>2021-09-07T07:00:59.000Z</time>
      </trkpt>
      <trkpt lat="48.4494" lon="0.64677">
        <ele>143.090912</ele>
        <time>2021-09-07T07:01:03.000Z</time>
      </trkpt>
      <trkpt lat="48.44944" lon="0.64694">
        <ele>143.110992</ele>
        <time>2021-09-07T07:01:05.000Z</time>
      </trkpt>
      <trkpt lat="48.4495" lon="0.64721">
        <ele>143.142611</ele>
        <time>2021-09-07T07:01:08.000Z</time>
      </trkpt>
      <trkpt lat="48.44953" lon="0.64731">
        <ele>143.154483</ele>
        <time>2021-09-07T07:01:09.000Z</time>
      </trkpt>
      <trkpt lat="48.44963" lon="0.64765">
        <ele>143.195953</ele>
        <time>2021-09-07T07:01:12.000Z</time>
      </trkpt>
      <trkpt lat="48.44967" lon="0.64776">
        <ele>143.210603</ele>
        <time>2021-09-07T07:01:13.000Z</time>
      </trkpt>
      <trkpt lat="48.44989" lon="0.64837">
        <ele>143.094602</ele>
        <time>2021-09-07T07:01:19.000Z</time>
      </trkpt>
      <trkpt lat="48.44992" lon="0.64844">
        <ele>143.046924</ele>
        <time>2021-09-07T07:01:20.000Z</time>
      </trkpt>
      <trkpt lat="48.45003" lon="0.64865">
        <ele>142.885875</ele>
        <time>2021-09-07T07:01:23.000Z</time>
      </trkpt>
      <trkpt lat="48.45006" lon="0.64873">
        <ele>142.83104</ele>
        <time>2021-09-07T07:01:24.000Z</time>
      </trkpt>
      <trkpt lat="48.45014" lon="0.64898">
        <ele>142.657745</ele>
        <time>2021-09-07T07:01:27.000Z</time>
      </trkpt>
      <trkpt lat="48.4502" lon="0.64915">
        <ele>142.537353</ele>
        <time>2021-09-07T07:01:29.000Z</time>
      </trkpt>
      <trkpt lat="48.45031" lon="0.64942">
        <ele>142.347716</ele>
        <time>2021-09-07T07:01:32.000Z</time>
      </trkpt>
      <trkpt lat="48.45042" lon="0.6497">
        <ele>142.149795</ele>
        <time>2021-09-07T07:01:35.000Z</time>
      </trkpt>
      <trkpt lat="48.45048" lon="0.64988">
        <ele>142.027823</ele>
        <time>2021-09-07T07:01:37.000Z</time>
      </trkpt>
      <trkpt lat="48.45061" lon="0.65024">
        <ele>141.777125</ele>
        <time>2021-09-07T07:01:41.000Z</time>
      </trkpt>
      <trkpt lat="48.45064" lon="0.65034">
        <ele>141.712444</ele>
        <time>2021-09-07T07:01:42.000Z</time>
      </trkpt>
      <trkpt lat="48.45091" lon="0.65102">
        <ele>141.08711</ele>
        <time>2021-09-07T07:01:49.000Z</time>
      </trkpt>
      <trkpt lat="48.45105" lon="0.6514">
        <ele>140.722607</ele>
        <time>2021-09-07T07:01:53.000Z</time>
      </trkpt>
      <trkpt lat="48.45108" lon="0.65149">
        <ele>140.635523</ele>
        <time>2021-09-07T07:01:54.000Z</time>
      </trkpt>
      <trkpt lat="48.45114" lon="0.65167">
        <ele>140.466126</ele>
        <time>2021-09-07T07:01:56.000Z</time>
      </trkpt>
      <trkpt lat="48.45117" lon="0.65177">
        <ele>140.370962</ele>
        <time>2021-09-07T07:01:57.000Z</time>
      </trkpt>
      <trkpt lat="48.45128" lon="0.65207">
        <ele>140.078893</ele>
        <time>2021-09-07T07:02:00.000Z</time>
      </trkpt>
      <trkpt lat="48.45146" lon="0.65248">
        <ele>139.67416</ele>
        <time>2021-09-07T07:02:04.000Z</time>
      </trkpt>
      <trkpt lat="48.45172" lon="0.65316">
        <ele>139.089695</ele>
        <time>2021-09-07T07:02:11.000Z</time>
      </trkpt>
      <trkpt lat="48.45193" lon="0.65371">
        <ele>138.6989</ele>
        <time>2021-09-07T07:02:17.000Z</time>
      </trkpt>
      <trkpt lat="48.45217" lon="0.65432">
        <ele>138.255267</ele>
        <time>2021-09-07T07:02:24.000Z</time>
      </trkpt>
      <trkpt lat="48.45221" lon="0.65441">
        <ele>138.190456</ele>
        <time>2021-09-07T07:02:25.000Z</time>
      </trkpt>
      <trkpt lat="48.45231" lon="0.65467">
        <ele>138.003596</ele>
        <time>2021-09-07T07:02:28.000Z</time>
      </trkpt>
      <trkpt lat="48.45246" lon="0.65509">
        <ele>137.706146</ele>
        <time>2021-09-07T07:02:33.000Z</time>
      </trkpt>
      <trkpt lat="48.45248" lon="0.65517">
        <ele>137.652123</ele>
        <time>2021-09-07T07:02:34.000Z</time>
      </trkpt>
      <trkpt lat="48.45256" lon="0.6554">
        <ele>137.646195</ele>
        <time>2021-09-07T07:02:37.000Z</time>
      </trkpt>
      <trkpt lat="48.45261" lon="0.65556">
        <ele>137.650515</ele>
        <time>2021-09-07T07:02:39.000Z</time>
      </trkpt>
      <trkpt lat="48.45265" lon="0.65571">
        <ele>137.654483</ele>
        <time>2021-09-07T07:02:41.000Z</time>
      </trkpt>
      <trkpt lat="48.45267" lon="0.65578">
        <ele>137.656328</ele>
        <time>2021-09-07T07:02:42.000Z</time>
      </trkpt>
      <trkpt lat="48.45269" lon="0.65586">
        <ele>137.658453</ele>
        <time>2021-09-07T07:02:43.000Z</time>
      </trkpt>
      <trkpt lat="48.45274" lon="0.65602">
        <ele>137.662849</ele>
        <time>2021-09-07T07:02:45.000Z</time>
      </trkpt>
      <trkpt lat="48.45277" lon="0.6561">
        <ele>137.665074</ele>
        <time>2021-09-07T07:02:46.000Z</time>
      </trkpt>
      <trkpt lat="48.4528" lon="0.65618">
        <ele>137.667403</ele>
        <time>2021-09-07T07:02:47.000Z</time>
      </trkpt>
      <trkpt lat="48.45287" lon="0.65643">
        <ele>137.673981</ele>
        <time>2021-09-07T07:02:50.000Z</time>
      </trkpt>
      <trkpt lat="48.45291" lon="0.65658">
        <ele>137.67801</ele>
        <time>2021-09-07T07:02:52.000Z</time>
      </trkpt>
      <trkpt lat="48.45294" lon="0.65675">
        <ele>137.682213</ele>
        <time>2021-09-07T07:02:54.000Z</time>
      </trkpt>
      <trkpt lat="48.45305" lon="0.65727">
        <ele>137.695657</ele>
        <time>2021-09-07T07:03:00.000Z</time>
      </trkpt>
      <trkpt lat="48.45309" lon="0.65745">
        <ele>137.700257</ele>
        <time>2021-09-07T07:03:02.000Z</time>
      </trkpt>
      <trkpt lat="48.45319" lon="0.65797">
        <ele>137.724492</ele>
        <time>2021-09-07T07:03:08.000Z</time>
      </trkpt>
      <trkpt lat="48.45322" lon="0.65821">
        <ele>137.740097</ele>
        <time>2021-09-07T07:03:11.000Z</time>
      </trkpt>
      <trkpt lat="48.45324" lon="0.65837">
        <ele>137.750616</ele>
        <time>2021-09-07T07:03:13.000Z</time>
      </trkpt>
      <trkpt lat="48.45325" lon="0.65846">
        <ele>137.756294</ele>
        <time>2021-09-07T07:03:14.000Z</time>
      </trkpt>
      <trkpt lat="48.45329" lon="0.65883">
        <ele>137.780227</ele>
        <time>2021-09-07T07:03:18.000Z</time>
      </trkpt>
      <trkpt lat="48.45335" lon="0.65943">
        <ele>137.819045</ele>
        <time>2021-09-07T07:03:24.000Z</time>
      </trkpt>
      <trkpt lat="48.45338" lon="0.65989">
        <ele>137.848421</ele>
        <time>2021-09-07T07:03:29.000Z</time>
      </trkpt>
      <trkpt lat="48.4534" lon="0.66014">
        <ele>137.86454</ele>
        <time>2021-09-07T07:03:32.000Z</time>
      </trkpt>
      <trkpt lat="48.4534" lon="0.66024">
        <ele>137.870872</ele>
        <time>2021-09-07T07:03:33.000Z</time>
      </trkpt>
      <trkpt lat="48.45339" lon="0.6608">
        <ele>137.494135</ele>
        <time>2021-09-07T07:03:39.000Z</time>
      </trkpt>
      <trkpt lat="48.45336" lon="0.66108">
        <ele>137.237108</ele>
        <time>2021-09-07T07:03:43.000Z</time>
      </trkpt>
      <trkpt lat="48.45337" lon="0.66131">
        <ele>137.021744</ele>
        <time>2021-09-07T07:03:47.000Z</time>
      </trkpt>
      <trkpt lat="48.45336" lon="0.66138">
        <ele>136.955432</ele>
        <time>2021-09-07T07:03:48.000Z</time>
      </trkpt>
      <trkpt lat="48.45333" lon="0.66172">
        <ele>136.636869</ele>
        <time>2021-09-07T07:03:53.000Z</time>
      </trkpt>
      <trkpt lat="48.4533" lon="0.66203">
        <ele>136.354043</ele>
        <time>2021-09-07T07:03:57.000Z</time>
      </trkpt>
      <trkpt lat="48.4533" lon="0.66211">
        <ele>136.276243</ele>
        <time>2021-09-07T07:03:58.000Z</time>
      </trkpt>
      <trkpt lat="48.45326" lon="0.66249">
        <ele>135.924875</ele>
        <time>2021-09-07T07:04:02.000Z</time>
      </trkpt>
      <trkpt lat="48.45325" lon="0.66258">
        <ele>135.832534</ele>
        <time>2021-09-07T07:04:03.000Z</time>
      </trkpt>
      <trkpt lat="48.45323" lon="0.66267">
        <ele>135.749245</ele>
        <time>2021-09-07T07:04:04.000Z</time>
      </trkpt>
      <trkpt lat="48.4532" lon="0.66295">
        <ele>135.487431</ele>
        <time>2021-09-07T07:04:07.000Z</time>
      </trkpt>
      <trkpt lat="48.45315" lon="0.66332">
        <ele>135.187692</ele>
        <time>2021-09-07T07:04:11.000Z</time>
      </trkpt>
      <trkpt lat="48.45314" lon="0.66342">
        <ele>135.118526</ele>
        <time>2021-09-07T07:04:12.000Z</time>
      </trkpt>
      <trkpt lat="48.45306" lon="0.66398">
        <ele>134.700437</ele>
        <time>2021-09-07T07:04:18.000Z</time>
      </trkpt>
      <trkpt lat="48.453" lon="0.66442">
        <ele>134.377785</ele>
        <time>2021-09-07T07:04:23.000Z</time>
      </trkpt>
      <trkpt lat="48.45292" lon="0.66498">
        <ele>133.954509</ele>
        <time>2021-09-07T07:04:29.000Z</time>
      </trkpt>
      <trkpt lat="48.45287" lon="0.66531">
        <ele>133.711894</ele>
        <time>2021-09-07T07:04:33.000Z</time>
      </trkpt>
      <trkpt lat="48.45286" lon="0.66539">
        <ele>133.655566</ele>
        <time>2021-09-07T07:04:34.000Z</time>
      </trkpt>
      <trkpt lat="48.45285" lon="0.66547">
        <ele>133.596684</ele>
        <time>2021-09-07T07:04:35.000Z</time>
      </trkpt>
      <trkpt lat="48.45282" lon="0.66572">
        <ele>133.406567</ele>
        <time>2021-09-07T07:04:38.000Z</time>
      </trkpt>
      <trkpt lat="48.45271" lon="0.66651">
        <ele>133.196304</ele>
        <time>2021-09-07T07:04:47.000Z</time>
      </trkpt>
      <trkpt lat="48.45261" lon="0.66721">
        <ele>133.012647</ele>
        <time>2021-09-07T07:04:55.000Z</time>
      </trkpt>
      <trkpt lat="48.4526" lon="0.6673">
        <ele>132.989642</ele>
        <time>2021-09-07T07:04:56.000Z</time>
      </trkpt>
      <trkpt lat="48.45259" lon="0.66739">
        <ele>132.966595</ele>
        <time>2021-09-07T07:04:57.000Z</time>
      </trkpt>
      <trkpt lat="48.45256" lon="0.66764">
        <ele>132.900579</ele>
        <time>2021-09-07T07:05:00.000Z</time>
      </trkpt>
      <trkpt lat="48.45249" lon="0.66812">
        <ele>132.773303</ele>
        <time>2021-09-07T07:05:06.000Z</time>
      </trkpt>
      <trkpt lat="48.45238" lon="0.66862">
        <ele>132.783844</ele>
        <time>2021-09-07T07:05:12.000Z</time>
      </trkpt>
      <trkpt lat="48.45224" lon="0.6691">
        <ele>132.943995</ele>
        <time>2021-09-07T07:05:18.000Z</time>
      </trkpt>
      <trkpt lat="48.45219" lon="0.66927">
        <ele>132.998621</ele>
        <time>2021-09-07T07:05:20.000Z</time>
      </trkpt>
      <trkpt lat="48.45214" lon="0.66942">
        <ele>133.051871</ele>
        <time>2021-09-07T07:05:22.000Z</time>
      </trkpt>
      <trkpt lat="48.45202" lon="0.66982">
        <ele>133.182067</ele>
        <time>2021-09-07T07:05:27.000Z</time>
      </trkpt>
      <trkpt lat="48.45198" lon="0.66995">
        <ele>133.226857</ele>
        <time>2021-09-07T07:05:29.000Z</time>
      </trkpt>
      <trkpt lat="48.45192" lon="0.67016">
        <ele>133.296592</ele>
        <time>2021-09-07T07:05:32.000Z</time>
      </trkpt>
      <trkpt lat="48.4519" lon="0.67023">
        <ele>133.320728</ele>
        <time>2021-09-07T07:05:33.000Z</time>
      </trkpt>
      <trkpt lat="48.45186" lon="0.67037">
        <ele>133.367002</ele>
        <time>2021-09-07T07:05:35.000Z</time>
      </trkpt>
      <trkpt lat="48.45184" lon="0.67045">
        <ele>133.392161</ele>
        <time>2021-09-07T07:05:36.000Z</time>
      </trkpt>
      <trkpt lat="48.45173" lon="0.67075">
        <ele>133.494976</ele>
        <time>2021-09-07T07:05:40.000Z</time>
      </trkpt>
      <trkpt lat="48.4517" lon="0.67088">
        <ele>133.535215</ele>
        <time>2021-09-07T07:05:42.000Z</time>
      </trkpt>
      <trkpt lat="48.45165" lon="0.67109">
        <ele>133.576346</ele>
        <time>2021-09-07T07:05:45.000Z</time>
      </trkpt>
      <trkpt lat="48.45164" lon="0.67116">
        <ele>133.588829</ele>
        <time>2021-09-07T07:05:46.000Z</time>
      </trkpt>
      <trkpt lat="48.45163" lon="0.67122">
        <ele>133.599944</ele>
        <time>2021-09-07T07:05:47.000Z</time>
      </trkpt>
      <trkpt lat="48.45159" lon="0.67133">
        <ele>133.624313</ele>
        <time>2021-09-07T07:05:49.000Z</time>
      </trkpt>
      <trkpt lat="48.45146" lon="0.67181">
        <ele>133.718748</ele>
        <time>2021-09-07T07:05:55.000Z</time>
      </trkpt>
      <trkpt lat="48.45141" lon="0.67207">
        <ele>133.769096</ele>
        <time>2021-09-07T07:05:58.000Z</time>
      </trkpt>
      <trkpt lat="48.45137" lon="0.67233">
        <ele>133.818131</ele>
        <time>2021-09-07T07:06:01.000Z</time>
      </trkpt>
      <trkpt lat="48.45133" lon="0.67259">
        <ele>133.867412</ele>
        <time>2021-09-07T07:06:04.000Z</time>
      </trkpt>
      <trkpt lat="48.45133" lon="0.67269">
        <ele>133.885221</ele>
        <time>2021-09-07T07:06:05.000Z</time>
      </trkpt>
      <trkpt lat="48.45131" lon="0.67288">
        <ele>133.920469</ele>
        <time>2021-09-07T07:06:07.000Z</time>
      </trkpt>
      <trkpt lat="48.45129" lon="0.67307">
        <ele>133.956085</ele>
        <time>2021-09-07T07:06:09.000Z</time>
      </trkpt>
      <trkpt lat="48.45128" lon="0.67356">
        <ele>134.04179</ele>
        <time>2021-09-07T07:06:14.000Z</time>
      </trkpt>
      <trkpt lat="48.45128" lon="0.67385">
        <ele>134.080118</ele>
        <time>2021-09-07T07:06:17.000Z</time>
      </trkpt>
      <trkpt lat="48.45129" lon="0.67405">
        <ele>134.105702</ele>
        <time>2021-09-07T07:06:19.000Z</time>
      </trkpt>
      <trkpt lat="48.4513" lon="0.67425">
        <ele>134.132244</ele>
        <time>2021-09-07T07:06:21.000Z</time>
      </trkpt>
      <trkpt lat="48.45133" lon="0.67454">
        <ele>134.170835</ele>
        <time>2021-09-07T07:06:24.000Z</time>
      </trkpt>
      <trkpt lat="48.45138" lon="0.67492">
        <ele>134.222792</ele>
        <time>2021-09-07T07:06:28.000Z</time>
      </trkpt>
      <trkpt lat="48.45141" lon="0.67512">
        <ele>134.24896</ele>
        <time>2021-09-07T07:06:30.000Z</time>
      </trkpt>
      <trkpt lat="48.4515" lon="0.67559">
        <ele>134.313434</ele>
        <time>2021-09-07T07:06:35.000Z</time>
      </trkpt>
      <trkpt lat="48.45168" lon="0.67644">
        <ele>134.243148</ele>
        <time>2021-09-07T07:06:44.000Z</time>
      </trkpt>
      <trkpt lat="48.45178" lon="0.67699">
        <ele>134.005801</ele>
        <time>2021-09-07T07:06:50.000Z</time>
      </trkpt>
      <trkpt lat="48.45189" lon="0.67754">
        <ele>133.765894</ele>
        <time>2021-09-07T07:06:56.000Z</time>
      </trkpt>
      <trkpt lat="48.45191" lon="0.67763">
        <ele>133.725868</ele>
        <time>2021-09-07T07:06:57.000Z</time>
      </trkpt>
      <trkpt lat="48.45203" lon="0.67818">
        <ele>133.482848</ele>
        <time>2021-09-07T07:07:03.000Z</time>
      </trkpt>
      <trkpt lat="48.45214" lon="0.67874">
        <ele>133.236577</ele>
        <time>2021-09-07T07:07:09.000Z</time>
      </trkpt>
      <trkpt lat="48.45227" lon="0.67941">
        <ele>132.854383</ele>
        <time>2021-09-07T07:07:16.000Z</time>
      </trkpt>
      <trkpt lat="48.45237" lon="0.67995">
        <ele>132.545805</ele>
        <time>2021-09-07T07:07:22.000Z</time>
      </trkpt>
      <trkpt lat="48.45247" lon="0.68052">
        <ele>132.226951</ele>
        <time>2021-09-07T07:07:28.000Z</time>
      </trkpt>
      <trkpt lat="48.45253" lon="0.68088">
        <ele>132.024835</ele>
        <time>2021-09-07T07:07:32.000Z</time>
      </trkpt>
      <trkpt lat="48.45254" lon="0.68097">
        <ele>131.976258</ele>
        <time>2021-09-07T07:07:33.000Z</time>
      </trkpt>
      <trkpt lat="48.45264" lon="0.68143">
        <ele>131.849854</ele>
        <time>2021-09-07T07:07:38.000Z</time>
      </trkpt>
      <trkpt lat="48.45267" lon="0.68169">
        <ele>132.018378</ele>
        <time>2021-09-07T07:07:41.000Z</time>
      </trkpt>
      <trkpt lat="48.45271" lon="0.68187">
        <ele>132.13944</ele>
        <time>2021-09-07T07:07:43.000Z</time>
      </trkpt>
      <trkpt lat="48.45274" lon="0.68205">
        <ele>132.256357</ele>
        <time>2021-09-07T07:07:45.000Z</time>
      </trkpt>
      <trkpt lat="48.45278" lon="0.68222">
        <ele>132.377459</ele>
        <time>2021-09-07T07:07:47.000Z</time>
      </trkpt>
      <trkpt lat="48.45285" lon="0.68249">
        <ele>132.560114</ele>
        <time>2021-09-07T07:07:50.000Z</time>
      </trkpt>
      <trkpt lat="48.45291" lon="0.68278">
        <ele>132.754433</ele>
        <time>2021-09-07T07:07:53.000Z</time>
      </trkpt>
      <trkpt lat="48.45296" lon="0.68326">
        <ele>133.06777</ele>
        <time>2021-09-07T07:07:58.000Z</time>
      </trkpt>
      <trkpt lat="48.45299" lon="0.68356">
        <ele>133.26372</ele>
        <time>2021-09-07T07:08:01.000Z</time>
      </trkpt>
      <trkpt lat="48.45301" lon="0.68376">
        <ele>133.3929</ele>
        <time>2021-09-07T07:08:03.000Z</time>
      </trkpt>
      <trkpt lat="48.45306" lon="0.68434">
        <ele>133.308291</ele>
        <time>2021-09-07T07:08:09.000Z</time>
      </trkpt>
      <trkpt lat="48.45308" lon="0.68502">
        <ele>132.950308</ele>
        <time>2021-09-07T07:08:16.000Z</time>
      </trkpt>
      <trkpt lat="48.45307" lon="0.68548">
        <ele>132.714585</ele>
        <time>2021-09-07T07:08:21.000Z</time>
      </trkpt>
      <trkpt lat="48.45304" lon="0.68604">
        <ele>132.420755</ele>
        <time>2021-09-07T07:08:27.000Z</time>
      </trkpt>
      <trkpt lat="48.45303" lon="0.68613">
        <ele>132.374945</ele>
        <time>2021-09-07T07:08:28.000Z</time>
      </trkpt>
      <trkpt lat="48.45301" lon="0.68642">
        <ele>132.223369</ele>
        <time>2021-09-07T07:08:31.000Z</time>
      </trkpt>
      <trkpt lat="48.45297" lon="0.68681">
        <ele>131.936776</ele>
        <time>2021-09-07T07:08:35.000Z</time>
      </trkpt>
      <trkpt lat="48.45295" lon="0.68699">
        <ele>131.756438</ele>
        <time>2021-09-07T07:08:37.000Z</time>
      </trkpt>
      <trkpt lat="48.45294" lon="0.68707">
        <ele>131.673774</ele>
        <time>2021-09-07T07:08:38.000Z</time>
      </trkpt>
      <trkpt lat="48.4529" lon="0.68744">
        <ele>131.294976</ele>
        <time>2021-09-07T07:08:42.000Z</time>
      </trkpt>
      <trkpt lat="48.4528" lon="0.68798">
        <ele>130.735208</ele>
        <time>2021-09-07T07:08:48.000Z</time>
      </trkpt>
      <trkpt lat="48.45273" lon="0.68833">
        <ele>130.371223</ele>
        <time>2021-09-07T07:08:52.000Z</time>
      </trkpt>
      <trkpt lat="48.45263" lon="0.68875">
        <ele>129.928973</ele>
        <time>2021-09-07T07:08:57.000Z</time>
      </trkpt>
      <trkpt lat="48.45261" lon="0.68884">
        <ele>129.836258</ele>
        <time>2021-09-07T07:08:58.000Z</time>
      </trkpt>
      <trkpt lat="48.45247" lon="0.68934">
        <ele>129.377969</ele>
        <time>2021-09-07T07:09:04.000Z</time>
      </trkpt>
      <trkpt lat="48.45243" lon="0.6895">
        <ele>129.356268</ele>
        <time>2021-09-07T07:09:06.000Z</time>
      </trkpt>
      <trkpt lat="48.45234" lon="0.68985">
        <ele>129.308954</ele>
        <time>2021-09-07T07:09:10.000Z</time>
      </trkpt>
      <trkpt lat="48.45217" lon="0.69045">
        <ele>129.226408</ele>
        <time>2021-09-07T07:09:17.000Z</time>
      </trkpt>
      <trkpt lat="48.45207" lon="0.69079">
        <ele>129.179959</ele>
        <time>2021-09-07T07:09:21.000Z</time>
      </trkpt>
      <trkpt lat="48.45205" lon="0.69088">
        <ele>129.168035</ele>
        <time>2021-09-07T07:09:22.000Z</time>
      </trkpt>
      <trkpt lat="48.45192" lon="0.69138">
        <ele>129.100177</ele>
        <time>2021-09-07T07:09:28.000Z</time>
      </trkpt>
      <trkpt lat="48.4518" lon="0.69178">
        <ele>129.059019</ele>
        <time>2021-09-07T07:09:33.000Z</time>
      </trkpt>
      <trkpt lat="48.4517" lon="0.69218">
        <ele>129.225535</ele>
        <time>2021-09-07T07:09:38.000Z</time>
      </trkpt>
      <trkpt lat="48.45165" lon="0.69234">
        <ele>129.292309</ele>
        <time>2021-09-07T07:09:40.000Z</time>
      </trkpt>
      <trkpt lat="48.45159" lon="0.69258">
        <ele>129.389735</ele>
        <time>2021-09-07T07:09:43.000Z</time>
      </trkpt>
      <trkpt lat="48.45153" lon="0.6928">
        <ele>129.483205</ele>
        <time>2021-09-07T07:09:46.000Z</time>
      </trkpt>
      <trkpt lat="48.45148" lon="0.69296">
        <ele>129.550443</ele>
        <time>2021-09-07T07:09:48.000Z</time>
      </trkpt>
      <trkpt lat="48.45134" lon="0.69342">
        <ele>129.747081</ele>
        <time>2021-09-07T07:09:54.000Z</time>
      </trkpt>
      <trkpt lat="48.45132" lon="0.6935">
        <ele>129.780584</ele>
        <time>2021-09-07T07:09:55.000Z</time>
      </trkpt>
      <trkpt lat="48.45122" lon="0.69385">
        <ele>129.925145</ele>
        <time>2021-09-07T07:09:59.000Z</time>
      </trkpt>
      <trkpt lat="48.45114" lon="0.69417">
        <ele>130.05783</ele>
        <time>2021-09-07T07:10:03.000Z</time>
      </trkpt>
      <trkpt lat="48.451" lon="0.69468">
        <ele>130.219619</ele>
        <time>2021-09-07T07:10:09.000Z</time>
      </trkpt>
      <trkpt lat="48.45087" lon="0.69519">
        <ele>130.372472</ele>
        <time>2021-09-07T07:10:15.000Z</time>
      </trkpt>
      <trkpt lat="48.45077" lon="0.69554">
        <ele>130.47594</ele>
        <time>2021-09-07T07:10:19.000Z</time>
      </trkpt>
      <trkpt lat="48.45076" lon="0.69563">
        <ele>130.501427</ele>
        <time>2021-09-07T07:10:20.000Z</time>
      </trkpt>
      <trkpt lat="48.45061" lon="0.69614">
        <ele>130.656432</ele>
        <time>2021-09-07T07:10:26.000Z</time>
      </trkpt>
      <trkpt lat="48.45049" lon="0.69653">
        <ele>130.775381</ele>
        <time>2021-09-07T07:10:31.000Z</time>
      </trkpt>
      <trkpt lat="48.45047" lon="0.69661">
        <ele>130.800155</ele>
        <time>2021-09-07T07:10:32.000Z</time>
      </trkpt>
      <trkpt lat="48.4503" lon="0.69717">
        <ele>130.867657</ele>
        <time>2021-09-07T07:10:39.000Z</time>
      </trkpt>
      <trkpt lat="48.45013" lon="0.69764">
        <ele>130.894383</ele>
        <time>2021-09-07T07:10:45.000Z</time>
      </trkpt>
      <trkpt lat="48.45005" lon="0.69783">
        <ele>130.905507</ele>
        <time>2021-09-07T07:10:48.000Z</time>
      </trkpt>
      <trkpt lat="48.44991" lon="0.69813">
        <ele>130.923676</ele>
        <time>2021-09-07T07:10:52.000Z</time>
      </trkpt>
      <trkpt lat="48.44987" lon="0.69821">
        <ele>130.928396</ele>
        <time>2021-09-07T07:10:53.000Z</time>
      </trkpt>
      <trkpt lat="48.44969" lon="0.69851">
        <ele>130.948555</ele>
        <time>2021-09-07T07:10:57.000Z</time>
      </trkpt>
      <trkpt lat="48.44938" lon="0.69894">
        <ele>130.971828</ele>
        <time>2021-09-07T07:11:03.000Z</time>
      </trkpt>
      <trkpt lat="48.44924" lon="0.69911">
        <ele>130.771609</ele>
        <time>2021-09-07T07:11:06.000Z</time>
      </trkpt>
      <trkpt lat="48.44914" lon="0.69921">
        <ele>130.646085</ele>
        <time>2021-09-07T07:11:08.000Z</time>
      </trkpt>
      <trkpt lat="48.44888" lon="0.69946">
        <ele>130.31232</ele>
        <time>2021-09-07T07:11:13.000Z</time>
      </trkpt>
      <trkpt lat="48.44869" lon="0.69965">
        <ele>130.059836</ele>
        <time>2021-09-07T07:11:17.000Z</time>
      </trkpt>
      <trkpt lat="48.44864" lon="0.6997">
        <ele>129.996772</ele>
        <time>2021-09-07T07:11:18.000Z</time>
      </trkpt>
      <trkpt lat="48.44859" lon="0.69974">
        <ele>129.935568</ele>
        <time>2021-09-07T07:11:19.000Z</time>
      </trkpt>
      <trkpt lat="48.4485" lon="0.69984">
        <ele>129.81164</ele>
        <time>2021-09-07T07:11:21.000Z</time>
      </trkpt>
      <trkpt lat="48.44844" lon="0.69988">
        <ele>129.742426</ele>
        <time>2021-09-07T07:11:22.000Z</time>
      </trkpt>
      <trkpt lat="48.44826" lon="0.7">
        <ele>129.534971</ele>
        <time>2021-09-07T07:11:25.000Z</time>
      </trkpt>
      <trkpt lat="48.44821" lon="0.70003">
        <ele>129.471741</ele>
        <time>2021-09-07T07:11:26.000Z</time>
      </trkpt>
      <trkpt lat="48.44795" lon="0.7002">
        <ele>129.162048</ele>
        <time>2021-09-07T07:11:31.000Z</time>
      </trkpt>
      <trkpt lat="48.44784" lon="0.70027">
        <ele>129.036465</ele>
        <time>2021-09-07T07:11:33.000Z</time>
      </trkpt>
      <trkpt lat="48.44773" lon="0.70033">
        <ele>128.85782</ele>
        <time>2021-09-07T07:11:35.000Z</time>
      </trkpt>
      <trkpt lat="48.44769" lon="0.70035">
        <ele>128.776801</ele>
        <time>2021-09-07T07:11:36.000Z</time>
      </trkpt>
      <trkpt lat="48.44763" lon="0.70035">
        <ele>128.694267</ele>
        <time>2021-09-07T07:11:37.000Z</time>
      </trkpt>
      <trkpt lat="48.44753" lon="0.70037">
        <ele>128.531498</ele>
        <time>2021-09-07T07:11:39.000Z</time>
      </trkpt>
      <trkpt lat="48.44749" lon="0.70038">
        <ele>128.452107</ele>
        <time>2021-09-07T07:11:40.000Z</time>
      </trkpt>
      <trkpt lat="48.4472" lon="0.70046">
        <ele>127.98375</ele>
        <time>2021-09-07T07:11:45.000Z</time>
      </trkpt>
      <trkpt lat="48.44709" lon="0.7005">
        <ele>127.798357</ele>
        <time>2021-09-07T07:11:47.000Z</time>
      </trkpt>
      <trkpt lat="48.44691" lon="0.70054">
        <ele>127.504212</ele>
        <time>2021-09-07T07:11:50.000Z</time>
      </trkpt>
      <trkpt lat="48.44653" lon="0.7006">
        <ele>126.893725</ele>
        <time>2021-09-07T07:11:56.000Z</time>
      </trkpt>
      <trkpt lat="48.44642" lon="0.70059">
        <ele>126.711086</ele>
        <time>2021-09-07T07:11:58.000Z</time>
      </trkpt>
      <trkpt lat="48.44625" lon="0.70062">
        <ele>126.432034</ele>
        <time>2021-09-07T07:12:01.000Z</time>
      </trkpt>
      <trkpt lat="48.44601" lon="0.70063">
        <ele>126.074792</ele>
        <time>2021-09-07T07:12:05.000Z</time>
      </trkpt>
      <trkpt lat="48.44595" lon="0.70064">
        <ele>126.017498</ele>
        <time>2021-09-07T07:12:06.000Z</time>
      </trkpt>
      <trkpt lat="48.44589" lon="0.70065">
        <ele>125.959055</ele>
        <time>2021-09-07T07:12:07.000Z</time>
      </trkpt>
      <trkpt lat="48.44565" lon="0.70067">
        <ele>125.711553</ele>
        <time>2021-09-07T07:12:11.000Z</time>
      </trkpt>
      <trkpt lat="48.44528" lon="0.70077">
        <ele>125.33383</ele>
        <time>2021-09-07T07:12:17.000Z</time>
      </trkpt>
      <trkpt lat="48.44522" lon="0.70078">
        <ele>125.273095</ele>
        <time>2021-09-07T07:12:18.000Z</time>
      </trkpt>
      <trkpt lat="48.44491" lon="0.70086">
        <ele>124.95815</ele>
        <time>2021-09-07T07:12:23.000Z</time>
      </trkpt>
      <trkpt lat="48.44484" lon="0.70088">
        <ele>124.891462</ele>
        <time>2021-09-07T07:12:24.000Z</time>
      </trkpt>
      <trkpt lat="48.44466" lon="0.70095">
        <ele>124.699738</ele>
        <time>2021-09-07T07:12:27.000Z</time>
      </trkpt>
      <trkpt lat="48.44454" lon="0.70099">
        <ele>124.575362</ele>
        <time>2021-09-07T07:12:29.000Z</time>
      </trkpt>
      <trkpt lat="48.44429" lon="0.70109">
        <ele>124.324537</ele>
        <time>2021-09-07T07:12:33.000Z</time>
      </trkpt>
      <trkpt lat="48.44412" lon="0.70117">
        <ele>124.19372</ele>
        <time>2021-09-07T07:12:36.000Z</time>
      </trkpt>
      <trkpt lat="48.444" lon="0.70123">
        <ele>124.108707</ele>
        <time>2021-09-07T07:12:38.000Z</time>
      </trkpt>
      <trkpt lat="48.44371" lon="0.70141">
        <ele>123.891574</ele>
        <time>2021-09-07T07:12:43.000Z</time>
      </trkpt>
      <trkpt lat="48.44359" lon="0.70148">
        <ele>123.808211</ele>
        <time>2021-09-07T07:12:45.000Z</time>
      </trkpt>
      <trkpt lat="48.44343" lon="0.70158">
        <ele>123.684602</ele>
        <time>2021-09-07T07:12:48.000Z</time>
      </trkpt>
      <trkpt lat="48.44302" lon="0.70188">
        <ele>123.374609</ele>
        <time>2021-09-07T07:12:55.000Z</time>
      </trkpt>
      <trkpt lat="48.4427" lon="0.70214">
        <ele>123.122942</ele>
        <time>2021-09-07T07:13:01.000Z</time>
      </trkpt>
      <trkpt lat="48.44242" lon="0.70241">
        <ele>123.164793</ele>
        <time>2021-09-07T07:13:07.000Z</time>
      </trkpt>
      <trkpt lat="48.44237" lon="0.70246">
        <ele>123.184115</ele>
        <time>2021-09-07T07:13:08.000Z</time>
      </trkpt>
      <trkpt lat="48.44215" lon="0.7027">
        <ele>123.267349</ele>
        <time>2021-09-07T07:13:12.000Z</time>
      </trkpt>
      <trkpt lat="48.44195" lon="0.70292">
        <ele>123.344519</ele>
        <time>2021-09-07T07:13:16.000Z</time>
      </trkpt>
      <trkpt lat="48.4418" lon="0.7031">
        <ele>123.403978</ele>
        <time>2021-09-07T07:13:19.000Z</time>
      </trkpt>
      <trkpt lat="48.44176" lon="0.70316">
        <ele>123.421948</ele>
        <time>2021-09-07T07:13:20.000Z</time>
      </trkpt>
      <trkpt lat="48.44156" lon="0.7034">
        <ele>123.500296</ele>
        <time>2021-09-07T07:13:24.000Z</time>
      </trkpt>
      <trkpt lat="48.44146" lon="0.70351">
        <ele>123.538568</ele>
        <time>2021-09-07T07:13:26.000Z</time>
      </trkpt>
      <trkpt lat="48.44118" lon="0.70388">
        <ele>123.65473</ele>
        <time>2021-09-07T07:13:32.000Z</time>
      </trkpt>
      <trkpt lat="48.44096" lon="0.70418">
        <ele>123.754734</ele>
        <time>2021-09-07T07:13:37.000Z</time>
      </trkpt>
      <trkpt lat="48.44071" lon="0.70453">
        <ele>123.868208</ele>
        <time>2021-09-07T07:13:43.000Z</time>
      </trkpt>
      <trkpt lat="48.44048" lon="0.70481">
        <ele>123.966263</ele>
        <time>2021-09-07T07:13:48.000Z</time>
      </trkpt>
      <trkpt lat="48.44026" lon="0.70511">
        <ele>124.064439</ele>
        <time>2021-09-07T07:13:53.000Z</time>
      </trkpt>
      <trkpt lat="48.43994" lon="0.70556">
        <ele>124.208534</ele>
        <time>2021-09-07T07:14:00.000Z</time>
      </trkpt>
      <trkpt lat="48.43967" lon="0.70593">
        <ele>124.460865</ele>
        <time>2021-09-07T07:14:06.000Z</time>
      </trkpt>
      <trkpt lat="48.43955" lon="0.70611">
        <ele>124.59443</ele>
        <time>2021-09-07T07:14:09.000Z</time>
      </trkpt>
      <trkpt lat="48.43948" lon="0.70617">
        <ele>124.656528</ele>
        <time>2021-09-07T07:14:11.000Z</time>
      </trkpt>
      <trkpt lat="48.43937" lon="0.70631">
        <ele>124.769457</ele>
        <time>2021-09-07T07:14:15.000Z</time>
      </trkpt>
      <trkpt lat="48.43915" lon="0.70664">
        <ele>125.019792</ele>
        <time>2021-09-07T07:14:21.000Z</time>
      </trkpt>
      <trkpt lat="48.43907" lon="0.70677">
        <ele>125.11007</ele>
        <time>2021-09-07T07:14:23.000Z</time>
      </trkpt>
      <trkpt lat="48.43896" lon="0.70696">
        <ele>125.243317</ele>
        <time>2021-09-07T07:14:26.000Z</time>
      </trkpt>
      <trkpt lat="48.43881" lon="0.70722">
        <ele>125.422831</ele>
        <time>2021-09-07T07:14:30.000Z</time>
      </trkpt>
      <trkpt lat="48.43853" lon="0.7077">
        <ele>125.744617</ele>
        <time>2021-09-07T07:14:37.000Z</time>
      </trkpt>
      <trkpt lat="48.43846" lon="0.70784">
        <ele>125.821816</ele>
        <time>2021-09-07T07:14:39.000Z</time>
      </trkpt>
      <trkpt lat="48.43839" lon="0.70798">
        <ele>125.899678</ele>
        <time>2021-09-07T07:14:41.000Z</time>
      </trkpt>
      <trkpt lat="48.43817" lon="0.70842">
        <ele>126.1409</ele>
        <time>2021-09-07T07:14:47.000Z</time>
      </trkpt>
      <trkpt lat="48.43792" lon="0.70895">
        <ele>126.426663</ele>
        <time>2021-09-07T07:14:54.000Z</time>
      </trkpt>
      <trkpt lat="48.43775" lon="0.70934">
        <ele>126.629429</ele>
        <time>2021-09-07T07:14:59.000Z</time>
      </trkpt>
      <trkpt lat="48.43754" lon="0.70991">
        <ele>126.853882</ele>
        <time>2021-09-07T07:15:06.000Z</time>
      </trkpt>
      <trkpt lat="48.43737" lon="0.71039">
        <ele>126.868454</ele>
        <time>2021-09-07T07:15:12.000Z</time>
      </trkpt>
      <trkpt lat="48.43722" lon="0.71086">
        <ele>126.882536</ele>
        <time>2021-09-07T07:15:18.000Z</time>
      </trkpt>
      <trkpt lat="48.43708" lon="0.71136">
        <ele>126.897116</ele>
        <time>2021-09-07T07:15:24.000Z</time>
      </trkpt>
      <trkpt lat="48.43695" lon="0.71188">
        <ele>126.911974</ele>
        <time>2021-09-07T07:15:30.000Z</time>
      </trkpt>
      <trkpt lat="48.43686" lon="0.71228">
        <ele>126.914109</ele>
        <time>2021-09-07T07:15:35.000Z</time>
      </trkpt>
      <trkpt lat="48.4368" lon="0.71254">
        <ele>126.843029</ele>
        <time>2021-09-07T07:15:38.000Z</time>
      </trkpt>
      <trkpt lat="48.43676" lon="0.71279">
        <ele>126.774898</ele>
        <time>2021-09-07T07:15:41.000Z</time>
      </trkpt>
      <trkpt lat="48.43668" lon="0.71332">
        <ele>126.628732</ele>
        <time>2021-09-07T07:15:47.000Z</time>
      </trkpt>
      <trkpt lat="48.43667" lon="0.71341">
        <ele>126.604168</ele>
        <time>2021-09-07T07:15:48.000Z</time>
      </trkpt>
      <trkpt lat="48.43666" lon="0.7135">
        <ele>126.58143</ele>
        <time>2021-09-07T07:15:49.000Z</time>
      </trkpt>
      <trkpt lat="48.43662" lon="0.71376">
        <ele>126.510814</ele>
        <time>2021-09-07T07:15:52.000Z</time>
      </trkpt>
      <trkpt lat="48.43656" lon="0.7142">
        <ele>126.391864</ele>
        <time>2021-09-07T07:15:57.000Z</time>
      </trkpt>
      <trkpt lat="48.43654" lon="0.71437">
        <ele>126.344302</ele>
        <time>2021-09-07T07:15:59.000Z</time>
      </trkpt>
      <trkpt lat="48.43651" lon="0.71455">
        <ele>126.296926</ele>
        <time>2021-09-07T07:16:01.000Z</time>
      </trkpt>
      <trkpt lat="48.43647" lon="0.71488">
        <ele>126.207718</ele>
        <time>2021-09-07T07:16:05.000Z</time>
      </trkpt>
      <trkpt lat="48.43643" lon="0.71522">
        <ele>126.366239</ele>
        <time>2021-09-07T07:16:09.000Z</time>
      </trkpt>
      <trkpt lat="48.4364" lon="0.7154">
        <ele>126.453461</ele>
        <time>2021-09-07T07:16:11.000Z</time>
      </trkpt>
      <trkpt lat="48.43637" lon="0.71563">
        <ele>126.572361</ele>
        <time>2021-09-07T07:16:14.000Z</time>
      </trkpt>
      <trkpt lat="48.43633" lon="0.71589">
        <ele>126.7007</ele>
        <time>2021-09-07T07:16:17.000Z</time>
      </trkpt>
      <trkpt lat="48.43631" lon="0.71605">
        <ele>126.781993</ele>
        <time>2021-09-07T07:16:19.000Z</time>
      </trkpt>
      <trkpt lat="48.43629" lon="0.7162">
        <ele>126.855436</ele>
        <time>2021-09-07T07:16:21.000Z</time>
      </trkpt>
      <trkpt lat="48.43628" lon="0.71633">
        <ele>126.923959</ele>
        <time>2021-09-07T07:16:23.000Z</time>
      </trkpt>
      <trkpt lat="48.43627" lon="0.7164">
        <ele>126.959161</ele>
        <time>2021-09-07T07:16:24.000Z</time>
      </trkpt>
      <trkpt lat="48.43624" lon="0.71657">
        <ele>127.043645</ele>
        <time>2021-09-07T07:16:26.000Z</time>
      </trkpt>
      <trkpt lat="48.43616" lon="0.71719">
        <ele>127.352631</ele>
        <time>2021-09-07T07:16:34.000Z</time>
      </trkpt>
      <trkpt lat="48.43614" lon="0.71733">
        <ele>127.426884</ele>
        <time>2021-09-07T07:16:36.000Z</time>
      </trkpt>
      <trkpt lat="48.43612" lon="0.71748">
        <ele>127.499147</ele>
        <time>2021-09-07T07:16:38.000Z</time>
      </trkpt>
      <trkpt lat="48.43611" lon="0.71763">
        <ele>127.653186</ele>
        <time>2021-09-07T07:16:40.000Z</time>
      </trkpt>
      <trkpt lat="48.43608" lon="0.71785">
        <ele>127.999242</ele>
        <time>2021-09-07T07:16:43.000Z</time>
      </trkpt>
      <trkpt lat="48.43607" lon="0.71791">
        <ele>128.100504</ele>
        <time>2021-09-07T07:16:44.000Z</time>
      </trkpt>
      <trkpt lat="48.43604" lon="0.71811">
        <ele>128.423006</ele>
        <time>2021-09-07T07:16:47.000Z</time>
      </trkpt>
      <trkpt lat="48.43598" lon="0.71862">
        <ele>129.213481</ele>
        <time>2021-09-07T07:16:54.000Z</time>
      </trkpt>
      <trkpt lat="48.43592" lon="0.71894">
        <ele>129.733422</ele>
        <time>2021-09-07T07:16:59.000Z</time>
      </trkpt>
      <trkpt lat="48.43588" lon="0.71931">
        <ele>130.313557</ele>
        <time>2021-09-07T07:17:04.000Z</time>
      </trkpt>
      <trkpt lat="48.43585" lon="0.71953">
        <ele>130.662833</ele>
        <time>2021-09-07T07:17:07.000Z</time>
      </trkpt>
      <trkpt lat="48.43583" lon="0.71976">
        <ele>131.021663</ele>
        <time>2021-09-07T07:17:10.000Z</time>
      </trkpt>
      <trkpt lat="48.43577" lon="0.72021">
        <ele>131.730991</ele>
        <time>2021-09-07T07:17:16.000Z</time>
      </trkpt>
      <trkpt lat="48.43573" lon="0.72048">
        <ele>131.907198</ele>
        <time>2021-09-07T07:17:20.000Z</time>
      </trkpt>
      <trkpt lat="48.43572" lon="0.72054">
        <ele>131.94813</ele>
        <time>2021-09-07T07:17:21.000Z</time>
      </trkpt>
      <trkpt lat="48.43568" lon="0.7208">
        <ele>132.121138</ele>
        <time>2021-09-07T07:17:25.000Z</time>
      </trkpt>
      <trkpt lat="48.43566" lon="0.72093">
        <ele>132.207435</ele>
        <time>2021-09-07T07:17:27.000Z</time>
      </trkpt>
      <trkpt lat="48.43561" lon="0.72132">
        <ele>132.46928</ele>
        <time>2021-09-07T07:17:33.000Z</time>
      </trkpt>
      <trkpt lat="48.43554" lon="0.72172">
        <ele>132.737501</ele>
        <time>2021-09-07T07:17:39.000Z</time>
      </trkpt>
      <trkpt lat="48.43553" lon="0.72178">
        <ele>132.780568</ele>
        <time>2021-09-07T07:17:40.000Z</time>
      </trkpt>
      <trkpt lat="48.43549" lon="0.72202">
        <ele>132.941951</ele>
        <time>2021-09-07T07:17:43.000Z</time>
      </trkpt>
      <trkpt lat="48.43547" lon="0.72218">
        <ele>133.047994</ele>
        <time>2021-09-07T07:17:45.000Z</time>
      </trkpt>
      <trkpt lat="48.43542" lon="0.72251">
        <ele>133.266374</ele>
        <time>2021-09-07T07:17:49.000Z</time>
      </trkpt>
      <trkpt lat="48.43536" lon="0.72287">
        <ele>133.498548</ele>
        <time>2021-09-07T07:17:54.000Z</time>
      </trkpt>
      <trkpt lat="48.43527" lon="0.72342">
        <ele>133.536036</ele>
        <time>2021-09-07T07:18:01.000Z</time>
      </trkpt>
      <trkpt lat="48.4352" lon="0.72384">
        <ele>133.564864</ele>
        <time>2021-09-07T07:18:06.000Z</time>
      </trkpt>
      <trkpt lat="48.43509" lon="0.72436">
        <ele>133.601168</ele>
        <time>2021-09-07T07:18:12.000Z</time>
      </trkpt>
      <trkpt lat="48.43497" lon="0.72496">
        <ele>133.642958</ele>
        <time>2021-09-07T07:18:19.000Z</time>
      </trkpt>
      <trkpt lat="48.43489" lon="0.7254">
        <ele>133.673728</ele>
        <time>2021-09-07T07:18:24.000Z</time>
      </trkpt>
      <trkpt lat="48.43483" lon="0.72566">
        <ele>133.674066</ele>
        <time>2021-09-07T07:18:27.000Z</time>
      </trkpt>
      <trkpt lat="48.43479" lon="0.72583">
        <ele>133.670667</ele>
        <time>2021-09-07T07:18:29.000Z</time>
      </trkpt>
      <trkpt lat="48.43469" lon="0.72633">
        <ele>133.660521</ele>
        <time>2021-09-07T07:18:35.000Z</time>
      </trkpt>
      <trkpt lat="48.43465" lon="0.72652">
        <ele>133.656678</ele>
        <time>2021-09-07T07:18:37.000Z</time>
      </trkpt>
      <trkpt lat="48.43459" lon="0.72678">
        <ele>133.651294</ele>
        <time>2021-09-07T07:18:40.000Z</time>
      </trkpt>
      <trkpt lat="48.43452" lon="0.72712">
        <ele>133.644276</ele>
        <time>2021-09-07T07:18:44.000Z</time>
      </trkpt>
      <trkpt lat="48.43449" lon="0.72729">
        <ele>133.640882</ele>
        <time>2021-09-07T07:18:46.000Z</time>
      </trkpt>
      <trkpt lat="48.43439" lon="0.72772">
        <ele>133.632292</ele>
        <time>2021-09-07T07:18:51.000Z</time>
      </trkpt>
      <trkpt lat="48.43434" lon="0.72796">
        <ele>133.627286</ele>
        <time>2021-09-07T07:18:54.000Z</time>
      </trkpt>
      <trkpt lat="48.4343" lon="0.72814">
        <ele>133.62444</ele>
        <time>2021-09-07T07:18:56.000Z</time>
      </trkpt>
      <trkpt lat="48.43417" lon="0.72876">
        <ele>133.616756</ele>
        <time>2021-09-07T07:19:03.000Z</time>
      </trkpt>
      <trkpt lat="48.43408" lon="0.72918">
        <ele>133.611524</ele>
        <time>2021-09-07T07:19:08.000Z</time>
      </trkpt>
      <trkpt lat="48.43403" lon="0.72941">
        <ele>133.608607</ele>
        <time>2021-09-07T07:19:11.000Z</time>
      </trkpt>
      <trkpt lat="48.43386" lon="0.7302">
        <ele>133.598825</ele>
        <time>2021-09-07T07:19:20.000Z</time>
      </trkpt>
      <trkpt lat="48.43373" lon="0.73081">
        <ele>133.54521</ele>
        <time>2021-09-07T07:19:27.000Z</time>
      </trkpt>
      <trkpt lat="48.43365" lon="0.73123">
        <ele>133.433715</ele>
        <time>2021-09-07T07:19:32.000Z</time>
      </trkpt>
      <trkpt lat="48.43356" lon="0.73165">
        <ele>133.324832</ele>
        <time>2021-09-07T07:19:37.000Z</time>
      </trkpt>
      <trkpt lat="48.43346" lon="0.73206">
        <ele>133.214962</ele>
        <time>2021-09-07T07:19:42.000Z</time>
      </trkpt>
      <trkpt lat="48.43334" lon="0.73246">
        <ele>133.106062</ele>
        <time>2021-09-07T07:19:47.000Z</time>
      </trkpt>
      <trkpt lat="48.43332" lon="0.73253">
        <ele>133.084911</ele>
        <time>2021-09-07T07:19:48.000Z</time>
      </trkpt>
      <trkpt lat="48.43328" lon="0.7327">
        <ele>133.041032</ele>
        <time>2021-09-07T07:19:50.000Z</time>
      </trkpt>
      <trkpt lat="48.43316" lon="0.73311">
        <ele>132.929744</ele>
        <time>2021-09-07T07:19:55.000Z</time>
      </trkpt>
      <trkpt lat="48.43312" lon="0.73326">
        <ele>132.927341</ele>
        <time>2021-09-07T07:19:57.000Z</time>
      </trkpt>
      <trkpt lat="48.43307" lon="0.73338">
        <ele>132.942152</ele>
        <time>2021-09-07T07:19:59.000Z</time>
      </trkpt>
      <trkpt lat="48.43299" lon="0.73357">
        <ele>132.965964</ele>
        <time>2021-09-07T07:20:02.000Z</time>
      </trkpt>
      <trkpt lat="48.43295" lon="0.73372">
        <ele>132.983278</ele>
        <time>2021-09-07T07:20:04.000Z</time>
      </trkpt>
      <trkpt lat="48.43287" lon="0.73386">
        <ele>133.002269</ele>
        <time>2021-09-07T07:20:06.000Z</time>
      </trkpt>
      <trkpt lat="48.43285" lon="0.73393">
        <ele>133.011237</ele>
        <time>2021-09-07T07:20:07.000Z</time>
      </trkpt>
      <trkpt lat="48.43282" lon="0.734">
        <ele>133.020369</ele>
        <time>2021-09-07T07:20:08.000Z</time>
      </trkpt>
      <trkpt lat="48.43273" lon="0.73422">
        <ele>133.04696</ele>
        <time>2021-09-07T07:20:11.000Z</time>
      </trkpt>
      <trkpt lat="48.43257" lon="0.73458">
        <ele>133.09322</ele>
        <time>2021-09-07T07:20:16.000Z</time>
      </trkpt>
      <trkpt lat="48.43238" lon="0.73502">
        <ele>133.149061</ele>
        <time>2021-09-07T07:20:22.000Z</time>
      </trkpt>
      <trkpt lat="48.43224" lon="0.73531">
        <ele>133.187177</ele>
        <time>2021-09-07T07:20:26.000Z</time>
      </trkpt>
      <trkpt lat="48.43207" lon="0.73565">
        <ele>133.233585</ele>
        <time>2021-09-07T07:20:31.000Z</time>
      </trkpt>
      <trkpt lat="48.43192" lon="0.73593">
        <ele>133.272725</ele>
        <time>2021-09-07T07:20:35.000Z</time>
      </trkpt>
      <trkpt lat="48.43185" lon="0.73605">
        <ele>133.290519</ele>
        <time>2021-09-07T07:20:37.000Z</time>
      </trkpt>
      <trkpt lat="48.43166" lon="0.73637">
        <ele>133.337236</ele>
        <time>2021-09-07T07:20:42.000Z</time>
      </trkpt>
      <trkpt lat="48.43149" lon="0.73669">
        <ele>133.382327</ele>
        <time>2021-09-07T07:20:47.000Z</time>
      </trkpt>
      <trkpt lat="48.43133" lon="0.737">
        <ele>133.425133</ele>
        <time>2021-09-07T07:20:52.000Z</time>
      </trkpt>
      <trkpt lat="48.43129" lon="0.73706">
        <ele>133.434417</ele>
        <time>2021-09-07T07:20:53.000Z</time>
      </trkpt>
      <trkpt lat="48.43115" lon="0.73733">
        <ele>133.47265</ele>
        <time>2021-09-07T07:20:57.000Z</time>
      </trkpt>
      <trkpt lat="48.43091" lon="0.73775">
        <ele>133.502318</ele>
        <time>2021-09-07T07:21:03.000Z</time>
      </trkpt>
      <trkpt lat="48.43078" lon="0.73803">
        <ele>133.503803</ele>
        <time>2021-09-07T07:21:07.000Z</time>
      </trkpt>
      <trkpt lat="48.43071" lon="0.73816">
        <ele>133.504568</ele>
        <time>2021-09-07T07:21:09.000Z</time>
      </trkpt>
      <trkpt lat="48.4304" lon="0.73862">
        <ele>133.50741</ele>
        <time>2021-09-07T07:21:16.000Z</time>
      </trkpt>
      <trkpt lat="48.43014" lon="0.73898">
        <ele>133.509769</ele>
        <time>2021-09-07T07:21:22.000Z</time>
      </trkpt>
      <trkpt lat="48.43006" lon="0.73908">
        <ele>133.51047</ele>
        <time>2021-09-07T07:21:24.000Z</time>
      </trkpt>
      <trkpt lat="48.42998" lon="0.73921">
        <ele>133.51122</ele>
        <time>2021-09-07T07:21:26.000Z</time>
      </trkpt>
      <trkpt lat="48.42993" lon="0.73927">
        <ele>133.51162</ele>
        <time>2021-09-07T07:21:27.000Z</time>
      </trkpt>
      <trkpt lat="48.42974" lon="0.73949">
        <ele>133.534659</ele>
        <time>2021-09-07T07:21:31.000Z</time>
      </trkpt>
      <trkpt lat="48.42946" lon="0.73982">
        <ele>133.72782</ele>
        <time>2021-09-07T07:21:37.000Z</time>
      </trkpt>
      <trkpt lat="48.42918" lon="0.74015">
        <ele>133.917345</ele>
        <time>2021-09-07T07:21:43.000Z</time>
      </trkpt>
      <trkpt lat="48.42887" lon="0.74055">
        <ele>134.140209</ele>
        <time>2021-09-07T07:21:50.000Z</time>
      </trkpt>
      <trkpt lat="48.4286" lon="0.74091">
        <ele>134.331855</ele>
        <time>2021-09-07T07:21:56.000Z</time>
      </trkpt>
      <trkpt lat="48.42839" lon="0.74122">
        <ele>134.495275</ele>
        <time>2021-09-07T07:22:01.000Z</time>
      </trkpt>
      <trkpt lat="48.42819" lon="0.74153">
        <ele>134.70913</ele>
        <time>2021-09-07T07:22:06.000Z</time>
      </trkpt>
      <trkpt lat="48.42815" lon="0.74158">
        <ele>134.748191</ele>
        <time>2021-09-07T07:22:07.000Z</time>
      </trkpt>
      <trkpt lat="48.42794" lon="0.74196">
        <ele>134.996382</ele>
        <time>2021-09-07T07:22:13.000Z</time>
      </trkpt>
      <trkpt lat="48.42784" lon="0.74213">
        <ele>135.110432</ele>
        <time>2021-09-07T07:22:16.000Z</time>
      </trkpt>
      <trkpt lat="48.42781" lon="0.74219">
        <ele>135.147042</ele>
        <time>2021-09-07T07:22:17.000Z</time>
      </trkpt>
      <trkpt lat="48.42763" lon="0.74261">
        <ele>135.396392</ele>
        <time>2021-09-07T07:22:23.000Z</time>
      </trkpt>
      <trkpt lat="48.42751" lon="0.74289">
        <ele>135.562225</ele>
        <time>2021-09-07T07:22:27.000Z</time>
      </trkpt>
      <trkpt lat="48.42742" lon="0.74311">
        <ele>135.688244</ele>
        <time>2021-09-07T07:22:30.000Z</time>
      </trkpt>
      <trkpt lat="48.42736" lon="0.74325">
        <ele>135.769695</ele>
        <time>2021-09-07T07:22:32.000Z</time>
      </trkpt>
      <trkpt lat="48.42731" lon="0.74337">
        <ele>135.835351</ele>
        <time>2021-09-07T07:22:34.000Z</time>
      </trkpt>
      <trkpt lat="48.42725" lon="0.74352">
        <ele>135.856251</ele>
        <time>2021-09-07T07:22:36.000Z</time>
      </trkpt>
      <trkpt lat="48.42711" lon="0.74389">
        <ele>135.909933</ele>
        <time>2021-09-07T07:22:41.000Z</time>
      </trkpt>
      <trkpt lat="48.42708" lon="0.74395">
        <ele>135.919178</ele>
        <time>2021-09-07T07:22:42.000Z</time>
      </trkpt>
      <trkpt lat="48.42695" lon="0.74432">
        <ele>135.970761</ele>
        <time>2021-09-07T07:22:47.000Z</time>
      </trkpt>
      <trkpt lat="48.42694" lon="0.74439">
        <ele>135.979958</ele>
        <time>2021-09-07T07:22:48.000Z</time>
      </trkpt>
      <trkpt lat="48.42687" lon="0.7446">
        <ele>136.008418</ele>
        <time>2021-09-07T07:22:51.000Z</time>
      </trkpt>
      <trkpt lat="48.42679" lon="0.74493">
        <ele>136.053308</ele>
        <time>2021-09-07T07:22:56.000Z</time>
      </trkpt>
      <trkpt lat="48.42667" lon="0.74536">
        <ele>136.110705</ele>
        <time>2021-09-07T07:23:01.000Z</time>
      </trkpt>
      <trkpt lat="48.4266" lon="0.74564">
        <ele>136.148169</ele>
        <time>2021-09-07T07:23:04.000Z</time>
      </trkpt>
      <trkpt lat="48.42657" lon="0.74581">
        <ele>136.172281</ele>
        <time>2021-09-07T07:23:06.000Z</time>
      </trkpt>
      <trkpt lat="48.42652" lon="0.74597">
        <ele>136.239759</ele>
        <time>2021-09-07T07:23:08.000Z</time>
      </trkpt>
      <trkpt lat="48.42648" lon="0.74611">
        <ele>136.301256</ele>
        <time>2021-09-07T07:23:10.000Z</time>
      </trkpt>
      <trkpt lat="48.42637" lon="0.74652">
        <ele>136.474744</ele>
        <time>2021-09-07T07:23:15.000Z</time>
      </trkpt>
      <trkpt lat="48.42631" lon="0.74678">
        <ele>136.57999</ele>
        <time>2021-09-07T07:23:18.000Z</time>
      </trkpt>
      <trkpt lat="48.42627" lon="0.74694">
        <ele>136.650002</ele>
        <time>2021-09-07T07:23:20.000Z</time>
      </trkpt>
      <trkpt lat="48.42621" lon="0.74711">
        <ele>136.724072</ele>
        <time>2021-09-07T07:23:22.000Z</time>
      </trkpt>
      <trkpt lat="48.42614" lon="0.74739">
        <ele>136.841575</ele>
        <time>2021-09-07T07:23:25.000Z</time>
      </trkpt>
      <trkpt lat="48.42599" lon="0.74796">
        <ele>137.084853</ele>
        <time>2021-09-07T07:23:31.000Z</time>
      </trkpt>
      <trkpt lat="48.42592" lon="0.74826">
        <ele>137.207777</ele>
        <time>2021-09-07T07:23:34.000Z</time>
      </trkpt>
      <trkpt lat="48.4259" lon="0.74836">
        <ele>137.246694</ele>
        <time>2021-09-07T07:23:35.000Z</time>
      </trkpt>
      <trkpt lat="48.42587" lon="0.74856">
        <ele>137.320228</ele>
        <time>2021-09-07T07:23:37.000Z</time>
      </trkpt>
      <trkpt lat="48.42583" lon="0.74877">
        <ele>137.396617</ele>
        <time>2021-09-07T07:23:39.000Z</time>
      </trkpt>
      <trkpt lat="48.42575" lon="0.74918">
        <ele>137.544994</ele>
        <time>2021-09-07T07:23:43.000Z</time>
      </trkpt>
      <trkpt lat="48.42566" lon="0.74969">
        <ele>137.732161</ele>
        <time>2021-09-07T07:23:48.000Z</time>
      </trkpt>
      <trkpt lat="48.42564" lon="0.74979">
        <ele>137.769746</ele>
        <time>2021-09-07T07:23:49.000Z</time>
      </trkpt>
      <trkpt lat="48.42556" lon="0.75041">
        <ele>137.991216</ele>
        <time>2021-09-07T07:23:55.000Z</time>
      </trkpt>
      <trkpt lat="48.42551" lon="0.75084">
        <ele>138.142528</ele>
        <time>2021-09-07T07:23:59.000Z</time>
      </trkpt>
      <trkpt lat="48.42547" lon="0.75115">
        <ele>138.070923</ele>
        <time>2021-09-07T07:24:02.000Z</time>
      </trkpt>
      <trkpt lat="48.42544" lon="0.75156">
        <ele>137.826886</ele>
        <time>2021-09-07T07:24:06.000Z</time>
      </trkpt>
      <trkpt lat="48.42536" lon="0.75214">
        <ele>137.476473</ele>
        <time>2021-09-07T07:24:11.000Z</time>
      </trkpt>
      <trkpt lat="48.42533" lon="0.75246">
        <ele>137.285543</ele>
        <time>2021-09-07T07:24:14.000Z</time>
      </trkpt>
      <trkpt lat="48.4253" lon="0.75266">
        <ele>137.161497</ele>
        <time>2021-09-07T07:24:16.000Z</time>
      </trkpt>
      <trkpt lat="48.42523" lon="0.75315">
        <ele>136.870218</ele>
        <time>2021-09-07T07:24:21.000Z</time>
      </trkpt>
      <trkpt lat="48.42523" lon="0.75324">
        <ele>136.818686</ele>
        <time>2021-09-07T07:24:22.000Z</time>
      </trkpt>
      <trkpt lat="48.42525" lon="0.75349">
        <ele>136.66882</ele>
        <time>2021-09-07T07:24:25.000Z</time>
      </trkpt>
      <trkpt lat="48.4252" lon="0.75365">
        <ele>136.548011</ele>
        <time>2021-09-07T07:24:28.000Z</time>
      </trkpt>
      <trkpt lat="48.42517" lon="0.75377">
        <ele>136.406368</ele>
        <time>2021-09-07T07:24:30.000Z</time>
      </trkpt>
      <trkpt lat="48.42513" lon="0.75402">
        <ele>136.148733</ele>
        <time>2021-09-07T07:24:33.000Z</time>
      </trkpt>
      <trkpt lat="48.42509" lon="0.75447">
        <ele>135.670449</ele>
        <time>2021-09-07T07:24:38.000Z</time>
      </trkpt>
      <trkpt lat="48.42502" lon="0.75507">
        <ele>135.02752</ele>
        <time>2021-09-07T07:24:44.000Z</time>
      </trkpt>
      <trkpt lat="48.42501" lon="0.75517">
        <ele>134.920966</ele>
        <time>2021-09-07T07:24:45.000Z</time>
      </trkpt>
      <trkpt lat="48.42494" lon="0.75578">
        <ele>134.276223</ele>
        <time>2021-09-07T07:24:51.000Z</time>
      </trkpt>
      <trkpt lat="48.42488" lon="0.75631">
        <ele>133.716518</ele>
        <time>2021-09-07T07:24:57.000Z</time>
      </trkpt>
      <trkpt lat="48.42486" lon="0.75645">
        <ele>133.577953</ele>
        <time>2021-09-07T07:24:59.000Z</time>
      </trkpt>
      <trkpt lat="48.42484" lon="0.75668">
        <ele>133.355388</ele>
        <time>2021-09-07T07:25:02.000Z</time>
      </trkpt>
      <trkpt lat="48.42484" lon="0.75693">
        <ele>133.109188</ele>
        <time>2021-09-07T07:25:06.000Z</time>
      </trkpt>
      <trkpt lat="48.42485" lon="0.75694">
        <ele>133.094567</ele>
        <time>2021-09-07T07:25:08.000Z</time>
      </trkpt>
      <trkpt lat="48.42484" lon="0.75696">
        <ele>133.070969</ele>
        <time>2021-09-07T07:25:30.000Z</time>
      </trkpt>
      <trkpt lat="48.4248" lon="0.75713">
        <ele>132.901487</ele>
        <time>2021-09-07T07:25:34.000Z</time>
      </trkpt>
      <trkpt lat="48.42479" lon="0.75718">
        <ele>132.845588</ele>
        <time>2021-09-07T07:25:35.000Z</time>
      </trkpt>
      <trkpt lat="48.42477" lon="0.75732">
        <ele>132.706533</ele>
        <time>2021-09-07T07:25:37.000Z</time>
      </trkpt>
      <trkpt lat="48.42477" lon="0.7574">
        <ele>132.626081</ele>
        <time>2021-09-07T07:25:38.000Z</time>
      </trkpt>
      <trkpt lat="48.42471" lon="0.75802">
        <ele>132.021629</ele>
        <time>2021-09-07T07:25:45.000Z</time>
      </trkpt>
      <trkpt lat="48.42466" lon="0.75868">
        <ele>131.377821</ele>
        <time>2021-09-07T07:25:52.000Z</time>
      </trkpt>
      <trkpt lat="48.42465" lon="0.75876">
        <ele>131.290768</ele>
        <time>2021-09-07T07:25:53.000Z</time>
      </trkpt>
      <trkpt lat="48.42461" lon="0.75922">
        <ele>130.95676</ele>
        <time>2021-09-07T07:25:58.000Z</time>
      </trkpt>
      <trkpt lat="48.42459" lon="0.7597">
        <ele>130.688728</ele>
        <time>2021-09-07T07:26:03.000Z</time>
      </trkpt>
      <trkpt lat="48.42458" lon="0.7601">
        <ele>130.464181</ele>
        <time>2021-09-07T07:26:07.000Z</time>
      </trkpt>
      <trkpt lat="48.42456" lon="0.76075">
        <ele>130.095398</ele>
        <time>2021-09-07T07:26:13.000Z</time>
      </trkpt>
      <trkpt lat="48.42455" lon="0.76128">
        <ele>129.797594</ele>
        <time>2021-09-07T07:26:18.000Z</time>
      </trkpt>
      <trkpt lat="48.42453" lon="0.76193">
        <ele>129.427455</ele>
        <time>2021-09-07T07:26:24.000Z</time>
      </trkpt>
      <trkpt lat="48.42453" lon="0.76247">
        <ele>129.121905</ele>
        <time>2021-09-07T07:26:29.000Z</time>
      </trkpt>
      <trkpt lat="48.42453" lon="0.76267">
        <ele>129.002899</ele>
        <time>2021-09-07T07:26:31.000Z</time>
      </trkpt>
      <trkpt lat="48.42452" lon="0.7629">
        <ele>128.875812</ele>
        <time>2021-09-07T07:26:33.000Z</time>
      </trkpt>
      <trkpt lat="48.42452" lon="0.76335">
        <ele>128.617766</ele>
        <time>2021-09-07T07:26:37.000Z</time>
      </trkpt>
      <trkpt lat="48.42452" lon="0.76387">
        <ele>128.316252</ele>
        <time>2021-09-07T07:26:42.000Z</time>
      </trkpt>
      <trkpt lat="48.42453" lon="0.76441">
        <ele>128.010929</ele>
        <time>2021-09-07T07:26:47.000Z</time>
      </trkpt>
      <trkpt lat="48.42453" lon="0.76505">
        <ele>127.692705</ele>
        <time>2021-09-07T07:26:53.000Z</time>
      </trkpt>
      <trkpt lat="48.42452" lon="0.76574">
        <ele>127.346381</ele>
        <time>2021-09-07T07:27:00.000Z</time>
      </trkpt>
      <trkpt lat="48.42449" lon="0.76619">
        <ele>127.120308</ele>
        <time>2021-09-07T07:27:05.000Z</time>
      </trkpt>
      <trkpt lat="48.4245" lon="0.76637">
        <ele>127.029574</ele>
        <time>2021-09-07T07:27:07.000Z</time>
      </trkpt>
      <trkpt lat="48.42447" lon="0.76681">
        <ele>126.808987</ele>
        <time>2021-09-07T07:27:12.000Z</time>
      </trkpt>
      <trkpt lat="48.42445" lon="0.76741">
        <ele>126.583099</ele>
        <time>2021-09-07T07:27:19.000Z</time>
      </trkpt>
      <trkpt lat="48.42444" lon="0.76784">
        <ele>126.461</ele>
        <time>2021-09-07T07:27:25.000Z</time>
      </trkpt>
      <trkpt lat="48.42444" lon="0.76797">
        <ele>126.425992</ele>
        <time>2021-09-07T07:27:29.000Z</time>
      </trkpt>
      <trkpt lat="48.42443" lon="0.76817">
        <ele>126.367455</ele>
        <time>2021-09-07T07:27:35.000Z</time>
      </trkpt>
      <trkpt lat="48.42443" lon="0.76824">
        <ele>126.349407</ele>
        <time>2021-09-07T07:27:36.000Z</time>
      </trkpt>
      <trkpt lat="48.42442" lon="0.76855">
        <ele>126.261772</ele>
        <time>2021-09-07T07:27:40.000Z</time>
      </trkpt>
      <trkpt lat="48.42438" lon="0.76914">
        <ele>126.096012</ele>
        <time>2021-09-07T07:27:47.000Z</time>
      </trkpt>
      <trkpt lat="48.42434" lon="0.76957">
        <ele>125.971805</ele>
        <time>2021-09-07T07:27:52.000Z</time>
      </trkpt>
      <trkpt lat="48.42432" lon="0.76975">
        <ele>125.921344</ele>
        <time>2021-09-07T07:27:54.000Z</time>
      </trkpt>
      <trkpt lat="48.42427" lon="0.77002">
        <ele>125.841544</ele>
        <time>2021-09-07T07:27:57.000Z</time>
      </trkpt>
      <trkpt lat="48.42414" lon="0.77076">
        <ele>125.624224</ele>
        <time>2021-09-07T07:28:05.000Z</time>
      </trkpt>
      <trkpt lat="48.42407" lon="0.77112">
        <ele>125.519877</ele>
        <time>2021-09-07T07:28:09.000Z</time>
      </trkpt>
      <trkpt lat="48.42398" lon="0.77166">
        <ele>125.36167</ele>
        <time>2021-09-07T07:28:15.000Z</time>
      </trkpt>
      <trkpt lat="48.42391" lon="0.77211">
        <ele>125.229755</ele>
        <time>2021-09-07T07:28:20.000Z</time>
      </trkpt>
      <trkpt lat="48.42385" lon="0.77254">
        <ele>125.117119</ele>
        <time>2021-09-07T07:28:25.000Z</time>
      </trkpt>
      <trkpt lat="48.42384" lon="0.77262">
        <ele>125.101237</ele>
        <time>2021-09-07T07:28:26.000Z</time>
      </trkpt>
      <trkpt lat="48.42379" lon="0.77286">
        <ele>125.04989</ele>
        <time>2021-09-07T07:28:29.000Z</time>
      </trkpt>
      <trkpt lat="48.4237" lon="0.77339">
        <ele>124.934622</ele>
        <time>2021-09-07T07:28:35.000Z</time>
      </trkpt>
      <trkpt lat="48.42368" lon="0.77347">
        <ele>124.916401</ele>
        <time>2021-09-07T07:28:36.000Z</time>
      </trkpt>
      <trkpt lat="48.42364" lon="0.77373">
        <ele>124.861265</ele>
        <time>2021-09-07T07:28:39.000Z</time>
      </trkpt>
      <trkpt lat="48.42363" lon="0.77382">
        <ele>124.841653</ele>
        <time>2021-09-07T07:28:40.000Z</time>
      </trkpt>
      <trkpt lat="48.42358" lon="0.7741">
        <ele>124.781598</ele>
        <time>2021-09-07T07:28:43.000Z</time>
      </trkpt>
      <trkpt lat="48.4235" lon="0.77445">
        <ele>124.703978</ele>
        <time>2021-09-07T07:28:47.000Z</time>
      </trkpt>
      <trkpt lat="48.42346" lon="0.77462">
        <ele>124.666937</ele>
        <time>2021-09-07T07:28:49.000Z</time>
      </trkpt>
      <trkpt lat="48.42341" lon="0.77487">
        <ele>124.611721</ele>
        <time>2021-09-07T07:28:52.000Z</time>
      </trkpt>
      <trkpt lat="48.42331" lon="0.77533">
        <ele>124.30942</ele>
        <time>2021-09-07T07:28:57.000Z</time>
      </trkpt>
      <trkpt lat="48.42328" lon="0.77541">
        <ele>124.239549</ele>
        <time>2021-09-07T07:28:58.000Z</time>
      </trkpt>
      <trkpt lat="48.42316" lon="0.77583">
        <ele>123.891138</ele>
        <time>2021-09-07T07:29:03.000Z</time>
      </trkpt>
      <trkpt lat="48.42314" lon="0.77592">
        <ele>123.81726</ele>
        <time>2021-09-07T07:29:04.000Z</time>
      </trkpt>
      <trkpt lat="48.42306" lon="0.77624">
        <ele>123.550212</ele>
        <time>2021-09-07T07:29:08.000Z</time>
      </trkpt>
      <trkpt lat="48.42301" lon="0.77639">
        <ele>123.415376</ele>
        <time>2021-09-07T07:29:10.000Z</time>
      </trkpt>
      <trkpt lat="48.42293" lon="0.77664">
        <ele>123.208572</ele>
        <time>2021-09-07T07:29:13.000Z</time>
      </trkpt>
      <trkpt lat="48.42288" lon="0.77681">
        <ele>123.06152</ele>
        <time>2021-09-07T07:29:15.000Z</time>
      </trkpt>
      <trkpt lat="48.42281" lon="0.77707">
        <ele>122.842928</ele>
        <time>2021-09-07T07:29:18.000Z</time>
      </trkpt>
      <trkpt lat="48.42268" lon="0.77747">
        <ele>122.505368</ele>
        <time>2021-09-07T07:29:23.000Z</time>
      </trkpt>
      <trkpt lat="48.42258" lon="0.77785">
        <ele>122.316794</ele>
        <time>2021-09-07T07:29:28.000Z</time>
      </trkpt>
      <trkpt lat="48.42251" lon="0.77808">
        <ele>122.210744</ele>
        <time>2021-09-07T07:29:31.000Z</time>
      </trkpt>
      <trkpt lat="48.42247" lon="0.77821">
        <ele>122.147059</ele>
        <time>2021-09-07T07:29:33.000Z</time>
      </trkpt>
      <trkpt lat="48.42244" lon="0.77828">
        <ele>122.112274</ele>
        <time>2021-09-07T07:29:34.000Z</time>
      </trkpt>
      <trkpt lat="48.42239" lon="0.77845">
        <ele>122.033295</ele>
        <time>2021-09-07T07:29:36.000Z</time>
      </trkpt>
      <trkpt lat="48.4223" lon="0.77879">
        <ele>121.874008</ele>
        <time>2021-09-07T07:29:40.000Z</time>
      </trkpt>
      <trkpt lat="48.42213" lon="0.77932">
        <ele>121.626656</ele>
        <time>2021-09-07T07:29:46.000Z</time>
      </trkpt>
      <trkpt lat="48.42198" lon="0.77981">
        <ele>121.392923</ele>
        <time>2021-09-07T07:29:52.000Z</time>
      </trkpt>
      <trkpt lat="48.42193" lon="0.77996">
        <ele>121.326379</ele>
        <time>2021-09-07T07:29:54.000Z</time>
      </trkpt>
      <trkpt lat="48.42189" lon="0.7801">
        <ele>121.405722</ele>
        <time>2021-09-07T07:29:56.000Z</time>
      </trkpt>
      <trkpt lat="48.42175" lon="0.7806">
        <ele>121.675165</ele>
        <time>2021-09-07T07:30:02.000Z</time>
      </trkpt>
      <trkpt lat="48.42172" lon="0.78068">
        <ele>121.718573</ele>
        <time>2021-09-07T07:30:03.000Z</time>
      </trkpt>
      <trkpt lat="48.42166" lon="0.78095">
        <ele>121.859166</ele>
        <time>2021-09-07T07:30:06.000Z</time>
      </trkpt>
      <trkpt lat="48.42153" lon="0.78157">
        <ele>122.180999</ele>
        <time>2021-09-07T07:30:13.000Z</time>
      </trkpt>
      <trkpt lat="48.42142" lon="0.78222">
        <ele>122.519214</ele>
        <time>2021-09-07T07:30:20.000Z</time>
      </trkpt>
      <trkpt lat="48.42138" lon="0.78248">
        <ele>122.64853</ele>
        <time>2021-09-07T07:30:23.000Z</time>
      </trkpt>
      <trkpt lat="48.42137" lon="0.78256">
        <ele>122.693839</ele>
        <time>2021-09-07T07:30:24.000Z</time>
      </trkpt>
      <trkpt lat="48.42131" lon="0.78285">
        <ele>122.87643</ele>
        <time>2021-09-07T07:30:28.000Z</time>
      </trkpt>
      <trkpt lat="48.4213" lon="0.78292">
        <ele>122.920326</ele>
        <time>2021-09-07T07:30:29.000Z</time>
      </trkpt>
      <trkpt lat="48.42128" lon="0.78306">
        <ele>123.009189</ele>
        <time>2021-09-07T07:30:31.000Z</time>
      </trkpt>
      <trkpt lat="48.42127" lon="0.78314">
        <ele>123.060612</ele>
        <time>2021-09-07T07:30:32.000Z</time>
      </trkpt>
      <trkpt lat="48.42119" lon="0.78354">
        <ele>123.310284</ele>
        <time>2021-09-07T07:30:37.000Z</time>
      </trkpt>
      <trkpt lat="48.42113" lon="0.78394">
        <ele>123.55723</ele>
        <time>2021-09-07T07:30:42.000Z</time>
      </trkpt>
      <trkpt lat="48.42105" lon="0.78434">
        <ele>123.810603</ele>
        <time>2021-09-07T07:30:47.000Z</time>
      </trkpt>
      <trkpt lat="48.42102" lon="0.78452">
        <ele>123.920105</ele>
        <time>2021-09-07T07:30:49.000Z</time>
      </trkpt>
      <trkpt lat="48.421" lon="0.78469">
        <ele>124.027546</ele>
        <time>2021-09-07T07:30:51.000Z</time>
      </trkpt>
      <trkpt lat="48.42098" lon="0.78477">
        <ele>124.079187</ele>
        <time>2021-09-07T07:30:52.000Z</time>
      </trkpt>
      <trkpt lat="48.42097" lon="0.78485">
        <ele>124.128394</ele>
        <time>2021-09-07T07:30:53.000Z</time>
      </trkpt>
      <trkpt lat="48.42092" lon="0.78512">
        <ele>124.295392</ele>
        <time>2021-09-07T07:30:56.000Z</time>
      </trkpt>
      <trkpt lat="48.42084" lon="0.78555">
        <ele>124.496226</ele>
        <time>2021-09-07T07:31:01.000Z</time>
      </trkpt>
      <trkpt lat="48.42082" lon="0.78563">
        <ele>124.531201</ele>
        <time>2021-09-07T07:31:02.000Z</time>
      </trkpt>
      <trkpt lat="48.42081" lon="0.78571">
        <ele>124.566377</ele>
        <time>2021-09-07T07:31:03.000Z</time>
      </trkpt>
      <trkpt lat="48.42076" lon="0.78595">
        <ele>124.674135</ele>
        <time>2021-09-07T07:31:06.000Z</time>
      </trkpt>
      <trkpt lat="48.42067" lon="0.78644">
        <ele>124.896663</ele>
        <time>2021-09-07T07:31:12.000Z</time>
      </trkpt>
      <trkpt lat="48.42056" lon="0.787">
        <ele>125.150404</ele>
        <time>2021-09-07T07:31:19.000Z</time>
      </trkpt>
      <trkpt lat="48.42047" lon="0.78755">
        <ele>125.39709</ele>
        <time>2021-09-07T07:31:26.000Z</time>
      </trkpt>
      <trkpt lat="48.42035" lon="0.78819">
        <ele>125.640305</ele>
        <time>2021-09-07T07:31:34.000Z</time>
      </trkpt>
      <trkpt lat="48.42032" lon="0.78835">
        <ele>125.696101</ele>
        <time>2021-09-07T07:31:36.000Z</time>
      </trkpt>
      <trkpt lat="48.42028" lon="0.7886">
        <ele>125.782255</ele>
        <time>2021-09-07T07:31:39.000Z</time>
      </trkpt>
      <trkpt lat="48.42021" lon="0.78901">
        <ele>125.927023</ele>
        <time>2021-09-07T07:31:44.000Z</time>
      </trkpt>
      <trkpt lat="48.42011" lon="0.78952">
        <ele>126.109064</ele>
        <time>2021-09-07T07:31:50.000Z</time>
      </trkpt>
      <trkpt lat="48.42008" lon="0.7897">
        <ele>126.17004</ele>
        <time>2021-09-07T07:31:52.000Z</time>
      </trkpt>
      <trkpt lat="48.42005" lon="0.78988">
        <ele>126.232865</ele>
        <time>2021-09-07T07:31:54.000Z</time>
      </trkpt>
      <trkpt lat="48.41995" lon="0.79044">
        <ele>126.412104</ele>
        <time>2021-09-07T07:32:00.000Z</time>
      </trkpt>
      <trkpt lat="48.41986" lon="0.7909">
        <ele>126.460146</ele>
        <time>2021-09-07T07:32:05.000Z</time>
      </trkpt>
      <trkpt lat="48.41982" lon="0.79109">
        <ele>126.47975</ele>
        <time>2021-09-07T07:32:07.000Z</time>
      </trkpt>
      <trkpt lat="48.41969" lon="0.79166">
        <ele>126.538875</ele>
        <time>2021-09-07T07:32:13.000Z</time>
      </trkpt>
      <trkpt lat="48.41966" lon="0.79176">
        <ele>126.54916</ele>
        <time>2021-09-07T07:32:14.000Z</time>
      </trkpt>
      <trkpt lat="48.41957" lon="0.79215">
        <ele>126.590148</ele>
        <time>2021-09-07T07:32:18.000Z</time>
      </trkpt>
      <trkpt lat="48.41939" lon="0.79284">
        <ele>126.663163</ele>
        <time>2021-09-07T07:32:25.000Z</time>
      </trkpt>
      <trkpt lat="48.41924" lon="0.79341">
        <ele>126.657191</ele>
        <time>2021-09-07T07:32:31.000Z</time>
      </trkpt>
      <trkpt lat="48.4192" lon="0.7936">
        <ele>126.651219</ele>
        <time>2021-09-07T07:32:33.000Z</time>
      </trkpt>
      <trkpt lat="48.41917" lon="0.79371">
        <ele>126.648046</ele>
        <time>2021-09-07T07:32:34.000Z</time>
      </trkpt>
      <trkpt lat="48.41912" lon="0.79391">
        <ele>126.641844</ele>
        <time>2021-09-07T07:32:36.000Z</time>
      </trkpt>
      <trkpt lat="48.41907" lon="0.79411">
        <ele>126.635527</ele>
        <time>2021-09-07T07:32:38.000Z</time>
      </trkpt>
      <trkpt lat="48.41889" lon="0.79482">
        <ele>126.613759</ele>
        <time>2021-09-07T07:32:45.000Z</time>
      </trkpt>
      <trkpt lat="48.41873" lon="0.79542">
        <ele>126.595115</ele>
        <time>2021-09-07T07:32:51.000Z</time>
      </trkpt>
      <trkpt lat="48.41857" lon="0.796">
        <ele>126.550519</ele>
        <time>2021-09-07T07:32:57.000Z</time>
      </trkpt>
      <trkpt lat="48.41844" lon="0.79645">
        <ele>126.514137</ele>
        <time>2021-09-07T07:33:02.000Z</time>
      </trkpt>
      <trkpt lat="48.41833" lon="0.79688">
        <ele>126.480055</ele>
        <time>2021-09-07T07:33:07.000Z</time>
      </trkpt>
      <trkpt lat="48.41822" lon="0.79734">
        <ele>126.444318</ele>
        <time>2021-09-07T07:33:12.000Z</time>
      </trkpt>
      <trkpt lat="48.41806" lon="0.79795">
        <ele>126.395441</ele>
        <time>2021-09-07T07:33:19.000Z</time>
      </trkpt>
      <trkpt lat="48.41802" lon="0.79812">
        <ele>126.336793</ele>
        <time>2021-09-07T07:33:21.000Z</time>
      </trkpt>
      <trkpt lat="48.41795" lon="0.79836">
        <ele>126.248384</ele>
        <time>2021-09-07T07:33:24.000Z</time>
      </trkpt>
      <trkpt lat="48.41792" lon="0.79852">
        <ele>126.19131</ele>
        <time>2021-09-07T07:33:26.000Z</time>
      </trkpt>
      <trkpt lat="48.41787" lon="0.79869">
        <ele>126.128307</ele>
        <time>2021-09-07T07:33:28.000Z</time>
      </trkpt>
      <trkpt lat="48.41785" lon="0.79877">
        <ele>126.097494</ele>
        <time>2021-09-07T07:33:29.000Z</time>
      </trkpt>
      <trkpt lat="48.41779" lon="0.79902">
        <ele>126.005527</ele>
        <time>2021-09-07T07:33:32.000Z</time>
      </trkpt>
      <trkpt lat="48.41767" lon="0.79937">
        <ele>125.870973</ele>
        <time>2021-09-07T07:33:37.000Z</time>
      </trkpt>
      <trkpt lat="48.41765" lon="0.79943">
        <ele>125.846698</ele>
        <time>2021-09-07T07:33:38.000Z</time>
      </trkpt>
      <trkpt lat="48.41759" lon="0.79963">
        <ele>125.769864</ele>
        <time>2021-09-07T07:33:41.000Z</time>
      </trkpt>
      <trkpt lat="48.41758" lon="0.79971">
        <ele>125.741676</ele>
        <time>2021-09-07T07:33:42.000Z</time>
      </trkpt>
      <trkpt lat="48.41755" lon="0.79979">
        <ele>125.711137</ele>
        <time>2021-09-07T07:33:43.000Z</time>
      </trkpt>
      <trkpt lat="48.41746" lon="0.80014">
        <ele>125.582289</ele>
        <time>2021-09-07T07:33:47.000Z</time>
      </trkpt>
      <trkpt lat="48.41736" lon="0.80048">
        <ele>125.450283</ele>
        <time>2021-09-07T07:33:51.000Z</time>
      </trkpt>
      <trkpt lat="48.41733" lon="0.80067">
        <ele>125.369628</ele>
        <time>2021-09-07T07:33:53.000Z</time>
      </trkpt>
      <trkpt lat="48.41732" lon="0.80077">
        <ele>125.328593</ele>
        <time>2021-09-07T07:33:54.000Z</time>
      </trkpt>
      <trkpt lat="48.41722" lon="0.80103">
        <ele>125.203363</ele>
        <time>2021-09-07T07:33:57.000Z</time>
      </trkpt>
      <trkpt lat="48.41715" lon="0.80119">
        <ele>125.122635</ele>
        <time>2021-09-07T07:33:59.000Z</time>
      </trkpt>
      <trkpt lat="48.41703" lon="0.80144">
        <ele>124.995932</ele>
        <time>2021-09-07T07:34:02.000Z</time>
      </trkpt>
      <trkpt lat="48.41679" lon="0.80191">
        <ele>124.746906</ele>
        <time>2021-09-07T07:34:08.000Z</time>
      </trkpt>
      <trkpt lat="48.41648" lon="0.80242">
        <ele>124.458288</ele>
        <time>2021-09-07T07:34:15.000Z</time>
      </trkpt>
      <trkpt lat="48.41631" lon="0.80269">
        <ele>124.295746</ele>
        <time>2021-09-07T07:34:19.000Z</time>
      </trkpt>
      <trkpt lat="48.41627" lon="0.80276">
        <ele>124.252442</ele>
        <time>2021-09-07T07:34:20.000Z</time>
      </trkpt>
      <trkpt lat="48.41605" lon="0.80311">
        <ele>124.011347</ele>
        <time>2021-09-07T07:34:25.000Z</time>
      </trkpt>
      <trkpt lat="48.41593" lon="0.80333">
        <ele>123.873021</ele>
        <time>2021-09-07T07:34:28.000Z</time>
      </trkpt>
      <trkpt lat="48.41588" lon="0.8034">
        <ele>123.823726</ele>
        <time>2021-09-07T07:34:29.000Z</time>
      </trkpt>
      <trkpt lat="48.41564" lon="0.80388">
        <ele>123.520453</ele>
        <time>2021-09-07T07:34:35.000Z</time>
      </trkpt>
      <trkpt lat="48.4155" lon="0.80421">
        <ele>123.329194</ele>
        <time>2021-09-07T07:34:39.000Z</time>
      </trkpt>
      <trkpt lat="48.41537" lon="0.80454">
        <ele>123.135851</ele>
        <time>2021-09-07T07:34:43.000Z</time>
      </trkpt>
      <trkpt lat="48.41534" lon="0.80463">
        <ele>123.086968</ele>
        <time>2021-09-07T07:34:44.000Z</time>
      </trkpt>
      <trkpt lat="48.41516" lon="0.80513">
        <ele>123.129192</ele>
        <time>2021-09-07T07:34:50.000Z</time>
      </trkpt>
      <trkpt lat="48.41505" lon="0.80559">
        <ele>123.33722</ele>
        <time>2021-09-07T07:34:55.000Z</time>
      </trkpt>
      <trkpt lat="48.41497" lon="0.80604">
        <ele>123.537143</ele>
        <time>2021-09-07T07:35:00.000Z</time>
      </trkpt>
      <trkpt lat="48.41496" lon="0.80614">
        <ele>123.578769</ele>
        <time>2021-09-07T07:35:01.000Z</time>
      </trkpt>
      <trkpt lat="48.41491" lon="0.80652">
        <ele>123.74588</ele>
        <time>2021-09-07T07:35:05.000Z</time>
      </trkpt>
      <trkpt lat="48.41488" lon="0.80661">
        <ele>123.787148</ele>
        <time>2021-09-07T07:35:06.000Z</time>
      </trkpt>
      <trkpt lat="48.41482" lon="0.80688">
        <ele>123.909715</ele>
        <time>2021-09-07T07:35:09.000Z</time>
      </trkpt>
      <trkpt lat="48.4148" lon="0.80697">
        <ele>123.95024</ele>
        <time>2021-09-07T07:35:10.000Z</time>
      </trkpt>
      <trkpt lat="48.41473" lon="0.80733">
        <ele>124.109859</ele>
        <time>2021-09-07T07:35:14.000Z</time>
      </trkpt>
      <trkpt lat="48.41469" lon="0.8075">
        <ele>124.37694</ele>
        <time>2021-09-07T07:35:16.000Z</time>
      </trkpt>
      <trkpt lat="48.41467" lon="0.80768">
        <ele>124.734958</ele>
        <time>2021-09-07T07:35:18.000Z</time>
      </trkpt>
      <trkpt lat="48.4146" lon="0.80811">
        <ele>125.613675</ele>
        <time>2021-09-07T07:35:23.000Z</time>
      </trkpt>
      <trkpt lat="48.41454" lon="0.80826">
        <ele>125.948402</ele>
        <time>2021-09-07T07:35:25.000Z</time>
      </trkpt>
      <trkpt lat="48.41453" lon="0.80835">
        <ele>126.129014</ele>
        <time>2021-09-07T07:35:26.000Z</time>
      </trkpt>
      <trkpt lat="48.4145" lon="0.80852">
        <ele>126.481243</ele>
        <time>2021-09-07T07:35:28.000Z</time>
      </trkpt>
      <trkpt lat="48.41447" lon="0.80878">
        <ele>126.999491</ele>
        <time>2021-09-07T07:35:31.000Z</time>
      </trkpt>
      <trkpt lat="48.4144" lon="0.8091">
        <ele>127.667799</ele>
        <time>2021-09-07T07:35:35.000Z</time>
      </trkpt>
      <trkpt lat="48.41434" lon="0.80933">
        <ele>128.150224</ele>
        <time>2021-09-07T07:35:38.000Z</time>
      </trkpt>
      <trkpt lat="48.41434" lon="0.8094">
        <ele>128.295434</ele>
        <time>2021-09-07T07:35:39.000Z</time>
      </trkpt>
      <trkpt lat="48.41431" lon="0.80947">
        <ele>128.447684</ele>
        <time>2021-09-07T07:35:40.000Z</time>
      </trkpt>
      <trkpt lat="48.41425" lon="0.80967">
        <ele>128.885179</ele>
        <time>2021-09-07T07:35:43.000Z</time>
      </trkpt>
      <trkpt lat="48.41424" lon="0.80974">
        <ele>129.032912</ele>
        <time>2021-09-07T07:35:44.000Z</time>
      </trkpt>
      <trkpt lat="48.4142" lon="0.80999">
        <ele>129.51977</ele>
        <time>2021-09-07T07:35:47.000Z</time>
      </trkpt>
      <trkpt lat="48.41415" lon="0.81043">
        <ele>129.906277</ele>
        <time>2021-09-07T07:35:52.000Z</time>
      </trkpt>
      <trkpt lat="48.41413" lon="0.8106">
        <ele>130.058956</ele>
        <time>2021-09-07T07:35:54.000Z</time>
      </trkpt>
      <trkpt lat="48.41409" lon="0.81086">
        <ele>130.284862</ele>
        <time>2021-09-07T07:35:57.000Z</time>
      </trkpt>
      <trkpt lat="48.41407" lon="0.81094">
        <ele>130.358696</ele>
        <time>2021-09-07T07:35:58.000Z</time>
      </trkpt>
      <trkpt lat="48.41404" lon="0.81127">
        <ele>130.643839</ele>
        <time>2021-09-07T07:36:02.000Z</time>
      </trkpt>
      <trkpt lat="48.41399" lon="0.81158">
        <ele>130.920514</ele>
        <time>2021-09-07T07:36:06.000Z</time>
      </trkpt>
      <trkpt lat="48.41398" lon="0.81176">
        <ele>131.074356</ele>
        <time>2021-09-07T07:36:08.000Z</time>
      </trkpt>
      <trkpt lat="48.41393" lon="0.81221">
        <ele>131.467181</ele>
        <time>2021-09-07T07:36:13.000Z</time>
      </trkpt>
      <trkpt lat="48.41389" lon="0.81278">
        <ele>131.806511</ele>
        <time>2021-09-07T07:36:19.000Z</time>
      </trkpt>
      <trkpt lat="48.41385" lon="0.81335">
        <ele>131.656552</ele>
        <time>2021-09-07T07:36:25.000Z</time>
      </trkpt>
      <trkpt lat="48.41383" lon="0.81354">
        <ele>131.606135</ele>
        <time>2021-09-07T07:36:27.000Z</time>
      </trkpt>
      <trkpt lat="48.41382" lon="0.81374">
        <ele>131.554169</ele>
        <time>2021-09-07T07:36:29.000Z</time>
      </trkpt>
      <trkpt lat="48.41378" lon="0.81422">
        <ele>131.430232</ele>
        <time>2021-09-07T07:36:34.000Z</time>
      </trkpt>
      <trkpt lat="48.41377" lon="0.81439">
        <ele>131.38558</ele>
        <time>2021-09-07T07:36:36.000Z</time>
      </trkpt>
      <trkpt lat="48.41374" lon="0.81456">
        <ele>131.338337</ele>
        <time>2021-09-07T07:36:38.000Z</time>
      </trkpt>
      <trkpt lat="48.4137" lon="0.81473">
        <ele>131.291509</ele>
        <time>2021-09-07T07:36:40.000Z</time>
      </trkpt>
      <trkpt lat="48.41367" lon="0.815">
        <ele>131.221314</ele>
        <time>2021-09-07T07:36:43.000Z</time>
      </trkpt>
      <trkpt lat="48.41358" lon="0.81556">
        <ele>131.087342</ele>
        <time>2021-09-07T07:36:49.000Z</time>
      </trkpt>
      <trkpt lat="48.41357" lon="0.81566">
        <ele>131.068581</ele>
        <time>2021-09-07T07:36:50.000Z</time>
      </trkpt>
      <trkpt lat="48.41352" lon="0.81593">
        <ele>131.012946</ele>
        <time>2021-09-07T07:36:53.000Z</time>
      </trkpt>
      <trkpt lat="48.4135" lon="0.81602">
        <ele>130.995186</ele>
        <time>2021-09-07T07:36:54.000Z</time>
      </trkpt>
      <trkpt lat="48.41346" lon="0.81619">
        <ele>130.959518</ele>
        <time>2021-09-07T07:36:56.000Z</time>
      </trkpt>
      <trkpt lat="48.41345" lon="0.81628">
        <ele>130.940731</ele>
        <time>2021-09-07T07:36:57.000Z</time>
      </trkpt>
      <trkpt lat="48.4134" lon="0.81647">
        <ele>130.901498</ele>
        <time>2021-09-07T07:36:59.000Z</time>
      </trkpt>
      <trkpt lat="48.41333" lon="0.81674">
        <ele>130.843556</ele>
        <time>2021-09-07T07:37:02.000Z</time>
      </trkpt>
      <trkpt lat="48.41326" lon="0.81707">
        <ele>130.774752</ele>
        <time>2021-09-07T07:37:06.000Z</time>
      </trkpt>
      <trkpt lat="48.41313" lon="0.81749">
        <ele>130.683956</ele>
        <time>2021-09-07T07:37:11.000Z</time>
      </trkpt>
      <trkpt lat="48.41305" lon="0.8177">
        <ele>130.636443</ele>
        <time>2021-09-07T07:37:14.000Z</time>
      </trkpt>
      <trkpt lat="48.41294" lon="0.81814">
        <ele>130.34144</ele>
        <time>2021-09-07T07:37:19.000Z</time>
      </trkpt>
      <trkpt lat="48.41278" lon="0.81869">
        <ele>129.818441</ele>
        <time>2021-09-07T07:37:25.000Z</time>
      </trkpt>
      <trkpt lat="48.41263" lon="0.81915">
        <ele>129.37386</ele>
        <time>2021-09-07T07:37:30.000Z</time>
      </trkpt>
      <trkpt lat="48.41243" lon="0.81977">
        <ele>128.779911</ele>
        <time>2021-09-07T07:37:37.000Z</time>
      </trkpt>
      <trkpt lat="48.41238" lon="0.81996">
        <ele>128.600314</ele>
        <time>2021-09-07T07:37:39.000Z</time>
      </trkpt>
      <trkpt lat="48.41228" lon="0.82021">
        <ele>128.34329</ele>
        <time>2021-09-07T07:37:42.000Z</time>
      </trkpt>
      <trkpt lat="48.41225" lon="0.82029">
        <ele>128.263678</ele>
        <time>2021-09-07T07:37:43.000Z</time>
      </trkpt>
      <trkpt lat="48.41217" lon="0.82056">
        <ele>127.936564</ele>
        <time>2021-09-07T07:37:46.000Z</time>
      </trkpt>
      <trkpt lat="48.41214" lon="0.82065">
        <ele>127.823041</ele>
        <time>2021-09-07T07:37:47.000Z</time>
      </trkpt>
      <trkpt lat="48.41206" lon="0.82092">
        <ele>127.480263</ele>
        <time>2021-09-07T07:37:50.000Z</time>
      </trkpt>
      <trkpt lat="48.41204" lon="0.821">
        <ele>127.378081</ele>
        <time>2021-09-07T07:37:51.000Z</time>
      </trkpt>
      <trkpt lat="48.41202" lon="0.82108">
        <ele>127.280182</ele>
        <time>2021-09-07T07:37:52.000Z</time>
      </trkpt>
      <trkpt lat="48.41196" lon="0.82123">
        <ele>127.076704</ele>
        <time>2021-09-07T07:37:54.000Z</time>
      </trkpt>
      <trkpt lat="48.41192" lon="0.82131">
        <ele>126.969846</ele>
        <time>2021-09-07T07:37:55.000Z</time>
      </trkpt>
      <trkpt lat="48.4118" lon="0.8216">
        <ele>126.572778</ele>
        <time>2021-09-07T07:37:59.000Z</time>
      </trkpt>
      <trkpt lat="48.41171" lon="0.82182">
        <ele>126.277848</ele>
        <time>2021-09-07T07:38:02.000Z</time>
      </trkpt>
      <trkpt lat="48.41165" lon="0.82197">
        <ele>126.080314</ele>
        <time>2021-09-07T07:38:04.000Z</time>
      </trkpt>
      <trkpt lat="48.41152" lon="0.82228">
        <ele>125.655739</ele>
        <time>2021-09-07T07:38:08.000Z</time>
      </trkpt>
      <trkpt lat="48.41148" lon="0.82236">
        <ele>125.549824</ele>
        <time>2021-09-07T07:38:09.000Z</time>
      </trkpt>
      <trkpt lat="48.41137" lon="0.82259">
        <ele>125.222597</ele>
        <time>2021-09-07T07:38:12.000Z</time>
      </trkpt>
      <trkpt lat="48.4113" lon="0.82276">
        <ele>125.086698</ele>
        <time>2021-09-07T07:38:14.000Z</time>
      </trkpt>
      <trkpt lat="48.41127" lon="0.82284">
        <ele>125.037005</ele>
        <time>2021-09-07T07:38:15.000Z</time>
      </trkpt>
      <trkpt lat="48.41106" lon="0.8233">
        <ele>124.75511</ele>
        <time>2021-09-07T07:38:21.000Z</time>
      </trkpt>
      <trkpt lat="48.41102" lon="0.82338">
        <ele>124.705765</ele>
        <time>2021-09-07T07:38:22.000Z</time>
      </trkpt>
      <trkpt lat="48.41089" lon="0.82362">
        <ele>124.553728</ele>
        <time>2021-09-07T07:38:25.000Z</time>
      </trkpt>
      <trkpt lat="48.41086" lon="0.82369">
        <ele>124.508405</ele>
        <time>2021-09-07T07:38:26.000Z</time>
      </trkpt>
      <trkpt lat="48.41077" lon="0.82385">
        <ele>124.408116</ele>
        <time>2021-09-07T07:38:28.000Z</time>
      </trkpt>
      <trkpt lat="48.41065" lon="0.82408">
        <ele>124.259607</ele>
        <time>2021-09-07T07:38:31.000Z</time>
      </trkpt>
      <trkpt lat="48.4104" lon="0.82451">
        <ele>123.973949</ele>
        <time>2021-09-07T07:38:37.000Z</time>
      </trkpt>
      <trkpt lat="48.41036" lon="0.82458">
        <ele>123.928908</ele>
        <time>2021-09-07T07:38:38.000Z</time>
      </trkpt>
      <trkpt lat="48.41027" lon="0.82471">
        <ele>123.833234</ele>
        <time>2021-09-07T07:38:40.000Z</time>
      </trkpt>
      <trkpt lat="48.41022" lon="0.82476">
        <ele>123.794937</ele>
        <time>2021-09-07T07:38:41.000Z</time>
      </trkpt>
      <trkpt lat="48.41001" lon="0.82507">
        <ele>123.759482</ele>
        <time>2021-09-07T07:38:46.000Z</time>
      </trkpt>
      <trkpt lat="48.40983" lon="0.82533">
        <ele>123.729735</ele>
        <time>2021-09-07T07:38:50.000Z</time>
      </trkpt>
      <trkpt lat="48.40965" lon="0.82558">
        <ele>123.700206</ele>
        <time>2021-09-07T07:38:54.000Z</time>
      </trkpt>
      <trkpt lat="48.40956" lon="0.8257">
        <ele>123.685039</ele>
        <time>2021-09-07T07:38:56.000Z</time>
      </trkpt>
      <trkpt lat="48.40948" lon="0.82583">
        <ele>123.670787</ele>
        <time>2021-09-07T07:38:58.000Z</time>
      </trkpt>
      <trkpt lat="48.40944" lon="0.8259">
        <ele>123.663728</ele>
        <time>2021-09-07T07:38:59.000Z</time>
      </trkpt>
      <trkpt lat="48.40931" lon="0.82608">
        <ele>123.642512</ele>
        <time>2021-09-07T07:39:02.000Z</time>
      </trkpt>
      <trkpt lat="48.40916" lon="0.8263">
        <ele>123.617161</ele>
        <time>2021-09-07T07:39:06.000Z</time>
      </trkpt>
      <trkpt lat="48.40912" lon="0.82636">
        <ele>123.610285</ele>
        <time>2021-09-07T07:39:07.000Z</time>
      </trkpt>
      <trkpt lat="48.40891" lon="0.82666">
        <ele>123.593557</ele>
        <time>2021-09-07T07:39:12.000Z</time>
      </trkpt>
      <trkpt lat="48.40874" lon="0.82691">
        <ele>123.709615</ele>
        <time>2021-09-07T07:39:16.000Z</time>
      </trkpt>
      <trkpt lat="48.40864" lon="0.82704">
        <ele>123.773978</ele>
        <time>2021-09-07T07:39:18.000Z</time>
      </trkpt>
      <trkpt lat="48.40859" lon="0.82709">
        <ele>123.803391</ele>
        <time>2021-09-07T07:39:19.000Z</time>
      </trkpt>
      <trkpt lat="48.4085" lon="0.82722">
        <ele>123.862242</ele>
        <time>2021-09-07T07:39:21.000Z</time>
      </trkpt>
      <trkpt lat="48.40845" lon="0.82728">
        <ele>123.893414</ele>
        <time>2021-09-07T07:39:22.000Z</time>
      </trkpt>
      <trkpt lat="48.40834" lon="0.8274">
        <ele>123.958788</ele>
        <time>2021-09-07T07:39:24.000Z</time>
      </trkpt>
      <trkpt lat="48.40829" lon="0.82746">
        <ele>123.989433</ele>
        <time>2021-09-07T07:39:25.000Z</time>
      </trkpt>
      <trkpt lat="48.40824" lon="0.82752">
        <ele>124.019295</ele>
        <time>2021-09-07T07:39:26.000Z</time>
      </trkpt>
      <trkpt lat="48.4081" lon="0.82772">
        <ele>124.109232</ele>
        <time>2021-09-07T07:39:29.000Z</time>
      </trkpt>
      <trkpt lat="48.40806" lon="0.82777">
        <ele>124.137739</ele>
        <time>2021-09-07T07:39:30.000Z</time>
      </trkpt>
      <trkpt lat="48.40797" lon="0.82789">
        <ele>124.195858</ele>
        <time>2021-09-07T07:39:32.000Z</time>
      </trkpt>
      <trkpt lat="48.40788" lon="0.82801">
        <ele>124.251637</ele>
        <time>2021-09-07T07:39:34.000Z</time>
      </trkpt>
      <trkpt lat="48.40784" lon="0.82807">
        <ele>124.28198</ele>
        <time>2021-09-07T07:39:35.000Z</time>
      </trkpt>
      <trkpt lat="48.40766" lon="0.82834">
        <ele>124.40303</ele>
        <time>2021-09-07T07:39:39.000Z</time>
      </trkpt>
      <trkpt lat="48.40756" lon="0.82845">
        <ele>124.462538</ele>
        <time>2021-09-07T07:39:41.000Z</time>
      </trkpt>
      <trkpt lat="48.40748" lon="0.82855">
        <ele>124.526657</ele>
        <time>2021-09-07T07:39:43.000Z</time>
      </trkpt>
      <trkpt lat="48.40731" lon="0.8288">
        <ele>124.665066</ele>
        <time>2021-09-07T07:39:47.000Z</time>
      </trkpt>
      <trkpt lat="48.40702" lon="0.82918">
        <ele>124.886898</ele>
        <time>2021-09-07T07:39:53.000Z</time>
      </trkpt>
      <trkpt lat="48.40678" lon="0.8295">
        <ele>125.076529</ele>
        <time>2021-09-07T07:39:58.000Z</time>
      </trkpt>
      <trkpt lat="48.40669" lon="0.82962">
        <ele>125.149325</ele>
        <time>2021-09-07T07:40:00.000Z</time>
      </trkpt>
      <trkpt lat="48.40655" lon="0.82982">
        <ele>125.258469</ele>
        <time>2021-09-07T07:40:03.000Z</time>
      </trkpt>
      <trkpt lat="48.40646" lon="0.82995">
        <ele>125.331431</ele>
        <time>2021-09-07T07:40:05.000Z</time>
      </trkpt>
      <trkpt lat="48.40637" lon="0.83008">
        <ele>125.404283</ele>
        <time>2021-09-07T07:40:07.000Z</time>
      </trkpt>
      <trkpt lat="48.40633" lon="0.83013">
        <ele>125.437362</ele>
        <time>2021-09-07T07:40:08.000Z</time>
      </trkpt>
      <trkpt lat="48.4062" lon="0.83033">
        <ele>125.616037</ele>
        <time>2021-09-07T07:40:11.000Z</time>
      </trkpt>
      <trkpt lat="48.40604" lon="0.83051">
        <ele>125.912852</ele>
        <time>2021-09-07T07:40:14.000Z</time>
      </trkpt>
      <trkpt lat="48.40599" lon="0.83056">
        <ele>126.011737</ele>
        <time>2021-09-07T07:40:15.000Z</time>
      </trkpt>
      <trkpt lat="48.40581" lon="0.83077">
        <ele>126.352718</ele>
        <time>2021-09-07T07:40:19.000Z</time>
      </trkpt>
      <trkpt lat="48.40577" lon="0.83082">
        <ele>126.425932</ele>
        <time>2021-09-07T07:40:20.000Z</time>
      </trkpt>
      <trkpt lat="48.40565" lon="0.83098">
        <ele>126.66997</ele>
        <time>2021-09-07T07:40:23.000Z</time>
      </trkpt>
      <trkpt lat="48.40552" lon="0.83115">
        <ele>126.928857</ele>
        <time>2021-09-07T07:40:26.000Z</time>
      </trkpt>
      <trkpt lat="48.40531" lon="0.83145">
        <ele>127.355453</ele>
        <time>2021-09-07T07:40:31.000Z</time>
      </trkpt>
      <trkpt lat="48.40527" lon="0.83151">
        <ele>127.440312</ele>
        <time>2021-09-07T07:40:32.000Z</time>
      </trkpt>
      <trkpt lat="48.40514" lon="0.83167">
        <ele>127.686218</ele>
        <time>2021-09-07T07:40:35.000Z</time>
      </trkpt>
      <trkpt lat="48.4049" lon="0.83204">
        <ele>128.204282</ele>
        <time>2021-09-07T07:40:41.000Z</time>
      </trkpt>
      <trkpt lat="48.40467" lon="0.83235">
        <ele>128.616295</ele>
        <time>2021-09-07T07:40:46.000Z</time>
      </trkpt>
      <trkpt lat="48.40457" lon="0.83245">
        <ele>128.775624</ele>
        <time>2021-09-07T07:40:48.000Z</time>
      </trkpt>
      <trkpt lat="48.40448" lon="0.83257">
        <ele>128.934473</ele>
        <time>2021-09-07T07:40:50.000Z</time>
      </trkpt>
      <trkpt lat="48.40431" lon="0.83281">
        <ele>129.248222</ele>
        <time>2021-09-07T07:40:54.000Z</time>
      </trkpt>
      <trkpt lat="48.40427" lon="0.83287">
        <ele>129.32737</ele>
        <time>2021-09-07T07:40:55.000Z</time>
      </trkpt>
      <trkpt lat="48.40409" lon="0.83309">
        <ele>129.636448</ele>
        <time>2021-09-07T07:40:59.000Z</time>
      </trkpt>
      <trkpt lat="48.40405" lon="0.83314">
        <ele>129.701653</ele>
        <time>2021-09-07T07:41:00.000Z</time>
      </trkpt>
      <trkpt lat="48.40402" lon="0.83319">
        <ele>129.766493</ele>
        <time>2021-09-07T07:41:01.000Z</time>
      </trkpt>
      <trkpt lat="48.40394" lon="0.83331">
        <ele>129.910974</ele>
        <time>2021-09-07T07:41:03.000Z</time>
      </trkpt>
      <trkpt lat="48.40382" lon="0.83349">
        <ele>130.143265</ele>
        <time>2021-09-07T07:41:06.000Z</time>
      </trkpt>
      <trkpt lat="48.40379" lon="0.83356">
        <ele>130.215156</ele>
        <time>2021-09-07T07:41:07.000Z</time>
      </trkpt>
      <trkpt lat="48.40374" lon="0.83363">
        <ele>130.302363</ele>
        <time>2021-09-07T07:41:08.000Z</time>
      </trkpt>
      <trkpt lat="48.40366" lon="0.83376">
        <ele>130.459357</ele>
        <time>2021-09-07T07:41:10.000Z</time>
      </trkpt>
      <trkpt lat="48.40363" lon="0.83382">
        <ele>130.531487</ele>
        <time>2021-09-07T07:41:11.000Z</time>
      </trkpt>
      <trkpt lat="48.40359" lon="0.83389">
        <ele>130.605636</ele>
        <time>2021-09-07T07:41:12.000Z</time>
      </trkpt>
      <trkpt lat="48.40349" lon="0.834">
        <ele>130.708198</ele>
        <time>2021-09-07T07:41:14.000Z</time>
      </trkpt>
      <trkpt lat="48.40339" lon="0.83411">
        <ele>130.808461</ele>
        <time>2021-09-07T07:41:16.000Z</time>
      </trkpt>
      <trkpt lat="48.40331" lon="0.83423">
        <ele>130.898326</ele>
        <time>2021-09-07T07:41:18.000Z</time>
      </trkpt>
      <trkpt lat="48.40327" lon="0.8343">
        <ele>130.947</ele>
        <time>2021-09-07T07:41:19.000Z</time>
      </trkpt>
      <trkpt lat="48.40315" lon="0.83448">
        <ele>131.088717</ele>
        <time>2021-09-07T07:41:22.000Z</time>
      </trkpt>
      <trkpt lat="48.4031" lon="0.83453">
        <ele>131.139036</ele>
        <time>2021-09-07T07:41:23.000Z</time>
      </trkpt>
      <trkpt lat="48.40295" lon="0.83472">
        <ele>131.297563</ele>
        <time>2021-09-07T07:41:26.000Z</time>
      </trkpt>
      <trkpt lat="48.40285" lon="0.83485">
        <ele>131.402279</ele>
        <time>2021-09-07T07:41:28.000Z</time>
      </trkpt>
      <trkpt lat="48.40276" lon="0.83497">
        <ele>131.501784</ele>
        <time>2021-09-07T07:41:30.000Z</time>
      </trkpt>
      <trkpt lat="48.40266" lon="0.8351">
        <ele>131.607989</ele>
        <time>2021-09-07T07:41:32.000Z</time>
      </trkpt>
      <trkpt lat="48.40257" lon="0.83522">
        <ele>131.707421</ele>
        <time>2021-09-07T07:41:34.000Z</time>
      </trkpt>
      <trkpt lat="48.40236" lon="0.83551">
        <ele>131.939695</ele>
        <time>2021-09-07T07:41:39.000Z</time>
      </trkpt>
      <trkpt lat="48.40232" lon="0.83557">
        <ele>131.987625</ele>
        <time>2021-09-07T07:41:40.000Z</time>
      </trkpt>
      <trkpt lat="48.40215" lon="0.83582">
        <ele>131.999559</ele>
        <time>2021-09-07T07:41:44.000Z</time>
      </trkpt>
      <trkpt lat="48.40206" lon="0.83595">
        <ele>131.943558</ele>
        <time>2021-09-07T07:41:46.000Z</time>
      </trkpt>
      <trkpt lat="48.40192" lon="0.83614">
        <ele>131.858435</ele>
        <time>2021-09-07T07:41:49.000Z</time>
      </trkpt>
      <trkpt lat="48.40187" lon="0.83621">
        <ele>131.828601</ele>
        <time>2021-09-07T07:41:50.000Z</time>
      </trkpt>
      <trkpt lat="48.40173" lon="0.83639">
        <ele>131.742072</ele>
        <time>2021-09-07T07:41:53.000Z</time>
      </trkpt>
      <trkpt lat="48.40139" lon="0.83683">
        <ele>131.541742</ele>
        <time>2021-09-07T07:42:00.000Z</time>
      </trkpt>
      <trkpt lat="48.40134" lon="0.83689">
        <ele>131.512384</ele>
        <time>2021-09-07T07:42:01.000Z</time>
      </trkpt>
      <trkpt lat="48.40119" lon="0.83708">
        <ele>131.424238</ele>
        <time>2021-09-07T07:42:04.000Z</time>
      </trkpt>
      <trkpt lat="48.40087" lon="0.83754">
        <ele>131.206599</ele>
        <time>2021-09-07T07:42:11.000Z</time>
      </trkpt>
      <trkpt lat="48.40078" lon="0.83765">
        <ele>131.119683</ele>
        <time>2021-09-07T07:42:13.000Z</time>
      </trkpt>
      <trkpt lat="48.40073" lon="0.83771">
        <ele>131.073135</ele>
        <time>2021-09-07T07:42:14.000Z</time>
      </trkpt>
      <trkpt lat="48.40051" lon="0.83802">
        <ele>130.858949</ele>
        <time>2021-09-07T07:42:19.000Z</time>
      </trkpt>
      <trkpt lat="48.40041" lon="0.83813">
        <ele>130.770123</ele>
        <time>2021-09-07T07:42:21.000Z</time>
      </trkpt>
      <trkpt lat="48.40028" lon="0.83832">
        <ele>130.638484</ele>
        <time>2021-09-07T07:42:24.000Z</time>
      </trkpt>
      <trkpt lat="48.40021" lon="0.83845">
        <ele>130.557383</ele>
        <time>2021-09-07T07:42:26.000Z</time>
      </trkpt>
      <trkpt lat="48.40005" lon="0.83868">
        <ele>130.398014</ele>
        <time>2021-09-07T07:42:30.000Z</time>
      </trkpt>
      <trkpt lat="48.39995" lon="0.83878">
        <ele>130.309571</ele>
        <time>2021-09-07T07:42:32.000Z</time>
      </trkpt>
      <trkpt lat="48.39986" lon="0.83891">
        <ele>130.224057</ele>
        <time>2021-09-07T07:42:34.000Z</time>
      </trkpt>
      <trkpt lat="48.39979" lon="0.83901">
        <ele>130.151449</ele>
        <time>2021-09-07T07:42:36.000Z</time>
      </trkpt>
      <trkpt lat="48.39972" lon="0.83912">
        <ele>130.075134</ele>
        <time>2021-09-07T07:42:38.000Z</time>
      </trkpt>
      <trkpt lat="48.39968" lon="0.83918">
        <ele>130.036315</ele>
        <time>2021-09-07T07:42:39.000Z</time>
      </trkpt>
      <trkpt lat="48.39956" lon="0.83933">
        <ele>129.932227</ele>
        <time>2021-09-07T07:42:42.000Z</time>
      </trkpt>
      <trkpt lat="48.39943" lon="0.83949">
        <ele>129.853046</ele>
        <time>2021-09-07T07:42:45.000Z</time>
      </trkpt>
      <trkpt lat="48.39938" lon="0.83956">
        <ele>129.824004</ele>
        <time>2021-09-07T07:42:46.000Z</time>
      </trkpt>
      <trkpt lat="48.3993" lon="0.83968">
        <ele>129.770711</ele>
        <time>2021-09-07T07:42:48.000Z</time>
      </trkpt>
      <trkpt lat="48.39925" lon="0.83974">
        <ele>129.740591</ele>
        <time>2021-09-07T07:42:49.000Z</time>
      </trkpt>
      <trkpt lat="48.39905" lon="0.83999">
        <ele>129.61952</ele>
        <time>2021-09-07T07:42:53.000Z</time>
      </trkpt>
      <trkpt lat="48.39901" lon="0.84005">
        <ele>129.591387</ele>
        <time>2021-09-07T07:42:54.000Z</time>
      </trkpt>
      <trkpt lat="48.39874" lon="0.84041">
        <ele>129.423014</ele>
        <time>2021-09-07T07:43:00.000Z</time>
      </trkpt>
      <trkpt lat="48.39857" lon="0.84065">
        <ele>129.312279</ele>
        <time>2021-09-07T07:43:04.000Z</time>
      </trkpt>
      <trkpt lat="48.39853" lon="0.84072">
        <ele>129.284638</ele>
        <time>2021-09-07T07:43:05.000Z</time>
      </trkpt>
      <trkpt lat="48.39844" lon="0.84082">
        <ele>129.233029</ele>
        <time>2021-09-07T07:43:07.000Z</time>
      </trkpt>
      <trkpt lat="48.39839" lon="0.84087">
        <ele>129.205105</ele>
        <time>2021-09-07T07:43:08.000Z</time>
      </trkpt>
      <trkpt lat="48.39828" lon="0.84096">
        <ele>129.147281</ele>
        <time>2021-09-07T07:43:10.000Z</time>
      </trkpt>
      <trkpt lat="48.39818" lon="0.84108">
        <ele>129.117556</ele>
        <time>2021-09-07T07:43:12.000Z</time>
      </trkpt>
      <trkpt lat="48.39798" lon="0.84139">
        <ele>129.187743</ele>
        <time>2021-09-07T07:43:17.000Z</time>
      </trkpt>
      <trkpt lat="48.39782" lon="0.84164">
        <ele>129.242607</ele>
        <time>2021-09-07T07:43:21.000Z</time>
      </trkpt>
      <trkpt lat="48.39778" lon="0.8417">
        <ele>129.255957</ele>
        <time>2021-09-07T07:43:22.000Z</time>
      </trkpt>
      <trkpt lat="48.3977" lon="0.84183">
        <ele>129.283462</ele>
        <time>2021-09-07T07:43:24.000Z</time>
      </trkpt>
      <trkpt lat="48.39752" lon="0.84207">
        <ele>129.340954</ele>
        <time>2021-09-07T07:43:28.000Z</time>
      </trkpt>
      <trkpt lat="48.39749" lon="0.84213">
        <ele>129.353415</ele>
        <time>2021-09-07T07:43:29.000Z</time>
      </trkpt>
      <trkpt lat="48.39745" lon="0.84218">
        <ele>129.366257</ele>
        <time>2021-09-07T07:43:30.000Z</time>
      </trkpt>
      <trkpt lat="48.39728" lon="0.84241">
        <ele>129.42066</ele>
        <time>2021-09-07T07:43:34.000Z</time>
      </trkpt>
      <trkpt lat="48.39708" lon="0.84267">
        <ele>129.483772</ele>
        <time>2021-09-07T07:43:39.000Z</time>
      </trkpt>
      <trkpt lat="48.39698" lon="0.84281">
        <ele>129.516339</ele>
        <time>2021-09-07T07:43:42.000Z</time>
      </trkpt>
      <trkpt lat="48.39691" lon="0.84291">
        <ele>129.539794</ele>
        <time>2021-09-07T07:43:44.000Z</time>
      </trkpt>
      <trkpt lat="48.39683" lon="0.843">
        <ele>129.575231</ele>
        <time>2021-09-07T07:43:46.000Z</time>
      </trkpt>
      <trkpt lat="48.39675" lon="0.84309">
        <ele>129.610526</ele>
        <time>2021-09-07T07:43:48.000Z</time>
      </trkpt>
      <trkpt lat="48.39671" lon="0.84314">
        <ele>129.626928</ele>
        <time>2021-09-07T07:43:49.000Z</time>
      </trkpt>
      <trkpt lat="48.39668" lon="0.84318">
        <ele>129.642478</ele>
        <time>2021-09-07T07:43:50.000Z</time>
      </trkpt>
      <trkpt lat="48.39661" lon="0.84328">
        <ele>129.675622</ele>
        <time>2021-09-07T07:43:52.000Z</time>
      </trkpt>
      <trkpt lat="48.39658" lon="0.84333">
        <ele>129.690785</ele>
        <time>2021-09-07T07:43:53.000Z</time>
      </trkpt>
      <trkpt lat="48.39647" lon="0.84349">
        <ele>129.74386</ele>
        <time>2021-09-07T07:43:56.000Z</time>
      </trkpt>
      <trkpt lat="48.39643" lon="0.84354">
        <ele>129.763487</ele>
        <time>2021-09-07T07:43:57.000Z</time>
      </trkpt>
      <trkpt lat="48.39633" lon="0.8437">
        <ele>129.81308</ele>
        <time>2021-09-07T07:44:00.000Z</time>
      </trkpt>
      <trkpt lat="48.39629" lon="0.84375">
        <ele>129.83053</ele>
        <time>2021-09-07T07:44:01.000Z</time>
      </trkpt>
      <trkpt lat="48.39622" lon="0.84383">
        <ele>129.862085</ele>
        <time>2021-09-07T07:44:03.000Z</time>
      </trkpt>
      <trkpt lat="48.39615" lon="0.84394">
        <ele>129.896633</ele>
        <time>2021-09-07T07:44:05.000Z</time>
      </trkpt>
      <trkpt lat="48.39601" lon="0.84415">
        <ele>129.964967</ele>
        <time>2021-09-07T07:44:09.000Z</time>
      </trkpt>
      <trkpt lat="48.39594" lon="0.84425">
        <ele>129.998367</ele>
        <time>2021-09-07T07:44:11.000Z</time>
      </trkpt>
      <trkpt lat="48.39584" lon="0.84441">
        <ele>130.05148</ele>
        <time>2021-09-07T07:44:14.000Z</time>
      </trkpt>
      <trkpt lat="48.3958" lon="0.84447">
        <ele>130.070324</ele>
        <time>2021-09-07T07:44:15.000Z</time>
      </trkpt>
      <trkpt lat="48.39565" lon="0.84468">
        <ele>130.141673</ele>
        <time>2021-09-07T07:44:19.000Z</time>
      </trkpt>
      <trkpt lat="48.39558" lon="0.84478">
        <ele>130.220866</ele>
        <time>2021-09-07T07:44:21.000Z</time>
      </trkpt>
      <trkpt lat="48.39543" lon="0.84497">
        <ele>130.565983</ele>
        <time>2021-09-07T07:44:25.000Z</time>
      </trkpt>
      <trkpt lat="48.39531" lon="0.84511">
        <ele>130.837708</ele>
        <time>2021-09-07T07:44:28.000Z</time>
      </trkpt>
      <trkpt lat="48.39527" lon="0.84515">
        <ele>130.929107</ele>
        <time>2021-09-07T07:44:29.000Z</time>
      </trkpt>
      <trkpt lat="48.39523" lon="0.84519">
        <ele>131.021999</ele>
        <time>2021-09-07T07:44:30.000Z</time>
      </trkpt>
      <trkpt lat="48.3951" lon="0.84533">
        <ele>131.304027</ele>
        <time>2021-09-07T07:44:33.000Z</time>
      </trkpt>
      <trkpt lat="48.39494" lon="0.84551">
        <ele>131.661319</ele>
        <time>2021-09-07T07:44:37.000Z</time>
      </trkpt>
      <trkpt lat="48.39476" lon="0.84576">
        <ele>132.096404</ele>
        <time>2021-09-07T07:44:42.000Z</time>
      </trkpt>
      <trkpt lat="48.39473" lon="0.84581">
        <ele>132.183516</ele>
        <time>2021-09-07T07:44:43.000Z</time>
      </trkpt>
      <trkpt lat="48.39463" lon="0.84595">
        <ele>132.43372</ele>
        <time>2021-09-07T07:44:46.000Z</time>
      </trkpt>
      <trkpt lat="48.39459" lon="0.846">
        <ele>132.522669</ele>
        <time>2021-09-07T07:44:47.000Z</time>
      </trkpt>
      <trkpt lat="48.3945" lon="0.84609">
        <ele>132.715383</ele>
        <time>2021-09-07T07:44:49.000Z</time>
      </trkpt>
      <trkpt lat="48.39439" lon="0.84624">
        <ele>132.984579</ele>
        <time>2021-09-07T07:44:52.000Z</time>
      </trkpt>
      <trkpt lat="48.39427" lon="0.84639">
        <ele>133.257418</ele>
        <time>2021-09-07T07:44:55.000Z</time>
      </trkpt>
      <trkpt lat="48.39411" lon="0.84658">
        <ele>133.609885</ele>
        <time>2021-09-07T07:44:59.000Z</time>
      </trkpt>
      <trkpt lat="48.39407" lon="0.84663">
        <ele>133.695788</ele>
        <time>2021-09-07T07:45:00.000Z</time>
      </trkpt>
      <trkpt lat="48.39389" lon="0.84688">
        <ele>134.086266</ele>
        <time>2021-09-07T07:45:05.000Z</time>
      </trkpt>
      <trkpt lat="48.39386" lon="0.84693">
        <ele>134.160615</ele>
        <time>2021-09-07T07:45:06.000Z</time>
      </trkpt>
      <trkpt lat="48.39373" lon="0.84716">
        <ele>134.485203</ele>
        <time>2021-09-07T07:45:10.000Z</time>
      </trkpt>
      <trkpt lat="48.39358" lon="0.84737">
        <ele>134.813698</ele>
        <time>2021-09-07T07:45:14.000Z</time>
      </trkpt>
      <trkpt lat="48.39335" lon="0.84769">
        <ele>135.3207</ele>
        <time>2021-09-07T07:45:20.000Z</time>
      </trkpt>
      <trkpt lat="48.39318" lon="0.84792">
        <ele>135.680794</ele>
        <time>2021-09-07T07:45:24.000Z</time>
      </trkpt>
      <trkpt lat="48.39314" lon="0.84797">
        <ele>135.774238</ele>
        <time>2021-09-07T07:45:25.000Z</time>
      </trkpt>
      <trkpt lat="48.39289" lon="0.84831">
        <ele>136.297324</ele>
        <time>2021-09-07T07:45:31.000Z</time>
      </trkpt>
      <trkpt lat="48.39285" lon="0.84837">
        <ele>136.274028</ele>
        <time>2021-09-07T07:45:32.000Z</time>
      </trkpt>
      <trkpt lat="48.39277" lon="0.84849">
        <ele>136.224749</ele>
        <time>2021-09-07T07:45:34.000Z</time>
      </trkpt>
      <trkpt lat="48.39273" lon="0.84855">
        <ele>136.197798</ele>
        <time>2021-09-07T07:45:35.000Z</time>
      </trkpt>
      <trkpt lat="48.39268" lon="0.84861">
        <ele>136.169401</ele>
        <time>2021-09-07T07:45:36.000Z</time>
      </trkpt>
      <trkpt lat="48.39258" lon="0.84873">
        <ele>136.114151</ele>
        <time>2021-09-07T07:45:38.000Z</time>
      </trkpt>
      <trkpt lat="48.39254" lon="0.84879">
        <ele>136.087845</ele>
        <time>2021-09-07T07:45:39.000Z</time>
      </trkpt>
      <trkpt lat="48.39231" lon="0.84908">
        <ele>135.957121</ele>
        <time>2021-09-07T07:45:44.000Z</time>
      </trkpt>
      <trkpt lat="48.39207" lon="0.8494">
        <ele>135.815055</ele>
        <time>2021-09-07T07:45:49.000Z</time>
      </trkpt>
      <trkpt lat="48.39184" lon="0.84973">
        <ele>135.673227</ele>
        <time>2021-09-07T07:45:54.000Z</time>
      </trkpt>
      <trkpt lat="48.39161" lon="0.85006">
        <ele>135.532005</ele>
        <time>2021-09-07T07:45:59.000Z</time>
      </trkpt>
      <trkpt lat="48.39148" lon="0.85027">
        <ele>135.218552</ele>
        <time>2021-09-07T07:46:02.000Z</time>
      </trkpt>
      <trkpt lat="48.39138" lon="0.85043">
        <ele>134.893318</ele>
        <time>2021-09-07T07:46:04.000Z</time>
      </trkpt>
      <trkpt lat="48.39127" lon="0.85057">
        <ele>134.579398</ele>
        <time>2021-09-07T07:46:06.000Z</time>
      </trkpt>
      <trkpt lat="48.39119" lon="0.85069">
        <ele>134.322922</ele>
        <time>2021-09-07T07:46:08.000Z</time>
      </trkpt>
      <trkpt lat="48.39112" lon="0.8508">
        <ele>134.103067</ele>
        <time>2021-09-07T07:46:10.000Z</time>
      </trkpt>
      <trkpt lat="48.39105" lon="0.85091">
        <ele>133.873916</ele>
        <time>2021-09-07T07:46:12.000Z</time>
      </trkpt>
      <trkpt lat="48.39102" lon="0.85096">
        <ele>133.768976</ele>
        <time>2021-09-07T07:46:13.000Z</time>
      </trkpt>
      <trkpt lat="48.39095" lon="0.85111">
        <ele>133.496211</ele>
        <time>2021-09-07T07:46:16.000Z</time>
      </trkpt>
      <trkpt lat="48.39091" lon="0.85118">
        <ele>133.372734</ele>
        <time>2021-09-07T07:46:17.000Z</time>
      </trkpt>
      <trkpt lat="48.39063" lon="0.85159">
        <ele>132.494925</ele>
        <time>2021-09-07T07:46:23.000Z</time>
      </trkpt>
      <trkpt lat="48.39035" lon="0.85206">
        <ele>131.547193</ele>
        <time>2021-09-07T07:46:29.000Z</time>
      </trkpt>
      <trkpt lat="48.39025" lon="0.85221">
        <ele>131.342039</ele>
        <time>2021-09-07T07:46:31.000Z</time>
      </trkpt>
      <trkpt lat="48.39016" lon="0.85234">
        <ele>131.163419</ele>
        <time>2021-09-07T07:46:33.000Z</time>
      </trkpt>
      <trkpt lat="48.39012" lon="0.8524">
        <ele>131.078279</ele>
        <time>2021-09-07T07:46:34.000Z</time>
      </trkpt>
      <trkpt lat="48.38998" lon="0.85255">
        <ele>130.831492</ele>
        <time>2021-09-07T07:46:37.000Z</time>
      </trkpt>
      <trkpt lat="48.38993" lon="0.8526">
        <ele>130.749347</ele>
        <time>2021-09-07T07:46:38.000Z</time>
      </trkpt>
      <trkpt lat="48.38982" lon="0.85271">
        <ele>130.557718</ele>
        <time>2021-09-07T07:46:40.000Z</time>
      </trkpt>
      <trkpt lat="48.38975" lon="0.85277">
        <ele>130.45482</ele>
        <time>2021-09-07T07:46:41.000Z</time>
      </trkpt>
      <trkpt lat="48.38948" lon="0.853">
        <ele>130.007984</ele>
        <time>2021-09-07T07:46:46.000Z</time>
      </trkpt>
      <trkpt lat="48.38936" lon="0.85309">
        <ele>129.820615</ele>
        <time>2021-09-07T07:46:48.000Z</time>
      </trkpt>
      <trkpt lat="48.38913" lon="0.85322">
        <ele>129.473918</ele>
        <time>2021-09-07T07:46:52.000Z</time>
      </trkpt>
      <trkpt lat="48.38898" lon="0.85329">
        <ele>129.246497</ele>
        <time>2021-09-07T07:46:55.000Z</time>
      </trkpt>
      <trkpt lat="48.38892" lon="0.8533">
        <ele>129.15909</ele>
        <time>2021-09-07T07:46:56.000Z</time>
      </trkpt>
      <trkpt lat="48.38877" lon="0.85333">
        <ele>128.95646</ele>
        <time>2021-09-07T07:46:58.000Z</time>
      </trkpt>
      <trkpt lat="48.3887" lon="0.85333">
        <ele>128.895815</ele>
        <time>2021-09-07T07:46:59.000Z</time>
      </trkpt>
      <trkpt lat="48.38854" lon="0.85337">
        <ele>128.758122</ele>
        <time>2021-09-07T07:47:02.000Z</time>
      </trkpt>
      <trkpt lat="48.38849" lon="0.85338">
        <ele>128.718541</ele>
        <time>2021-09-07T07:47:03.000Z</time>
      </trkpt>
      <trkpt lat="48.38841" lon="0.85338">
        <ele>128.648501</ele>
        <time>2021-09-07T07:47:05.000Z</time>
      </trkpt>
      <trkpt lat="48.38831" lon="0.85337">
        <ele>128.570138</ele>
        <time>2021-09-07T07:47:07.000Z</time>
      </trkpt>
      <trkpt lat="48.38812" lon="0.85336">
        <ele>128.415167</ele>
        <time>2021-09-07T07:47:11.000Z</time>
      </trkpt>
      <trkpt lat="48.38796" lon="0.85334">
        <ele>128.28055</ele>
        <time>2021-09-07T07:47:15.000Z</time>
      </trkpt>
      <trkpt lat="48.38779" lon="0.85329">
        <ele>128.135904</ele>
        <time>2021-09-07T07:47:20.000Z</time>
      </trkpt>
      <trkpt lat="48.38765" lon="0.85323">
        <ele>128.018989</ele>
        <time>2021-09-07T07:47:24.000Z</time>
      </trkpt>
      <trkpt lat="48.38758" lon="0.85318">
        <ele>127.950117</ele>
        <time>2021-09-07T07:47:26.000Z</time>
      </trkpt>
      <trkpt lat="48.38748" lon="0.85314">
        <ele>127.871222</ele>
        <time>2021-09-07T07:47:28.000Z</time>
      </trkpt>
      <trkpt lat="48.38739" lon="0.85305">
        <ele>127.776578</ele>
        <time>2021-09-07T07:47:31.000Z</time>
      </trkpt>
      <trkpt lat="48.38736" lon="0.853">
        <ele>127.740334</ele>
        <time>2021-09-07T07:47:32.000Z</time>
      </trkpt>
      <trkpt lat="48.38732" lon="0.85293">
        <ele>127.692125</ele>
        <time>2021-09-07T07:47:33.000Z</time>
      </trkpt>
      <trkpt lat="48.38726" lon="0.85282">
        <ele>127.609711</ele>
        <time>2021-09-07T07:47:35.000Z</time>
      </trkpt>
      <trkpt lat="48.38721" lon="0.85275">
        <ele>127.556346</ele>
        <time>2021-09-07T07:47:36.000Z</time>
      </trkpt>
      <trkpt lat="48.38689" lon="0.85239">
        <ele>126.772976</ele>
        <time>2021-09-07T07:47:42.000Z</time>
      </trkpt>
      <trkpt lat="48.38669" lon="0.85215">
        <ele>126.138457</ele>
        <time>2021-09-07T07:47:47.000Z</time>
      </trkpt>
      <trkpt lat="48.38659" lon="0.85203">
        <ele>125.83183</ele>
        <time>2021-09-07T07:47:50.000Z</time>
      </trkpt>
      <trkpt lat="48.38643" lon="0.85181">
        <ele>125.319529</ele>
        <time>2021-09-07T07:47:54.000Z</time>
      </trkpt>
      <trkpt lat="48.3864" lon="0.85176">
        <ele>125.202064</ele>
        <time>2021-09-07T07:47:55.000Z</time>
      </trkpt>
      <trkpt lat="48.38632" lon="0.85165">
        <ele>124.946895</ele>
        <time>2021-09-07T07:47:57.000Z</time>
      </trkpt>
      <trkpt lat="48.38627" lon="0.85158">
        <ele>124.776247</ele>
        <time>2021-09-07T07:47:58.000Z</time>
      </trkpt>
      <trkpt lat="48.38617" lon="0.85144">
        <ele>124.45078</ele>
        <time>2021-09-07T07:48:00.000Z</time>
      </trkpt>
      <trkpt lat="48.38611" lon="0.85138">
        <ele>124.277648</ele>
        <time>2021-09-07T07:48:01.000Z</time>
      </trkpt>
      <trkpt lat="48.38581" lon="0.851">
        <ele>123.329283</ele>
        <time>2021-09-07T07:48:07.000Z</time>
      </trkpt>
      <trkpt lat="48.38577" lon="0.85094">
        <ele>123.185173</ele>
        <time>2021-09-07T07:48:08.000Z</time>
      </trkpt>
      <trkpt lat="48.38564" lon="0.8507">
        <ele>122.979109</ele>
        <time>2021-09-07T07:48:12.000Z</time>
      </trkpt>
      <trkpt lat="48.38554" lon="0.85055">
        <ele>122.872867</ele>
        <time>2021-09-07T07:48:15.000Z</time>
      </trkpt>
      <trkpt lat="48.3855" lon="0.85051">
        <ele>122.836277</ele>
        <time>2021-09-07T07:48:16.000Z</time>
      </trkpt>
      <trkpt lat="48.38531" lon="0.85039">
        <ele>122.679785</ele>
        <time>2021-09-07T07:48:21.000Z</time>
      </trkpt>
      <trkpt lat="48.38511" lon="0.85009">
        <ele>122.46299</ele>
        <time>2021-09-07T07:48:28.000Z</time>
      </trkpt>
      <trkpt lat="48.38497" lon="0.8499">
        <ele>122.323618</ele>
        <time>2021-09-07T07:48:33.000Z</time>
      </trkpt>
      <trkpt lat="48.38494" lon="0.84988">
        <ele>122.295388</ele>
        <time>2021-09-07T07:48:34.000Z</time>
      </trkpt>
      <trkpt lat="48.3848" lon="0.8497">
        <ele>122.153528</ele>
        <time>2021-09-07T07:48:39.000Z</time>
      </trkpt>
      <trkpt lat="48.38469" lon="0.84952">
        <ele>122.029455</ele>
        <time>2021-09-07T07:48:44.000Z</time>
      </trkpt>
      <trkpt lat="48.3846" lon="0.8494">
        <ele>121.940569</ele>
        <time>2021-09-07T07:48:48.000Z</time>
      </trkpt>
      <trkpt lat="48.38447" lon="0.84919">
        <ele>121.79082</ele>
        <time>2021-09-07T07:48:54.000Z</time>
      </trkpt>
      <trkpt lat="48.38442" lon="0.84909">
        <ele>121.752101</ele>
        <time>2021-09-07T07:48:56.000Z</time>
      </trkpt>
      <trkpt lat="48.38437" lon="0.84898">
        <ele>121.810877</ele>
        <time>2021-09-07T07:48:58.000Z</time>
      </trkpt>
      <trkpt lat="48.38433" lon="0.84892">
        <ele>121.84364</ele>
        <time>2021-09-07T07:48:59.000Z</time>
      </trkpt>
      <trkpt lat="48.38406" lon="0.84858">
        <ele>122.072058</ele>
        <time>2021-09-07T07:49:06.000Z</time>
      </trkpt>
      <trkpt lat="48.38383" lon="0.84837">
        <ele>122.247812</ele>
        <time>2021-09-07T07:49:12.000Z</time>
      </trkpt>
      <trkpt lat="48.38369" lon="0.84824">
        <ele>122.351793</ele>
        <time>2021-09-07T07:49:16.000Z</time>
      </trkpt>
      <trkpt lat="48.38365" lon="0.84823">
        <ele>122.37834</ele>
        <time>2021-09-07T07:49:17.000Z</time>
      </trkpt>
      <trkpt lat="48.38362" lon="0.8482">
        <ele>122.406321</ele>
        <time>2021-09-07T07:49:18.000Z</time>
      </trkpt>
      <trkpt lat="48.38347" lon="0.84806">
        <ele>122.514625</ele>
        <time>2021-09-07T07:49:22.000Z</time>
      </trkpt>
      <trkpt lat="48.38336" lon="0.84797">
        <ele>122.597526</ele>
        <time>2021-09-07T07:49:25.000Z</time>
      </trkpt>
      <trkpt lat="48.38328" lon="0.84784">
        <ele>122.675381</ele>
        <time>2021-09-07T07:49:28.000Z</time>
      </trkpt>
      <trkpt lat="48.38318" lon="0.84768">
        <ele>122.768053</ele>
        <time>2021-09-07T07:49:33.000Z</time>
      </trkpt>
      <trkpt lat="48.38317" lon="0.84767">
        <ele>122.774521</ele>
        <time>2021-09-07T07:49:36.000Z</time>
      </trkpt>
      <trkpt lat="48.38315" lon="0.84761">
        <ele>122.804943</ele>
        <time>2021-09-07T07:53:25.000Z</time>
      </trkpt>
      <trkpt lat="48.38314" lon="0.84759">
        <ele>122.81957</ele>
        <time>2021-09-07T07:53:26.000Z</time>
      </trkpt>
      <trkpt lat="48.38302" lon="0.8474">
        <ele>122.926099</ele>
        <time>2021-09-07T07:53:31.000Z</time>
      </trkpt>
      <trkpt lat="48.3829" lon="0.84723">
        <ele>123.024596</ele>
        <time>2021-09-07T07:53:36.000Z</time>
      </trkpt>
      <trkpt lat="48.38287" lon="0.84718">
        <ele>123.048262</ele>
        <time>2021-09-07T07:53:38.000Z</time>
      </trkpt>
      <trkpt lat="48.38286" lon="0.84713">
        <ele>123.070935</ele>
        <time>2021-09-07T07:53:40.000Z</time>
      </trkpt>
      <trkpt lat="48.38277" lon="0.84694">
        <ele>123.160557</ele>
        <time>2021-09-07T07:53:45.000Z</time>
      </trkpt>
      <trkpt lat="48.38263" lon="0.84668">
        <ele>123.290766</ele>
        <time>2021-09-07T07:53:51.000Z</time>
      </trkpt>
      <trkpt lat="48.38247" lon="0.8464">
        <ele>123.432192</ele>
        <time>2021-09-07T07:53:58.000Z</time>
      </trkpt>
      <trkpt lat="48.38236" lon="0.84621">
        <ele>123.530963</ele>
        <time>2021-09-07T07:54:03.000Z</time>
      </trkpt>
      <trkpt lat="48.38225" lon="0.84597">
        <ele>123.645961</ele>
        <time>2021-09-07T07:54:08.000Z</time>
      </trkpt>
      <trkpt lat="48.38213" lon="0.84577">
        <ele>123.751605</ele>
        <time>2021-09-07T07:54:12.000Z</time>
      </trkpt>
      <trkpt lat="48.38207" lon="0.84565">
        <ele>123.810875</ele>
        <time>2021-09-07T07:54:14.000Z</time>
      </trkpt>
      <trkpt lat="48.382" lon="0.84552">
        <ele>123.873809</ele>
        <time>2021-09-07T07:54:16.000Z</time>
      </trkpt>
      <trkpt lat="48.38189" lon="0.84533">
        <ele>123.925345</ele>
        <time>2021-09-07T07:54:19.000Z</time>
      </trkpt>
      <trkpt lat="48.38179" lon="0.84512">
        <ele>123.65892</ele>
        <time>2021-09-07T07:54:22.000Z</time>
      </trkpt>
      <trkpt lat="48.38176" lon="0.84497">
        <ele>123.497639</ele>
        <time>2021-09-07T07:54:24.000Z</time>
      </trkpt>
      <trkpt lat="48.38179" lon="0.84473">
        <ele>123.253667</ele>
        <time>2021-09-07T07:54:27.000Z</time>
      </trkpt>
      <trkpt lat="48.38178" lon="0.84467">
        <ele>123.185576</ele>
        <time>2021-09-07T07:54:28.000Z</time>
      </trkpt>
      <trkpt lat="48.38176" lon="0.8446">
        <ele>123.111019</ele>
        <time>2021-09-07T07:54:29.000Z</time>
      </trkpt>
      <trkpt lat="48.38169" lon="0.84448">
        <ele>122.9564</ele>
        <time>2021-09-07T07:54:31.000Z</time>
      </trkpt>
      <trkpt lat="48.38166" lon="0.84443">
        <ele>122.876821</ele>
        <time>2021-09-07T07:54:32.000Z</time>
      </trkpt>
      <trkpt lat="48.3814" lon="0.84406">
        <ele>122.339225</ele>
        <time>2021-09-07T07:54:39.000Z</time>
      </trkpt>
      <trkpt lat="48.38116" lon="0.84377">
        <ele>121.861688</ele>
        <time>2021-09-07T07:54:45.000Z</time>
      </trkpt>
      <trkpt lat="48.38087" lon="0.8435">
        <ele>121.33424</ele>
        <time>2021-09-07T07:54:52.000Z</time>
      </trkpt>
      <trkpt lat="48.38055" lon="0.84321">
        <ele>120.525184</ele>
        <time>2021-09-07T07:55:00.000Z</time>
      </trkpt>
      <trkpt lat="48.38052" lon="0.84317">
        <ele>120.42399</ele>
        <time>2021-09-07T07:55:01.000Z</time>
      </trkpt>
      <trkpt lat="48.38045" lon="0.843">
        <ele>120.105312</ele>
        <time>2021-09-07T07:55:04.000Z</time>
      </trkpt>
      <trkpt lat="48.3803" lon="0.84255">
        <ele>119.284844</ele>
        <time>2021-09-07T07:55:11.000Z</time>
      </trkpt>
      <trkpt lat="48.38028" lon="0.84248">
        <ele>119.171707</ele>
        <time>2021-09-07T07:55:12.000Z</time>
      </trkpt>
      <trkpt lat="48.3802" lon="0.84235">
        <ele>118.885855</ele>
        <time>2021-09-07T07:55:15.000Z</time>
      </trkpt>
      <trkpt lat="48.38011" lon="0.84241">
        <ele>118.653358</ele>
        <time>2021-09-07T07:55:18.000Z</time>
      </trkpt>
      <trkpt lat="48.38008" lon="0.84249">
        <ele>118.504451</ele>
        <time>2021-09-07T07:55:20.000Z</time>
      </trkpt>
      <trkpt lat="48.38008" lon="0.84253">
        <ele>118.440423</ele>
        <time>2021-09-07T07:55:21.000Z</time>
      </trkpt>
      <trkpt lat="48.38012" lon="0.84263">
        <ele>118.268049</ele>
        <time>2021-09-07T07:55:26.000Z</time>
      </trkpt>
      <trkpt lat="48.38008" lon="0.84267">
        <ele>118.147795</ele>
        <time>2021-09-07T07:56:02.000Z</time>
      </trkpt>
      <trkpt lat="48.38004" lon="0.84268">
        <ele>118.053003</ele>
        <time>2021-09-07T07:56:04.000Z</time>
      </trkpt>
      <trkpt lat="48.3799" lon="0.84265">
        <ele>117.715474</ele>
        <time>2021-09-07T07:56:08.000Z</time>
      </trkpt>
      <trkpt lat="48.37986" lon="0.84264">
        <ele>117.616199</ele>
        <time>2021-09-07T07:56:09.000Z</time>
      </trkpt>
      <trkpt lat="48.37982" lon="0.84261">
        <ele>117.516469</ele>
        <time>2021-09-07T07:56:10.000Z</time>
      </trkpt>
      <trkpt lat="48.37976" lon="0.84253">
        <ele>117.308637</ele>
        <time>2021-09-07T07:56:12.000Z</time>
      </trkpt>
      <trkpt lat="48.37973" lon="0.84249">
        <ele>117.208202</ele>
        <time>2021-09-07T07:56:13.000Z</time>
      </trkpt>
      <trkpt lat="48.37969" lon="0.84246">
        <ele>117.111798</ele>
        <time>2021-09-07T07:56:14.000Z</time>
      </trkpt>
      <trkpt lat="48.37962" lon="0.84247">
        <ele>116.93581</ele>
        <time>2021-09-07T07:56:16.000Z</time>
      </trkpt>
      <trkpt lat="48.37955" lon="0.84248">
        <ele>116.818372</ele>
        <time>2021-09-07T07:56:18.000Z</time>
      </trkpt>
      <trkpt lat="48.37947" lon="0.84244">
        <ele>116.723526</ele>
        <time>2021-09-07T07:56:20.000Z</time>
      </trkpt>
      <trkpt lat="48.37939" lon="0.84245">
        <ele>116.630114</ele>
        <time>2021-09-07T07:56:22.000Z</time>
      </trkpt>
      <trkpt lat="48.37935" lon="0.84246">
        <ele>116.586893</ele>
        <time>2021-09-07T07:56:23.000Z</time>
      </trkpt>
      <trkpt lat="48.37925" lon="0.84245">
        <ele>116.47127</ele>
        <time>2021-09-07T07:56:26.000Z</time>
      </trkpt>
      <trkpt lat="48.37923" lon="0.84243">
        <ele>116.439908</ele>
        <time>2021-09-07T07:56:27.000Z</time>
      </trkpt>
      <trkpt lat="48.3792" lon="0.84234">
        <ele>116.356509</ele>
        <time>2021-09-07T07:56:31.000Z</time>
      </trkpt>
      <trkpt lat="48.37921" lon="0.84241">
        <ele>116.294604</ele>
        <time>2021-09-07T07:59:59.000Z</time>
      </trkpt>
      <trkpt lat="48.37923" lon="0.84245">
        <ele>116.257777</ele>
        <time>2021-09-07T08:00:01.000Z</time>
      </trkpt>
      <trkpt lat="48.37929" lon="0.84247">
        <ele>116.184722</ele>
        <time>2021-09-07T08:00:06.000Z</time>
      </trkpt>
      <trkpt lat="48.37941" lon="0.84243">
        <ele>116.042025</ele>
        <time>2021-09-07T08:00:11.000Z</time>
      </trkpt>
      <trkpt lat="48.37944" lon="0.84242">
        <ele>116.009006</ele>
        <time>2021-09-07T08:00:12.000Z</time>
      </trkpt>
      <trkpt lat="48.37953" lon="0.84247">
        <ele>115.893192</ele>
        <time>2021-09-07T08:00:15.000Z</time>
      </trkpt>
      <trkpt lat="48.37964" lon="0.84245">
        <ele>115.766637</ele>
        <time>2021-09-07T08:00:18.000Z</time>
      </trkpt>
      <trkpt lat="48.3797" lon="0.84241">
        <ele>115.692548</ele>
        <time>2021-09-07T08:00:20.000Z</time>
      </trkpt>
      <trkpt lat="48.37973" lon="0.84246">
        <ele>115.643652</ele>
        <time>2021-09-07T08:00:22.000Z</time>
      </trkpt>
      <trkpt lat="48.37978" lon="0.84271">
        <ele>115.436861</ele>
        <time>2021-09-07T08:00:27.000Z</time>
      </trkpt>
      <trkpt lat="48.37983" lon="0.84287">
        <ele>115.298123</ele>
        <time>2021-09-07T08:00:30.000Z</time>
      </trkpt>
      <trkpt lat="48.37982" lon="0.84298">
        <ele>115.212565</ele>
        <time>2021-09-07T08:00:32.000Z</time>
      </trkpt>
      <trkpt lat="48.37974" lon="0.84301">
        <ele>115.118766</ele>
        <time>2021-09-07T08:00:34.000Z</time>
      </trkpt>
      <trkpt lat="48.37969" lon="0.843">
        <ele>115.065864</ele>
        <time>2021-09-07T08:00:35.000Z</time>
      </trkpt>
      <trkpt lat="48.37965" lon="0.84299">
        <ele>115.012369</ele>
        <time>2021-09-07T08:00:36.000Z</time>
      </trkpt>
      <trkpt lat="48.37952" lon="0.84295">
        <ele>114.858757</ele>
        <time>2021-09-07T08:00:39.000Z</time>
      </trkpt>
      <trkpt lat="48.37948" lon="0.84295">
        <ele>114.812058</ele>
        <time>2021-09-07T08:00:40.000Z</time>
      </trkpt>
      <trkpt lat="48.37931" lon="0.84297">
        <ele>114.676217</ele>
        <time>2021-09-07T08:00:44.000Z</time>
      </trkpt>
      <trkpt lat="48.37927" lon="0.84297">
        <ele>114.64668</ele>
        <time>2021-09-07T08:00:45.000Z</time>
      </trkpt>
      <trkpt lat="48.37923" lon="0.84299">
        <ele>114.615215</ele>
        <time>2021-09-07T08:00:46.000Z</time>
      </trkpt>
      <trkpt lat="48.37911" lon="0.84308">
        <ele>114.523037</ele>
        <time>2021-09-07T08:00:49.000Z</time>
      </trkpt>
      <trkpt lat="48.37904" lon="0.84316">
        <ele>114.454673</ele>
        <time>2021-09-07T08:00:51.000Z</time>
      </trkpt>
      <trkpt lat="48.37896" lon="0.84327">
        <ele>114.379652</ele>
        <time>2021-09-07T08:00:53.000Z</time>
      </trkpt>
      <trkpt lat="48.37892" lon="0.84333">
        <ele>114.341078</ele>
        <time>2021-09-07T08:00:54.000Z</time>
      </trkpt>
      <trkpt lat="48.37889" lon="0.84339">
        <ele>114.303973</ele>
        <time>2021-09-07T08:00:55.000Z</time>
      </trkpt>
      <trkpt lat="48.37882" lon="0.8435">
        <ele>114.234939</ele>
        <time>2021-09-07T08:00:57.000Z</time>
      </trkpt>
      <trkpt lat="48.37877" lon="0.84361">
        <ele>114.168808</ele>
        <time>2021-09-07T08:00:59.000Z</time>
      </trkpt>
      <trkpt lat="48.37872" lon="0.84372">
        <ele>114.106054</ele>
        <time>2021-09-07T08:01:01.000Z</time>
      </trkpt>
      <trkpt lat="48.37865" lon="0.84388">
        <ele>114.016902</ele>
        <time>2021-09-07T08:01:04.000Z</time>
      </trkpt>
      <trkpt lat="48.37857" lon="0.84402">
        <ele>113.9258</ele>
        <time>2021-09-07T08:01:07.000Z</time>
      </trkpt>
      <trkpt lat="48.37849" lon="0.84417">
        <ele>113.839356</ele>
        <time>2021-09-07T08:01:10.000Z</time>
      </trkpt>
      <trkpt lat="48.37834" lon="0.84454">
        <ele>113.630245</ele>
        <time>2021-09-07T08:01:18.000Z</time>
      </trkpt>
      <trkpt lat="48.37832" lon="0.8446">
        <ele>113.600652</ele>
        <time>2021-09-07T08:01:19.000Z</time>
      </trkpt>
      <trkpt lat="48.37829" lon="0.84472">
        <ele>113.537292</ele>
        <time>2021-09-07T08:01:21.000Z</time>
      </trkpt>
      <trkpt lat="48.37828" lon="0.84479">
        <ele>113.504593</ele>
        <time>2021-09-07T08:01:22.000Z</time>
      </trkpt>
      <trkpt lat="48.37822" lon="0.84517">
        <ele>113.363281</ele>
        <time>2021-09-07T08:01:27.000Z</time>
      </trkpt>
      <trkpt lat="48.3782" lon="0.84524">
        <ele>113.335176</ele>
        <time>2021-09-07T08:01:28.000Z</time>
      </trkpt>
      <trkpt lat="48.37815" lon="0.84546">
        <ele>113.254892</ele>
        <time>2021-09-07T08:01:31.000Z</time>
      </trkpt>
      <trkpt lat="48.37821" lon="0.84555">
        <ele>113.207695</ele>
        <time>2021-09-07T08:01:33.000Z</time>
      </trkpt>
      <trkpt lat="48.37826" lon="0.84556">
        <ele>113.180572</ele>
        <time>2021-09-07T08:01:34.000Z</time>
      </trkpt>
      <trkpt lat="48.37841" lon="0.84558">
        <ele>113.101257</ele>
        <time>2021-09-07T08:01:37.000Z</time>
      </trkpt>
      <trkpt lat="48.37851" lon="0.84559">
        <ele>113.048154</ele>
        <time>2021-09-07T08:01:39.000Z</time>
      </trkpt>
      <trkpt lat="48.37862" lon="0.84558">
        <ele>112.991855</ele>
        <time>2021-09-07T08:01:42.000Z</time>
      </trkpt>
      <trkpt lat="48.37854" lon="0.84556">
        <ele>112.95242</ele>
        <time>2021-09-07T08:01:45.000Z</time>
      </trkpt>
      <trkpt lat="48.37837" lon="0.84557">
        <ele>112.86163</ele>
        <time>2021-09-07T08:01:49.000Z</time>
      </trkpt>
      <trkpt lat="48.37833" lon="0.84557">
        <ele>112.836139</ele>
        <time>2021-09-07T08:01:50.000Z</time>
      </trkpt>
      <trkpt lat="48.37828" lon="0.84556">
        <ele>112.810582</ele>
        <time>2021-09-07T08:01:51.000Z</time>
      </trkpt>
      <trkpt lat="48.37814" lon="0.84554">
        <ele>112.736524</ele>
        <time>2021-09-07T08:01:54.000Z</time>
      </trkpt>
      <trkpt lat="48.3781" lon="0.84556">
        <ele>112.712644</ele>
        <time>2021-09-07T08:01:55.000Z</time>
      </trkpt>
      <trkpt lat="48.37806" lon="0.84561">
        <ele>112.687758</ele>
        <time>2021-09-07T08:01:56.000Z</time>
      </trkpt>
      <trkpt lat="48.37804" lon="0.84568">
        <ele>112.660902</ele>
        <time>2021-09-07T08:01:57.000Z</time>
      </trkpt>
      <trkpt lat="48.37804" lon="0.84576">
        <ele>112.63333</ele>
        <time>2021-09-07T08:01:58.000Z</time>
      </trkpt>
      <trkpt lat="48.37802" lon="0.846">
        <ele>112.54832</ele>
        <time>2021-09-07T08:02:01.000Z</time>
      </trkpt>
      <trkpt lat="48.37801" lon="0.84608">
        <ele>112.536425</ele>
        <time>2021-09-07T08:02:02.000Z</time>
      </trkpt>
      <trkpt lat="48.37796" lon="0.84631">
        <ele>112.577356</ele>
        <time>2021-09-07T08:02:05.000Z</time>
      </trkpt>
      <trkpt lat="48.3779" lon="0.84664">
        <ele>112.633558</ele>
        <time>2021-09-07T08:02:09.000Z</time>
      </trkpt>
      <trkpt lat="48.37791" lon="0.84672">
        <ele>112.646887</ele>
        <time>2021-09-07T08:02:10.000Z</time>
      </trkpt>
      <trkpt lat="48.37794" lon="0.8468">
        <ele>112.660493</ele>
        <time>2021-09-07T08:02:11.000Z</time>
      </trkpt>
      <trkpt lat="48.37803" lon="0.84689">
        <ele>112.688518</ele>
        <time>2021-09-07T08:02:13.000Z</time>
      </trkpt>
      <trkpt lat="48.37834" lon="0.84714">
        <ele>112.774168</ele>
        <time>2021-09-07T08:02:19.000Z</time>
      </trkpt>
      <trkpt lat="48.37844" lon="0.84722">
        <ele>112.802392</ele>
        <time>2021-09-07T08:02:21.000Z</time>
      </trkpt>
      <trkpt lat="48.37862" lon="0.84741">
        <ele>112.857637</ele>
        <time>2021-09-07T08:02:25.000Z</time>
      </trkpt>
      <trkpt lat="48.3789" lon="0.84769">
        <ele>112.940379</ele>
        <time>2021-09-07T08:02:31.000Z</time>
      </trkpt>
      <trkpt lat="48.37906" lon="0.84787">
        <ele>113.06742</ele>
        <time>2021-09-07T08:02:35.000Z</time>
      </trkpt>
      <trkpt lat="48.37914" lon="0.84796">
        <ele>113.215761</ele>
        <time>2021-09-07T08:02:37.000Z</time>
      </trkpt>
      <trkpt lat="48.3793" lon="0.84815">
        <ele>113.52209</ele>
        <time>2021-09-07T08:02:42.000Z</time>
      </trkpt>
      <trkpt lat="48.37953" lon="0.84844">
        <ele>113.974259</ele>
        <time>2021-09-07T08:02:50.000Z</time>
      </trkpt>
      <trkpt lat="48.37968" lon="0.84868">
        <ele>114.31038</ele>
        <time>2021-09-07T08:02:56.000Z</time>
      </trkpt>
      <trkpt lat="48.37979" lon="0.84901">
        <ele>114.677734</ele>
        <time>2021-09-07T08:03:02.000Z</time>
      </trkpt>
      <trkpt lat="48.37985" lon="0.84922">
        <ele>114.907031</ele>
        <time>2021-09-07T08:03:06.000Z</time>
      </trkpt>
      <trkpt lat="48.37989" lon="0.84926">
        <ele>114.970229</ele>
        <time>2021-09-07T08:03:07.000Z</time>
      </trkpt>
      <trkpt lat="48.38004" lon="0.84943">
        <ele>115.258386</ele>
        <time>2021-09-07T08:03:12.000Z</time>
      </trkpt>
      <trkpt lat="48.38011" lon="0.84962">
        <ele>115.476813</ele>
        <time>2021-09-07T08:03:16.000Z</time>
      </trkpt>
      <trkpt lat="48.38011" lon="0.84967">
        <ele>115.53637</ele>
        <time>2021-09-07T08:03:17.000Z</time>
      </trkpt>
      <trkpt lat="48.38007" lon="0.84977">
        <ele>115.649719</ele>
        <time>2021-09-07T08:03:19.000Z</time>
      </trkpt>
      <trkpt lat="48.38003" lon="0.84987">
        <ele>115.77227</ele>
        <time>2021-09-07T08:03:21.000Z</time>
      </trkpt>
      <trkpt lat="48.37996" lon="0.85009">
        <ele>116.029444</ele>
        <time>2021-09-07T08:03:25.000Z</time>
      </trkpt>
      <trkpt lat="48.37994" lon="0.85022">
        <ele>116.163009</ele>
        <time>2021-09-07T08:03:27.000Z</time>
      </trkpt>
      <trkpt lat="48.37998" lon="0.85037">
        <ele>116.323852</ele>
        <time>2021-09-07T08:03:29.000Z</time>
      </trkpt>
      <trkpt lat="48.37999" lon="0.85042">
        <ele>116.387795</ele>
        <time>2021-09-07T08:03:30.000Z</time>
      </trkpt>
      <trkpt lat="48.38004" lon="0.85059">
        <ele>116.57788</ele>
        <time>2021-09-07T08:03:33.000Z</time>
      </trkpt>
      <trkpt lat="48.38005" lon="0.85066">
        <ele>116.652981</ele>
        <time>2021-09-07T08:03:34.000Z</time>
      </trkpt>
      <trkpt lat="48.38004" lon="0.85092">
        <ele>116.926055</ele>
        <time>2021-09-07T08:03:38.000Z</time>
      </trkpt>
      <trkpt lat="48.38" lon="0.85104">
        <ele>117.062422</ele>
        <time>2021-09-07T08:03:40.000Z</time>
      </trkpt>
      <trkpt lat="48.37981" lon="0.85144">
        <ele>117.572541</ele>
        <time>2021-09-07T08:03:46.000Z</time>
      </trkpt>
      <trkpt lat="48.37959" lon="0.85195">
        <ele>118.207592</ele>
        <time>2021-09-07T08:03:53.000Z</time>
      </trkpt>
      <trkpt lat="48.37938" lon="0.8524">
        <ele>118.571434</ele>
        <time>2021-09-07T08:03:59.000Z</time>
      </trkpt>
      <trkpt lat="48.37912" lon="0.85283">
        <ele>118.682119</ele>
        <time>2021-09-07T08:04:05.000Z</time>
      </trkpt>
      <trkpt lat="48.37874" lon="0.85341">
        <ele>118.833534</ele>
        <time>2021-09-07T08:04:13.000Z</time>
      </trkpt>
      <trkpt lat="48.3785" lon="0.85388">
        <ele>118.945859</ele>
        <time>2021-09-07T08:04:19.000Z</time>
      </trkpt>
      <trkpt lat="48.37847" lon="0.85396">
        <ele>118.963896</ele>
        <time>2021-09-07T08:04:20.000Z</time>
      </trkpt>
      <trkpt lat="48.37832" lon="0.85439">
        <ele>119.036473</ele>
        <time>2021-09-07T08:04:25.000Z</time>
      </trkpt>
      <trkpt lat="48.3781" lon="0.85498">
        <ele>119.04427</ele>
        <time>2021-09-07T08:04:32.000Z</time>
      </trkpt>
      <trkpt lat="48.37787" lon="0.85561">
        <ele>119.052528</ele>
        <time>2021-09-07T08:04:40.000Z</time>
      </trkpt>
      <trkpt lat="48.37764" lon="0.85617">
        <ele>119.060099</ele>
        <time>2021-09-07T08:04:48.000Z</time>
      </trkpt>
      <trkpt lat="48.37741" lon="0.85661">
        <ele>119.067505</ele>
        <time>2021-09-07T08:04:55.000Z</time>
      </trkpt>
      <trkpt lat="48.37708" lon="0.85701">
        <ele>119.132782</ele>
        <time>2021-09-07T08:05:02.000Z</time>
      </trkpt>
      <trkpt lat="48.37681" lon="0.85732">
        <ele>119.184453</ele>
        <time>2021-09-07T08:05:08.000Z</time>
      </trkpt>
      <trkpt lat="48.3767" lon="0.85747">
        <ele>119.206806</ele>
        <time>2021-09-07T08:05:11.000Z</time>
      </trkpt>
      <trkpt lat="48.37664" lon="0.85757">
        <ele>119.220711</ele>
        <time>2021-09-07T08:05:13.000Z</time>
      </trkpt>
      <trkpt lat="48.3766" lon="0.85761">
        <ele>119.227494</ele>
        <time>2021-09-07T08:05:14.000Z</time>
      </trkpt>
      <trkpt lat="48.37656" lon="0.85763">
        <ele>119.234429</ele>
        <time>2021-09-07T08:05:15.000Z</time>
      </trkpt>
      <trkpt lat="48.37647" lon="0.85768">
        <ele>119.248755</ele>
        <time>2021-09-07T08:05:17.000Z</time>
      </trkpt>
      <trkpt lat="48.37643" lon="0.85772">
        <ele>119.256268</ele>
        <time>2021-09-07T08:05:18.000Z</time>
      </trkpt>
      <trkpt lat="48.37634" lon="0.85776">
        <ele>119.270239</ele>
        <time>2021-09-07T08:05:20.000Z</time>
      </trkpt>
      <trkpt lat="48.37624" lon="0.85775">
        <ele>119.285717</ele>
        <time>2021-09-07T08:05:22.000Z</time>
      </trkpt>
      <trkpt lat="48.37588" lon="0.85763">
        <ele>119.340921</ele>
        <time>2021-09-07T08:05:28.000Z</time>
      </trkpt>
      <trkpt lat="48.37569" lon="0.85759">
        <ele>119.333877</ele>
        <time>2021-09-07T08:05:31.000Z</time>
      </trkpt>
      <trkpt lat="48.37548" lon="0.85759">
        <ele>119.326596</ele>
        <time>2021-09-07T08:05:34.000Z</time>
      </trkpt>
      <trkpt lat="48.37505" lon="0.85765">
        <ele>119.311329</ele>
        <time>2021-09-07T08:05:41.000Z</time>
      </trkpt>
      <trkpt lat="48.37454" lon="0.85774">
        <ele>119.293502</ele>
        <time>2021-09-07T08:05:50.000Z</time>
      </trkpt>
      <trkpt lat="48.37405" lon="0.85785">
        <ele>119.264299</ele>
        <time>2021-09-07T08:05:59.000Z</time>
      </trkpt>
      <trkpt lat="48.37364" lon="0.85792">
        <ele>119.165666</ele>
        <time>2021-09-07T08:06:06.000Z</time>
      </trkpt>
      <trkpt lat="48.37316" lon="0.85798">
        <ele>119.04687</ele>
        <time>2021-09-07T08:06:14.000Z</time>
      </trkpt>
      <trkpt lat="48.37272" lon="0.858">
        <ele>118.941124</ele>
        <time>2021-09-07T08:06:21.000Z</time>
      </trkpt>
      <trkpt lat="48.37246" lon="0.858">
        <ele>118.877782</ele>
        <time>2021-09-07T08:06:25.000Z</time>
      </trkpt>
      <trkpt lat="48.37197" lon="0.85802">
        <ele>118.683531</ele>
        <time>2021-09-07T08:06:32.000Z</time>
      </trkpt>
      <trkpt lat="48.37148" lon="0.85802">
        <ele>118.461846</ele>
        <time>2021-09-07T08:06:39.000Z</time>
      </trkpt>
      <trkpt lat="48.37093" lon="0.85804">
        <ele>118.209983</ele>
        <time>2021-09-07T08:06:47.000Z</time>
      </trkpt>
      <trkpt lat="48.37036" lon="0.85806">
        <ele>118.004861</ele>
        <time>2021-09-07T08:06:55.000Z</time>
      </trkpt>
      <trkpt lat="48.37016" lon="0.85808">
        <ele>117.987289</ele>
        <time>2021-09-07T08:06:58.000Z</time>
      </trkpt>
      <trkpt lat="48.36958" lon="0.85819">
        <ele>117.936728</ele>
        <time>2021-09-07T08:07:07.000Z</time>
      </trkpt>
      <trkpt lat="48.36909" lon="0.85835">
        <ele>117.893901</ele>
        <time>2021-09-07T08:07:15.000Z</time>
      </trkpt>
      <trkpt lat="48.36862" lon="0.85852">
        <ele>117.948216</ele>
        <time>2021-09-07T08:07:23.000Z</time>
      </trkpt>
      <trkpt lat="48.36818" lon="0.85868">
        <ele>118.28834</ele>
        <time>2021-09-07T08:07:31.000Z</time>
      </trkpt>
      <trkpt lat="48.36791" lon="0.85878">
        <ele>118.490954</ele>
        <time>2021-09-07T08:07:36.000Z</time>
      </trkpt>
      <trkpt lat="48.3675" lon="0.85894">
        <ele>118.803955</ele>
        <time>2021-09-07T08:07:44.000Z</time>
      </trkpt>
      <trkpt lat="48.36713" lon="0.85908">
        <ele>119.086135</ele>
        <time>2021-09-07T08:07:52.000Z</time>
      </trkpt>
      <trkpt lat="48.36685" lon="0.85919">
        <ele>119.602726</ele>
        <time>2021-09-07T08:07:59.000Z</time>
      </trkpt>
      <trkpt lat="48.36658" lon="0.85929">
        <ele>120.41816</ele>
        <time>2021-09-07T08:08:07.000Z</time>
      </trkpt>
      <trkpt lat="48.36641" lon="0.85936">
        <ele>120.913321</ele>
        <time>2021-09-07T08:08:13.000Z</time>
      </trkpt>
      <trkpt lat="48.36628" lon="0.85942">
        <ele>121.319716</ele>
        <time>2021-09-07T08:08:18.000Z</time>
      </trkpt>
      <trkpt lat="48.36615" lon="0.85946">
        <ele>121.691684</ele>
        <time>2021-09-07T08:08:23.000Z</time>
      </trkpt>
      <trkpt lat="48.36606" lon="0.8595">
        <ele>121.967171</ele>
        <time>2021-09-07T08:08:27.000Z</time>
      </trkpt>
      <trkpt lat="48.36588" lon="0.85956">
        <ele>122.503778</ele>
        <time>2021-09-07T08:08:33.000Z</time>
      </trkpt>
      <trkpt lat="48.36569" lon="0.8596">
        <ele>123.057288</ele>
        <time>2021-09-07T08:08:39.000Z</time>
      </trkpt>
      <trkpt lat="48.36548" lon="0.85963">
        <ele>123.66362</ele>
        <time>2021-09-07T08:08:46.000Z</time>
      </trkpt>
      <trkpt lat="48.36531" lon="0.85964">
        <ele>124.142545</ele>
        <time>2021-09-07T08:08:52.000Z</time>
      </trkpt>
      <trkpt lat="48.36516" lon="0.85966">
        <ele>124.701412</ele>
        <time>2021-09-07T08:08:57.000Z</time>
      </trkpt>
      <trkpt lat="48.36495" lon="0.85977">
        <ele>125.621748</ele>
        <time>2021-09-07T08:09:04.000Z</time>
      </trkpt>
      <trkpt lat="48.36476" lon="0.85984">
        <ele>126.447941</ele>
        <time>2021-09-07T08:09:10.000Z</time>
      </trkpt>
      <trkpt lat="48.36455" lon="0.85992">
        <ele>127.399047</ele>
        <time>2021-09-07T08:09:17.000Z</time>
      </trkpt>
      <trkpt lat="48.36427" lon="0.85997">
        <ele>128.578344</ele>
        <time>2021-09-07T08:09:25.000Z</time>
      </trkpt>
      <trkpt lat="48.36403" lon="0.85989">
        <ele>129.601211</ele>
        <time>2021-09-07T08:09:32.000Z</time>
      </trkpt>
      <trkpt lat="48.36384" lon="0.8598">
        <ele>130.457048</ele>
        <time>2021-09-07T08:09:38.000Z</time>
      </trkpt>
      <trkpt lat="48.36362" lon="0.85973">
        <ele>131.40222</ele>
        <time>2021-09-07T08:09:45.000Z</time>
      </trkpt>
      <trkpt lat="48.36347" lon="0.85981">
        <ele>132.143077</ele>
        <time>2021-09-07T08:09:51.000Z</time>
      </trkpt>
      <trkpt lat="48.36338" lon="0.85994">
        <ele>133.180314</ele>
        <time>2021-09-07T08:09:56.000Z</time>
      </trkpt>
      <trkpt lat="48.36326" lon="0.86009">
        <ele>134.50209</ele>
        <time>2021-09-07T08:10:03.000Z</time>
      </trkpt>
      <trkpt lat="48.36317" lon="0.8602">
        <ele>135.432905</ele>
        <time>2021-09-07T08:10:09.000Z</time>
      </trkpt>
      <trkpt lat="48.36309" lon="0.86026">
        <ele>136.207462</ele>
        <time>2021-09-07T08:10:13.000Z</time>
      </trkpt>
      <trkpt lat="48.36296" lon="0.86034">
        <ele>137.36009</ele>
        <time>2021-09-07T08:10:19.000Z</time>
      </trkpt>
      <trkpt lat="48.36282" lon="0.86034">
        <ele>138.494526</ele>
        <time>2021-09-07T08:10:26.000Z</time>
      </trkpt>
      <trkpt lat="48.36267" lon="0.86032">
        <ele>139.735141</ele>
        <time>2021-09-07T08:10:33.000Z</time>
      </trkpt>
      <trkpt lat="48.36254" lon="0.86031">
        <ele>140.828854</ele>
        <time>2021-09-07T08:10:39.000Z</time>
      </trkpt>
      <trkpt lat="48.36242" lon="0.86028">
        <ele>141.836861</ele>
        <time>2021-09-07T08:10:45.000Z</time>
      </trkpt>
      <trkpt lat="48.36227" lon="0.86024">
        <ele>143.100018</ele>
        <time>2021-09-07T08:10:52.000Z</time>
      </trkpt>
      <trkpt lat="48.36222" lon="0.86023">
        <ele>143.515282</ele>
        <time>2021-09-07T08:10:56.000Z</time>
      </trkpt>
      <trkpt lat="48.36211" lon="0.8602">
        <ele>144.44895</ele>
        <time>2021-09-07T08:11:02.000Z</time>
      </trkpt>
      <trkpt lat="48.36201" lon="0.86017">
        <ele>145.2728</ele>
        <time>2021-09-07T08:11:08.000Z</time>
      </trkpt>
      <trkpt lat="48.36198" lon="0.86017">
        <ele>145.515149</ele>
        <time>2021-09-07T08:11:10.000Z</time>
      </trkpt>
      <trkpt lat="48.36194" lon="0.86016">
        <ele>145.842682</ele>
        <time>2021-09-07T08:11:12.000Z</time>
      </trkpt>
      <trkpt lat="48.3619" lon="0.86015">
        <ele>146.18848</ele>
        <time>2021-09-07T08:11:14.000Z</time>
      </trkpt>
      <trkpt lat="48.36188" lon="0.86013">
        <ele>146.415599</ele>
        <time>2021-09-07T08:11:16.000Z</time>
      </trkpt>
      <trkpt lat="48.36181" lon="0.8601">
        <ele>147.126412</ele>
        <time>2021-09-07T08:11:20.000Z</time>
      </trkpt>
      <trkpt lat="48.36172" lon="0.86006">
        <ele>148.863728</ele>
        <time>2021-09-07T08:11:25.000Z</time>
      </trkpt>
      <trkpt lat="48.36166" lon="0.86003">
        <ele>149.989755</ele>
        <time>2021-09-07T08:11:29.000Z</time>
      </trkpt>
      <trkpt lat="48.36154" lon="0.85997">
        <ele>152.239532</ele>
        <time>2021-09-07T08:11:34.000Z</time>
      </trkpt>
      <trkpt lat="48.36142" lon="0.85991">
        <ele>154.5738</ele>
        <time>2021-09-07T08:11:40.000Z</time>
      </trkpt>
      <trkpt lat="48.36129" lon="0.85983">
        <ele>157.125741</ele>
        <time>2021-09-07T08:11:46.000Z</time>
      </trkpt>
      <trkpt lat="48.36115" lon="0.85977">
        <ele>159.765739</ele>
        <time>2021-09-07T08:11:53.000Z</time>
      </trkpt>
      <trkpt lat="48.361" lon="0.85972">
        <ele>162.572614</ele>
        <time>2021-09-07T08:12:01.000Z</time>
      </trkpt>
      <trkpt lat="48.36096" lon="0.8597">
        <ele>163.264584</ele>
        <time>2021-09-07T08:12:04.000Z</time>
      </trkpt>
      <trkpt lat="48.36086" lon="0.85965">
        <ele>165.256084</ele>
        <time>2021-09-07T08:12:11.000Z</time>
      </trkpt>
      <trkpt lat="48.36075" lon="0.85962">
        <ele>167.250239</ele>
        <time>2021-09-07T08:12:17.000Z</time>
      </trkpt>
      <trkpt lat="48.36071" lon="0.85962">
        <ele>167.885508</ele>
        <time>2021-09-07T08:12:19.000Z</time>
      </trkpt>
      <trkpt lat="48.36068" lon="0.8596">
        <ele>168.493406</ele>
        <time>2021-09-07T08:12:21.000Z</time>
      </trkpt>
      <trkpt lat="48.36064" lon="0.85959">
        <ele>169.255942</ele>
        <time>2021-09-07T08:12:24.000Z</time>
      </trkpt>
      <trkpt lat="48.36051" lon="0.85957">
        <ele>171.612038</ele>
        <time>2021-09-07T08:12:31.000Z</time>
      </trkpt>
      <trkpt lat="48.36038" lon="0.85953">
        <ele>174.132418</ele>
        <time>2021-09-07T08:12:38.000Z</time>
      </trkpt>
      <trkpt lat="48.36027" lon="0.85951">
        <ele>176.127101</ele>
        <time>2021-09-07T08:12:43.000Z</time>
      </trkpt>
      <trkpt lat="48.36016" lon="0.85947">
        <ele>178.141546</ele>
        <time>2021-09-07T08:12:49.000Z</time>
      </trkpt>
      <trkpt lat="48.36006" lon="0.85945">
        <ele>179.745016</ele>
        <time>2021-09-07T08:12:54.000Z</time>
      </trkpt>
      <trkpt lat="48.35994" lon="0.85943">
        <ele>180.765772</ele>
        <time>2021-09-07T08:13:00.000Z</time>
      </trkpt>
      <trkpt lat="48.35981" lon="0.85939">
        <ele>181.953651</ele>
        <time>2021-09-07T08:13:07.000Z</time>
      </trkpt>
      <trkpt lat="48.35967" lon="0.85937">
        <ele>183.165638</ele>
        <time>2021-09-07T08:13:14.000Z</time>
      </trkpt>
      <trkpt lat="48.35953" lon="0.85937">
        <ele>184.425461</ele>
        <time>2021-09-07T08:13:22.000Z</time>
      </trkpt>
      <trkpt lat="48.35945" lon="0.85935">
        <ele>185.139537</ele>
        <time>2021-09-07T08:13:27.000Z</time>
      </trkpt>
      <trkpt lat="48.35941" lon="0.85933">
        <ele>185.465525</ele>
        <time>2021-09-07T08:13:31.000Z</time>
      </trkpt>
      <trkpt lat="48.35932" lon="0.85935">
        <ele>186.296195</ele>
        <time>2021-09-07T08:13:37.000Z</time>
      </trkpt>
      <trkpt lat="48.35922" lon="0.85938">
        <ele>187.19521</ele>
        <time>2021-09-07T08:13:42.000Z</time>
      </trkpt>
      <trkpt lat="48.35911" lon="0.85944">
        <ele>188.262512</ele>
        <time>2021-09-07T08:13:48.000Z</time>
      </trkpt>
      <trkpt lat="48.35906" lon="0.85947">
        <ele>188.732268</ele>
        <time>2021-09-07T08:13:50.000Z</time>
      </trkpt>
      <trkpt lat="48.35905" lon="0.85949">
        <ele>188.850515</ele>
        <time>2021-09-07T08:13:51.000Z</time>
      </trkpt>
      <trkpt lat="48.35902" lon="0.85952">
        <ele>189.160094</ele>
        <time>2021-09-07T08:13:54.000Z</time>
      </trkpt>
      <trkpt lat="48.359" lon="0.85954">
        <ele>189.350925</ele>
        <time>2021-09-07T08:13:55.000Z</time>
      </trkpt>
      <trkpt lat="48.35894" lon="0.85964">
        <ele>190.18392</ele>
        <time>2021-09-07T08:14:00.000Z</time>
      </trkpt>
      <trkpt lat="48.35889" lon="0.85971">
        <ele>190.729097</ele>
        <time>2021-09-07T08:14:03.000Z</time>
      </trkpt>
      <trkpt lat="48.35887" lon="0.85976">
        <ele>191.095979</ele>
        <time>2021-09-07T08:14:05.000Z</time>
      </trkpt>
      <trkpt lat="48.35878" lon="0.85993">
        <ele>192.374728</ele>
        <time>2021-09-07T08:14:11.000Z</time>
      </trkpt>
      <trkpt lat="48.35871" lon="0.8601">
        <ele>193.545724</ele>
        <time>2021-09-07T08:14:16.000Z</time>
      </trkpt>
      <trkpt lat="48.3587" lon="0.86013">
        <ele>193.776409</ele>
        <time>2021-09-07T08:14:17.000Z</time>
      </trkpt>
      <trkpt lat="48.35866" lon="0.86022">
        <ele>194.400298</ele>
        <time>2021-09-07T08:14:20.000Z</time>
      </trkpt>
      <trkpt lat="48.35864" lon="0.86029">
        <ele>194.853562</ele>
        <time>2021-09-07T08:14:22.000Z</time>
      </trkpt>
      <trkpt lat="48.35862" lon="0.86037">
        <ele>195.29818</ele>
        <time>2021-09-07T08:14:24.000Z</time>
      </trkpt>
      <trkpt lat="48.35857" lon="0.8605">
        <ele>194.835377</ele>
        <time>2021-09-07T08:14:28.000Z</time>
      </trkpt>
      <trkpt lat="48.3585" lon="0.86063">
        <ele>194.208389</ele>
        <time>2021-09-07T08:14:33.000Z</time>
      </trkpt>
      <trkpt lat="48.35849" lon="0.86066">
        <ele>194.096586</ele>
        <time>2021-09-07T08:14:34.000Z</time>
      </trkpt>
      <trkpt lat="48.35848" lon="0.8607">
        <ele>193.918138</ele>
        <time>2021-09-07T08:14:36.000Z</time>
      </trkpt>
      <trkpt lat="48.35846" lon="0.86073">
        <ele>193.777159</ele>
        <time>2021-09-07T08:14:37.000Z</time>
      </trkpt>
      <trkpt lat="48.35845" lon="0.86075">
        <ele>193.664782</ele>
        <time>2021-09-07T08:14:38.000Z</time>
      </trkpt>
      <trkpt lat="48.35842" lon="0.86084">
        <ele>193.289175</ele>
        <time>2021-09-07T08:14:41.000Z</time>
      </trkpt>
      <trkpt lat="48.35835" lon="0.861">
        <ele>192.575607</ele>
        <time>2021-09-07T08:14:46.000Z</time>
      </trkpt>
      <trkpt lat="48.35832" lon="0.86119">
        <ele>191.854714</ele>
        <time>2021-09-07T08:14:50.000Z</time>
      </trkpt>
      <trkpt lat="48.35832" lon="0.86127">
        <ele>191.574188</ele>
        <time>2021-09-07T08:14:52.000Z</time>
      </trkpt>
      <trkpt lat="48.35831" lon="0.86136">
        <ele>191.241779</ele>
        <time>2021-09-07T08:14:54.000Z</time>
      </trkpt>
      <trkpt lat="48.35823" lon="0.86154">
        <ele>190.413935</ele>
        <time>2021-09-07T08:14:59.000Z</time>
      </trkpt>
      <trkpt lat="48.35818" lon="0.86172">
        <ele>189.694716</ele>
        <time>2021-09-07T08:15:03.000Z</time>
      </trkpt>
      <trkpt lat="48.3581" lon="0.86191">
        <ele>188.87328</ele>
        <time>2021-09-07T08:15:07.000Z</time>
      </trkpt>
      <trkpt lat="48.35801" lon="0.86211">
        <ele>187.961564</ele>
        <time>2021-09-07T08:15:11.000Z</time>
      </trkpt>
      <trkpt lat="48.35792" lon="0.86221">
        <ele>187.331819</ele>
        <time>2021-09-07T08:15:14.000Z</time>
      </trkpt>
      <trkpt lat="48.35775" lon="0.86245">
        <ele>186.057898</ele>
        <time>2021-09-07T08:15:20.000Z</time>
      </trkpt>
      <trkpt lat="48.35762" lon="0.86263">
        <ele>184.981086</ele>
        <time>2021-09-07T08:15:25.000Z</time>
      </trkpt>
      <trkpt lat="48.35748" lon="0.86289">
        <ele>183.506479</ele>
        <time>2021-09-07T08:15:31.000Z</time>
      </trkpt>
      <trkpt lat="48.35745" lon="0.86298">
        <ele>183.053647</ele>
        <time>2021-09-07T08:15:33.000Z</time>
      </trkpt>
      <trkpt lat="48.35743" lon="0.86303">
        <ele>182.787323</ele>
        <time>2021-09-07T08:15:34.000Z</time>
      </trkpt>
      <trkpt lat="48.3573" lon="0.86327">
        <ele>181.395836</ele>
        <time>2021-09-07T08:15:40.000Z</time>
      </trkpt>
      <trkpt lat="48.3572" lon="0.86346">
        <ele>180.271947</ele>
        <time>2021-09-07T08:15:45.000Z</time>
      </trkpt>
      <trkpt lat="48.35712" lon="0.86361">
        <ele>179.438086</ele>
        <time>2021-09-07T08:15:50.000Z</time>
      </trkpt>
      <trkpt lat="48.35702" lon="0.86373">
        <ele>178.556624</ele>
        <time>2021-09-07T08:15:54.000Z</time>
      </trkpt>
      <trkpt lat="48.35697" lon="0.86385">
        <ele>177.907807</ele>
        <time>2021-09-07T08:15:58.000Z</time>
      </trkpt>
      <trkpt lat="48.35689" lon="0.86393">
        <ele>177.228491</ele>
        <time>2021-09-07T08:16:02.000Z</time>
      </trkpt>
      <trkpt lat="48.35673" lon="0.86407">
        <ele>176.024366</ele>
        <time>2021-09-07T08:16:07.000Z</time>
      </trkpt>
      <trkpt lat="48.35663" lon="0.86421">
        <ele>175.094417</ele>
        <time>2021-09-07T08:16:11.000Z</time>
      </trkpt>
      <trkpt lat="48.35643" lon="0.86441">
        <ele>173.480054</ele>
        <time>2021-09-07T08:16:17.000Z</time>
      </trkpt>
      <trkpt lat="48.35629" lon="0.86455">
        <ele>173.077751</ele>
        <time>2021-09-07T08:16:22.000Z</time>
      </trkpt>
      <trkpt lat="48.35614" lon="0.86473">
        <ele>173.02869</ele>
        <time>2021-09-07T08:16:27.000Z</time>
      </trkpt>
      <trkpt lat="48.35597" lon="0.86502">
        <ele>172.964</ele>
        <time>2021-09-07T08:16:33.000Z</time>
      </trkpt>
      <trkpt lat="48.35588" lon="0.86523">
        <ele>172.922657</ele>
        <time>2021-09-07T08:16:37.000Z</time>
      </trkpt>
      <trkpt lat="48.35586" lon="0.86529">
        <ele>172.912224</ele>
        <time>2021-09-07T08:16:38.000Z</time>
      </trkpt>
      <trkpt lat="48.35574" lon="0.86564">
        <ele>172.845635</ele>
        <time>2021-09-07T08:16:44.000Z</time>
      </trkpt>
      <trkpt lat="48.35556" lon="0.86597">
        <ele>172.774624</ele>
        <time>2021-09-07T08:16:50.000Z</time>
      </trkpt>
      <trkpt lat="48.35537" lon="0.86619">
        <ele>172.714127</ele>
        <time>2021-09-07T08:16:56.000Z</time>
      </trkpt>
      <trkpt lat="48.35523" lon="0.86638">
        <ele>172.66837</ele>
        <time>2021-09-07T08:17:02.000Z</time>
      </trkpt>
      <trkpt lat="48.35511" lon="0.86656">
        <ele>172.808952</ele>
        <time>2021-09-07T08:17:09.000Z</time>
      </trkpt>
      <trkpt lat="48.35503" lon="0.86668">
        <ele>172.944715</ele>
        <time>2021-09-07T08:17:15.000Z</time>
      </trkpt>
      <trkpt lat="48.35503" lon="0.86668">
        <ele>172.952941</ele>
        <time>2021-09-07T08:17:17.000Z</time>
      </trkpt>
      <trkpt lat="48.35503" lon="0.86668">
        <ele>172.961873</ele>
        <time>2021-09-07T08:18:38.000Z</time>
      </trkpt>
      <trkpt lat="48.35497" lon="0.86673">
        <ele>173.054539</ele>
        <time>2021-09-07T08:18:50.000Z</time>
      </trkpt>
      <trkpt lat="48.35491" lon="0.86679">
        <ele>173.144273</ele>
        <time>2021-09-07T08:18:53.000Z</time>
      </trkpt>
      <trkpt lat="48.35488" lon="0.86687">
        <ele>173.219017</ele>
        <time>2021-09-07T08:18:55.000Z</time>
      </trkpt>
      <trkpt lat="48.35474" lon="0.86711">
        <ele>173.488159</ele>
        <time>2021-09-07T08:19:02.000Z</time>
      </trkpt>
      <trkpt lat="48.35463" lon="0.86725">
        <ele>173.663833</ele>
        <time>2021-09-07T08:19:08.000Z</time>
      </trkpt>
      <trkpt lat="48.35456" lon="0.86735">
        <ele>173.78293</ele>
        <time>2021-09-07T08:19:14.000Z</time>
      </trkpt>
      <trkpt lat="48.35447" lon="0.86744">
        <ele>173.919764</ele>
        <time>2021-09-07T08:19:21.000Z</time>
      </trkpt>
      <trkpt lat="48.35438" lon="0.86752">
        <ele>174.057668</ele>
        <time>2021-09-07T08:19:27.000Z</time>
      </trkpt>
      <trkpt lat="48.35421" lon="0.86766">
        <ele>174.293101</ele>
        <time>2021-09-07T08:19:36.000Z</time>
      </trkpt>
      <trkpt lat="48.35409" lon="0.86772">
        <ele>174.452149</ele>
        <time>2021-09-07T08:19:42.000Z</time>
      </trkpt>
      <trkpt lat="48.35389" lon="0.86781">
        <ele>174.721754</ele>
        <time>2021-09-07T08:19:50.000Z</time>
      </trkpt>
      <trkpt lat="48.35374" lon="0.86788">
        <ele>174.908406</ele>
        <time>2021-09-07T08:19:56.000Z</time>
      </trkpt>
      <trkpt lat="48.35355" lon="0.86798">
        <ele>174.671494</ele>
        <time>2021-09-07T08:20:04.000Z</time>
      </trkpt>
      <trkpt lat="48.35331" lon="0.86809">
        <ele>174.373879</ele>
        <time>2021-09-07T08:20:12.000Z</time>
      </trkpt>
      <trkpt lat="48.35311" lon="0.86819">
        <ele>174.129555</ele>
        <time>2021-09-07T08:20:19.000Z</time>
      </trkpt>
      <trkpt lat="48.35297" lon="0.86824">
        <ele>173.957808</ele>
        <time>2021-09-07T08:20:24.000Z</time>
      </trkpt>
      <trkpt lat="48.35285" lon="0.8683">
        <ele>173.798658</ele>
        <time>2021-09-07T08:20:30.000Z</time>
      </trkpt>
      <trkpt lat="48.35269" lon="0.86838">
        <ele>173.606724</ele>
        <time>2021-09-07T08:20:36.000Z</time>
      </trkpt>
      <trkpt lat="48.35246" lon="0.86849">
        <ele>173.324658</ele>
        <time>2021-09-07T08:20:44.000Z</time>
      </trkpt>
      <trkpt lat="48.35227" lon="0.86859">
        <ele>173.085731</ele>
        <time>2021-09-07T08:20:51.000Z</time>
      </trkpt>
      <trkpt lat="48.35212" lon="0.86873">
        <ele>172.868648</ele>
        <time>2021-09-07T08:20:59.000Z</time>
      </trkpt>
      <trkpt lat="48.35211" lon="0.86891">
        <ele>172.640381</ele>
        <time>2021-09-07T08:21:04.000Z</time>
      </trkpt>
      <trkpt lat="48.35217" lon="0.86925">
        <ele>171.932549</ele>
        <time>2021-09-07T08:21:12.000Z</time>
      </trkpt>
      <trkpt lat="48.35214" lon="0.86949">
        <ele>171.445184</ele>
        <time>2021-09-07T08:21:17.000Z</time>
      </trkpt>
      <trkpt lat="48.35201" lon="0.8697">
        <ele>170.870801</ele>
        <time>2021-09-07T08:21:23.000Z</time>
      </trkpt>
      <trkpt lat="48.35182" lon="0.86988">
        <ele>170.201202</ele>
        <time>2021-09-07T08:21:30.000Z</time>
      </trkpt>
      <trkpt lat="48.35167" lon="0.87001">
        <ele>169.677291</ele>
        <time>2021-09-07T08:21:36.000Z</time>
      </trkpt>
      <trkpt lat="48.35146" lon="0.87022">
        <ele>168.930574</ele>
        <time>2021-09-07T08:21:44.000Z</time>
      </trkpt>
      <trkpt lat="48.35127" lon="0.87038">
        <ele>168.286622</ele>
        <time>2021-09-07T08:21:51.000Z</time>
      </trkpt>
      <trkpt lat="48.3511" lon="0.87055">
        <ele>167.659305</ele>
        <time>2021-09-07T08:21:58.000Z</time>
      </trkpt>
      <trkpt lat="48.35088" lon="0.87076">
        <ele>166.621642</ele>
        <time>2021-09-07T08:22:07.000Z</time>
      </trkpt>
      <trkpt lat="48.35072" lon="0.87093">
        <ele>165.718407</ele>
        <time>2021-09-07T08:22:14.000Z</time>
      </trkpt>
      <trkpt lat="48.35054" lon="0.87111">
        <ele>164.725757</ele>
        <time>2021-09-07T08:22:21.000Z</time>
      </trkpt>
      <trkpt lat="48.35047" lon="0.87118">
        <ele>164.325386</ele>
        <time>2021-09-07T08:22:26.000Z</time>
      </trkpt>
      <trkpt lat="48.35044" lon="0.87121">
        <ele>164.191494</ele>
        <time>2021-09-07T08:24:08.000Z</time>
      </trkpt>
      <trkpt lat="48.35041" lon="0.87124">
        <ele>164.022817</ele>
        <time>2021-09-07T08:24:10.000Z</time>
      </trkpt>
      <trkpt lat="48.35027" lon="0.87139">
        <ele>163.212217</ele>
        <time>2021-09-07T08:24:16.000Z</time>
      </trkpt>
      <trkpt lat="48.35008" lon="0.87155">
        <ele>162.220926</ele>
        <time>2021-09-07T08:24:21.000Z</time>
      </trkpt>
      <trkpt lat="48.34991" lon="0.87171">
        <ele>161.299727</ele>
        <time>2021-09-07T08:24:25.000Z</time>
      </trkpt>
      <trkpt lat="48.34976" lon="0.87185">
        <ele>160.507047</ele>
        <time>2021-09-07T08:24:28.000Z</time>
      </trkpt>
      <trkpt lat="48.34941" lon="0.87222">
        <ele>158.833235</ele>
        <time>2021-09-07T08:24:35.000Z</time>
      </trkpt>
      <trkpt lat="48.349" lon="0.87266">
        <ele>157.674959</ele>
        <time>2021-09-07T08:24:43.000Z</time>
      </trkpt>
      <trkpt lat="48.3487" lon="0.87297">
        <ele>156.842941</ele>
        <time>2021-09-07T08:24:49.000Z</time>
      </trkpt>
      <trkpt lat="48.34834" lon="0.87336">
        <ele>155.807372</ele>
        <time>2021-09-07T08:24:57.000Z</time>
      </trkpt>
      <trkpt lat="48.34816" lon="0.87356">
        <ele>155.299912</ele>
        <time>2021-09-07T08:25:01.000Z</time>
      </trkpt>
      <trkpt lat="48.3481" lon="0.87369">
        <ele>155.043804</ele>
        <time>2021-09-07T08:25:03.000Z</time>
      </trkpt>
      <trkpt lat="48.34802" lon="0.87393">
        <ele>154.576614</ele>
        <time>2021-09-07T08:25:06.000Z</time>
      </trkpt>
      <trkpt lat="48.34797" lon="0.87411">
        <ele>154.245554</ele>
        <time>2021-09-07T08:25:08.000Z</time>
      </trkpt>
      <trkpt lat="48.34782" lon="0.87468">
        <ele>153.137189</ele>
        <time>2021-09-07T08:25:15.000Z</time>
      </trkpt>
      <trkpt lat="48.34777" lon="0.87484">
        <ele>152.83728</ele>
        <time>2021-09-07T08:25:17.000Z</time>
      </trkpt>
      <trkpt lat="48.34772" lon="0.87498">
        <ele>152.540417</ele>
        <time>2021-09-07T08:25:19.000Z</time>
      </trkpt>
      <trkpt lat="48.34768" lon="0.87504">
        <ele>152.390823</ele>
        <time>2021-09-07T08:25:20.000Z</time>
      </trkpt>
      <trkpt lat="48.3476" lon="0.87515">
        <ele>152.100507</ele>
        <time>2021-09-07T08:25:22.000Z</time>
      </trkpt>
      <trkpt lat="48.34747" lon="0.87529">
        <ele>151.68222</ele>
        <time>2021-09-07T08:25:24.000Z</time>
      </trkpt>
      <trkpt lat="48.34743" lon="0.87533">
        <ele>151.549144</ele>
        <time>2021-09-07T08:25:25.000Z</time>
      </trkpt>
      <trkpt lat="48.34734" lon="0.87541">
        <ele>151.272025</ele>
        <time>2021-09-07T08:25:27.000Z</time>
      </trkpt>
      <trkpt lat="48.34724" lon="0.87547">
        <ele>150.980652</ele>
        <time>2021-09-07T08:25:29.000Z</time>
      </trkpt>
      <trkpt lat="48.34718" lon="0.87549">
        <ele>150.826561</ele>
        <time>2021-09-07T08:25:30.000Z</time>
      </trkpt>
      <trkpt lat="48.34688" lon="0.87552">
        <ele>149.953254</ele>
        <time>2021-09-07T08:25:35.000Z</time>
      </trkpt>
      <trkpt lat="48.34648" lon="0.87554">
        <ele>148.357481</ele>
        <time>2021-09-07T08:25:41.000Z</time>
      </trkpt>
      <trkpt lat="48.34599" lon="0.87551">
        <ele>146.412785</ele>
        <time>2021-09-07T08:25:47.000Z</time>
      </trkpt>
      <trkpt lat="48.34585" lon="0.87553">
        <ele>145.873264</ele>
        <time>2021-09-07T08:25:49.000Z</time>
      </trkpt>
      <trkpt lat="48.3458" lon="0.8755">
        <ele>145.638791</ele>
        <time>2021-09-07T08:25:50.000Z</time>
      </trkpt>
      <trkpt lat="48.34575" lon="0.87544">
        <ele>145.392523</ele>
        <time>2021-09-07T08:25:51.000Z</time>
      </trkpt>
      <trkpt lat="48.34569" lon="0.87526">
        <ele>144.867637</ele>
        <time>2021-09-07T08:25:53.000Z</time>
      </trkpt>
      <trkpt lat="48.34564" lon="0.87506">
        <ele>144.307042</ele>
        <time>2021-09-07T08:25:55.000Z</time>
      </trkpt>
      <trkpt lat="48.34561" lon="0.87484">
        <ele>143.71687</ele>
        <time>2021-09-07T08:25:57.000Z</time>
      </trkpt>
      <trkpt lat="48.3456" lon="0.87473">
        <ele>143.411074</ele>
        <time>2021-09-07T08:25:58.000Z</time>
      </trkpt>
      <trkpt lat="48.34551" lon="0.87429">
        <ele>142.19338</ele>
        <time>2021-09-07T08:26:02.000Z</time>
      </trkpt>
      <trkpt lat="48.34542" lon="0.87387">
        <ele>141.019669</ele>
        <time>2021-09-07T08:26:06.000Z</time>
      </trkpt>
      <trkpt lat="48.34537" lon="0.87368">
        <ele>140.488997</ele>
        <time>2021-09-07T08:26:08.000Z</time>
      </trkpt>
      <trkpt lat="48.34529" lon="0.87335">
        <ele>139.541674</ele>
        <time>2021-09-07T08:26:12.000Z</time>
      </trkpt>
      <trkpt lat="48.34526" lon="0.87329">
        <ele>139.321998</ele>
        <time>2021-09-07T08:26:13.000Z</time>
      </trkpt>
      <trkpt lat="48.34521" lon="0.87326">
        <ele>139.119757</ele>
        <time>2021-09-07T08:26:14.000Z</time>
      </trkpt>
      <trkpt lat="48.34516" lon="0.87328">
        <ele>138.901022</ele>
        <time>2021-09-07T08:26:15.000Z</time>
      </trkpt>
      <trkpt lat="48.34511" lon="0.87333">
        <ele>138.690811</ele>
        <time>2021-09-07T08:26:16.000Z</time>
      </trkpt>
      <trkpt lat="48.34506" lon="0.87345">
        <ele>138.304124</ele>
        <time>2021-09-07T08:26:18.000Z</time>
      </trkpt>
      <trkpt lat="48.34492" lon="0.87374">
        <ele>137.344602</ele>
        <time>2021-09-07T08:26:24.000Z</time>
      </trkpt>
      <trkpt lat="48.34481" lon="0.87393">
        <ele>136.68206</ele>
        <time>2021-09-07T08:26:30.000Z</time>
      </trkpt>
      <trkpt lat="48.34473" lon="0.87409">
        <ele>136.151354</ele>
        <time>2021-09-07T08:26:36.000Z</time>
      </trkpt>
      <trkpt lat="48.34472" lon="0.87411">
        <ele>136.069522</ele>
        <time>2021-09-07T08:26:37.000Z</time>
      </trkpt>
      <trkpt lat="48.34468" lon="0.87418">
        <ele>135.832049</ele>
        <time>2021-09-07T08:26:40.000Z</time>
      </trkpt>
      <trkpt lat="48.34453" lon="0.87449">
        <ele>135.537211</ele>
        <time>2021-09-07T08:26:51.000Z</time>
      </trkpt>
      <trkpt lat="48.34441" lon="0.87469">
        <ele>135.332209</ele>
        <time>2021-09-07T08:26:57.000Z</time>
      </trkpt>
      <trkpt lat="48.34427" lon="0.87471">
        <ele>135.159302</ele>
        <time>2021-09-07T08:27:01.000Z</time>
      </trkpt>
      <trkpt lat="48.34396" lon="0.87462">
        <ele>134.792745</ele>
        <time>2021-09-07T08:27:09.000Z</time>
      </trkpt>
      <trkpt lat="48.34381" lon="0.87455">
        <ele>134.613648</ele>
        <time>2021-09-07T08:27:14.000Z</time>
      </trkpt>
      <trkpt lat="48.34366" lon="0.87439">
        <ele>134.401707</ele>
        <time>2021-09-07T08:27:20.000Z</time>
      </trkpt>
      <trkpt lat="48.34345" lon="0.87415">
        <ele>134.086569</ele>
        <time>2021-09-07T08:27:29.000Z</time>
      </trkpt>
      <trkpt lat="48.34327" lon="0.87402">
        <ele>133.852953</ele>
        <time>2021-09-07T08:27:35.000Z</time>
      </trkpt>
      <trkpt lat="48.34297" lon="0.87384">
        <ele>133.769298</ele>
        <time>2021-09-07T08:27:45.000Z</time>
      </trkpt>
      <trkpt lat="48.34276" lon="0.87375">
        <ele>133.808223</ele>
        <time>2021-09-07T08:27:52.000Z</time>
      </trkpt>
      <trkpt lat="48.34258" lon="0.87364">
        <ele>133.843302</ele>
        <time>2021-09-07T08:27:59.000Z</time>
      </trkpt>
      <trkpt lat="48.34239" lon="0.87351">
        <ele>133.880179</ele>
        <time>2021-09-07T08:28:05.000Z</time>
      </trkpt>
      <trkpt lat="48.34214" lon="0.87342">
        <ele>133.926064</ele>
        <time>2021-09-07T08:28:10.000Z</time>
      </trkpt>
      <trkpt lat="48.34202" lon="0.87341">
        <ele>133.947631</ele>
        <time>2021-09-07T08:28:12.000Z</time>
      </trkpt>
      <trkpt lat="48.34183" lon="0.87343">
        <ele>133.982852</ele>
        <time>2021-09-07T08:28:15.000Z</time>
      </trkpt>
      <trkpt lat="48.34139" lon="0.87352">
        <ele>134.040555</ele>
        <time>2021-09-07T08:28:21.000Z</time>
      </trkpt>
      <trkpt lat="48.34101" lon="0.87359">
        <ele>133.942789</ele>
        <time>2021-09-07T08:28:26.000Z</time>
      </trkpt>
      <trkpt lat="48.34093" lon="0.87357">
        <ele>133.923827</ele>
        <time>2021-09-07T08:28:27.000Z</time>
      </trkpt>
      <trkpt lat="48.34086" lon="0.87353">
        <ele>133.905781</ele>
        <time>2021-09-07T08:28:28.000Z</time>
      </trkpt>
      <trkpt lat="48.34074" lon="0.87342">
        <ele>133.870176</ele>
        <time>2021-09-07T08:28:30.000Z</time>
      </trkpt>
      <trkpt lat="48.34047" lon="0.87305">
        <ele>133.778565</ele>
        <time>2021-09-07T08:28:36.000Z</time>
      </trkpt>
      <trkpt lat="48.34036" lon="0.87292">
        <ele>133.743328</ele>
        <time>2021-09-07T08:28:39.000Z</time>
      </trkpt>
      <trkpt lat="48.34032" lon="0.87289">
        <ele>133.731309</ele>
        <time>2021-09-07T08:28:40.000Z</time>
      </trkpt>
      <trkpt lat="48.34023" lon="0.87283">
        <ele>133.705977</ele>
        <time>2021-09-07T08:28:42.000Z</time>
      </trkpt>
      <trkpt lat="48.34012" lon="0.87279">
        <ele>133.679055</ele>
        <time>2021-09-07T08:28:44.000Z</time>
      </trkpt>
      <trkpt lat="48.33994" lon="0.87281">
        <ele>133.634157</ele>
        <time>2021-09-07T08:28:49.000Z</time>
      </trkpt>
      <trkpt lat="48.33981" lon="0.87289">
        <ele>133.682842</ele>
        <time>2021-09-07T08:28:55.000Z</time>
      </trkpt>
      <trkpt lat="48.33968" lon="0.87299">
        <ele>134.237537</ele>
        <time>2021-09-07T08:29:01.000Z</time>
      </trkpt>
      <trkpt lat="48.33962" lon="0.87307">
        <ele>134.588205</ele>
        <time>2021-09-07T08:29:05.000Z</time>
      </trkpt>
      <trkpt lat="48.33958" lon="0.87311">
        <ele>134.776493</ele>
        <time>2021-09-07T08:29:07.000Z</time>
      </trkpt>
      <trkpt lat="48.33953" lon="0.87316">
        <ele>135.01109</ele>
        <time>2021-09-07T08:29:10.000Z</time>
      </trkpt>
      <trkpt lat="48.33944" lon="0.87325">
        <ele>135.461062</ele>
        <time>2021-09-07T08:29:15.000Z</time>
      </trkpt>
      <trkpt lat="48.33936" lon="0.87333">
        <ele>135.827984</ele>
        <time>2021-09-07T08:29:20.000Z</time>
      </trkpt>
      <trkpt lat="48.33927" lon="0.87342">
        <ele>136.280805</ele>
        <time>2021-09-07T08:29:25.000Z</time>
      </trkpt>
      <trkpt lat="48.33913" lon="0.87356">
        <ele>136.94972</ele>
        <time>2021-09-07T08:29:32.000Z</time>
      </trkpt>
      <trkpt lat="48.33903" lon="0.87373">
        <ele>137.562452</ele>
        <time>2021-09-07T08:29:39.000Z</time>
      </trkpt>
      <trkpt lat="48.33901" lon="0.8738">
        <ele>137.760287</ele>
        <time>2021-09-07T08:29:43.000Z</time>
      </trkpt>
      <trkpt lat="48.33893" lon="0.87395">
        <ele>138.288321</ele>
        <time>2021-09-07T08:29:49.000Z</time>
      </trkpt>
      <trkpt lat="48.33888" lon="0.87406">
        <ele>138.637885</ele>
        <time>2021-09-07T08:29:53.000Z</time>
      </trkpt>
      <trkpt lat="48.33881" lon="0.87417">
        <ele>139.032707</ele>
        <time>2021-09-07T08:29:57.000Z</time>
      </trkpt>
      <trkpt lat="48.3388" lon="0.87418">
        <ele>139.0924</ele>
        <time>2021-09-07T08:29:58.000Z</time>
      </trkpt>
      <trkpt lat="48.3388" lon="0.8742">
        <ele>139.149807</ele>
        <time>2021-09-07T08:29:59.000Z</time>
      </trkpt>
      <trkpt lat="48.33877" lon="0.87429">
        <ele>139.39262</ele>
        <time>2021-09-07T08:30:02.000Z</time>
      </trkpt>
      <trkpt lat="48.33875" lon="0.87435">
        <ele>139.571867</ele>
        <time>2021-09-07T08:30:04.000Z</time>
      </trkpt>
      <trkpt lat="48.33875" lon="0.87439">
        <ele>139.694532</ele>
        <time>2021-09-07T08:30:06.000Z</time>
      </trkpt>
      <trkpt lat="48.33872" lon="0.87447">
        <ele>139.926051</ele>
        <time>2021-09-07T08:30:09.000Z</time>
      </trkpt>
      <trkpt lat="48.33871" lon="0.87452">
        <ele>140.070727</ele>
        <time>2021-09-07T08:30:11.000Z</time>
      </trkpt>
      <trkpt lat="48.33869" lon="0.87459">
        <ele>140.267553</ele>
        <time>2021-09-07T08:30:13.000Z</time>
      </trkpt>
      <trkpt lat="48.33868" lon="0.87469">
        <ele>140.551151</ele>
        <time>2021-09-07T08:30:16.000Z</time>
      </trkpt>
      <trkpt lat="48.33867" lon="0.87472">
        <ele>140.642524</ele>
        <time>2021-09-07T08:30:17.000Z</time>
      </trkpt>
      <trkpt lat="48.33866" lon="0.87478">
        <ele>140.806296</ele>
        <time>2021-09-07T08:30:19.000Z</time>
      </trkpt>
      <trkpt lat="48.33866" lon="0.87482">
        <ele>140.925834</ele>
        <time>2021-09-07T08:30:20.000Z</time>
      </trkpt>
      <trkpt lat="48.33866" lon="0.87484">
        <ele>141.045403</ele>
        <time>2021-09-07T08:30:21.000Z</time>
      </trkpt>
      <trkpt lat="48.33864" lon="0.8749">
        <ele>141.305693</ele>
        <time>2021-09-07T08:30:23.000Z</time>
      </trkpt>
      <trkpt lat="48.3386" lon="0.87507">
        <ele>142.070797</ele>
        <time>2021-09-07T08:30:28.000Z</time>
      </trkpt>
      <trkpt lat="48.33858" lon="0.87513">
        <ele>142.385308</ele>
        <time>2021-09-07T08:30:30.000Z</time>
      </trkpt>
      <trkpt lat="48.33856" lon="0.87524">
        <ele>142.86951</ele>
        <time>2021-09-07T08:30:33.000Z</time>
      </trkpt>
      <trkpt lat="48.33855" lon="0.87528">
        <ele>143.001751</ele>
        <time>2021-09-07T08:30:34.000Z</time>
      </trkpt>
      <trkpt lat="48.33853" lon="0.87537">
        <ele>143.41273</ele>
        <time>2021-09-07T08:30:37.000Z</time>
      </trkpt>
      <trkpt lat="48.33851" lon="0.87542">
        <ele>143.668401</ele>
        <time>2021-09-07T08:30:39.000Z</time>
      </trkpt>
      <trkpt lat="48.3385" lon="0.87547">
        <ele>143.909829</ele>
        <time>2021-09-07T08:30:41.000Z</time>
      </trkpt>
      <trkpt lat="48.33848" lon="0.87552">
        <ele>144.164909</ele>
        <time>2021-09-07T08:30:43.000Z</time>
      </trkpt>
      <trkpt lat="48.33846" lon="0.87557">
        <ele>144.413139</ele>
        <time>2021-09-07T08:30:45.000Z</time>
      </trkpt>
      <trkpt lat="48.33845" lon="0.8756">
        <ele>144.543995</ele>
        <time>2021-09-07T08:30:46.000Z</time>
      </trkpt>
      <trkpt lat="48.33836" lon="0.87574">
        <ele>145.356455</ele>
        <time>2021-09-07T08:30:52.000Z</time>
      </trkpt>
      <trkpt lat="48.33825" lon="0.87589">
        <ele>146.32742</ele>
        <time>2021-09-07T08:30:58.000Z</time>
      </trkpt>
      <trkpt lat="48.33816" lon="0.87599">
        <ele>147.016539</ele>
        <time>2021-09-07T08:31:03.000Z</time>
      </trkpt>
      <trkpt lat="48.33807" lon="0.87606">
        <ele>147.668132</ele>
        <time>2021-09-07T08:31:09.000Z</time>
      </trkpt>
      <trkpt lat="48.338" lon="0.87612">
        <ele>148.188292</ele>
        <time>2021-09-07T08:31:14.000Z</time>
      </trkpt>
      <trkpt lat="48.33792" lon="0.8762">
        <ele>148.766543</ele>
        <time>2021-09-07T08:31:19.000Z</time>
      </trkpt>
      <trkpt lat="48.33784" lon="0.87628">
        <ele>149.420062</ele>
        <time>2021-09-07T08:31:24.000Z</time>
      </trkpt>
      <trkpt lat="48.33768" lon="0.8764">
        <ele>150.534186</ele>
        <time>2021-09-07T08:31:31.000Z</time>
      </trkpt>
      <trkpt lat="48.33753" lon="0.87651">
        <ele>151.609735</ele>
        <time>2021-09-07T08:31:38.000Z</time>
      </trkpt>
      <trkpt lat="48.33739" lon="0.87662">
        <ele>152.523663</ele>
        <time>2021-09-07T08:31:45.000Z</time>
      </trkpt>
      <trkpt lat="48.33727" lon="0.8767">
        <ele>153.148714</ele>
        <time>2021-09-07T08:31:51.000Z</time>
      </trkpt>
      <trkpt lat="48.33713" lon="0.87681">
        <ele>153.872314</ele>
        <time>2021-09-07T08:31:58.000Z</time>
      </trkpt>
      <trkpt lat="48.337" lon="0.87692">
        <ele>154.551856</ele>
        <time>2021-09-07T08:32:05.000Z</time>
      </trkpt>
      <trkpt lat="48.33686" lon="0.87702">
        <ele>155.251818</ele>
        <time>2021-09-07T08:32:12.000Z</time>
      </trkpt>
      <trkpt lat="48.33669" lon="0.87715">
        <ele>156.157606</ele>
        <time>2021-09-07T08:32:20.000Z</time>
      </trkpt>
      <trkpt lat="48.33646" lon="0.87733">
        <ele>157.353038</ele>
        <time>2021-09-07T08:32:29.000Z</time>
      </trkpt>
      <trkpt lat="48.33623" lon="0.8775">
        <ele>158.530561</ele>
        <time>2021-09-07T08:32:38.000Z</time>
      </trkpt>
      <trkpt lat="48.33598" lon="0.8777">
        <ele>159.815088</ele>
        <time>2021-09-07T08:32:47.000Z</time>
      </trkpt>
      <trkpt lat="48.33568" lon="0.87793">
        <ele>161.014738</ele>
        <time>2021-09-07T08:32:58.000Z</time>
      </trkpt>
      <trkpt lat="48.33541" lon="0.87815">
        <ele>161.738562</ele>
        <time>2021-09-07T08:33:07.000Z</time>
      </trkpt>
      <trkpt lat="48.33515" lon="0.87835">
        <ele>162.410187</ele>
        <time>2021-09-07T08:33:15.000Z</time>
      </trkpt>
      <trkpt lat="48.3349" lon="0.87854">
        <ele>163.080368</ele>
        <time>2021-09-07T08:33:23.000Z</time>
      </trkpt>
      <trkpt lat="48.33461" lon="0.87877">
        <ele>163.855673</ele>
        <time>2021-09-07T08:33:32.000Z</time>
      </trkpt>
      <trkpt lat="48.33428" lon="0.87902">
        <ele>164.725963</ele>
        <time>2021-09-07T08:33:42.000Z</time>
      </trkpt>
      <trkpt lat="48.33401" lon="0.87923">
        <ele>165.262415</ele>
        <time>2021-09-07T08:33:50.000Z</time>
      </trkpt>
      <trkpt lat="48.33369" lon="0.87948">
        <ele>165.853812</ele>
        <time>2021-09-07T08:34:00.000Z</time>
      </trkpt>
      <trkpt lat="48.33351" lon="0.87966">
        <ele>166.205122</ele>
        <time>2021-09-07T08:34:06.000Z</time>
      </trkpt>
      <trkpt lat="48.33339" lon="0.87986">
        <ele>166.492083</ele>
        <time>2021-09-07T08:34:11.000Z</time>
      </trkpt>
      <trkpt lat="48.33329" lon="0.8801">
        <ele>166.808757</ele>
        <time>2021-09-07T08:34:16.000Z</time>
      </trkpt>
      <trkpt lat="48.33315" lon="0.88052">
        <ele>167.311899</ele>
        <time>2021-09-07T08:34:24.000Z</time>
      </trkpt>
      <trkpt lat="48.333" lon="0.88112">
        <ele>167.978129</ele>
        <time>2021-09-07T08:34:35.000Z</time>
      </trkpt>
      <trkpt lat="48.33287" lon="0.88171">
        <ele>168.552203</ele>
        <time>2021-09-07T08:34:46.000Z</time>
      </trkpt>
      <trkpt lat="48.33275" lon="0.88226">
        <ele>169.083303</ele>
        <time>2021-09-07T08:34:56.000Z</time>
      </trkpt>
      <trkpt lat="48.33265" lon="0.88271">
        <ele>169.527576</ele>
        <time>2021-09-07T08:35:04.000Z</time>
      </trkpt>
      <trkpt lat="48.33255" lon="0.88306">
        <ele>169.877537</ele>
        <time>2021-09-07T08:35:11.000Z</time>
      </trkpt>
      <trkpt lat="48.33243" lon="0.88349">
        <ele>170.300192</ele>
        <time>2021-09-07T08:35:19.000Z</time>
      </trkpt>
      <trkpt lat="48.33222" lon="0.88396">
        <ele>170.635314</ele>
        <time>2021-09-07T08:35:28.000Z</time>
      </trkpt>
      <trkpt lat="48.33205" lon="0.88439">
        <ele>170.928967</ele>
        <time>2021-09-07T08:35:36.000Z</time>
      </trkpt>
      <trkpt lat="48.33194" lon="0.88476">
        <ele>171.166393</ele>
        <time>2021-09-07T08:35:42.000Z</time>
      </trkpt>
      <trkpt lat="48.33193" lon="0.88482">
        <ele>171.20408</ele>
        <time>2021-09-07T08:35:43.000Z</time>
      </trkpt>
      <trkpt lat="48.33181" lon="0.88532">
        <ele>171.517314</ele>
        <time>2021-09-07T08:35:51.000Z</time>
      </trkpt>
      <trkpt lat="48.33167" lon="0.88577">
        <ele>171.811912</ele>
        <time>2021-09-07T08:35:58.000Z</time>
      </trkpt>
      <trkpt lat="48.3316" lon="0.88588">
        <ele>171.893159</ele>
        <time>2021-09-07T08:36:00.000Z</time>
      </trkpt>
      <trkpt lat="48.33149" lon="0.886">
        <ele>171.982606</ele>
        <time>2021-09-07T08:36:03.000Z</time>
      </trkpt>
      <trkpt lat="48.33119" lon="0.88629">
        <ele>172.212495</ele>
        <time>2021-09-07T08:36:11.000Z</time>
      </trkpt>
      <trkpt lat="48.33096" lon="0.88652">
        <ele>172.395409</ele>
        <time>2021-09-07T08:36:18.000Z</time>
      </trkpt>
      <trkpt lat="48.33092" lon="0.88655">
        <ele>172.421661</ele>
        <time>2021-09-07T08:36:19.000Z</time>
      </trkpt>
      <trkpt lat="48.33075" lon="0.88672">
        <ele>172.555261</ele>
        <time>2021-09-07T08:36:24.000Z</time>
      </trkpt>
      <trkpt lat="48.33043" lon="0.88703">
        <ele>172.801508</ele>
        <time>2021-09-07T08:36:33.000Z</time>
      </trkpt>
      <trkpt lat="48.33013" lon="0.88732">
        <ele>173.033268</ele>
        <time>2021-09-07T08:36:41.000Z</time>
      </trkpt>
      <trkpt lat="48.32975" lon="0.88771">
        <ele>173.124316</ele>
        <time>2021-09-07T08:36:50.000Z</time>
      </trkpt>
      <trkpt lat="48.32939" lon="0.88806">
        <ele>173.195967</ele>
        <time>2021-09-07T08:36:58.000Z</time>
      </trkpt>
      <trkpt lat="48.32906" lon="0.88838">
        <ele>173.262521</ele>
        <time>2021-09-07T08:37:06.000Z</time>
      </trkpt>
      <trkpt lat="48.32888" lon="0.88857">
        <ele>173.30058</ele>
        <time>2021-09-07T08:37:11.000Z</time>
      </trkpt>
      <trkpt lat="48.32877" lon="0.88867">
        <ele>173.322866</ele>
        <time>2021-09-07T08:37:14.000Z</time>
      </trkpt>
      <trkpt lat="48.32848" lon="0.88896">
        <ele>173.460793</ele>
        <time>2021-09-07T08:37:22.000Z</time>
      </trkpt>
      <trkpt lat="48.32831" lon="0.88913">
        <ele>173.605743</ele>
        <time>2021-09-07T08:37:27.000Z</time>
      </trkpt>
      <trkpt lat="48.3282" lon="0.88923">
        <ele>173.692473</ele>
        <time>2021-09-07T08:37:30.000Z</time>
      </trkpt>
      <trkpt lat="48.32782" lon="0.8896">
        <ele>174.011473</ele>
        <time>2021-09-07T08:37:41.000Z</time>
      </trkpt>
      <trkpt lat="48.32749" lon="0.88993">
        <ele>174.285718</ele>
        <time>2021-09-07T08:37:51.000Z</time>
      </trkpt>
      <trkpt lat="48.32722" lon="0.89019">
        <ele>174.51062</ele>
        <time>2021-09-07T08:38:00.000Z</time>
      </trkpt>
      <trkpt lat="48.32694" lon="0.89047">
        <ele>175.124651</ele>
        <time>2021-09-07T08:38:10.000Z</time>
      </trkpt>
      <trkpt lat="48.32672" lon="0.89068">
        <ele>175.828673</ele>
        <time>2021-09-07T08:38:19.000Z</time>
      </trkpt>
      <trkpt lat="48.32645" lon="0.89094">
        <ele>176.715483</ele>
        <time>2021-09-07T08:38:31.000Z</time>
      </trkpt>
      <trkpt lat="48.32627" lon="0.89113">
        <ele>177.316753</ele>
        <time>2021-09-07T08:38:39.000Z</time>
      </trkpt>
      <trkpt lat="48.32606" lon="0.89133">
        <ele>177.988082</ele>
        <time>2021-09-07T08:38:48.000Z</time>
      </trkpt>
      <trkpt lat="48.32587" lon="0.89151">
        <ele>178.610746</ele>
        <time>2021-09-07T08:38:57.000Z</time>
      </trkpt>
      <trkpt lat="48.32567" lon="0.8917">
        <ele>179.235958</ele>
        <time>2021-09-07T08:39:06.000Z</time>
      </trkpt>
      <trkpt lat="48.3255" lon="0.89186">
        <ele>179.870441</ele>
        <time>2021-09-07T08:39:14.000Z</time>
      </trkpt>
      <trkpt lat="48.3253" lon="0.89208">
        <ele>180.763755</ele>
        <time>2021-09-07T08:39:24.000Z</time>
      </trkpt>
      <trkpt lat="48.32513" lon="0.89217">
        <ele>181.363189</ele>
        <time>2021-09-07T08:39:30.000Z</time>
      </trkpt>
      <trkpt lat="48.32493" lon="0.89215">
        <ele>182.085362</ele>
        <time>2021-09-07T08:39:37.000Z</time>
      </trkpt>
      <trkpt lat="48.32472" lon="0.89211">
        <ele>182.834858</ele>
        <time>2021-09-07T08:39:44.000Z</time>
      </trkpt>
      <trkpt lat="48.32456" lon="0.89221">
        <ele>183.431514</ele>
        <time>2021-09-07T08:39:50.000Z</time>
      </trkpt>
      <trkpt lat="48.3245" lon="0.89226">
        <ele>183.672941</ele>
        <time>2021-09-07T08:39:53.000Z</time>
      </trkpt>
      <trkpt lat="48.32448" lon="0.89229">
        <ele>183.759015</ele>
        <time>2021-09-07T08:39:54.000Z</time>
      </trkpt>
      <trkpt lat="48.32446" lon="0.89231">
        <ele>183.850554</ele>
        <time>2021-09-07T08:39:55.000Z</time>
      </trkpt>
      <trkpt lat="48.3244" lon="0.89237">
        <ele>184.112519</ele>
        <time>2021-09-07T08:39:58.000Z</time>
      </trkpt>
      <trkpt lat="48.32421" lon="0.89255">
        <ele>184.918253</ele>
        <time>2021-09-07T08:40:06.000Z</time>
      </trkpt>
      <trkpt lat="48.32408" lon="0.89267">
        <ele>185.442685</ele>
        <time>2021-09-07T08:40:12.000Z</time>
      </trkpt>
      <trkpt lat="48.32394" lon="0.89283">
        <ele>185.786465</ele>
        <time>2021-09-07T08:40:19.000Z</time>
      </trkpt>
      <trkpt lat="48.32376" lon="0.893">
        <ele>185.636604</ele>
        <time>2021-09-07T08:40:27.000Z</time>
      </trkpt>
      <trkpt lat="48.32362" lon="0.89311">
        <ele>185.526997</ele>
        <time>2021-09-07T08:40:33.000Z</time>
      </trkpt>
      <trkpt lat="48.32349" lon="0.89326">
        <ele>185.411114</ele>
        <time>2021-09-07T08:40:40.000Z</time>
      </trkpt>
      <trkpt lat="48.32332" lon="0.8934">
        <ele>185.280048</ele>
        <time>2021-09-07T08:40:47.000Z</time>
      </trkpt>
      <trkpt lat="48.32323" lon="0.8935">
        <ele>185.201529</ele>
        <time>2021-09-07T08:40:52.000Z</time>
      </trkpt>
      <trkpt lat="48.32306" lon="0.89366">
        <ele>185.063827</ele>
        <time>2021-09-07T08:40:58.000Z</time>
      </trkpt>
      <trkpt lat="48.32293" lon="0.89381">
        <ele>184.949077</ele>
        <time>2021-09-07T08:41:02.000Z</time>
      </trkpt>
      <trkpt lat="48.3229" lon="0.89387">
        <ele>184.916402</ele>
        <time>2021-09-07T08:41:03.000Z</time>
      </trkpt>
      <trkpt lat="48.32289" lon="0.89394">
        <ele>184.881268</ele>
        <time>2021-09-07T08:41:04.000Z</time>
      </trkpt>
      <trkpt lat="48.32291" lon="0.89411">
        <ele>184.801609</ele>
        <time>2021-09-07T08:41:06.000Z</time>
      </trkpt>
      <trkpt lat="48.32291" lon="0.8942">
        <ele>184.760025</ele>
        <time>2021-09-07T08:41:07.000Z</time>
      </trkpt>
      <trkpt lat="48.32292" lon="0.89459">
        <ele>184.58295</ele>
        <time>2021-09-07T08:41:11.000Z</time>
      </trkpt>
      <trkpt lat="48.32292" lon="0.89469">
        <ele>184.367386</ele>
        <time>2021-09-07T08:41:12.000Z</time>
      </trkpt>
      <trkpt lat="48.32292" lon="0.89496">
        <ele>183.767653</ele>
        <time>2021-09-07T08:41:15.000Z</time>
      </trkpt>
      <trkpt lat="48.32292" lon="0.89502">
        <ele>183.61475</ele>
        <time>2021-09-07T08:41:16.000Z</time>
      </trkpt>
      <trkpt lat="48.32287" lon="0.89512">
        <ele>183.335878</ele>
        <time>2021-09-07T08:41:18.000Z</time>
      </trkpt>
      <trkpt lat="48.32279" lon="0.8952">
        <ele>183.020036</ele>
        <time>2021-09-07T08:41:20.000Z</time>
      </trkpt>
      <trkpt lat="48.32274" lon="0.89534">
        <ele>182.679017</ele>
        <time>2021-09-07T08:41:22.000Z</time>
      </trkpt>
      <trkpt lat="48.32269" lon="0.89589">
        <ele>181.426619</ele>
        <time>2021-09-07T08:41:28.000Z</time>
      </trkpt>
      <trkpt lat="48.32268" lon="0.89599">
        <ele>181.199664</ele>
        <time>2021-09-07T08:41:29.000Z</time>
      </trkpt>
      <trkpt lat="48.32262" lon="0.8964">
        <ele>180.267886</ele>
        <time>2021-09-07T08:41:33.000Z</time>
      </trkpt>
      <trkpt lat="48.32255" lon="0.89701">
        <ele>178.879572</ele>
        <time>2021-09-07T08:41:39.000Z</time>
      </trkpt>
      <trkpt lat="48.32246" lon="0.89754">
        <ele>177.828145</ele>
        <time>2021-09-07T08:41:45.000Z</time>
      </trkpt>
      <trkpt lat="48.32235" lon="0.89819">
        <ele>176.645919</ele>
        <time>2021-09-07T08:41:52.000Z</time>
      </trkpt>
      <trkpt lat="48.3222" lon="0.89898">
        <ele>175.176016</ele>
        <time>2021-09-07T08:42:00.000Z</time>
      </trkpt>
      <trkpt lat="48.32206" lon="0.89932">
        <ele>174.459042</ele>
        <time>2021-09-07T08:42:04.000Z</time>
      </trkpt>
      <trkpt lat="48.32201" lon="0.89939">
        <ele>174.278918</ele>
        <time>2021-09-07T08:42:05.000Z</time>
      </trkpt>
      <trkpt lat="48.32159" lon="0.89999">
        <ele>173.02885</ele>
        <time>2021-09-07T08:42:14.000Z</time>
      </trkpt>
      <trkpt lat="48.32126" lon="0.90042">
        <ele>172.230387</ele>
        <time>2021-09-07T08:42:21.000Z</time>
      </trkpt>
      <trkpt lat="48.32096" lon="0.90086">
        <ele>171.471246</ele>
        <time>2021-09-07T08:42:28.000Z</time>
      </trkpt>
      <trkpt lat="48.32084" lon="0.90104">
        <ele>171.155799</ele>
        <time>2021-09-07T08:42:31.000Z</time>
      </trkpt>
      <trkpt lat="48.32074" lon="0.90125">
        <ele>170.840018</ele>
        <time>2021-09-07T08:42:34.000Z</time>
      </trkpt>
      <trkpt lat="48.32072" lon="0.90133">
        <ele>170.739073</ele>
        <time>2021-09-07T08:42:35.000Z</time>
      </trkpt>
      <trkpt lat="48.32067" lon="0.90156">
        <ele>170.438307</ele>
        <time>2021-09-07T08:42:38.000Z</time>
      </trkpt>
      <trkpt lat="48.32054" lon="0.90205">
        <ele>170.158918</ele>
        <time>2021-09-07T08:42:44.000Z</time>
      </trkpt>
      <trkpt lat="48.32034" lon="0.90256">
        <ele>169.858432</ele>
        <time>2021-09-07T08:42:51.000Z</time>
      </trkpt>
      <trkpt lat="48.32028" lon="0.90285">
        <ele>169.707704</ele>
        <time>2021-09-07T08:42:55.000Z</time>
      </trkpt>
      <trkpt lat="48.32026" lon="0.90298">
        <ele>169.638421</ele>
        <time>2021-09-07T08:42:57.000Z</time>
      </trkpt>
      <trkpt lat="48.32026" lon="0.90341">
        <ele>169.425435</ele>
        <time>2021-09-07T08:43:04.000Z</time>
      </trkpt>
      <trkpt lat="48.32019" lon="0.90358">
        <ele>169.3254</ele>
        <time>2021-09-07T08:43:08.000Z</time>
      </trkpt>
      <trkpt lat="48.32005" lon="0.90368">
        <ele>169.200609</ele>
        <time>2021-09-07T08:43:13.000Z</time>
      </trkpt>
      <trkpt lat="48.31977" lon="0.90384">
        <ele>169.018493</ele>
        <time>2021-09-07T08:43:22.000Z</time>
      </trkpt>
      <trkpt lat="48.31955" lon="0.90406">
        <ele>168.932814</ele>
        <time>2021-09-07T08:43:30.000Z</time>
      </trkpt>
      <trkpt lat="48.3194" lon="0.90428">
        <ele>168.865162</ele>
        <time>2021-09-07T08:43:36.000Z</time>
      </trkpt>
      <trkpt lat="48.31924" lon="0.90453">
        <ele>168.790947</ele>
        <time>2021-09-07T08:43:42.000Z</time>
      </trkpt>
      <trkpt lat="48.31902" lon="0.90481">
        <ele>168.699836</ele>
        <time>2021-09-07T08:43:49.000Z</time>
      </trkpt>
      <trkpt lat="48.31873" lon="0.90509">
        <ele>168.589427</ele>
        <time>2021-09-07T08:43:57.000Z</time>
      </trkpt>
      <trkpt lat="48.31847" lon="0.90535">
        <ele>168.489383</ele>
        <time>2021-09-07T08:44:04.000Z</time>
      </trkpt>
      <trkpt lat="48.3182" lon="0.90561">
        <ele>168.364209</ele>
        <time>2021-09-07T08:44:11.000Z</time>
      </trkpt>
      <trkpt lat="48.31787" lon="0.90595">
        <ele>168.203153</ele>
        <time>2021-09-07T08:44:20.000Z</time>
      </trkpt>
      <trkpt lat="48.3178" lon="0.90602">
        <ele>168.169671</ele>
        <time>2021-09-07T08:44:22.000Z</time>
      </trkpt>
      <trkpt lat="48.31766" lon="0.90615">
        <ele>168.100349</ele>
        <time>2021-09-07T08:44:26.000Z</time>
      </trkpt>
      <trkpt lat="48.31734" lon="0.9064">
        <ele>167.955293</ele>
        <time>2021-09-07T08:44:34.000Z</time>
      </trkpt>
      <trkpt lat="48.31702" lon="0.90672">
        <ele>167.799411</ele>
        <time>2021-09-07T08:44:43.000Z</time>
      </trkpt>
      <trkpt lat="48.31674" lon="0.90716">
        <ele>167.67553</ele>
        <time>2021-09-07T08:44:52.000Z</time>
      </trkpt>
      <trkpt lat="48.31651" lon="0.90754">
        <ele>167.58863</ele>
        <time>2021-09-07T08:45:00.000Z</time>
      </trkpt>
      <trkpt lat="48.31626" lon="0.90793">
        <ele>167.499197</ele>
        <time>2021-09-07T08:45:08.000Z</time>
      </trkpt>
      <trkpt lat="48.31623" lon="0.90798">
        <ele>167.487855</ele>
        <time>2021-09-07T08:45:09.000Z</time>
      </trkpt>
      <trkpt lat="48.31607" lon="0.90819">
        <ele>167.434156</ele>
        <time>2021-09-07T08:45:14.000Z</time>
      </trkpt>
      <trkpt lat="48.31592" lon="0.90833">
        <ele>167.389187</ele>
        <time>2021-09-07T08:45:18.000Z</time>
      </trkpt>
      <trkpt lat="48.31585" lon="0.90841">
        <ele>167.366869</ele>
        <time>2021-09-07T08:45:20.000Z</time>
      </trkpt>
      <trkpt lat="48.31567" lon="0.90854">
        <ele>167.317194</ele>
        <time>2021-09-07T08:45:25.000Z</time>
      </trkpt>
      <trkpt lat="48.3155" lon="0.90863">
        <ele>167.379049</ele>
        <time>2021-09-07T08:45:30.000Z</time>
      </trkpt>
      <trkpt lat="48.31539" lon="0.90865">
        <ele>167.545009</ele>
        <time>2021-09-07T08:45:33.000Z</time>
      </trkpt>
      <trkpt lat="48.3153" lon="0.90862">
        <ele>167.669021</ele>
        <time>2021-09-07T08:45:35.000Z</time>
      </trkpt>
      <trkpt lat="48.31507" lon="0.90841">
        <ele>168.042374</ele>
        <time>2021-09-07T08:45:41.000Z</time>
      </trkpt>
      <trkpt lat="48.31503" lon="0.90839">
        <ele>168.103566</ele>
        <time>2021-09-07T08:45:42.000Z</time>
      </trkpt>
      <trkpt lat="48.31495" lon="0.90838">
        <ele>168.225416</ele>
        <time>2021-09-07T08:45:44.000Z</time>
      </trkpt>
      <trkpt lat="48.31491" lon="0.90839">
        <ele>168.285808</ele>
        <time>2021-09-07T08:45:45.000Z</time>
      </trkpt>
      <trkpt lat="48.31468" lon="0.90853">
        <ele>168.626708</ele>
        <time>2021-09-07T08:45:51.000Z</time>
      </trkpt>
      <trkpt lat="48.31439" lon="0.90872">
        <ele>169.070068</ele>
        <time>2021-09-07T08:45:59.000Z</time>
      </trkpt>
      <trkpt lat="48.31414" lon="0.90888">
        <ele>169.461122</ele>
        <time>2021-09-07T08:46:07.000Z</time>
      </trkpt>
      <trkpt lat="48.31391" lon="0.909">
        <ele>169.807296</ele>
        <time>2021-09-07T08:46:14.000Z</time>
      </trkpt>
      <trkpt lat="48.31369" lon="0.90907">
        <ele>170.205828</ele>
        <time>2021-09-07T08:46:21.000Z</time>
      </trkpt>
      <trkpt lat="48.31347" lon="0.90912">
        <ele>170.590415</ele>
        <time>2021-09-07T08:46:28.000Z</time>
      </trkpt>
      <trkpt lat="48.31329" lon="0.90921">
        <ele>170.929576</ele>
        <time>2021-09-07T08:46:35.000Z</time>
      </trkpt>
      <trkpt lat="48.31316" lon="0.90929">
        <ele>171.188322</ele>
        <time>2021-09-07T08:46:40.000Z</time>
      </trkpt>
      <trkpt lat="48.31304" lon="0.90947">
        <ele>171.495117</ele>
        <time>2021-09-07T08:46:45.000Z</time>
      </trkpt>
      <trkpt lat="48.31288" lon="0.90969">
        <ele>171.874422</ele>
        <time>2021-09-07T08:46:51.000Z</time>
      </trkpt>
      <trkpt lat="48.31272" lon="0.9098">
        <ele>172.184223</ele>
        <time>2021-09-07T08:46:56.000Z</time>
      </trkpt>
      <trkpt lat="48.31249" lon="0.90987">
        <ele>172.607683</ele>
        <time>2021-09-07T08:47:03.000Z</time>
      </trkpt>
      <trkpt lat="48.31228" lon="0.90989">
        <ele>172.980141</ele>
        <time>2021-09-07T08:47:09.000Z</time>
      </trkpt>
      <trkpt lat="48.31206" lon="0.90986">
        <ele>173.317595</ele>
        <time>2021-09-07T08:47:16.000Z</time>
      </trkpt>
      <trkpt lat="48.31185" lon="0.90979">
        <ele>173.630774</ele>
        <time>2021-09-07T08:47:23.000Z</time>
      </trkpt>
      <trkpt lat="48.3117" lon="0.90974">
        <ele>173.859988</ele>
        <time>2021-09-07T08:47:29.000Z</time>
      </trkpt>
      <trkpt lat="48.31156" lon="0.90971">
        <ele>174.065637</ele>
        <time>2021-09-07T08:47:34.000Z</time>
      </trkpt>
      <trkpt lat="48.3113" lon="0.90961">
        <ele>174.448334</ele>
        <time>2021-09-07T08:47:42.000Z</time>
      </trkpt>
      <trkpt lat="48.3111" lon="0.90955">
        <ele>174.749748</ele>
        <time>2021-09-07T08:47:48.000Z</time>
      </trkpt>
      <trkpt lat="48.31083" lon="0.90948">
        <ele>175.140652</ele>
        <time>2021-09-07T08:47:56.000Z</time>
      </trkpt>
      <trkpt lat="48.3106" lon="0.90949">
        <ele>175.474834</ele>
        <time>2021-09-07T08:48:03.000Z</time>
      </trkpt>
      <trkpt lat="48.31038" lon="0.90956">
        <ele>175.763158</ele>
        <time>2021-09-07T08:48:10.000Z</time>
      </trkpt>
      <trkpt lat="48.31013" lon="0.90965">
        <ele>176.034968</ele>
        <time>2021-09-07T08:48:18.000Z</time>
      </trkpt>
      <trkpt lat="48.30991" lon="0.90975">
        <ele>176.277382</ele>
        <time>2021-09-07T08:48:25.000Z</time>
      </trkpt>
      <trkpt lat="48.30966" lon="0.90987">
        <ele>176.554174</ele>
        <time>2021-09-07T08:48:33.000Z</time>
      </trkpt>
      <trkpt lat="48.30946" lon="0.90996">
        <ele>176.764661</ele>
        <time>2021-09-07T08:48:39.000Z</time>
      </trkpt>
      <trkpt lat="48.30921" lon="0.91001">
        <ele>177.032651</ele>
        <time>2021-09-07T08:48:47.000Z</time>
      </trkpt>
      <trkpt lat="48.30905" lon="0.90999">
        <ele>177.20483</ele>
        <time>2021-09-07T08:48:52.000Z</time>
      </trkpt>
      <trkpt lat="48.30885" lon="0.90991">
        <ele>177.418103</ele>
        <time>2021-09-07T08:48:58.000Z</time>
      </trkpt>
      <trkpt lat="48.30864" lon="0.9098">
        <ele>177.608232</ele>
        <time>2021-09-07T08:49:05.000Z</time>
      </trkpt>
      <trkpt lat="48.30844" lon="0.90974">
        <ele>177.733215</ele>
        <time>2021-09-07T08:49:11.000Z</time>
      </trkpt>
      <trkpt lat="48.30826" lon="0.90977">
        <ele>177.846783</ele>
        <time>2021-09-07T08:49:17.000Z</time>
      </trkpt>
      <trkpt lat="48.308" lon="0.90992">
        <ele>178.017121</ele>
        <time>2021-09-07T08:49:26.000Z</time>
      </trkpt>
      <trkpt lat="48.30781" lon="0.91009">
        <ele>178.152618</ele>
        <time>2021-09-07T08:49:33.000Z</time>
      </trkpt>
      <trkpt lat="48.30762" lon="0.91025">
        <ele>178.285903</ele>
        <time>2021-09-07T08:49:40.000Z</time>
      </trkpt>
      <trkpt lat="48.30741" lon="0.91046">
        <ele>178.443661</ele>
        <time>2021-09-07T08:49:48.000Z</time>
      </trkpt>
      <trkpt lat="48.30723" lon="0.91065">
        <ele>178.579804</ele>
        <time>2021-09-07T08:49:55.000Z</time>
      </trkpt>
      <trkpt lat="48.30708" lon="0.91082">
        <ele>178.700093</ele>
        <time>2021-09-07T08:50:01.000Z</time>
      </trkpt>
      <trkpt lat="48.30689" lon="0.91102">
        <ele>178.859429</ele>
        <time>2021-09-07T08:50:08.000Z</time>
      </trkpt>
      <trkpt lat="48.3067" lon="0.91125">
        <ele>179.029902</ele>
        <time>2021-09-07T08:50:15.000Z</time>
      </trkpt>
      <trkpt lat="48.3065" lon="0.91149">
        <ele>179.209275</ele>
        <time>2021-09-07T08:50:23.000Z</time>
      </trkpt>
      <trkpt lat="48.30633" lon="0.91169">
        <ele>179.360013</ele>
        <time>2021-09-07T08:50:30.000Z</time>
      </trkpt>
      <trkpt lat="48.30612" lon="0.91198">
        <ele>179.55899</ele>
        <time>2021-09-07T08:50:38.000Z</time>
      </trkpt>
      <trkpt lat="48.30597" lon="0.91234">
        <ele>179.754182</ele>
        <time>2021-09-07T08:50:45.000Z</time>
      </trkpt>
      <trkpt lat="48.30582" lon="0.91288">
        <ele>180.030656</ele>
        <time>2021-09-07T08:50:54.000Z</time>
      </trkpt>
      <trkpt lat="48.30576" lon="0.91312">
        <ele>180.152482</ele>
        <time>2021-09-07T08:50:58.000Z</time>
      </trkpt>
      <trkpt lat="48.30573" lon="0.9133">
        <ele>180.242023</ele>
        <time>2021-09-07T08:51:01.000Z</time>
      </trkpt>
      <trkpt lat="48.30566" lon="0.91373">
        <ele>180.452578</ele>
        <time>2021-09-07T08:51:08.000Z</time>
      </trkpt>
      <trkpt lat="48.30563" lon="0.91404">
        <ele>180.601554</ele>
        <time>2021-09-07T08:51:13.000Z</time>
      </trkpt>
      <trkpt lat="48.30562" lon="0.9141">
        <ele>180.632452</ele>
        <time>2021-09-07T08:51:14.000Z</time>
      </trkpt>
      <trkpt lat="48.30556" lon="0.91454">
        <ele>180.844929</ele>
        <time>2021-09-07T08:51:21.000Z</time>
      </trkpt>
      <trkpt lat="48.30554" lon="0.91472">
        <ele>180.932714</ele>
        <time>2021-09-07T08:51:24.000Z</time>
      </trkpt>
      <trkpt lat="48.30553" lon="0.91489">
        <ele>181.012476</ele>
        <time>2021-09-07T08:51:27.000Z</time>
      </trkpt>
      <trkpt lat="48.30552" lon="0.91517">
        <ele>181.147721</ele>
        <time>2021-09-07T08:51:32.000Z</time>
      </trkpt>
      <trkpt lat="48.30545" lon="0.91562">
        <ele>181.439914</ele>
        <time>2021-09-07T08:51:39.000Z</time>
      </trkpt>
      <trkpt lat="48.30539" lon="0.91615">
        <ele>181.804505</ele>
        <time>2021-09-07T08:51:48.000Z</time>
      </trkpt>
      <trkpt lat="48.30535" lon="0.91667">
        <ele>182.165467</ele>
        <time>2021-09-07T08:51:57.000Z</time>
      </trkpt>
      <trkpt lat="48.30532" lon="0.91713">
        <ele>182.476332</ele>
        <time>2021-09-07T08:52:05.000Z</time>
      </trkpt>
      <trkpt lat="48.30528" lon="0.91764">
        <ele>182.831139</ele>
        <time>2021-09-07T08:52:14.000Z</time>
      </trkpt>
      <trkpt lat="48.30524" lon="0.91812">
        <ele>183.26292</ele>
        <time>2021-09-07T08:52:22.000Z</time>
      </trkpt>
      <trkpt lat="48.3052" lon="0.91865">
        <ele>183.967203</ele>
        <time>2021-09-07T08:52:31.000Z</time>
      </trkpt>
      <trkpt lat="48.30516" lon="0.91905">
        <ele>184.494159</ele>
        <time>2021-09-07T08:52:38.000Z</time>
      </trkpt>
      <trkpt lat="48.30512" lon="0.91955">
        <ele>185.146492</ele>
        <time>2021-09-07T08:52:47.000Z</time>
      </trkpt>
      <trkpt lat="48.30509" lon="0.91992">
        <ele>185.635191</ele>
        <time>2021-09-07T08:52:54.000Z</time>
      </trkpt>
      <trkpt lat="48.30505" lon="0.92036">
        <ele>186.206876</ele>
        <time>2021-09-07T08:53:02.000Z</time>
      </trkpt>
      <trkpt lat="48.305" lon="0.92077">
        <ele>186.66488</ele>
        <time>2021-09-07T08:53:09.000Z</time>
      </trkpt>
      <trkpt lat="48.30494" lon="0.92133">
        <ele>187.03131</ele>
        <time>2021-09-07T08:53:17.000Z</time>
      </trkpt>
      <trkpt lat="48.30488" lon="0.92187">
        <ele>187.391213</ele>
        <time>2021-09-07T08:53:25.000Z</time>
      </trkpt>
      <trkpt lat="48.30483" lon="0.92238">
        <ele>187.733915</ele>
        <time>2021-09-07T08:53:32.000Z</time>
      </trkpt>
      <trkpt lat="48.30478" lon="0.9229">
        <ele>188.077908</ele>
        <time>2021-09-07T08:53:39.000Z</time>
      </trkpt>
      <trkpt lat="48.30469" lon="0.92337">
        <ele>188.436752</ele>
        <time>2021-09-07T08:53:46.000Z</time>
      </trkpt>
      <trkpt lat="48.30454" lon="0.92391">
        <ele>189.107636</ele>
        <time>2021-09-07T08:53:55.000Z</time>
      </trkpt>
      <trkpt lat="48.30438" lon="0.92434">
        <ele>189.677145</ele>
        <time>2021-09-07T08:54:04.000Z</time>
      </trkpt>
      <trkpt lat="48.30425" lon="0.92472">
        <ele>190.165859</ele>
        <time>2021-09-07T08:54:13.000Z</time>
      </trkpt>
      <trkpt lat="48.30413" lon="0.92504">
        <ele>190.578695</ele>
        <time>2021-09-07T08:54:21.000Z</time>
      </trkpt>
      <trkpt lat="48.30402" lon="0.92533">
        <ele>190.955062</ele>
        <time>2021-09-07T08:54:29.000Z</time>
      </trkpt>
      <trkpt lat="48.30391" lon="0.92563">
        <ele>191.350055</ele>
        <time>2021-09-07T08:54:38.000Z</time>
      </trkpt>
      <trkpt lat="48.3038" lon="0.92593">
        <ele>192.021788</ele>
        <time>2021-09-07T08:54:47.000Z</time>
      </trkpt>
      <trkpt lat="48.30372" lon="0.92617">
        <ele>192.603156</ele>
        <time>2021-09-07T08:54:54.000Z</time>
      </trkpt>
      <trkpt lat="48.30359" lon="0.92651">
        <ele>193.455233</ele>
        <time>2021-09-07T08:55:04.000Z</time>
      </trkpt>
      <trkpt lat="48.30349" lon="0.92679">
        <ele>194.152622</ele>
        <time>2021-09-07T08:55:12.000Z</time>
      </trkpt>
      <trkpt lat="48.30337" lon="0.92713">
        <ele>194.994747</ele>
        <time>2021-09-07T08:55:21.000Z</time>
      </trkpt>
      <trkpt lat="48.30325" lon="0.92746">
        <ele>195.817067</ele>
        <time>2021-09-07T08:55:30.000Z</time>
      </trkpt>
      <trkpt lat="48.30314" lon="0.92775">
        <ele>196.531265</ele>
        <time>2021-09-07T08:55:38.000Z</time>
      </trkpt>
      <trkpt lat="48.30302" lon="0.92808">
        <ele>197.375224</ele>
        <time>2021-09-07T08:55:48.000Z</time>
      </trkpt>
      <trkpt lat="48.30286" lon="0.92848">
        <ele>199.026225</ele>
        <time>2021-09-07T08:56:00.000Z</time>
      </trkpt>
      <trkpt lat="48.30279" lon="0.9287">
        <ele>199.926606</ele>
        <time>2021-09-07T08:56:07.000Z</time>
      </trkpt>
      <trkpt lat="48.30273" lon="0.9289">
        <ele>200.701812</ele>
        <time>2021-09-07T08:56:13.000Z</time>
      </trkpt>
      <trkpt lat="48.30268" lon="0.9291">
        <ele>201.465376</ele>
        <time>2021-09-07T08:56:19.000Z</time>
      </trkpt>
      <trkpt lat="48.3026" lon="0.92932">
        <ele>202.370915</ele>
        <time>2021-09-07T08:56:26.000Z</time>
      </trkpt>
      <trkpt lat="48.30256" lon="0.9295">
        <ele>203.03291</ele>
        <time>2021-09-07T08:56:31.000Z</time>
      </trkpt>
      <trkpt lat="48.30248" lon="0.92972">
        <ele>203.92605</ele>
        <time>2021-09-07T08:56:38.000Z</time>
      </trkpt>
      <trkpt lat="48.30241" lon="0.92993">
        <ele>204.780143</ele>
        <time>2021-09-07T08:56:45.000Z</time>
      </trkpt>
      <trkpt lat="48.30236" lon="0.93015">
        <ele>205.623552</ele>
        <time>2021-09-07T08:56:52.000Z</time>
      </trkpt>
      <trkpt lat="48.30234" lon="0.9303">
        <ele>206.160017</ele>
        <time>2021-09-07T08:56:57.000Z</time>
      </trkpt>
      <trkpt lat="48.3023" lon="0.93053">
        <ele>207.023115</ele>
        <time>2021-09-07T08:57:04.000Z</time>
      </trkpt>
      <trkpt lat="48.30227" lon="0.93078">
        <ele>208.200606</ele>
        <time>2021-09-07T08:57:12.000Z</time>
      </trkpt>
      <trkpt lat="48.30225" lon="0.93091">
        <ele>208.838314</ele>
        <time>2021-09-07T08:57:17.000Z</time>
      </trkpt>
      <trkpt lat="48.30223" lon="0.93107">
        <ele>209.588899</ele>
        <time>2021-09-07T08:57:23.000Z</time>
      </trkpt>
      <trkpt lat="48.3022" lon="0.93135">
        <ele>210.923935</ele>
        <time>2021-09-07T08:57:33.000Z</time>
      </trkpt>
      <trkpt lat="48.3022" lon="0.93161">
        <ele>212.101997</ele>
        <time>2021-09-07T08:57:42.000Z</time>
      </trkpt>
      <trkpt lat="48.3022" lon="0.93178">
        <ele>212.934106</ele>
        <time>2021-09-07T08:57:49.000Z</time>
      </trkpt>
      <trkpt lat="48.30224" lon="0.93204">
        <ele>214.155717</ele>
        <time>2021-09-07T08:57:59.000Z</time>
      </trkpt>
      <trkpt lat="48.30229" lon="0.93224">
        <ele>215.147297</ele>
        <time>2021-09-07T08:58:07.000Z</time>
      </trkpt>
      <trkpt lat="48.30235" lon="0.93245">
        <ele>216.212966</ele>
        <time>2021-09-07T08:58:15.000Z</time>
      </trkpt>
      <trkpt lat="48.3024" lon="0.93263">
        <ele>217.11622</ele>
        <time>2021-09-07T08:58:22.000Z</time>
      </trkpt>
      <trkpt lat="48.30246" lon="0.93284">
        <ele>218.18755</ele>
        <time>2021-09-07T08:58:30.000Z</time>
      </trkpt>
      <trkpt lat="48.30252" lon="0.93303">
        <ele>219.186102</ele>
        <time>2021-09-07T08:58:37.000Z</time>
      </trkpt>
      <trkpt lat="48.30258" lon="0.93325">
        <ele>220.316539</ele>
        <time>2021-09-07T08:58:45.000Z</time>
      </trkpt>
      <trkpt lat="48.30268" lon="0.93349">
        <ele>221.664173</ele>
        <time>2021-09-07T08:58:54.000Z</time>
      </trkpt>
      <trkpt lat="48.30275" lon="0.93364">
        <ele>222.559922</ele>
        <time>2021-09-07T08:59:01.000Z</time>
      </trkpt>
      <trkpt lat="48.30286" lon="0.93381">
        <ele>223.729484</ele>
        <time>2021-09-07T08:59:09.000Z</time>
      </trkpt>
      <trkpt lat="48.30296" lon="0.93394">
        <ele>224.666431</ele>
        <time>2021-09-07T08:59:16.000Z</time>
      </trkpt>
      <trkpt lat="48.30307" lon="0.93408">
        <ele>225.738915</ele>
        <time>2021-09-07T08:59:23.000Z</time>
      </trkpt>
      <trkpt lat="48.30317" lon="0.93423">
        <ele>226.725991</ele>
        <time>2021-09-07T08:59:30.000Z</time>
      </trkpt>
      <trkpt lat="48.30321" lon="0.93434">
        <ele>227.336765</ele>
        <time>2021-09-07T08:59:35.000Z</time>
      </trkpt>
      <trkpt lat="48.30324" lon="0.93447">
        <ele>228.005405</ele>
        <time>2021-09-07T08:59:40.000Z</time>
      </trkpt>
      <trkpt lat="48.30324" lon="0.93449">
        <ele>228.1214</ele>
        <time>2021-09-07T08:59:41.000Z</time>
      </trkpt>
      <trkpt lat="48.30324" lon="0.93459">
        <ele>228.598947</ele>
        <time>2021-09-07T08:59:45.000Z</time>
      </trkpt>
      <trkpt lat="48.30324" lon="0.93461">
        <ele>228.706538</ele>
        <time>2021-09-07T08:59:46.000Z</time>
      </trkpt>
      <trkpt lat="48.30325" lon="0.93469">
        <ele>229.064668</ele>
        <time>2021-09-07T08:59:49.000Z</time>
      </trkpt>
      <trkpt lat="48.30325" lon="0.93474">
        <ele>229.315605</ele>
        <time>2021-09-07T08:59:51.000Z</time>
      </trkpt>
      <trkpt lat="48.30326" lon="0.93479">
        <ele>229.543228</ele>
        <time>2021-09-07T08:59:53.000Z</time>
      </trkpt>
      <trkpt lat="48.30326" lon="0.93489">
        <ele>230.064389</ele>
        <time>2021-09-07T08:59:57.000Z</time>
      </trkpt>
      <trkpt lat="48.30323" lon="0.93512">
        <ele>231.192267</ele>
        <time>2021-09-07T09:00:05.000Z</time>
      </trkpt>
      <trkpt lat="48.3032" lon="0.93532">
        <ele>232.170525</ele>
        <time>2021-09-07T09:00:12.000Z</time>
      </trkpt>
      <trkpt lat="48.30317" lon="0.93556">
        <ele>233.014393</ele>
        <time>2021-09-07T09:00:20.000Z</time>
      </trkpt>
      <trkpt lat="48.30313" lon="0.93576">
        <ele>233.545498</ele>
        <time>2021-09-07T09:00:26.000Z</time>
      </trkpt>
      <trkpt lat="48.3031" lon="0.93598">
        <ele>234.139695</ele>
        <time>2021-09-07T09:00:32.000Z</time>
      </trkpt>
      <trkpt lat="48.30306" lon="0.9363">
        <ele>234.977692</ele>
        <time>2021-09-07T09:00:39.000Z</time>
      </trkpt>
      <trkpt lat="48.30303" lon="0.93658">
        <ele>235.729674</ele>
        <time>2021-09-07T09:00:45.000Z</time>
      </trkpt>
      <trkpt lat="48.30298" lon="0.93687">
        <ele>236.487247</ele>
        <time>2021-09-07T09:00:50.000Z</time>
      </trkpt>
      <trkpt lat="48.30294" lon="0.93715">
        <ele>237.23949</ele>
        <time>2021-09-07T09:00:55.000Z</time>
      </trkpt>
      <trkpt lat="48.30291" lon="0.93737">
        <ele>237.838811</ele>
        <time>2021-09-07T09:00:59.000Z</time>
      </trkpt>
      <trkpt lat="48.3029" lon="0.93744">
        <ele>238.009557</ele>
        <time>2021-09-07T09:01:00.000Z</time>
      </trkpt>
      <trkpt lat="48.30285" lon="0.93782">
        <ele>239.030576</ele>
        <time>2021-09-07T09:01:07.000Z</time>
      </trkpt>
      <trkpt lat="48.3028" lon="0.93817">
        <ele>239.900531</ele>
        <time>2021-09-07T09:01:14.000Z</time>
      </trkpt>
      <trkpt lat="48.30275" lon="0.93847">
        <ele>240.561344</ele>
        <time>2021-09-07T09:01:20.000Z</time>
      </trkpt>
      <trkpt lat="48.3027" lon="0.93884">
        <ele>241.358286</ele>
        <time>2021-09-07T09:01:27.000Z</time>
      </trkpt>
      <trkpt lat="48.30264" lon="0.93931">
        <ele>242.387214</ele>
        <time>2021-09-07T09:01:36.000Z</time>
      </trkpt>
      <trkpt lat="48.30263" lon="0.93972">
        <ele>243.265961</ele>
        <time>2021-09-07T09:01:44.000Z</time>
      </trkpt>
      <trkpt lat="48.30266" lon="0.94004">
        <ele>243.953453</ele>
        <time>2021-09-07T09:01:50.000Z</time>
      </trkpt>
      <trkpt lat="48.30274" lon="0.94045">
        <ele>244.864528</ele>
        <time>2021-09-07T09:01:59.000Z</time>
      </trkpt>
      <trkpt lat="48.30276" lon="0.94078">
        <ele>245.714563</ele>
        <time>2021-09-07T09:02:06.000Z</time>
      </trkpt>
      <trkpt lat="48.30278" lon="0.94099">
        <ele>246.731023</ele>
        <time>2021-09-07T09:02:12.000Z</time>
      </trkpt>
      <trkpt lat="48.30279" lon="0.94119">
        <ele>247.696303</ele>
        <time>2021-09-07T09:02:19.000Z</time>
      </trkpt>
      <trkpt lat="48.30283" lon="0.94136">
        <ele>248.535597</ele>
        <time>2021-09-07T09:02:25.000Z</time>
      </trkpt>
      <trkpt lat="48.30287" lon="0.94155">
        <ele>249.458246</ele>
        <time>2021-09-07T09:02:31.000Z</time>
      </trkpt>
      <trkpt lat="48.30292" lon="0.94173">
        <ele>250.396128</ele>
        <time>2021-09-07T09:02:38.000Z</time>
      </trkpt>
      <trkpt lat="48.30298" lon="0.94196">
        <ele>251.56488</ele>
        <time>2021-09-07T09:02:47.000Z</time>
      </trkpt>
      <trkpt lat="48.30306" lon="0.94217">
        <ele>252.686329</ele>
        <time>2021-09-07T09:02:55.000Z</time>
      </trkpt>
      <trkpt lat="48.30311" lon="0.94233">
        <ele>253.543173</ele>
        <time>2021-09-07T09:03:02.000Z</time>
      </trkpt>
      <trkpt lat="48.30313" lon="0.94238">
        <ele>253.778889</ele>
        <time>2021-09-07T09:03:04.000Z</time>
      </trkpt>
      <trkpt lat="48.30315" lon="0.94246">
        <ele>254.195752</ele>
        <time>2021-09-07T09:03:07.000Z</time>
      </trkpt>
      <trkpt lat="48.30321" lon="0.9426">
        <ele>254.974799</ele>
        <time>2021-09-07T09:03:13.000Z</time>
      </trkpt>
      <trkpt lat="48.30324" lon="0.94271">
        <ele>255.534415</ele>
        <time>2021-09-07T09:03:18.000Z</time>
      </trkpt>
      <trkpt lat="48.30325" lon="0.94273">
        <ele>255.650933</ele>
        <time>2021-09-07T09:03:19.000Z</time>
      </trkpt>
      <trkpt lat="48.30326" lon="0.94277">
        <ele>255.863816</ele>
        <time>2021-09-07T09:03:22.000Z</time>
      </trkpt>
      <trkpt lat="48.30328" lon="0.94284">
        <ele>256.243636</ele>
        <time>2021-09-07T09:03:25.000Z</time>
      </trkpt>
      <trkpt lat="48.30335" lon="0.943">
        <ele>257.123814</ele>
        <time>2021-09-07T09:03:32.000Z</time>
      </trkpt>
      <trkpt lat="48.30336" lon="0.94302">
        <ele>257.226249</ele>
        <time>2021-09-07T09:03:33.000Z</time>
      </trkpt>
      <trkpt lat="48.3034" lon="0.94314">
        <ele>257.891162</ele>
        <time>2021-09-07T09:03:40.000Z</time>
      </trkpt>
      <trkpt lat="48.30341" lon="0.94316">
        <ele>257.966105</ele>
        <time>2021-09-07T09:03:41.000Z</time>
      </trkpt>
      <trkpt lat="48.30345" lon="0.94325">
        <ele>258.413336</ele>
        <time>2021-09-07T09:03:47.000Z</time>
      </trkpt>
      <trkpt lat="48.30344" lon="0.94326">
        <ele>258.485592</ele>
        <time>2021-09-07T09:03:48.000Z</time>
      </trkpt>
      <trkpt lat="48.30345" lon="0.94328">
        <ele>258.569588</ele>
        <time>2021-09-07T09:03:49.000Z</time>
      </trkpt>
      <trkpt lat="48.30348" lon="0.94341">
        <ele>259.092011</ele>
        <time>2021-09-07T09:03:54.000Z</time>
      </trkpt>
      <trkpt lat="48.30348" lon="0.94342">
        <ele>259.143484</ele>
        <time>2021-09-07T09:03:55.000Z</time>
      </trkpt>
      <trkpt lat="48.30357" lon="0.94384">
        <ele>260.913052</ele>
        <time>2021-09-07T09:04:13.000Z</time>
      </trkpt>
      <trkpt lat="48.30358" lon="0.94389">
        <ele>261.094769</ele>
        <time>2021-09-07T09:04:15.000Z</time>
      </trkpt>
      <trkpt lat="48.3036" lon="0.94407">
        <ele>261.836048</ele>
        <time>2021-09-07T09:04:22.000Z</time>
      </trkpt>
      <trkpt lat="48.30362" lon="0.94425">
        <ele>262.540209</ele>
        <time>2021-09-07T09:04:29.000Z</time>
      </trkpt>
      <trkpt lat="48.30365" lon="0.94443">
        <ele>263.284067</ele>
        <time>2021-09-07T09:04:35.000Z</time>
      </trkpt>
      <trkpt lat="48.30369" lon="0.94467">
        <ele>264.282907</ele>
        <time>2021-09-07T09:04:43.000Z</time>
      </trkpt>
      <trkpt lat="48.30373" lon="0.94491">
        <ele>265.245436</ele>
        <time>2021-09-07T09:04:51.000Z</time>
      </trkpt>
      <trkpt lat="48.30375" lon="0.94508">
        <ele>265.93115</ele>
        <time>2021-09-07T09:04:56.000Z</time>
      </trkpt>
      <trkpt lat="48.30374" lon="0.94541">
        <ele>267.22225</ele>
        <time>2021-09-07T09:05:04.000Z</time>
      </trkpt>
      <trkpt lat="48.30372" lon="0.94574">
        <ele>268.55509</ele>
        <time>2021-09-07T09:05:11.000Z</time>
      </trkpt>
      <trkpt lat="48.30369" lon="0.94611">
        <ele>269.027689</ele>
        <time>2021-09-07T09:05:18.000Z</time>
      </trkpt>
      <trkpt lat="48.30365" lon="0.94654">
        <ele>269.238693</ele>
        <time>2021-09-07T09:05:26.000Z</time>
      </trkpt>
      <trkpt lat="48.30362" lon="0.94681">
        <ele>269.370121</ele>
        <time>2021-09-07T09:05:31.000Z</time>
      </trkpt>
      <trkpt lat="48.30354" lon="0.94713">
        <ele>269.537226</ele>
        <time>2021-09-07T09:05:38.000Z</time>
      </trkpt>
      <trkpt lat="48.30347" lon="0.94738">
        <ele>269.663075</ele>
        <time>2021-09-07T09:05:43.000Z</time>
      </trkpt>
      <trkpt lat="48.30343" lon="0.94757">
        <ele>269.762369</ele>
        <time>2021-09-07T09:05:47.000Z</time>
      </trkpt>
      <trkpt lat="48.30337" lon="0.94789">
        <ele>269.920631</ele>
        <time>2021-09-07T09:05:53.000Z</time>
      </trkpt>
      <trkpt lat="48.30335" lon="0.94821">
        <ele>270.075697</ele>
        <time>2021-09-07T09:05:59.000Z</time>
      </trkpt>
      <trkpt lat="48.3033" lon="0.94847">
        <ele>270.21038</ele>
        <time>2021-09-07T09:06:04.000Z</time>
      </trkpt>
      <trkpt lat="48.30326" lon="0.94887">
        <ele>270.449689</ele>
        <time>2021-09-07T09:06:10.000Z</time>
      </trkpt>
      <trkpt lat="48.30325" lon="0.94894">
        <ele>270.490623</ele>
        <time>2021-09-07T09:06:11.000Z</time>
      </trkpt>
      <trkpt lat="48.30319" lon="0.94924">
        <ele>270.678093</ele>
        <time>2021-09-07T09:06:15.000Z</time>
      </trkpt>
      <trkpt lat="48.30316" lon="0.94939">
        <ele>270.768113</ele>
        <time>2021-09-07T09:06:17.000Z</time>
      </trkpt>
      <trkpt lat="48.30312" lon="0.94951">
        <ele>270.848505</ele>
        <time>2021-09-07T09:06:19.000Z</time>
      </trkpt>
      <trkpt lat="48.30311" lon="0.94958">
        <ele>270.891355</ele>
        <time>2021-09-07T09:06:20.000Z</time>
      </trkpt>
      <trkpt lat="48.30305" lon="0.94994">
        <ele>271.113652</ele>
        <time>2021-09-07T09:06:25.000Z</time>
      </trkpt>
      <trkpt lat="48.30295" lon="0.95053">
        <ele>271.472341</ele>
        <time>2021-09-07T09:06:33.000Z</time>
      </trkpt>
      <trkpt lat="48.30292" lon="0.95077">
        <ele>271.615351</ele>
        <time>2021-09-07T09:06:36.000Z</time>
      </trkpt>
      <trkpt lat="48.30292" lon="0.95094">
        <ele>271.719741</ele>
        <time>2021-09-07T09:06:38.000Z</time>
      </trkpt>
      <trkpt lat="48.30291" lon="0.95113">
        <ele>271.90273</ele>
        <time>2021-09-07T09:06:40.000Z</time>
      </trkpt>
      <trkpt lat="48.30289" lon="0.95129">
        <ele>272.26253</ele>
        <time>2021-09-07T09:06:42.000Z</time>
      </trkpt>
      <trkpt lat="48.30286" lon="0.95161">
        <ele>272.931431</ele>
        <time>2021-09-07T09:06:46.000Z</time>
      </trkpt>
      <trkpt lat="48.30284" lon="0.95174">
        <ele>273.199733</ele>
        <time>2021-09-07T09:06:48.000Z</time>
      </trkpt>
      <trkpt lat="48.30282" lon="0.95196">
        <ele>273.684611</ele>
        <time>2021-09-07T09:06:53.000Z</time>
      </trkpt>
      <trkpt lat="48.30279" lon="0.95219">
        <ele>274.164412</ele>
        <time>2021-09-07T09:06:58.000Z</time>
      </trkpt>
      <trkpt lat="48.30278" lon="0.95223">
        <ele>274.247957</ele>
        <time>2021-09-07T09:06:59.000Z</time>
      </trkpt>
      <trkpt lat="48.30273" lon="0.95249">
        <ele>274.817271</ele>
        <time>2021-09-07T09:07:05.000Z</time>
      </trkpt>
      <trkpt lat="48.3027" lon="0.95275">
        <ele>275.368875</ele>
        <time>2021-09-07T09:07:11.000Z</time>
      </trkpt>
      <trkpt lat="48.30268" lon="0.9528">
        <ele>275.499242</ele>
        <time>2021-09-07T09:07:13.000Z</time>
      </trkpt>
      <trkpt lat="48.30265" lon="0.95289">
        <ele>275.713923</ele>
        <time>2021-09-07T09:07:16.000Z</time>
      </trkpt>
      <trkpt lat="48.30263" lon="0.95297">
        <ele>275.893957</ele>
        <time>2021-09-07T09:07:18.000Z</time>
      </trkpt>
      <trkpt lat="48.30261" lon="0.95304">
        <ele>276.054101</ele>
        <time>2021-09-07T09:07:20.000Z</time>
      </trkpt>
      <trkpt lat="48.3026" lon="0.95334">
        <ele>276.675695</ele>
        <time>2021-09-07T09:07:26.000Z</time>
      </trkpt>
      <trkpt lat="48.30259" lon="0.95343">
        <ele>276.867392</ele>
        <time>2021-09-07T09:07:28.000Z</time>
      </trkpt>
      <trkpt lat="48.30257" lon="0.95353">
        <ele>277.093907</ele>
        <time>2021-09-07T09:07:30.000Z</time>
      </trkpt>
      <trkpt lat="48.30254" lon="0.95373">
        <ele>277.497595</ele>
        <time>2021-09-07T09:07:34.000Z</time>
      </trkpt>
      <trkpt lat="48.30255" lon="0.95382">
        <ele>277.599874</ele>
        <time>2021-09-07T09:07:36.000Z</time>
      </trkpt>
      <trkpt lat="48.30253" lon="0.95397">
        <ele>277.782785</ele>
        <time>2021-09-07T09:07:39.000Z</time>
      </trkpt>
      <trkpt lat="48.30253" lon="0.95403">
        <ele>277.84944</ele>
        <time>2021-09-07T09:07:40.000Z</time>
      </trkpt>
      <trkpt lat="48.30254" lon="0.95434">
        <ele>278.226114</ele>
        <time>2021-09-07T09:07:45.000Z</time>
      </trkpt>
      <trkpt lat="48.30257" lon="0.95465">
        <ele>278.59395</ele>
        <time>2021-09-07T09:07:50.000Z</time>
      </trkpt>
      <trkpt lat="48.30256" lon="0.95485">
        <ele>278.831992</ele>
        <time>2021-09-07T09:07:54.000Z</time>
      </trkpt>
      <trkpt lat="48.30255" lon="0.95515">
        <ele>279.189009</ele>
        <time>2021-09-07T09:08:00.000Z</time>
      </trkpt>
      <trkpt lat="48.30256" lon="0.95544">
        <ele>279.53297</ele>
        <time>2021-09-07T09:08:07.000Z</time>
      </trkpt>
      <trkpt lat="48.30256" lon="0.9557">
        <ele>279.83862</ele>
        <time>2021-09-07T09:08:13.000Z</time>
      </trkpt>
      <trkpt lat="48.30254" lon="0.95597">
        <ele>280.168802</ele>
        <time>2021-09-07T09:08:19.000Z</time>
      </trkpt>
      <trkpt lat="48.30251" lon="0.95626">
        <ele>280.508524</ele>
        <time>2021-09-07T09:08:26.000Z</time>
      </trkpt>
      <trkpt lat="48.30247" lon="0.95651">
        <ele>280.550164</ele>
        <time>2021-09-07T09:08:32.000Z</time>
      </trkpt>
      <trkpt lat="48.30242" lon="0.95685">
        <ele>280.180263</ele>
        <time>2021-09-07T09:08:38.000Z</time>
      </trkpt>
      <trkpt lat="48.30241" lon="0.95709">
        <ele>279.926294</ele>
        <time>2021-09-07T09:08:42.000Z</time>
      </trkpt>
      <trkpt lat="48.30242" lon="0.95748">
        <ele>279.510782</ele>
        <time>2021-09-07T09:08:48.000Z</time>
      </trkpt>
      <trkpt lat="48.30246" lon="0.9577">
        <ele>279.269989</ele>
        <time>2021-09-07T09:08:52.000Z</time>
      </trkpt>
      <trkpt lat="48.30249" lon="0.9579">
        <ele>279.042916</ele>
        <time>2021-09-07T09:08:56.000Z</time>
      </trkpt>
      <trkpt lat="48.30255" lon="0.95813">
        <ele>278.779705</ele>
        <time>2021-09-07T09:09:00.000Z</time>
      </trkpt>
      <trkpt lat="48.30262" lon="0.95849">
        <ele>278.38613</ele>
        <time>2021-09-07T09:09:05.000Z</time>
      </trkpt>
      <trkpt lat="48.30266" lon="0.95879">
        <ele>278.056798</ele>
        <time>2021-09-07T09:09:10.000Z</time>
      </trkpt>
      <trkpt lat="48.30266" lon="0.95897">
        <ele>277.861673</ele>
        <time>2021-09-07T09:09:14.000Z</time>
      </trkpt>
      <trkpt lat="48.30257" lon="0.9591">
        <ele>277.677382</ele>
        <time>2021-09-07T09:09:19.000Z</time>
      </trkpt>
      <trkpt lat="48.30258" lon="0.95917">
        <ele>277.602508</ele>
        <time>2021-09-07T09:09:20.000Z</time>
      </trkpt>
      <trkpt lat="48.30266" lon="0.95936">
        <ele>277.381577</ele>
        <time>2021-09-07T09:09:21.000Z</time>
      </trkpt>
      <trkpt lat="48.30266" lon="0.95966">
        <ele>277.095604</ele>
        <time>2021-09-07T09:09:25.000Z</time>
      </trkpt>
      <trkpt lat="48.30265" lon="0.9597">
        <ele>277.048768</ele>
        <time>2021-09-07T09:09:26.000Z</time>
      </trkpt>
      <trkpt lat="48.30261" lon="0.9598">
        <ele>276.934072</ele>
        <time>2021-09-07T09:09:28.000Z</time>
      </trkpt>
      <trkpt lat="48.30259" lon="0.95983">
        <ele>276.883382</ele>
        <time>2021-09-07T09:09:29.000Z</time>
      </trkpt>
      <trkpt lat="48.30261" lon="0.95996">
        <ele>276.755557</ele>
        <time>2021-09-07T09:09:30.000Z</time>
      </trkpt>
      <trkpt lat="48.3026" lon="0.96013">
        <ele>276.589902</ele>
        <time>2021-09-07T09:09:32.000Z</time>
      </trkpt>
      <trkpt lat="48.30263" lon="0.96034">
        <ele>276.373229</ele>
        <time>2021-09-07T09:09:34.000Z</time>
      </trkpt>
      <trkpt lat="48.3027" lon="0.96055">
        <ele>276.146608</ele>
        <time>2021-09-07T09:09:35.000Z</time>
      </trkpt>
      <trkpt lat="48.30272" lon="0.96067">
        <ele>276.019327</ele>
        <time>2021-09-07T09:09:36.000Z</time>
      </trkpt>
      <trkpt lat="48.30273" lon="0.96084">
        <ele>275.85589</ele>
        <time>2021-09-07T09:09:38.000Z</time>
      </trkpt>
      <trkpt lat="48.30274" lon="0.96094">
        <ele>275.75866</ele>
        <time>2021-09-07T09:09:39.000Z</time>
      </trkpt>
      <trkpt lat="48.30275" lon="0.96104">
        <ele>275.654433</ele>
        <time>2021-09-07T09:09:40.000Z</time>
      </trkpt>
      <trkpt lat="48.30274" lon="0.96124">
        <ele>275.461733</ele>
        <time>2021-09-07T09:09:43.000Z</time>
      </trkpt>
      <trkpt lat="48.30275" lon="0.96134">
        <ele>275.358861</ele>
        <time>2021-09-07T09:09:45.000Z</time>
      </trkpt>
      <trkpt lat="48.3028" lon="0.96147">
        <ele>275.22137</ele>
        <time>2021-09-07T09:09:47.000Z</time>
      </trkpt>
      <trkpt lat="48.30286" lon="0.96163">
        <ele>275.078994</ele>
        <time>2021-09-07T09:09:49.000Z</time>
      </trkpt>
      <trkpt lat="48.3029" lon="0.96171">
        <ele>275.013421</ele>
        <time>2021-09-07T09:09:50.000Z</time>
      </trkpt>
      <trkpt lat="48.30298" lon="0.96192">
        <ele>274.860999</ele>
        <time>2021-09-07T09:09:53.000Z</time>
      </trkpt>
      <trkpt lat="48.30308" lon="0.96216">
        <ele>274.683622</ele>
        <time>2021-09-07T09:09:56.000Z</time>
      </trkpt>
      <trkpt lat="48.30313" lon="0.96231">
        <ele>274.570924</ele>
        <time>2021-09-07T09:09:58.000Z</time>
      </trkpt>
      <trkpt lat="48.30318" lon="0.96246">
        <ele>274.465062</ele>
        <time>2021-09-07T09:10:00.000Z</time>
      </trkpt>
      <trkpt lat="48.30325" lon="0.96262">
        <ele>274.344948</ele>
        <time>2021-09-07T09:10:02.000Z</time>
      </trkpt>
      <trkpt lat="48.3033" lon="0.96277">
        <ele>274.235504</ele>
        <time>2021-09-07T09:10:04.000Z</time>
      </trkpt>
      <trkpt lat="48.30336" lon="0.96293">
        <ele>274.119315</ele>
        <time>2021-09-07T09:10:06.000Z</time>
      </trkpt>
      <trkpt lat="48.30339" lon="0.96301">
        <ele>274.065036</ele>
        <time>2021-09-07T09:10:07.000Z</time>
      </trkpt>
      <trkpt lat="48.30343" lon="0.96316">
        <ele>273.957424</ele>
        <time>2021-09-07T09:10:09.000Z</time>
      </trkpt>
      <trkpt lat="48.30349" lon="0.96334">
        <ele>273.836216</ele>
        <time>2021-09-07T09:10:11.000Z</time>
      </trkpt>
      <trkpt lat="48.30351" lon="0.96341">
        <ele>273.784056</ele>
        <time>2021-09-07T09:10:12.000Z</time>
      </trkpt>
      <trkpt lat="48.30358" lon="0.96371">
        <ele>273.585474</ele>
        <time>2021-09-07T09:10:16.000Z</time>
      </trkpt>
      <trkpt lat="48.30361" lon="0.96389">
        <ele>273.468465</ele>
        <time>2021-09-07T09:10:19.000Z</time>
      </trkpt>
      <trkpt lat="48.30363" lon="0.96396">
        <ele>273.406612</ele>
        <time>2021-09-07T09:10:20.000Z</time>
      </trkpt>
      <trkpt lat="48.30371" lon="0.96425">
        <ele>273.037054</ele>
        <time>2021-09-07T09:10:24.000Z</time>
      </trkpt>
      <trkpt lat="48.30377" lon="0.96452">
        <ele>272.704458</ele>
        <time>2021-09-07T09:10:28.000Z</time>
      </trkpt>
      <trkpt lat="48.3038" lon="0.96466">
        <ele>272.528473</ele>
        <time>2021-09-07T09:10:30.000Z</time>
      </trkpt>
      <trkpt lat="48.30382" lon="0.96473">
        <ele>272.439305</ele>
        <time>2021-09-07T09:10:31.000Z</time>
      </trkpt>
      <trkpt lat="48.30388" lon="0.96498">
        <ele>272.128192</ele>
        <time>2021-09-07T09:10:34.000Z</time>
      </trkpt>
      <trkpt lat="48.30392" lon="0.96508">
        <ele>271.995569</ele>
        <time>2021-09-07T09:10:35.000Z</time>
      </trkpt>
      <trkpt lat="48.30395" lon="0.96516">
        <ele>271.881596</ele>
        <time>2021-09-07T09:10:36.000Z</time>
      </trkpt>
      <trkpt lat="48.30403" lon="0.96542">
        <ele>271.546836</ele>
        <time>2021-09-07T09:10:39.000Z</time>
      </trkpt>
      <trkpt lat="48.30418" lon="0.96586">
        <ele>270.975512</ele>
        <time>2021-09-07T09:10:44.000Z</time>
      </trkpt>
      <trkpt lat="48.30436" lon="0.9663">
        <ele>270.365404</ele>
        <time>2021-09-07T09:10:48.000Z</time>
      </trkpt>
      <trkpt lat="48.30444" lon="0.96649">
        <ele>269.977926</ele>
        <time>2021-09-07T09:10:50.000Z</time>
      </trkpt>
      <trkpt lat="48.30457" lon="0.96694">
        <ele>268.98334</ele>
        <time>2021-09-07T09:10:55.000Z</time>
      </trkpt>
      <trkpt lat="48.3046" lon="0.96711">
        <ele>268.623092</ele>
        <time>2021-09-07T09:10:57.000Z</time>
      </trkpt>
      <trkpt lat="48.30463" lon="0.96737">
        <ele>268.100627</ele>
        <time>2021-09-07T09:11:00.000Z</time>
      </trkpt>
      <trkpt lat="48.30467" lon="0.96771">
        <ele>267.383057</ele>
        <time>2021-09-07T09:11:04.000Z</time>
      </trkpt>
      <trkpt lat="48.30468" lon="0.9678">
        <ele>267.20207</ele>
        <time>2021-09-07T09:11:05.000Z</time>
      </trkpt>
      <trkpt lat="48.30472" lon="0.968">
        <ele>266.794153</ele>
        <time>2021-09-07T09:11:07.000Z</time>
      </trkpt>
      <trkpt lat="48.30474" lon="0.96825">
        <ele>266.273246</ele>
        <time>2021-09-07T09:11:10.000Z</time>
      </trkpt>
      <trkpt lat="48.30471" lon="0.9685">
        <ele>265.759995</ele>
        <time>2021-09-07T09:11:14.000Z</time>
      </trkpt>
      <trkpt lat="48.30472" lon="0.96863">
        <ele>265.492375</ele>
        <time>2021-09-07T09:11:16.000Z</time>
      </trkpt>
      <trkpt lat="48.30479" lon="0.96893">
        <ele>264.842648</ele>
        <time>2021-09-07T09:11:19.000Z</time>
      </trkpt>
      <trkpt lat="48.30483" lon="0.96918">
        <ele>264.445715</ele>
        <time>2021-09-07T09:11:22.000Z</time>
      </trkpt>
      <trkpt lat="48.30483" lon="0.96929">
        <ele>264.285552</ele>
        <time>2021-09-07T09:11:24.000Z</time>
      </trkpt>
      <trkpt lat="48.3049" lon="0.9695">
        <ele>263.933825</ele>
        <time>2021-09-07T09:11:26.000Z</time>
      </trkpt>
      <trkpt lat="48.30504" lon="0.97008">
        <ele>263.003554</ele>
        <time>2021-09-07T09:11:32.000Z</time>
      </trkpt>
      <trkpt lat="48.30506" lon="0.97017">
        <ele>262.867174</ele>
        <time>2021-09-07T09:11:33.000Z</time>
      </trkpt>
      <trkpt lat="48.30518" lon="0.97069">
        <ele>262.039057</ele>
        <time>2021-09-07T09:11:39.000Z</time>
      </trkpt>
      <trkpt lat="48.30527" lon="0.97112">
        <ele>261.364865</ele>
        <time>2021-09-07T09:11:44.000Z</time>
      </trkpt>
      <trkpt lat="48.30528" lon="0.9712">
        <ele>261.248265</ele>
        <time>2021-09-07T09:11:45.000Z</time>
      </trkpt>
      <trkpt lat="48.30537" lon="0.97163">
        <ele>260.527978</ele>
        <time>2021-09-07T09:11:51.000Z</time>
      </trkpt>
      <trkpt lat="48.30546" lon="0.97209">
        <ele>259.58728</ele>
        <time>2021-09-07T09:11:57.000Z</time>
      </trkpt>
      <trkpt lat="48.30555" lon="0.97258">
        <ele>258.609388</ele>
        <time>2021-09-07T09:12:03.000Z</time>
      </trkpt>
      <trkpt lat="48.3056" lon="0.97291">
        <ele>257.942398</ele>
        <time>2021-09-07T09:12:08.000Z</time>
      </trkpt>
      <trkpt lat="48.30563" lon="0.97313">
        <ele>257.50498</ele>
        <time>2021-09-07T09:12:12.000Z</time>
      </trkpt>
      <trkpt lat="48.30559" lon="0.97318">
        <ele>257.345638</ele>
        <time>2021-09-07T09:12:14.000Z</time>
      </trkpt>
      <trkpt lat="48.3056" lon="0.97337">
        <ele>256.971213</ele>
        <time>2021-09-07T09:12:17.000Z</time>
      </trkpt>
      <trkpt lat="48.30562" lon="0.97347">
        <ele>256.772502</ele>
        <time>2021-09-07T09:12:18.000Z</time>
      </trkpt>
      <trkpt lat="48.3057" lon="0.97376">
        <ele>256.159537</ele>
        <time>2021-09-07T09:12:21.000Z</time>
      </trkpt>
      <trkpt lat="48.30576" lon="0.97395">
        <ele>255.744239</ele>
        <time>2021-09-07T09:12:23.000Z</time>
      </trkpt>
      <trkpt lat="48.30578" lon="0.97405">
        <ele>255.537959</ele>
        <time>2021-09-07T09:12:24.000Z</time>
      </trkpt>
      <trkpt lat="48.30582" lon="0.97421">
        <ele>255.42003</ele>
        <time>2021-09-07T09:12:26.000Z</time>
      </trkpt>
      <trkpt lat="48.30585" lon="0.97445">
        <ele>255.342591</ele>
        <time>2021-09-07T09:12:30.000Z</time>
      </trkpt>
      <trkpt lat="48.30582" lon="0.97464">
        <ele>255.281928</ele>
        <time>2021-09-07T09:12:34.000Z</time>
      </trkpt>
      <trkpt lat="48.30583" lon="0.97471">
        <ele>255.25795</ele>
        <time>2021-09-07T09:12:35.000Z</time>
      </trkpt>
      <trkpt lat="48.30594" lon="0.97503">
        <ele>255.141829</ele>
        <time>2021-09-07T09:12:39.000Z</time>
      </trkpt>
      <trkpt lat="48.30598" lon="0.97513">
        <ele>255.104621</ele>
        <time>2021-09-07T09:12:40.000Z</time>
      </trkpt>
      <trkpt lat="48.30601" lon="0.97521">
        <ele>255.073566</ele>
        <time>2021-09-07T09:12:41.000Z</time>
      </trkpt>
      <trkpt lat="48.3062" lon="0.97566">
        <ele>254.903779</ele>
        <time>2021-09-07T09:12:45.000Z</time>
      </trkpt>
      <trkpt lat="48.30626" lon="0.97587">
        <ele>254.831111</ele>
        <time>2021-09-07T09:12:47.000Z</time>
      </trkpt>
      <trkpt lat="48.3063" lon="0.97604">
        <ele>254.773316</ele>
        <time>2021-09-07T09:12:49.000Z</time>
      </trkpt>
      <trkpt lat="48.30636" lon="0.97632">
        <ele>254.678773</ele>
        <time>2021-09-07T09:12:53.000Z</time>
      </trkpt>
      <trkpt lat="48.30643" lon="0.97647">
        <ele>254.62092</ele>
        <time>2021-09-07T09:12:54.000Z</time>
      </trkpt>
      <trkpt lat="48.3066" lon="0.97702">
        <ele>254.381161</ele>
        <time>2021-09-07T09:12:59.000Z</time>
      </trkpt>
      <trkpt lat="48.30675" lon="0.97753">
        <ele>254.152535</ele>
        <time>2021-09-07T09:13:04.000Z</time>
      </trkpt>
      <trkpt lat="48.30682" lon="0.97781">
        <ele>254.033771</ele>
        <time>2021-09-07T09:13:07.000Z</time>
      </trkpt>
      <trkpt lat="48.30686" lon="0.97796">
        <ele>253.968632</ele>
        <time>2021-09-07T09:13:09.000Z</time>
      </trkpt>
      <trkpt lat="48.30686" lon="0.97803">
        <ele>253.940439</ele>
        <time>2021-09-07T09:13:10.000Z</time>
      </trkpt>
      <trkpt lat="48.30687" lon="0.9781">
        <ele>253.911367</ele>
        <time>2021-09-07T09:13:11.000Z</time>
      </trkpt>
      <trkpt lat="48.30694" lon="0.9784">
        <ele>253.781992</ele>
        <time>2021-09-07T09:13:14.000Z</time>
      </trkpt>
      <trkpt lat="48.30701" lon="0.9786">
        <ele>253.68811</ele>
        <time>2021-09-07T09:13:16.000Z</time>
      </trkpt>
      <trkpt lat="48.30705" lon="0.97881">
        <ele>253.60026</ele>
        <time>2021-09-07T09:13:18.000Z</time>
      </trkpt>
      <trkpt lat="48.30715" lon="0.97946">
        <ele>253.5209</ele>
        <time>2021-09-07T09:13:24.000Z</time>
      </trkpt>
      <trkpt lat="48.30727" lon="0.98024">
        <ele>253.570839</ele>
        <time>2021-09-07T09:13:32.000Z</time>
      </trkpt>
      <trkpt lat="48.30738" lon="0.98084">
        <ele>253.60944</ele>
        <time>2021-09-07T09:13:39.000Z</time>
      </trkpt>
      <trkpt lat="48.3074" lon="0.98092">
        <ele>253.614889</ele>
        <time>2021-09-07T09:13:40.000Z</time>
      </trkpt>
      <trkpt lat="48.30753" lon="0.98125">
        <ele>253.63884</ele>
        <time>2021-09-07T09:13:44.000Z</time>
      </trkpt>
      <trkpt lat="48.30774" lon="0.98173">
        <ele>253.62522</ele>
        <time>2021-09-07T09:13:50.000Z</time>
      </trkpt>
      <trkpt lat="48.30799" lon="0.98231">
        <ele>253.472296</ele>
        <time>2021-09-07T09:13:58.000Z</time>
      </trkpt>
      <trkpt lat="48.30817" lon="0.98272">
        <ele>253.362865</ele>
        <time>2021-09-07T09:14:04.000Z</time>
      </trkpt>
      <trkpt lat="48.30821" lon="0.98279">
        <ele>253.343045</ele>
        <time>2021-09-07T09:14:05.000Z</time>
      </trkpt>
      <trkpt lat="48.30832" lon="0.98301">
        <ele>253.282969</ele>
        <time>2021-09-07T09:14:08.000Z</time>
      </trkpt>
      <trkpt lat="48.30838" lon="0.98316">
        <ele>253.242807</ele>
        <time>2021-09-07T09:14:10.000Z</time>
      </trkpt>
      <trkpt lat="48.30859" lon="0.98357">
        <ele>253.130099</ele>
        <time>2021-09-07T09:14:15.000Z</time>
      </trkpt>
      <trkpt lat="48.30878" lon="0.98392">
        <ele>253.029758</ele>
        <time>2021-09-07T09:14:20.000Z</time>
      </trkpt>
      <trkpt lat="48.30888" lon="0.98411">
        <ele>252.975825</ele>
        <time>2021-09-07T09:14:23.000Z</time>
      </trkpt>
      <trkpt lat="48.30895" lon="0.98425">
        <ele>252.937784</ele>
        <time>2021-09-07T09:14:25.000Z</time>
      </trkpt>
      <trkpt lat="48.30921" lon="0.98474">
        <ele>252.799961</ele>
        <time>2021-09-07T09:14:31.000Z</time>
      </trkpt>
      <trkpt lat="48.3094" lon="0.98522">
        <ele>252.676859</ele>
        <time>2021-09-07T09:14:37.000Z</time>
      </trkpt>
      <trkpt lat="48.30945" lon="0.98541">
        <ele>252.631243</ele>
        <time>2021-09-07T09:14:40.000Z</time>
      </trkpt>
      <trkpt lat="48.30947" lon="0.98547">
        <ele>252.614727</ele>
        <time>2021-09-07T09:14:41.000Z</time>
      </trkpt>
      <trkpt lat="48.30949" lon="0.98554">
        <ele>252.598897</ele>
        <time>2021-09-07T09:14:42.000Z</time>
      </trkpt>
      <trkpt lat="48.30958" lon="0.98585">
        <ele>252.524268</ele>
        <time>2021-09-07T09:14:47.000Z</time>
      </trkpt>
      <trkpt lat="48.30972" lon="0.98634">
        <ele>252.614158</ele>
        <time>2021-09-07T09:14:55.000Z</time>
      </trkpt>
      <trkpt lat="48.30975" lon="0.98647">
        <ele>252.680686</ele>
        <time>2021-09-07T09:14:57.000Z</time>
      </trkpt>
      <trkpt lat="48.30977" lon="0.98671">
        <ele>252.810203</ele>
        <time>2021-09-07T09:15:01.000Z</time>
      </trkpt>
      <trkpt lat="48.30979" lon="0.98716">
        <ele>253.043998</ele>
        <time>2021-09-07T09:15:09.000Z</time>
      </trkpt>
      <trkpt lat="48.30982" lon="0.98757">
        <ele>253.257481</ele>
        <time>2021-09-07T09:15:17.000Z</time>
      </trkpt>
      <trkpt lat="48.3099" lon="0.98797">
        <ele>253.47257</ele>
        <time>2021-09-07T09:15:24.000Z</time>
      </trkpt>
      <trkpt lat="48.30999" lon="0.98827">
        <ele>253.64049</ele>
        <time>2021-09-07T09:15:29.000Z</time>
      </trkpt>
      <trkpt lat="48.31002" lon="0.9884">
        <ele>253.713057</ele>
        <time>2021-09-07T09:15:31.000Z</time>
      </trkpt>
      <trkpt lat="48.31006" lon="0.98852">
        <ele>253.78427</ele>
        <time>2021-09-07T09:15:33.000Z</time>
      </trkpt>
      <trkpt lat="48.31012" lon="0.98873">
        <ele>253.860445</ele>
        <time>2021-09-07T09:15:36.000Z</time>
      </trkpt>
      <trkpt lat="48.31017" lon="0.98889">
        <ele>253.83384</ele>
        <time>2021-09-07T09:15:38.000Z</time>
      </trkpt>
      <trkpt lat="48.31026" lon="0.98903">
        <ele>253.805353</ele>
        <time>2021-09-07T09:15:40.000Z</time>
      </trkpt>
      <trkpt lat="48.31035" lon="0.9892">
        <ele>253.771639</ele>
        <time>2021-09-07T09:15:42.000Z</time>
      </trkpt>
      <trkpt lat="48.31037" lon="0.98931">
        <ele>253.754785</ele>
        <time>2021-09-07T09:15:43.000Z</time>
      </trkpt>
      <trkpt lat="48.31036" lon="0.98941">
        <ele>253.739693</ele>
        <time>2021-09-07T09:15:44.000Z</time>
      </trkpt>
      <trkpt lat="48.31033" lon="0.98956">
        <ele>253.71639</ele>
        <time>2021-09-07T09:15:46.000Z</time>
      </trkpt>
      <trkpt lat="48.31031" lon="0.98978">
        <ele>253.682999</ele>
        <time>2021-09-07T09:15:50.000Z</time>
      </trkpt>
      <trkpt lat="48.31037" lon="0.99012">
        <ele>253.63122</ele>
        <time>2021-09-07T09:15:57.000Z</time>
      </trkpt>
      <trkpt lat="48.31048" lon="0.99044">
        <ele>253.577991</ele>
        <time>2021-09-07T09:16:03.000Z</time>
      </trkpt>
      <trkpt lat="48.31063" lon="0.99091">
        <ele>253.499729</ele>
        <time>2021-09-07T09:16:11.000Z</time>
      </trkpt>
      <trkpt lat="48.31068" lon="0.9911">
        <ele>253.469535</ele>
        <time>2021-09-07T09:16:14.000Z</time>
      </trkpt>
      <trkpt lat="48.3107" lon="0.9913">
        <ele>253.534864</ele>
        <time>2021-09-07T09:16:17.000Z</time>
      </trkpt>
      <trkpt lat="48.31069" lon="0.99162">
        <ele>253.658611</ele>
        <time>2021-09-07T09:16:22.000Z</time>
      </trkpt>
      <trkpt lat="48.31069" lon="0.99175">
        <ele>253.70707</ele>
        <time>2021-09-07T09:16:24.000Z</time>
      </trkpt>
      <trkpt lat="48.31065" lon="0.99211">
        <ele>253.847705</ele>
        <time>2021-09-07T09:16:30.000Z</time>
      </trkpt>
      <trkpt lat="48.31065" lon="0.99218">
        <ele>253.870983</ele>
        <time>2021-09-07T09:16:31.000Z</time>
      </trkpt>
      <trkpt lat="48.31064" lon="0.9923">
        <ele>253.919661</ele>
        <time>2021-09-07T09:16:33.000Z</time>
      </trkpt>
      <trkpt lat="48.31062" lon="0.99256">
        <ele>254.018096</ele>
        <time>2021-09-07T09:16:37.000Z</time>
      </trkpt>
      <trkpt lat="48.31057" lon="0.99274">
        <ele>254.093781</ele>
        <time>2021-09-07T09:16:40.000Z</time>
      </trkpt>
      <trkpt lat="48.31054" lon="0.9928">
        <ele>254.120782</ele>
        <time>2021-09-07T09:16:41.000Z</time>
      </trkpt>
      <trkpt lat="48.3104" lon="0.9929">
        <ele>254.210097</ele>
        <time>2021-09-07T09:16:45.000Z</time>
      </trkpt>
      <trkpt lat="48.31017" lon="0.99288">
        <ele>254.34336</ele>
        <time>2021-09-07T09:16:52.000Z</time>
      </trkpt>
      <trkpt lat="48.31005" lon="0.99285">
        <ele>254.412164</ele>
        <time>2021-09-07T09:16:57.000Z</time>
      </trkpt>
      <trkpt lat="48.31004" lon="0.99284">
        <ele>254.420259</ele>
        <time>2021-09-07T09:16:58.000Z</time>
      </trkpt>
      <trkpt lat="48.31002" lon="0.99282">
        <ele>254.432242</ele>
        <time>2021-09-07T09:17:00.000Z</time>
      </trkpt>
      <trkpt lat="48.30998" lon="0.99282">
        <ele>254.45693</ele>
        <time>2021-09-07T09:17:03.000Z</time>
      </trkpt>
      <trkpt lat="48.30997" lon="0.99281">
        <ele>254.463014</ele>
        <time>2021-09-07T09:17:04.000Z</time>
      </trkpt>
      <trkpt lat="48.30993" lon="0.99278">
        <ele>254.491847</ele>
        <time>2021-09-07T09:17:08.000Z</time>
      </trkpt>
      <trkpt lat="48.30977" lon="0.9927">
        <ele>254.62274</ele>
        <time>2021-09-07T09:17:13.000Z</time>
      </trkpt>
      <trkpt lat="48.30952" lon="0.9926">
        <ele>254.841175</ele>
        <time>2021-09-07T09:17:20.000Z</time>
      </trkpt>
      <trkpt lat="48.30923" lon="0.99262">
        <ele>255.076871</ele>
        <time>2021-09-07T09:17:27.000Z</time>
      </trkpt>
      <trkpt lat="48.30888" lon="0.99268">
        <ele>255.364882</ele>
        <time>2021-09-07T09:17:34.000Z</time>
      </trkpt>
      <trkpt lat="48.30857" lon="0.9927">
        <ele>255.613637</ele>
        <time>2021-09-07T09:17:40.000Z</time>
      </trkpt>
      <trkpt lat="48.30849" lon="0.9927">
        <ele>255.683274</ele>
        <time>2021-09-07T09:17:42.000Z</time>
      </trkpt>
      <trkpt lat="48.30839" lon="0.99273">
        <ele>255.764672</ele>
        <time>2021-09-07T09:17:44.000Z</time>
      </trkpt>
      <trkpt lat="48.30811" lon="0.99277">
        <ele>255.951627</ele>
        <time>2021-09-07T09:17:49.000Z</time>
      </trkpt>
      <trkpt lat="48.30766" lon="0.99283">
        <ele>255.754542</ele>
        <time>2021-09-07T09:17:56.000Z</time>
      </trkpt>
      <trkpt lat="48.30722" lon="0.99289">
        <ele>255.559327</ele>
        <time>2021-09-07T09:18:03.000Z</time>
      </trkpt>
      <trkpt lat="48.3068" lon="0.99294">
        <ele>255.376849</ele>
        <time>2021-09-07T09:18:10.000Z</time>
      </trkpt>
      <trkpt lat="48.30658" lon="0.99295">
        <ele>255.278661</ele>
        <time>2021-09-07T09:18:14.000Z</time>
      </trkpt>
      <trkpt lat="48.30642" lon="0.99294">
        <ele>255.206301</ele>
        <time>2021-09-07T09:18:17.000Z</time>
      </trkpt>
      <trkpt lat="48.3061" lon="0.99287">
        <ele>254.968105</ele>
        <time>2021-09-07T09:18:24.000Z</time>
      </trkpt>
      <trkpt lat="48.30599" lon="0.99282">
        <ele>254.875647</ele>
        <time>2021-09-07T09:18:28.000Z</time>
      </trkpt>
      <trkpt lat="48.30599" lon="0.99281">
        <ele>254.872002</ele>
        <time>2021-09-07T09:18:30.000Z</time>
      </trkpt>
      <trkpt lat="48.30598" lon="0.99285">
        <ele>254.849753</ele>
        <time>2021-09-07T09:19:03.000Z</time>
      </trkpt>
      <trkpt lat="48.30599" lon="0.99287">
        <ele>254.838946</ele>
        <time>2021-09-07T09:19:04.000Z</time>
      </trkpt>
      <trkpt lat="48.30607" lon="0.99294">
        <ele>254.762138</ele>
        <time>2021-09-07T09:19:09.000Z</time>
      </trkpt>
      <trkpt lat="48.30624" lon="0.99298">
        <ele>254.619746</ele>
        <time>2021-09-07T09:19:14.000Z</time>
      </trkpt>
      <trkpt lat="48.30652" lon="0.99302">
        <ele>254.394329</ele>
        <time>2021-09-07T09:19:21.000Z</time>
      </trkpt>
      <trkpt lat="48.30666" lon="0.99303">
        <ele>254.280104</ele>
        <time>2021-09-07T09:19:24.000Z</time>
      </trkpt>
      <trkpt lat="48.30676" lon="0.99301">
        <ele>254.196689</ele>
        <time>2021-09-07T09:19:26.000Z</time>
      </trkpt>
      <trkpt lat="48.30707" lon="0.99296">
        <ele>253.939946</ele>
        <time>2021-09-07T09:19:32.000Z</time>
      </trkpt>
      <trkpt lat="48.30712" lon="0.99298">
        <ele>253.898029</ele>
        <time>2021-09-07T09:19:33.000Z</time>
      </trkpt>
      <trkpt lat="48.30716" lon="0.99304">
        <ele>253.856323</ele>
        <time>2021-09-07T09:19:34.000Z</time>
      </trkpt>
      <trkpt lat="48.30716" lon="0.99313">
        <ele>253.809431</ele>
        <time>2021-09-07T09:19:35.000Z</time>
      </trkpt>
      <trkpt lat="48.30715" lon="0.99322">
        <ele>253.759654</ele>
        <time>2021-09-07T09:19:36.000Z</time>
      </trkpt>
      <trkpt lat="48.3071" lon="0.99359">
        <ele>253.381798</ele>
        <time>2021-09-07T09:19:40.000Z</time>
      </trkpt>
      <trkpt lat="48.307" lon="0.99431">
        <ele>252.539991</ele>
        <time>2021-09-07T09:19:48.000Z</time>
      </trkpt>
      <trkpt lat="48.30686" lon="0.99485">
        <ele>251.882875</ele>
        <time>2021-09-07T09:19:54.000Z</time>
      </trkpt>
      <trkpt lat="48.30683" lon="0.99493">
        <ele>251.769997</ele>
        <time>2021-09-07T09:19:55.000Z</time>
      </trkpt>
      <trkpt lat="48.30656" lon="0.99546">
        <ele>251.01893</ele>
        <time>2021-09-07T09:20:02.000Z</time>
      </trkpt>
      <trkpt lat="48.30628" lon="0.99598">
        <ele>250.170704</ele>
        <time>2021-09-07T09:20:09.000Z</time>
      </trkpt>
      <trkpt lat="48.30605" lon="0.99656">
        <ele>249.224065</ele>
        <time>2021-09-07T09:20:16.000Z</time>
      </trkpt>
      <trkpt lat="48.30594" lon="0.9968">
        <ele>248.81306</ele>
        <time>2021-09-07T09:20:19.000Z</time>
      </trkpt>
      <trkpt lat="48.30584" lon="0.99693">
        <ele>248.53615</ele>
        <time>2021-09-07T09:20:21.000Z</time>
      </trkpt>
      <trkpt lat="48.30579" lon="0.99699">
        <ele>248.395356</ele>
        <time>2021-09-07T09:20:22.000Z</time>
      </trkpt>
      <trkpt lat="48.30567" lon="0.99708">
        <ele>248.120232</ele>
        <time>2021-09-07T09:20:24.000Z</time>
      </trkpt>
      <trkpt lat="48.30549" lon="0.99717">
        <ele>247.716129</ele>
        <time>2021-09-07T09:20:27.000Z</time>
      </trkpt>
      <trkpt lat="48.30506" lon="0.99726">
        <ele>246.854657</ele>
        <time>2021-09-07T09:20:34.000Z</time>
      </trkpt>
      <trkpt lat="48.30471" lon="0.99732">
        <ele>247.021974</ele>
        <time>2021-09-07T09:20:40.000Z</time>
      </trkpt>
      <trkpt lat="48.30438" lon="0.99741">
        <ele>247.187839</ele>
        <time>2021-09-07T09:20:47.000Z</time>
      </trkpt>
      <trkpt lat="48.30418" lon="0.99745">
        <ele>247.282091</ele>
        <time>2021-09-07T09:20:53.000Z</time>
      </trkpt>
      <trkpt lat="48.30404" lon="0.99748">
        <ele>247.351601</ele>
        <time>2021-09-07T09:21:00.000Z</time>
      </trkpt>
      <trkpt lat="48.30389" lon="0.99751">
        <ele>247.426524</ele>
        <time>2021-09-07T09:21:08.000Z</time>
      </trkpt>
      <trkpt lat="48.30373" lon="0.99756">
        <ele>247.505738</ele>
        <time>2021-09-07T09:21:18.000Z</time>
      </trkpt>
      <trkpt lat="48.3036" lon="0.99756">
        <ele>247.566299</ele>
        <time>2021-09-07T09:21:26.000Z</time>
      </trkpt>
      <trkpt lat="48.3035" lon="0.99759">
        <ele>247.616051</ele>
        <time>2021-09-07T09:21:33.000Z</time>
      </trkpt>
      <trkpt lat="48.30347" lon="0.99759">
        <ele>247.628683</ele>
        <time>2021-09-07T09:21:35.000Z</time>
      </trkpt>
      <trkpt lat="48.30344" lon="0.99761">
        <ele>247.647166</ele>
        <time>2021-09-07T09:21:38.000Z</time>
      </trkpt>
      <trkpt lat="48.30338" lon="0.99762">
        <ele>247.675836</ele>
        <time>2021-09-07T09:21:43.000Z</time>
      </trkpt>
      <trkpt lat="48.30331" lon="0.99765">
        <ele>247.711218</ele>
        <time>2021-09-07T09:21:48.000Z</time>
      </trkpt>
      <trkpt lat="48.3033" lon="0.99767">
        <ele>247.721543</ele>
        <time>2021-09-07T09:21:49.000Z</time>
      </trkpt>
      <trkpt lat="48.3033" lon="0.99769">
        <ele>247.750235</ele>
        <time>2021-09-07T09:21:50.000Z</time>
      </trkpt>
      <trkpt lat="48.30326" lon="0.99776">
        <ele>247.869476</ele>
        <time>2021-09-07T09:21:54.000Z</time>
      </trkpt>
      <trkpt lat="48.30326" lon="0.99787">
        <ele>248.013562</ele>
        <time>2021-09-07T09:21:59.000Z</time>
      </trkpt>
      <trkpt lat="48.3033" lon="0.99803">
        <ele>248.224189</ele>
        <time>2021-09-07T09:22:04.000Z</time>
      </trkpt>
      <trkpt lat="48.30338" lon="0.99834">
        <ele>248.666961</ele>
        <time>2021-09-07T09:22:11.000Z</time>
      </trkpt>
      <trkpt lat="48.3035" lon="0.99878">
        <ele>249.268435</ele>
        <time>2021-09-07T09:22:19.000Z</time>
      </trkpt>
      <trkpt lat="48.30361" lon="0.9992">
        <ele>249.846287</ele>
        <time>2021-09-07T09:22:26.000Z</time>
      </trkpt>
      <trkpt lat="48.30362" lon="0.99926">
        <ele>249.931152</ele>
        <time>2021-09-07T09:22:27.000Z</time>
      </trkpt>
      <trkpt lat="48.30367" lon="0.9995">
        <ele>250.26093</ele>
        <time>2021-09-07T09:22:31.000Z</time>
      </trkpt>
      <trkpt lat="48.3037" lon="0.99963">
        <ele>250.428767</ele>
        <time>2021-09-07T09:22:33.000Z</time>
      </trkpt>
      <trkpt lat="48.30372" lon="0.99975">
        <ele>250.589286</ele>
        <time>2021-09-07T09:22:35.000Z</time>
      </trkpt>
      <trkpt lat="48.30375" lon="0.99986">
        <ele>250.74614</ele>
        <time>2021-09-07T09:22:37.000Z</time>
      </trkpt>
      <trkpt lat="48.3038" lon="1.00022">
        <ele>251.205933</ele>
        <time>2021-09-07T09:22:43.000Z</time>
      </trkpt>
      <trkpt lat="48.30383" lon="1.00062">
        <ele>251.474319</ele>
        <time>2021-09-07T09:22:49.000Z</time>
      </trkpt>
      <trkpt lat="48.30386" lon="1.00103">
        <ele>251.752496</ele>
        <time>2021-09-07T09:22:56.000Z</time>
      </trkpt>
      <trkpt lat="48.30393" lon="1.00147">
        <ele>252.049427</ele>
        <time>2021-09-07T09:23:04.000Z</time>
      </trkpt>
      <trkpt lat="48.30409" lon="1.0016">
        <ele>252.237672</ele>
        <time>2021-09-07T09:23:09.000Z</time>
      </trkpt>
      <trkpt lat="48.30438" lon="1.00175">
        <ele>252.542555</ele>
        <time>2021-09-07T09:23:16.000Z</time>
      </trkpt>
      <trkpt lat="48.30456" lon="1.0019">
        <ele>252.751801</ele>
        <time>2021-09-07T09:23:20.000Z</time>
      </trkpt>
      <trkpt lat="48.30464" lon="1.00201">
        <ele>252.859488</ele>
        <time>2021-09-07T09:23:22.000Z</time>
      </trkpt>
      <trkpt lat="48.30486" lon="1.00237">
        <ele>253.067088</ele>
        <time>2021-09-07T09:23:28.000Z</time>
      </trkpt>
      <trkpt lat="48.30491" lon="1.0025">
        <ele>253.102476</ele>
        <time>2021-09-07T09:23:30.000Z</time>
      </trkpt>
      <trkpt lat="48.30499" lon="1.00273">
        <ele>253.166407</ele>
        <time>2021-09-07T09:23:34.000Z</time>
      </trkpt>
      <trkpt lat="48.30501" lon="1.00279">
        <ele>253.18323</ele>
        <time>2021-09-07T09:23:35.000Z</time>
      </trkpt>
      <trkpt lat="48.30509" lon="1.00303">
        <ele>253.246514</ele>
        <time>2021-09-07T09:23:39.000Z</time>
      </trkpt>
      <trkpt lat="48.30515" lon="1.00332">
        <ele>253.319371</ele>
        <time>2021-09-07T09:23:44.000Z</time>
      </trkpt>
      <trkpt lat="48.30513" lon="1.0035">
        <ele>253.362707</ele>
        <time>2021-09-07T09:23:47.000Z</time>
      </trkpt>
      <trkpt lat="48.30498" lon="1.00358">
        <ele>253.418335</ele>
        <time>2021-09-07T09:23:51.000Z</time>
      </trkpt>
      <trkpt lat="48.30469" lon="1.00366">
        <ele>253.52411</ele>
        <time>2021-09-07T09:23:59.000Z</time>
      </trkpt>
      <trkpt lat="48.30456" lon="1.00374">
        <ele>253.575348</ele>
        <time>2021-09-07T09:24:03.000Z</time>
      </trkpt>
      <trkpt lat="48.30435" lon="1.00404">
        <ele>253.578552</ele>
        <time>2021-09-07T09:24:11.000Z</time>
      </trkpt>
      <trkpt lat="48.30414" lon="1.00418">
        <ele>253.398018</ele>
        <time>2021-09-07T09:24:17.000Z</time>
      </trkpt>
      <trkpt lat="48.30407" lon="1.00425">
        <ele>253.332803</ele>
        <time>2021-09-07T09:24:19.000Z</time>
      </trkpt>
      <trkpt lat="48.30399" lon="1.0044">
        <ele>253.235619</ele>
        <time>2021-09-07T09:24:22.000Z</time>
      </trkpt>
      <trkpt lat="48.3039" lon="1.0047">
        <ele>253.061977</ele>
        <time>2021-09-07T09:24:27.000Z</time>
      </trkpt>
      <trkpt lat="48.30378" lon="1.00511">
        <ele>252.829713</ele>
        <time>2021-09-07T09:24:33.000Z</time>
      </trkpt>
      <trkpt lat="48.30362" lon="1.00556">
        <ele>252.562373</ele>
        <time>2021-09-07T09:24:39.000Z</time>
      </trkpt>
      <trkpt lat="48.30352" lon="1.00581">
        <ele>252.411291</ele>
        <time>2021-09-07T09:24:42.000Z</time>
      </trkpt>
      <trkpt lat="48.30349" lon="1.00599">
        <ele>252.311752</ele>
        <time>2021-09-07T09:24:44.000Z</time>
      </trkpt>
      <trkpt lat="48.30347" lon="1.00618">
        <ele>252.240652</ele>
        <time>2021-09-07T09:24:46.000Z</time>
      </trkpt>
      <trkpt lat="48.30345" lon="1.00644">
        <ele>252.252044</ele>
        <time>2021-09-07T09:24:49.000Z</time>
      </trkpt>
      <trkpt lat="48.30337" lon="1.00657">
        <ele>252.259343</ele>
        <time>2021-09-07T09:24:51.000Z</time>
      </trkpt>
      <trkpt lat="48.30333" lon="1.0066">
        <ele>252.262718</ele>
        <time>2021-09-07T09:24:52.000Z</time>
      </trkpt>
      <trkpt lat="48.30306" lon="1.00665">
        <ele>252.280081</ele>
        <time>2021-09-07T09:24:58.000Z</time>
      </trkpt>
      <trkpt lat="48.30277" lon="1.00671">
        <ele>252.299781</ele>
        <time>2021-09-07T09:25:06.000Z</time>
      </trkpt>
      <trkpt lat="48.30255" lon="1.00675">
        <ele>252.31401</ele>
        <time>2021-09-07T09:25:12.000Z</time>
      </trkpt>
      <trkpt lat="48.30237" lon="1.00667">
        <ele>252.326477</ele>
        <time>2021-09-07T09:25:17.000Z</time>
      </trkpt>
      <trkpt lat="48.30219" lon="1.0065">
        <ele>252.340016</ele>
        <time>2021-09-07T09:25:23.000Z</time>
      </trkpt>
      <trkpt lat="48.30204" lon="1.00637">
        <ele>252.351598</ele>
        <time>2021-09-07T09:25:28.000Z</time>
      </trkpt>
      <trkpt lat="48.3019" lon="1.00624">
        <ele>252.413773</ele>
        <time>2021-09-07T09:25:33.000Z</time>
      </trkpt>
      <trkpt lat="48.30174" lon="1.00616">
        <ele>252.51241</ele>
        <time>2021-09-07T09:25:38.000Z</time>
      </trkpt>
      <trkpt lat="48.30146" lon="1.00616">
        <ele>252.681441</ele>
        <time>2021-09-07T09:25:45.000Z</time>
      </trkpt>
      <trkpt lat="48.30141" lon="1.00631">
        <ele>252.750239</ele>
        <time>2021-09-07T09:25:48.000Z</time>
      </trkpt>
      <trkpt lat="48.30139" lon="1.00647">
        <ele>252.816724</ele>
        <time>2021-09-07T09:25:51.000Z</time>
      </trkpt>
      <trkpt lat="48.30138" lon="1.00653">
        <ele>252.840987</ele>
        <time>2021-09-07T09:25:52.000Z</time>
      </trkpt>
      <trkpt lat="48.30137" lon="1.00683">
        <ele>252.961691</ele>
        <time>2021-09-07T09:25:57.000Z</time>
      </trkpt>
      <trkpt lat="48.30136" lon="1.0071">
        <ele>253.071222</ele>
        <time>2021-09-07T09:26:01.000Z</time>
      </trkpt>
      <trkpt lat="48.30133" lon="1.00745">
        <ele>253.213425</ele>
        <time>2021-09-07T09:26:06.000Z</time>
      </trkpt>
      <trkpt lat="48.30132" lon="1.00753">
        <ele>253.247138</ele>
        <time>2021-09-07T09:26:07.000Z</time>
      </trkpt>
      <trkpt lat="48.30129" lon="1.00777">
        <ele>253.345431</ele>
        <time>2021-09-07T09:26:10.000Z</time>
      </trkpt>
      <trkpt lat="48.30128" lon="1.00785">
        <ele>253.37699</ele>
        <time>2021-09-07T09:26:11.000Z</time>
      </trkpt>
      <trkpt lat="48.30127" lon="1.00792">
        <ele>253.407418</ele>
        <time>2021-09-07T09:26:12.000Z</time>
      </trkpt>
      <trkpt lat="48.30125" lon="1.00811">
        <ele>253.391979</ele>
        <time>2021-09-07T09:26:15.000Z</time>
      </trkpt>
      <trkpt lat="48.30124" lon="1.0082">
        <ele>253.344291</ele>
        <time>2021-09-07T09:26:16.000Z</time>
      </trkpt>
      <trkpt lat="48.3012" lon="1.00851">
        <ele>253.163082</ele>
        <time>2021-09-07T09:26:20.000Z</time>
      </trkpt>
      <trkpt lat="48.30119" lon="1.00867">
        <ele>253.073451</ele>
        <time>2021-09-07T09:26:22.000Z</time>
      </trkpt>
      <trkpt lat="48.30116" lon="1.00884">
        <ele>252.977157</ele>
        <time>2021-09-07T09:26:24.000Z</time>
      </trkpt>
      <trkpt lat="48.30115" lon="1.00891">
        <ele>252.932949</ele>
        <time>2021-09-07T09:26:25.000Z</time>
      </trkpt>
      <trkpt lat="48.30113" lon="1.00915">
        <ele>252.798109</ele>
        <time>2021-09-07T09:26:28.000Z</time>
      </trkpt>
      <trkpt lat="48.30106" lon="1.00967">
        <ele>252.497277</ele>
        <time>2021-09-07T09:26:34.000Z</time>
      </trkpt>
      <trkpt lat="48.301" lon="1.01021">
        <ele>252.189867</ele>
        <time>2021-09-07T09:26:40.000Z</time>
      </trkpt>
      <trkpt lat="48.301" lon="1.01029">
        <ele>252.143028</ele>
        <time>2021-09-07T09:26:41.000Z</time>
      </trkpt>
      <trkpt lat="48.30101" lon="1.01037">
        <ele>252.09696</ele>
        <time>2021-09-07T09:26:42.000Z</time>
      </trkpt>
      <trkpt lat="48.30104" lon="1.01052">
        <ele>252.007123</ele>
        <time>2021-09-07T09:26:44.000Z</time>
      </trkpt>
      <trkpt lat="48.30106" lon="1.01069">
        <ele>251.909294</ele>
        <time>2021-09-07T09:26:46.000Z</time>
      </trkpt>
      <trkpt lat="48.30109" lon="1.01105">
        <ele>251.66774</ele>
        <time>2021-09-07T09:26:50.000Z</time>
      </trkpt>
      <trkpt lat="48.30109" lon="1.01114">
        <ele>251.609735</ele>
        <time>2021-09-07T09:26:51.000Z</time>
      </trkpt>
      <trkpt lat="48.3011" lon="1.01122">
        <ele>251.554756</ele>
        <time>2021-09-07T09:26:52.000Z</time>
      </trkpt>
      <trkpt lat="48.30112" lon="1.01148">
        <ele>251.378313</ele>
        <time>2021-09-07T09:26:55.000Z</time>
      </trkpt>
      <trkpt lat="48.30117" lon="1.01192">
        <ele>251.077824</ele>
        <time>2021-09-07T09:27:00.000Z</time>
      </trkpt>
      <trkpt lat="48.30124" lon="1.01228">
        <ele>250.830779</ele>
        <time>2021-09-07T09:27:04.000Z</time>
      </trkpt>
      <trkpt lat="48.30126" lon="1.01236">
        <ele>250.771049</ele>
        <time>2021-09-07T09:27:05.000Z</time>
      </trkpt>
      <trkpt lat="48.3014" lon="1.01302">
        <ele>250.305691</ele>
        <time>2021-09-07T09:27:13.000Z</time>
      </trkpt>
      <trkpt lat="48.30141" lon="1.01344">
        <ele>250.14872</ele>
        <time>2021-09-07T09:27:18.000Z</time>
      </trkpt>
      <trkpt lat="48.30142" lon="1.0136">
        <ele>250.194118</ele>
        <time>2021-09-07T09:27:20.000Z</time>
      </trkpt>
      <trkpt lat="48.30145" lon="1.01393">
        <ele>250.287426</ele>
        <time>2021-09-07T09:27:24.000Z</time>
      </trkpt>
      <trkpt lat="48.3015" lon="1.01437">
        <ele>250.41077</ele>
        <time>2021-09-07T09:27:30.000Z</time>
      </trkpt>
      <trkpt lat="48.30153" lon="1.01451">
        <ele>250.452538</ele>
        <time>2021-09-07T09:27:32.000Z</time>
      </trkpt>
      <trkpt lat="48.30152" lon="1.01465">
        <ele>250.491913</ele>
        <time>2021-09-07T09:27:34.000Z</time>
      </trkpt>
      <trkpt lat="48.30144" lon="1.01481">
        <ele>250.549761</ele>
        <time>2021-09-07T09:27:37.000Z</time>
      </trkpt>
      <trkpt lat="48.30123" lon="1.01503">
        <ele>250.656969</ele>
        <time>2021-09-07T09:27:42.000Z</time>
      </trkpt>
      <trkpt lat="48.30113" lon="1.01511">
        <ele>250.706218</ele>
        <time>2021-09-07T09:27:44.000Z</time>
      </trkpt>
      <trkpt lat="48.30103" lon="1.01518">
        <ele>250.750529</ele>
        <time>2021-09-07T09:27:46.000Z</time>
      </trkpt>
      <trkpt lat="48.30095" lon="1.01526">
        <ele>250.792762</ele>
        <time>2021-09-07T09:27:48.000Z</time>
      </trkpt>
      <trkpt lat="48.30091" lon="1.01532">
        <ele>250.816736</ele>
        <time>2021-09-07T09:27:49.000Z</time>
      </trkpt>
      <trkpt lat="48.30078" lon="1.01547">
        <ele>250.886797</ele>
        <time>2021-09-07T09:27:52.000Z</time>
      </trkpt>
      <trkpt lat="48.3007" lon="1.01557">
        <ele>250.942658</ele>
        <time>2021-09-07T09:27:54.000Z</time>
      </trkpt>
      <trkpt lat="48.30061" lon="1.01567">
        <ele>251.001251</ele>
        <time>2021-09-07T09:27:56.000Z</time>
      </trkpt>
      <trkpt lat="48.30053" lon="1.01577">
        <ele>251.055677</ele>
        <time>2021-09-07T09:27:58.000Z</time>
      </trkpt>
      <trkpt lat="48.30049" lon="1.01581">
        <ele>251.081418</ele>
        <time>2021-09-07T09:27:59.000Z</time>
      </trkpt>
      <trkpt lat="48.30038" lon="1.01594">
        <ele>251.156735</ele>
        <time>2021-09-07T09:28:02.000Z</time>
      </trkpt>
      <trkpt lat="48.30033" lon="1.01598">
        <ele>251.184379</ele>
        <time>2021-09-07T09:28:03.000Z</time>
      </trkpt>
      <trkpt lat="48.30024" lon="1.01606">
        <ele>251.237817</ele>
        <time>2021-09-07T09:28:05.000Z</time>
      </trkpt>
      <trkpt lat="48.30016" lon="1.01614">
        <ele>251.290573</ele>
        <time>2021-09-07T09:28:07.000Z</time>
      </trkpt>
      <trkpt lat="48.30002" lon="1.01628">
        <ele>251.376657</ele>
        <time>2021-09-07T09:28:10.000Z</time>
      </trkpt>
      <trkpt lat="48.29998" lon="1.01633">
        <ele>251.405544</ele>
        <time>2021-09-07T09:28:11.000Z</time>
      </trkpt>
      <trkpt lat="48.29977" lon="1.01657">
        <ele>251.544472</ele>
        <time>2021-09-07T09:28:16.000Z</time>
      </trkpt>
      <trkpt lat="48.29963" lon="1.01671">
        <ele>251.630753</ele>
        <time>2021-09-07T09:28:19.000Z</time>
      </trkpt>
      <trkpt lat="48.29955" lon="1.01684">
        <ele>251.689368</ele>
        <time>2021-09-07T09:28:21.000Z</time>
      </trkpt>
      <trkpt lat="48.29952" lon="1.01691">
        <ele>251.719814</ele>
        <time>2021-09-07T09:28:22.000Z</time>
      </trkpt>
      <trkpt lat="48.29944" lon="1.01713">
        <ele>251.807854</ele>
        <time>2021-09-07T09:28:25.000Z</time>
      </trkpt>
      <trkpt lat="48.29938" lon="1.01735">
        <ele>251.774424</ele>
        <time>2021-09-07T09:28:28.000Z</time>
      </trkpt>
      <trkpt lat="48.29931" lon="1.01769">
        <ele>251.711083</ele>
        <time>2021-09-07T09:28:33.000Z</time>
      </trkpt>
      <trkpt lat="48.29922" lon="1.01807">
        <ele>251.639607</ele>
        <time>2021-09-07T09:28:38.000Z</time>
      </trkpt>
      <trkpt lat="48.29908" lon="1.01884">
        <ele>251.498372</ele>
        <time>2021-09-07T09:28:47.000Z</time>
      </trkpt>
      <trkpt lat="48.29896" lon="1.01934">
        <ele>251.404229</ele>
        <time>2021-09-07T09:28:53.000Z</time>
      </trkpt>
      <trkpt lat="48.29892" lon="1.01943">
        <ele>251.386842</ele>
        <time>2021-09-07T09:28:54.000Z</time>
      </trkpt>
      <trkpt lat="48.29888" lon="1.01951">
        <ele>251.369098</ele>
        <time>2021-09-07T09:28:55.000Z</time>
      </trkpt>
      <trkpt lat="48.29869" lon="1.01979">
        <ele>251.205783</ele>
        <time>2021-09-07T09:28:59.000Z</time>
      </trkpt>
      <trkpt lat="48.29855" lon="1.01996">
        <ele>251.042998</ele>
        <time>2021-09-07T09:29:02.000Z</time>
      </trkpt>
      <trkpt lat="48.29841" lon="1.02013">
        <ele>250.876807</ele>
        <time>2021-09-07T09:29:05.000Z</time>
      </trkpt>
      <trkpt lat="48.2981" lon="1.02052">
        <ele>250.512656</ele>
        <time>2021-09-07T09:29:12.000Z</time>
      </trkpt>
      <trkpt lat="48.29782" lon="1.02088">
        <ele>250.171566</ele>
        <time>2021-09-07T09:29:19.000Z</time>
      </trkpt>
      <trkpt lat="48.29752" lon="1.02125">
        <ele>249.817783</ele>
        <time>2021-09-07T09:29:26.000Z</time>
      </trkpt>
      <trkpt lat="48.29714" lon="1.02172">
        <ele>249.323634</ele>
        <time>2021-09-07T09:29:35.000Z</time>
      </trkpt>
      <trkpt lat="48.29692" lon="1.02198">
        <ele>249.030568</ele>
        <time>2021-09-07T09:29:40.000Z</time>
      </trkpt>
      <trkpt lat="48.29682" lon="1.02205">
        <ele>248.917688</ele>
        <time>2021-09-07T09:29:42.000Z</time>
      </trkpt>
      <trkpt lat="48.29667" lon="1.02205">
        <ele>248.752446</ele>
        <time>2021-09-07T09:29:45.000Z</time>
      </trkpt>
      <trkpt lat="48.29637" lon="1.02193">
        <ele>248.433848</ele>
        <time>2021-09-07T09:29:51.000Z</time>
      </trkpt>
      <trkpt lat="48.29594" lon="1.02175">
        <ele>247.966035</ele>
        <time>2021-09-07T09:29:59.000Z</time>
      </trkpt>
      <trkpt lat="48.29556" lon="1.02161">
        <ele>247.440511</ele>
        <time>2021-09-07T09:30:06.000Z</time>
      </trkpt>
      <trkpt lat="48.29528" lon="1.02151">
        <ele>247.01736</ele>
        <time>2021-09-07T09:30:11.000Z</time>
      </trkpt>
      <trkpt lat="48.29488" lon="1.02135">
        <ele>246.397125</ele>
        <time>2021-09-07T09:30:18.000Z</time>
      </trkpt>
      <trkpt lat="48.29482" lon="1.02133">
        <ele>246.298708</ele>
        <time>2021-09-07T09:30:19.000Z</time>
      </trkpt>
      <trkpt lat="48.2945" lon="1.02119">
        <ele>245.794162</ele>
        <time>2021-09-07T09:30:24.000Z</time>
      </trkpt>
      <trkpt lat="48.2939" lon="1.02096">
        <ele>244.904576</ele>
        <time>2021-09-07T09:30:32.000Z</time>
      </trkpt>
      <trkpt lat="48.29339" lon="1.02077">
        <ele>244.21593</ele>
        <time>2021-09-07T09:30:39.000Z</time>
      </trkpt>
      <trkpt lat="48.29311" lon="1.02058">
        <ele>243.80843</ele>
        <time>2021-09-07T09:30:44.000Z</time>
      </trkpt>
      <trkpt lat="48.29287" lon="1.02027">
        <ele>243.386448</ele>
        <time>2021-09-07T09:30:50.000Z</time>
      </trkpt>
      <trkpt lat="48.29257" lon="1.01991">
        <ele>242.883355</ele>
        <time>2021-09-07T09:30:58.000Z</time>
      </trkpt>
      <trkpt lat="48.29253" lon="1.01988">
        <ele>242.821337</ele>
        <time>2021-09-07T09:30:59.000Z</time>
      </trkpt>
      <trkpt lat="48.29244" lon="1.01986">
        <ele>242.737984</ele>
        <time>2021-09-07T09:31:01.000Z</time>
      </trkpt>
      <trkpt lat="48.29239" lon="1.01988">
        <ele>242.719737</ele>
        <time>2021-09-07T09:31:02.000Z</time>
      </trkpt>
      <trkpt lat="48.29235" lon="1.01992">
        <ele>242.701254</ele>
        <time>2021-09-07T09:31:03.000Z</time>
      </trkpt>
      <trkpt lat="48.29226" lon="1.02009">
        <ele>242.643474</ele>
        <time>2021-09-07T09:31:06.000Z</time>
      </trkpt>
      <trkpt lat="48.29205" lon="1.02058">
        <ele>242.492845</ele>
        <time>2021-09-07T09:31:13.000Z</time>
      </trkpt>
      <trkpt lat="48.29202" lon="1.02064">
        <ele>242.470783</ele>
        <time>2021-09-07T09:31:14.000Z</time>
      </trkpt>
      <trkpt lat="48.29194" lon="1.02077">
        <ele>242.424687</ele>
        <time>2021-09-07T09:31:16.000Z</time>
      </trkpt>
      <trkpt lat="48.29184" lon="1.02087">
        <ele>242.378746</ele>
        <time>2021-09-07T09:31:18.000Z</time>
      </trkpt>
      <trkpt lat="48.29173" lon="1.02091">
        <ele>242.334594</ele>
        <time>2021-09-07T09:31:20.000Z</time>
      </trkpt>
      <trkpt lat="48.29162" lon="1.02091">
        <ele>242.292448</ele>
        <time>2021-09-07T09:31:22.000Z</time>
      </trkpt>
      <trkpt lat="48.29148" lon="1.0209">
        <ele>242.235303</ele>
        <time>2021-09-07T09:31:25.000Z</time>
      </trkpt>
      <trkpt lat="48.29134" lon="1.02088">
        <ele>242.180379</ele>
        <time>2021-09-07T09:31:28.000Z</time>
      </trkpt>
      <trkpt lat="48.29101" lon="1.0208">
        <ele>242.049746</ele>
        <time>2021-09-07T09:31:35.000Z</time>
      </trkpt>
      <trkpt lat="48.29057" lon="1.02067">
        <ele>241.784115</ele>
        <time>2021-09-07T09:31:44.000Z</time>
      </trkpt>
      <trkpt lat="48.29018" lon="1.02055">
        <ele>241.544547</ele>
        <time>2021-09-07T09:31:52.000Z</time>
      </trkpt>
      <trkpt lat="48.28965" lon="1.02039">
        <ele>241.221942</ele>
        <time>2021-09-07T09:32:02.000Z</time>
      </trkpt>
      <trkpt lat="48.28955" lon="1.02036">
        <ele>241.155905</ele>
        <time>2021-09-07T09:32:04.000Z</time>
      </trkpt>
      <trkpt lat="48.28938" lon="1.02032">
        <ele>241.057953</ele>
        <time>2021-09-07T09:32:07.000Z</time>
      </trkpt>
      <trkpt lat="48.28894" lon="1.02018">
        <ele>240.665793</ele>
        <time>2021-09-07T09:32:15.000Z</time>
      </trkpt>
      <trkpt lat="48.28888" lon="1.02017">
        <ele>240.607474</ele>
        <time>2021-09-07T09:32:16.000Z</time>
      </trkpt>
      <trkpt lat="48.28871" lon="1.02013">
        <ele>240.43147</ele>
        <time>2021-09-07T09:32:19.000Z</time>
      </trkpt>
      <trkpt lat="48.2884" lon="1.02011">
        <ele>240.120956</ele>
        <time>2021-09-07T09:32:24.000Z</time>
      </trkpt>
      <trkpt lat="48.28834" lon="1.02013">
        <ele>240.054627</ele>
        <time>2021-09-07T09:32:25.000Z</time>
      </trkpt>
      <trkpt lat="48.28788" lon="1.02028">
        <ele>239.585047</ele>
        <time>2021-09-07T09:32:32.000Z</time>
      </trkpt>
      <trkpt lat="48.28764" lon="1.02028">
        <ele>239.340178</ele>
        <time>2021-09-07T09:32:36.000Z</time>
      </trkpt>
      <trkpt lat="48.28731" lon="1.02014">
        <ele>239.008629</ele>
        <time>2021-09-07T09:32:42.000Z</time>
      </trkpt>
      <trkpt lat="48.28726" lon="1.02012">
        <ele>238.956569</ele>
        <time>2021-09-07T09:32:43.000Z</time>
      </trkpt>
      <trkpt lat="48.28716" lon="1.02007">
        <ele>238.851752</ele>
        <time>2021-09-07T09:32:45.000Z</time>
      </trkpt>
      <trkpt lat="48.2871" lon="1.02005">
        <ele>238.798757</ele>
        <time>2021-09-07T09:32:46.000Z</time>
      </trkpt>
      <trkpt lat="48.28683" lon="1.01994">
        <ele>238.527518</ele>
        <time>2021-09-07T09:32:51.000Z</time>
      </trkpt>
      <trkpt lat="48.28678" lon="1.01992">
        <ele>238.47215</ele>
        <time>2021-09-07T09:32:52.000Z</time>
      </trkpt>
      <trkpt lat="48.28639" lon="1.01977">
        <ele>238.087117</ele>
        <time>2021-09-07T09:32:59.000Z</time>
      </trkpt>
      <trkpt lat="48.28595" lon="1.01961">
        <ele>237.647719</ele>
        <time>2021-09-07T09:33:07.000Z</time>
      </trkpt>
      <trkpt lat="48.28564" lon="1.01948">
        <ele>237.397014</ele>
        <time>2021-09-07T09:33:13.000Z</time>
      </trkpt>
      <trkpt lat="48.28532" lon="1.01936">
        <ele>237.304163</ele>
        <time>2021-09-07T09:33:19.000Z</time>
      </trkpt>
      <trkpt lat="48.285" lon="1.01923">
        <ele>237.21038</ele>
        <time>2021-09-07T09:33:26.000Z</time>
      </trkpt>
      <trkpt lat="48.28487" lon="1.01919">
        <ele>237.173145</ele>
        <time>2021-09-07T09:33:29.000Z</time>
      </trkpt>
      <trkpt lat="48.28479" lon="1.0192">
        <ele>237.148239</ele>
        <time>2021-09-07T09:33:31.000Z</time>
      </trkpt>
      <trkpt lat="48.28475" lon="1.01923">
        <ele>237.135374</ele>
        <time>2021-09-07T09:33:32.000Z</time>
      </trkpt>
      <trkpt lat="48.28472" lon="1.01928">
        <ele>237.122602</ele>
        <time>2021-09-07T09:33:33.000Z</time>
      </trkpt>
      <trkpt lat="48.28467" lon="1.01941">
        <ele>237.09592</ele>
        <time>2021-09-07T09:33:35.000Z</time>
      </trkpt>
      <trkpt lat="48.28453" lon="1.01987">
        <ele>237.000707</ele>
        <time>2021-09-07T09:33:42.000Z</time>
      </trkpt>
      <trkpt lat="48.2843" lon="1.02037">
        <ele>236.865564</ele>
        <time>2021-09-07T09:33:50.000Z</time>
      </trkpt>
      <trkpt lat="48.28414" lon="1.02072">
        <ele>236.728511</ele>
        <time>2021-09-07T09:33:56.000Z</time>
      </trkpt>
      <trkpt lat="48.28411" lon="1.02092">
        <ele>236.665033</ele>
        <time>2021-09-07T09:33:59.000Z</time>
      </trkpt>
      <trkpt lat="48.2841" lon="1.02098">
        <ele>236.643779</ele>
        <time>2021-09-07T09:34:00.000Z</time>
      </trkpt>
      <trkpt lat="48.28408" lon="1.02105">
        <ele>236.620888</ele>
        <time>2021-09-07T09:34:01.000Z</time>
      </trkpt>
      <trkpt lat="48.28401" lon="1.02115">
        <ele>236.575137</ele>
        <time>2021-09-07T09:34:03.000Z</time>
      </trkpt>
      <trkpt lat="48.28398" lon="1.02119">
        <ele>236.553151</ele>
        <time>2021-09-07T09:34:04.000Z</time>
      </trkpt>
      <trkpt lat="48.28393" lon="1.02122">
        <ele>236.530322</ele>
        <time>2021-09-07T09:34:05.000Z</time>
      </trkpt>
      <trkpt lat="48.28375" lon="1.0213">
        <ele>236.439952</ele>
        <time>2021-09-07T09:34:09.000Z</time>
      </trkpt>
      <trkpt lat="48.28353" lon="1.02146">
        <ele>236.32062</ele>
        <time>2021-09-07T09:34:14.000Z</time>
      </trkpt>
      <trkpt lat="48.28348" lon="1.0215">
        <ele>236.296026</ele>
        <time>2021-09-07T09:34:15.000Z</time>
      </trkpt>
      <trkpt lat="48.28345" lon="1.02155">
        <ele>236.272546</ele>
        <time>2021-09-07T09:34:16.000Z</time>
      </trkpt>
      <trkpt lat="48.28332" lon="1.02179">
        <ele>236.174063</ele>
        <time>2021-09-07T09:34:20.000Z</time>
      </trkpt>
      <trkpt lat="48.28329" lon="1.02185">
        <ele>236.15089</ele>
        <time>2021-09-07T09:34:21.000Z</time>
      </trkpt>
      <trkpt lat="48.2832" lon="1.02225">
        <ele>235.963171</ele>
        <time>2021-09-07T09:34:27.000Z</time>
      </trkpt>
      <trkpt lat="48.2831" lon="1.0227">
        <ele>235.578464</ele>
        <time>2021-09-07T09:34:34.000Z</time>
      </trkpt>
      <trkpt lat="48.28307" lon="1.02275">
        <ele>235.526916</ele>
        <time>2021-09-07T09:34:35.000Z</time>
      </trkpt>
      <trkpt lat="48.283" lon="1.02282">
        <ele>235.42365</ele>
        <time>2021-09-07T09:34:37.000Z</time>
      </trkpt>
      <trkpt lat="48.28292" lon="1.02285">
        <ele>235.322094</ele>
        <time>2021-09-07T09:34:39.000Z</time>
      </trkpt>
      <trkpt lat="48.28287" lon="1.02286">
        <ele>235.267221</ele>
        <time>2021-09-07T09:34:40.000Z</time>
      </trkpt>
      <trkpt lat="48.28255" lon="1.02292">
        <ele>234.864476</ele>
        <time>2021-09-07T09:34:47.000Z</time>
      </trkpt>
      <trkpt lat="48.28201" lon="1.02304">
        <ele>234.199793</ele>
        <time>2021-09-07T09:34:58.000Z</time>
      </trkpt>
      <trkpt lat="48.28196" lon="1.02305">
        <ele>234.138645</ele>
        <time>2021-09-07T09:34:59.000Z</time>
      </trkpt>
      <trkpt lat="48.28169" lon="1.02306">
        <ele>233.745336</ele>
        <time>2021-09-07T09:35:04.000Z</time>
      </trkpt>
      <trkpt lat="48.28157" lon="1.02303">
        <ele>233.405221</ele>
        <time>2021-09-07T09:35:06.000Z</time>
      </trkpt>
      <trkpt lat="48.2811" lon="1.02288">
        <ele>232.007034</ele>
        <time>2021-09-07T09:35:13.000Z</time>
      </trkpt>
      <trkpt lat="48.28096" lon="1.02285">
        <ele>231.575177</ele>
        <time>2021-09-07T09:35:15.000Z</time>
      </trkpt>
      <trkpt lat="48.28089" lon="1.02287">
        <ele>231.359639</ele>
        <time>2021-09-07T09:35:16.000Z</time>
      </trkpt>
      <trkpt lat="48.28083" lon="1.02294">
        <ele>231.140208</ele>
        <time>2021-09-07T09:35:17.000Z</time>
      </trkpt>
      <trkpt lat="48.2808" lon="1.02304">
        <ele>230.92308</ele>
        <time>2021-09-07T09:35:18.000Z</time>
      </trkpt>
      <trkpt lat="48.28072" lon="1.02342">
        <ele>230.162572</ele>
        <time>2021-09-07T09:35:22.000Z</time>
      </trkpt>
      <trkpt lat="48.28071" lon="1.02351">
        <ele>229.986948</ele>
        <time>2021-09-07T09:35:23.000Z</time>
      </trkpt>
      <trkpt lat="48.28064" lon="1.02396">
        <ele>229.093717</ele>
        <time>2021-09-07T09:35:29.000Z</time>
      </trkpt>
      <trkpt lat="48.28063" lon="1.02402">
        <ele>228.96233</ele>
        <time>2021-09-07T09:35:30.000Z</time>
      </trkpt>
      <trkpt lat="48.28058" lon="1.02433">
        <ele>228.396089</ele>
        <time>2021-09-07T09:35:35.000Z</time>
      </trkpt>
      <trkpt lat="48.28055" lon="1.02452">
        <ele>228.090644</ele>
        <time>2021-09-07T09:35:38.000Z</time>
      </trkpt>
      <trkpt lat="48.2805" lon="1.02477">
        <ele>227.688057</ele>
        <time>2021-09-07T09:35:42.000Z</time>
      </trkpt>
      <trkpt lat="48.28046" lon="1.02501">
        <ele>227.303271</ele>
        <time>2021-09-07T09:35:46.000Z</time>
      </trkpt>
      <trkpt lat="48.28045" lon="1.02507">
        <ele>227.212741</ele>
        <time>2021-09-07T09:35:47.000Z</time>
      </trkpt>
      <trkpt lat="48.28043" lon="1.02519">
        <ele>227.019261</ele>
        <time>2021-09-07T09:35:49.000Z</time>
      </trkpt>
      <trkpt lat="48.28039" lon="1.02537">
        <ele>226.716961</ele>
        <time>2021-09-07T09:35:52.000Z</time>
      </trkpt>
      <trkpt lat="48.28037" lon="1.0255">
        <ele>226.51357</ele>
        <time>2021-09-07T09:35:54.000Z</time>
      </trkpt>
      <trkpt lat="48.28035" lon="1.02568">
        <ele>226.216667</ele>
        <time>2021-09-07T09:35:57.000Z</time>
      </trkpt>
      <trkpt lat="48.28032" lon="1.02595">
        <ele>225.796366</ele>
        <time>2021-09-07T09:36:01.000Z</time>
      </trkpt>
      <trkpt lat="48.28028" lon="1.02613">
        <ele>225.506354</ele>
        <time>2021-09-07T09:36:04.000Z</time>
      </trkpt>
      <trkpt lat="48.28028" lon="1.02618">
        <ele>225.418415</ele>
        <time>2021-09-07T09:36:05.000Z</time>
      </trkpt>
      <trkpt lat="48.28026" lon="1.02639">
        <ele>225.085727</ele>
        <time>2021-09-07T09:36:08.000Z</time>
      </trkpt>
      <trkpt lat="48.28018" lon="1.02681">
        <ele>224.413044</ele>
        <time>2021-09-07T09:36:14.000Z</time>
      </trkpt>
      <trkpt lat="48.28016" lon="1.02687">
        <ele>224.405342</ele>
        <time>2021-09-07T09:36:15.000Z</time>
      </trkpt>
      <trkpt lat="48.28015" lon="1.02695">
        <ele>224.418837</ele>
        <time>2021-09-07T09:36:16.000Z</time>
      </trkpt>
      <trkpt lat="48.28007" lon="1.02729">
        <ele>224.48641</ele>
        <time>2021-09-07T09:36:21.000Z</time>
      </trkpt>
      <trkpt lat="48.28005" lon="1.02736">
        <ele>224.499018</ele>
        <time>2021-09-07T09:36:22.000Z</time>
      </trkpt>
      <trkpt lat="48.28002" lon="1.02755">
        <ele>224.535927</ele>
        <time>2021-09-07T09:36:25.000Z</time>
      </trkpt>
      <trkpt lat="48.28" lon="1.02761">
        <ele>224.548189</ele>
        <time>2021-09-07T09:36:26.000Z</time>
      </trkpt>
      <trkpt lat="48.27993" lon="1.02784">
        <ele>224.592975</ele>
        <time>2021-09-07T09:36:30.000Z</time>
      </trkpt>
      <trkpt lat="48.27984" lon="1.02813">
        <ele>224.652513</ele>
        <time>2021-09-07T09:36:34.000Z</time>
      </trkpt>
      <trkpt lat="48.27981" lon="1.0282">
        <ele>224.667499</ele>
        <time>2021-09-07T09:36:35.000Z</time>
      </trkpt>
      <trkpt lat="48.27979" lon="1.02827">
        <ele>224.681099</ele>
        <time>2021-09-07T09:36:36.000Z</time>
      </trkpt>
      <trkpt lat="48.27975" lon="1.0284">
        <ele>224.70799</ele>
        <time>2021-09-07T09:36:38.000Z</time>
      </trkpt>
      <trkpt lat="48.27972" lon="1.02847">
        <ele>224.722748</ele>
        <time>2021-09-07T09:36:39.000Z</time>
      </trkpt>
      <trkpt lat="48.27966" lon="1.02862">
        <ele>224.755093</ele>
        <time>2021-09-07T09:36:41.000Z</time>
      </trkpt>
      <trkpt lat="48.2796" lon="1.02877">
        <ele>224.787976</ele>
        <time>2021-09-07T09:36:43.000Z</time>
      </trkpt>
      <trkpt lat="48.27957" lon="1.02885">
        <ele>224.80417</ele>
        <time>2021-09-07T09:36:44.000Z</time>
      </trkpt>
      <trkpt lat="48.27954" lon="1.02892">
        <ele>224.819542</ele>
        <time>2021-09-07T09:36:45.000Z</time>
      </trkpt>
      <trkpt lat="48.27946" lon="1.0291">
        <ele>224.859233</ele>
        <time>2021-09-07T09:36:48.000Z</time>
      </trkpt>
      <trkpt lat="48.27936" lon="1.02931">
        <ele>224.822497</ele>
        <time>2021-09-07T09:36:51.000Z</time>
      </trkpt>
      <trkpt lat="48.27933" lon="1.0294">
        <ele>224.751363</ele>
        <time>2021-09-07T09:36:52.000Z</time>
      </trkpt>
      <trkpt lat="48.2791" lon="1.02993">
        <ele>224.285678</ele>
        <time>2021-09-07T09:36:59.000Z</time>
      </trkpt>
      <trkpt lat="48.27881" lon="1.0305">
        <ele>223.765989</ele>
        <time>2021-09-07T09:37:07.000Z</time>
      </trkpt>
      <trkpt lat="48.27848" lon="1.03111">
        <ele>223.188715</ele>
        <time>2021-09-07T09:37:16.000Z</time>
      </trkpt>
      <trkpt lat="48.27822" lon="1.03165">
        <ele>222.78338</ele>
        <time>2021-09-07T09:37:24.000Z</time>
      </trkpt>
      <trkpt lat="48.27803" lon="1.03212">
        <ele>222.532111</ele>
        <time>2021-09-07T09:37:31.000Z</time>
      </trkpt>
      <trkpt lat="48.27797" lon="1.03231">
        <ele>222.434864</ele>
        <time>2021-09-07T09:37:34.000Z</time>
      </trkpt>
      <trkpt lat="48.27792" lon="1.03243">
        <ele>222.37232</ele>
        <time>2021-09-07T09:37:36.000Z</time>
      </trkpt>
      <trkpt lat="48.27791" lon="1.03249">
        <ele>222.343303</ele>
        <time>2021-09-07T09:37:37.000Z</time>
      </trkpt>
      <trkpt lat="48.27781" lon="1.0329">
        <ele>222.139426</ele>
        <time>2021-09-07T09:37:44.000Z</time>
      </trkpt>
      <trkpt lat="48.27762" lon="1.03356">
        <ele>221.811516</ele>
        <time>2021-09-07T09:37:56.000Z</time>
      </trkpt>
      <trkpt lat="48.27752" lon="1.03391">
        <ele>221.646002</ele>
        <time>2021-09-07T09:38:03.000Z</time>
      </trkpt>
      <trkpt lat="48.2774" lon="1.03438">
        <ele>221.458541</ele>
        <time>2021-09-07T09:38:13.000Z</time>
      </trkpt>
      <trkpt lat="48.27728" lon="1.03484">
        <ele>221.276687</ele>
        <time>2021-09-07T09:38:23.000Z</time>
      </trkpt>
      <trkpt lat="48.27717" lon="1.03523">
        <ele>221.121288</ele>
        <time>2021-09-07T09:38:31.000Z</time>
      </trkpt>
      <trkpt lat="48.27707" lon="1.03565">
        <ele>220.956914</ele>
        <time>2021-09-07T09:38:39.000Z</time>
      </trkpt>
      <trkpt lat="48.27693" lon="1.03616">
        <ele>220.75253</ele>
        <time>2021-09-07T09:38:49.000Z</time>
      </trkpt>
      <trkpt lat="48.27682" lon="1.03655">
        <ele>220.607771</ele>
        <time>2021-09-07T09:38:57.000Z</time>
      </trkpt>
      <trkpt lat="48.27669" lon="1.03708">
        <ele>220.42796</ele>
        <time>2021-09-07T09:39:08.000Z</time>
      </trkpt>
      <trkpt lat="48.27658" lon="1.03747">
        <ele>220.291148</ele>
        <time>2021-09-07T09:39:16.000Z</time>
      </trkpt>
      <trkpt lat="48.27647" lon="1.03789">
        <ele>220.148465</ele>
        <time>2021-09-07T09:39:24.000Z</time>
      </trkpt>
      <trkpt lat="48.27637" lon="1.03826">
        <ele>220.02138</ele>
        <time>2021-09-07T09:39:31.000Z</time>
      </trkpt>
      <trkpt lat="48.27628" lon="1.0387">
        <ele>219.87263</ele>
        <time>2021-09-07T09:39:39.000Z</time>
      </trkpt>
      <trkpt lat="48.27617" lon="1.03928">
        <ele>219.704874</ele>
        <time>2021-09-07T09:39:49.000Z</time>
      </trkpt>
      <trkpt lat="48.27609" lon="1.03976">
        <ele>219.575914</ele>
        <time>2021-09-07T09:39:57.000Z</time>
      </trkpt>
      <trkpt lat="48.27601" lon="1.04021">
        <ele>219.453282</ele>
        <time>2021-09-07T09:40:05.000Z</time>
      </trkpt>
      <trkpt lat="48.27593" lon="1.04074">
        <ele>219.312304</ele>
        <time>2021-09-07T09:40:14.000Z</time>
      </trkpt>
      <trkpt lat="48.27584" lon="1.04121">
        <ele>219.182533</ele>
        <time>2021-09-07T09:40:22.000Z</time>
      </trkpt>
      <trkpt lat="48.27576" lon="1.04169">
        <ele>219.028587</ele>
        <time>2021-09-07T09:40:30.000Z</time>
      </trkpt>
      <trkpt lat="48.27569" lon="1.04212">
        <ele>218.864029</ele>
        <time>2021-09-07T09:40:37.000Z</time>
      </trkpt>
      <trkpt lat="48.2756" lon="1.04263">
        <ele>218.670085</ele>
        <time>2021-09-07T09:40:45.000Z</time>
      </trkpt>
      <trkpt lat="48.2755" lon="1.04314">
        <ele>218.472538</ele>
        <time>2021-09-07T09:40:53.000Z</time>
      </trkpt>
      <trkpt lat="48.27542" lon="1.04358">
        <ele>218.302674</ele>
        <time>2021-09-07T09:41:00.000Z</time>
      </trkpt>
      <trkpt lat="48.27538" lon="1.04392">
        <ele>218.173879</ele>
        <time>2021-09-07T09:41:06.000Z</time>
      </trkpt>
      <trkpt lat="48.27533" lon="1.0442">
        <ele>218.051914</ele>
        <time>2021-09-07T09:41:11.000Z</time>
      </trkpt>
      <trkpt lat="48.2753" lon="1.04465">
        <ele>217.817903</ele>
        <time>2021-09-07T09:41:18.000Z</time>
      </trkpt>
      <trkpt lat="48.27528" lon="1.04508">
        <ele>217.593146</ele>
        <time>2021-09-07T09:41:25.000Z</time>
      </trkpt>
      <trkpt lat="48.27525" lon="1.04548">
        <ele>217.38519</ele>
        <time>2021-09-07T09:41:32.000Z</time>
      </trkpt>
      <trkpt lat="48.27523" lon="1.04594">
        <ele>217.151211</ele>
        <time>2021-09-07T09:41:39.000Z</time>
      </trkpt>
      <trkpt lat="48.2752" lon="1.04637">
        <ele>216.924813</ele>
        <time>2021-09-07T09:41:46.000Z</time>
      </trkpt>
      <trkpt lat="48.27519" lon="1.04677">
        <ele>216.718438</ele>
        <time>2021-09-07T09:41:52.000Z</time>
      </trkpt>
      <trkpt lat="48.27515" lon="1.04731">
        <ele>216.428352</ele>
        <time>2021-09-07T09:42:00.000Z</time>
      </trkpt>
      <trkpt lat="48.27515" lon="1.04738">
        <ele>216.390192</ele>
        <time>2021-09-07T09:42:01.000Z</time>
      </trkpt>
      <trkpt lat="48.27514" lon="1.04772">
        <ele>216.210881</ele>
        <time>2021-09-07T09:42:06.000Z</time>
      </trkpt>
      <trkpt lat="48.27513" lon="1.04797">
        <ele>216.075036</ele>
        <time>2021-09-07T09:42:10.000Z</time>
      </trkpt>
      <trkpt lat="48.2751" lon="1.0481">
        <ele>216.005811</ele>
        <time>2021-09-07T09:42:12.000Z</time>
      </trkpt>
      <trkpt lat="48.27495" lon="1.0486">
        <ele>215.707416</ele>
        <time>2021-09-07T09:42:20.000Z</time>
      </trkpt>
      <trkpt lat="48.27493" lon="1.04866">
        <ele>215.670109</ele>
        <time>2021-09-07T09:42:21.000Z</time>
      </trkpt>
      <trkpt lat="48.27483" lon="1.04897">
        <ele>215.488027</ele>
        <time>2021-09-07T09:42:26.000Z</time>
      </trkpt>
      <trkpt lat="48.27476" lon="1.04919">
        <ele>215.358227</ele>
        <time>2021-09-07T09:42:30.000Z</time>
      </trkpt>
      <trkpt lat="48.27472" lon="1.04937">
        <ele>215.257118</ele>
        <time>2021-09-07T09:42:33.000Z</time>
      </trkpt>
      <trkpt lat="48.27471" lon="1.04943">
        <ele>215.226982</ele>
        <time>2021-09-07T09:42:34.000Z</time>
      </trkpt>
      <trkpt lat="48.2746" lon="1.04973">
        <ele>215.072488</ele>
        <time>2021-09-07T09:42:39.000Z</time>
      </trkpt>
      <trkpt lat="48.2745" lon="1.0501">
        <ele>214.887825</ele>
        <time>2021-09-07T09:42:45.000Z</time>
      </trkpt>
      <trkpt lat="48.27438" lon="1.05062">
        <ele>214.638796</ele>
        <time>2021-09-07T09:42:53.000Z</time>
      </trkpt>
      <trkpt lat="48.27425" lon="1.0512">
        <ele>214.355917</ele>
        <time>2021-09-07T09:43:02.000Z</time>
      </trkpt>
      <trkpt lat="48.27411" lon="1.05173">
        <ele>214.091084</ele>
        <time>2021-09-07T09:43:10.000Z</time>
      </trkpt>
      <trkpt lat="48.27409" lon="1.0518">
        <ele>214.059193</ele>
        <time>2021-09-07T09:43:11.000Z</time>
      </trkpt>
      <trkpt lat="48.27405" lon="1.05214">
        <ele>213.870527</ele>
        <time>2021-09-07T09:43:16.000Z</time>
      </trkpt>
      <trkpt lat="48.27396" lon="1.05267">
        <ele>213.557744</ele>
        <time>2021-09-07T09:43:24.000Z</time>
      </trkpt>
      <trkpt lat="48.27389" lon="1.05313">
        <ele>213.288564</ele>
        <time>2021-09-07T09:43:31.000Z</time>
      </trkpt>
      <trkpt lat="48.27377" lon="1.05379">
        <ele>212.900605</ele>
        <time>2021-09-07T09:43:40.000Z</time>
      </trkpt>
      <trkpt lat="48.27365" lon="1.05434">
        <ele>212.572514</ele>
        <time>2021-09-07T09:43:48.000Z</time>
      </trkpt>
      <trkpt lat="48.27354" lon="1.05486">
        <ele>212.245942</ele>
        <time>2021-09-07T09:43:56.000Z</time>
      </trkpt>
      <trkpt lat="48.27343" lon="1.05547">
        <ele>211.86682</ele>
        <time>2021-09-07T09:44:06.000Z</time>
      </trkpt>
      <trkpt lat="48.27336" lon="1.05596">
        <ele>211.568016</ele>
        <time>2021-09-07T09:44:14.000Z</time>
      </trkpt>
      <trkpt lat="48.27327" lon="1.05657">
        <ele>211.192172</ele>
        <time>2021-09-07T09:44:24.000Z</time>
      </trkpt>
      <trkpt lat="48.27319" lon="1.05711">
        <ele>210.860195</ele>
        <time>2021-09-07T09:44:33.000Z</time>
      </trkpt>
      <trkpt lat="48.27314" lon="1.05764">
        <ele>210.615319</ele>
        <time>2021-09-07T09:44:42.000Z</time>
      </trkpt>
      <trkpt lat="48.27308" lon="1.0581">
        <ele>210.402147</ele>
        <time>2021-09-07T09:44:50.000Z</time>
      </trkpt>
      <trkpt lat="48.273" lon="1.05868">
        <ele>210.131154</ele>
        <time>2021-09-07T09:45:00.000Z</time>
      </trkpt>
      <trkpt lat="48.27292" lon="1.0592">
        <ele>209.88511</ele>
        <time>2021-09-07T09:45:09.000Z</time>
      </trkpt>
      <trkpt lat="48.27286" lon="1.05969">
        <ele>209.656487</ele>
        <time>2021-09-07T09:45:17.000Z</time>
      </trkpt>
      <trkpt lat="48.27277" lon="1.06022">
        <ele>209.465889</ele>
        <time>2021-09-07T09:45:26.000Z</time>
      </trkpt>
      <trkpt lat="48.2727" lon="1.06067">
        <ele>209.311316</ele>
        <time>2021-09-07T09:45:34.000Z</time>
      </trkpt>
      <trkpt lat="48.27262" lon="1.06115">
        <ele>209.14916</ele>
        <time>2021-09-07T09:45:42.000Z</time>
      </trkpt>
      <trkpt lat="48.27248" lon="1.06188">
        <ele>208.893854</ele>
        <time>2021-09-07T09:45:54.000Z</time>
      </trkpt>
      <trkpt lat="48.27237" lon="1.06236">
        <ele>208.727423</ele>
        <time>2021-09-07T09:46:02.000Z</time>
      </trkpt>
      <trkpt lat="48.27227" lon="1.06278">
        <ele>208.405153</ele>
        <time>2021-09-07T09:46:09.000Z</time>
      </trkpt>
      <trkpt lat="48.27219" lon="1.06331">
        <ele>208.008374</ele>
        <time>2021-09-07T09:46:17.000Z</time>
      </trkpt>
      <trkpt lat="48.27215" lon="1.06372">
        <ele>207.713476</ele>
        <time>2021-09-07T09:46:23.000Z</time>
      </trkpt>
      <trkpt lat="48.27214" lon="1.06378">
        <ele>207.665669</ele>
        <time>2021-09-07T09:46:24.000Z</time>
      </trkpt>
      <trkpt lat="48.27211" lon="1.06405">
        <ele>207.467177</ele>
        <time>2021-09-07T09:46:28.000Z</time>
      </trkpt>
      <trkpt lat="48.27206" lon="1.06466">
        <ele>207.023692</ele>
        <time>2021-09-07T09:46:36.000Z</time>
      </trkpt>
      <trkpt lat="48.27199" lon="1.06547">
        <ele>206.302337</ele>
        <time>2021-09-07T09:46:46.000Z</time>
      </trkpt>
      <trkpt lat="48.27198" lon="1.06556">
        <ele>206.220755</ele>
        <time>2021-09-07T09:46:47.000Z</time>
      </trkpt>
      <trkpt lat="48.27193" lon="1.06631">
        <ele>205.473187</ele>
        <time>2021-09-07T09:46:56.000Z</time>
      </trkpt>
      <trkpt lat="48.27188" lon="1.06708">
        <ele>204.703719</ele>
        <time>2021-09-07T09:47:05.000Z</time>
      </trkpt>
      <trkpt lat="48.27183" lon="1.06769">
        <ele>204.093</ele>
        <time>2021-09-07T09:47:12.000Z</time>
      </trkpt>
      <trkpt lat="48.27174" lon="1.06855">
        <ele>203.117907</ele>
        <time>2021-09-07T09:47:22.000Z</time>
      </trkpt>
      <trkpt lat="48.27167" lon="1.06909">
        <ele>202.491061</ele>
        <time>2021-09-07T09:47:29.000Z</time>
      </trkpt>
      <trkpt lat="48.27157" lon="1.06988">
        <ele>201.588094</ele>
        <time>2021-09-07T09:47:39.000Z</time>
      </trkpt>
      <trkpt lat="48.27151" lon="1.07038">
        <ele>201.02713</ele>
        <time>2021-09-07T09:47:45.000Z</time>
      </trkpt>
      <trkpt lat="48.27143" lon="1.07109">
        <ele>200.262769</ele>
        <time>2021-09-07T09:47:53.000Z</time>
      </trkpt>
      <trkpt lat="48.27133" lon="1.0719">
        <ele>199.402217</ele>
        <time>2021-09-07T09:48:01.000Z</time>
      </trkpt>
      <trkpt lat="48.27131" lon="1.072">
        <ele>199.291044</ele>
        <time>2021-09-07T09:48:02.000Z</time>
      </trkpt>
      <trkpt lat="48.27124" lon="1.07246">
        <ele>198.802928</ele>
        <time>2021-09-07T09:48:07.000Z</time>
      </trkpt>
      <trkpt lat="48.27117" lon="1.07284">
        <ele>198.385859</ele>
        <time>2021-09-07T09:48:12.000Z</time>
      </trkpt>
      <trkpt lat="48.27111" lon="1.07334">
        <ele>198.276299</ele>
        <time>2021-09-07T09:48:20.000Z</time>
      </trkpt>
      <trkpt lat="48.27105" lon="1.07374">
        <ele>198.356057</ele>
        <time>2021-09-07T09:48:27.000Z</time>
      </trkpt>
      <trkpt lat="48.271" lon="1.07429">
        <ele>198.465148</ele>
        <time>2021-09-07T09:48:37.000Z</time>
      </trkpt>
      <trkpt lat="48.27096" lon="1.07473">
        <ele>198.550959</ele>
        <time>2021-09-07T09:48:45.000Z</time>
      </trkpt>
      <trkpt lat="48.27091" lon="1.07512">
        <ele>198.628514</ele>
        <time>2021-09-07T09:48:52.000Z</time>
      </trkpt>
      <trkpt lat="48.27084" lon="1.0756">
        <ele>198.725289</ele>
        <time>2021-09-07T09:49:00.000Z</time>
      </trkpt>
      <trkpt lat="48.27075" lon="1.07612">
        <ele>198.778492</ele>
        <time>2021-09-07T09:49:08.000Z</time>
      </trkpt>
      <trkpt lat="48.27068" lon="1.07652">
        <ele>198.813925</ele>
        <time>2021-09-07T09:49:15.000Z</time>
      </trkpt>
      <trkpt lat="48.27062" lon="1.07688">
        <ele>198.847051</ele>
        <time>2021-09-07T09:49:22.000Z</time>
      </trkpt>
      <trkpt lat="48.27052" lon="1.07735">
        <ele>198.889168</ele>
        <time>2021-09-07T09:49:30.000Z</time>
      </trkpt>
      <trkpt lat="48.27044" lon="1.07784">
        <ele>198.933548</ele>
        <time>2021-09-07T09:49:38.000Z</time>
      </trkpt>
      <trkpt lat="48.27035" lon="1.0783">
        <ele>198.96139</ele>
        <time>2021-09-07T09:49:45.000Z</time>
      </trkpt>
      <trkpt lat="48.27026" lon="1.0789">
        <ele>198.762122</ele>
        <time>2021-09-07T09:49:54.000Z</time>
      </trkpt>
      <trkpt lat="48.27019" lon="1.07942">
        <ele>198.592947</ele>
        <time>2021-09-07T09:50:01.000Z</time>
      </trkpt>
      <trkpt lat="48.27009" lon="1.08016">
        <ele>198.346398</ele>
        <time>2021-09-07T09:50:11.000Z</time>
      </trkpt>
      <trkpt lat="48.27001" lon="1.0808">
        <ele>198.136021</ele>
        <time>2021-09-07T09:50:20.000Z</time>
      </trkpt>
      <trkpt lat="48.26993" lon="1.0813">
        <ele>197.817369</ele>
        <time>2021-09-07T09:50:27.000Z</time>
      </trkpt>
      <trkpt lat="48.26992" lon="1.08137">
        <ele>197.768724</ele>
        <time>2021-09-07T09:50:28.000Z</time>
      </trkpt>
      <trkpt lat="48.26986" lon="1.08185">
        <ele>197.423557</ele>
        <time>2021-09-07T09:50:35.000Z</time>
      </trkpt>
      <trkpt lat="48.26985" lon="1.08192">
        <ele>197.37217</ele>
        <time>2021-09-07T09:50:36.000Z</time>
      </trkpt>
      <trkpt lat="48.26981" lon="1.08231">
        <ele>197.097676</ele>
        <time>2021-09-07T09:50:41.000Z</time>
      </trkpt>
      <trkpt lat="48.26977" lon="1.0826">
        <ele>196.887845</ele>
        <time>2021-09-07T09:50:45.000Z</time>
      </trkpt>
      <trkpt lat="48.26976" lon="1.08275">
        <ele>196.780065</ele>
        <time>2021-09-07T09:50:47.000Z</time>
      </trkpt>
      <trkpt lat="48.26973" lon="1.08307">
        <ele>196.555753</ele>
        <time>2021-09-07T09:50:51.000Z</time>
      </trkpt>
      <trkpt lat="48.26971" lon="1.08323">
        <ele>196.435629</ele>
        <time>2021-09-07T09:50:53.000Z</time>
      </trkpt>
      <trkpt lat="48.26966" lon="1.08386">
        <ele>196.711524</ele>
        <time>2021-09-07T09:51:00.000Z</time>
      </trkpt>
      <trkpt lat="48.2696" lon="1.0844">
        <ele>197.706415</ele>
        <time>2021-09-07T09:51:06.000Z</time>
      </trkpt>
      <trkpt lat="48.26956" lon="1.08466">
        <ele>198.185775</ele>
        <time>2021-09-07T09:51:09.000Z</time>
      </trkpt>
      <trkpt lat="48.26952" lon="1.0848">
        <ele>198.475641</ele>
        <time>2021-09-07T09:51:11.000Z</time>
      </trkpt>
      <trkpt lat="48.2694" lon="1.08513">
        <ele>199.158658</ele>
        <time>2021-09-07T09:51:17.000Z</time>
      </trkpt>
      <trkpt lat="48.26931" lon="1.08532">
        <ele>199.572886</ele>
        <time>2021-09-07T09:51:22.000Z</time>
      </trkpt>
      <trkpt lat="48.26923" lon="1.08556">
        <ele>200.061441</ele>
        <time>2021-09-07T09:51:28.000Z</time>
      </trkpt>
      <trkpt lat="48.26917" lon="1.08575">
        <ele>200.440453</ele>
        <time>2021-09-07T09:51:33.000Z</time>
      </trkpt>
      <trkpt lat="48.26909" lon="1.08596">
        <ele>200.886468</ele>
        <time>2021-09-07T09:51:39.000Z</time>
      </trkpt>
      <trkpt lat="48.26897" lon="1.08624">
        <ele>202.4024</ele>
        <time>2021-09-07T09:51:47.000Z</time>
      </trkpt>
      <trkpt lat="48.26887" lon="1.08646">
        <ele>204.076157</ele>
        <time>2021-09-07T09:51:54.000Z</time>
      </trkpt>
      <trkpt lat="48.26878" lon="1.08665">
        <ele>205.433292</ele>
        <time>2021-09-07T09:52:00.000Z</time>
      </trkpt>
      <trkpt lat="48.26871" lon="1.0868">
        <ele>206.555998</ele>
        <time>2021-09-07T09:52:05.000Z</time>
      </trkpt>
      <trkpt lat="48.2686" lon="1.08703">
        <ele>208.334946</ele>
        <time>2021-09-07T09:52:12.000Z</time>
      </trkpt>
      <trkpt lat="48.26848" lon="1.0872">
        <ele>209.894169</ele>
        <time>2021-09-07T09:52:17.000Z</time>
      </trkpt>
      <trkpt lat="48.26839" lon="1.08734">
        <ele>211.015346</ele>
        <time>2021-09-07T09:52:21.000Z</time>
      </trkpt>
      <trkpt lat="48.26827" lon="1.08753">
        <ele>212.680894</ele>
        <time>2021-09-07T09:52:27.000Z</time>
      </trkpt>
      <trkpt lat="48.26815" lon="1.08775">
        <ele>214.404008</ele>
        <time>2021-09-07T09:52:33.000Z</time>
      </trkpt>
      <trkpt lat="48.26803" lon="1.08792">
        <ele>215.946186</ele>
        <time>2021-09-07T09:52:38.000Z</time>
      </trkpt>
      <trkpt lat="48.26794" lon="1.08808">
        <ele>217.172261</ele>
        <time>2021-09-07T09:52:42.000Z</time>
      </trkpt>
      <trkpt lat="48.26774" lon="1.08838">
        <ele>220.147888</ele>
        <time>2021-09-07T09:52:48.000Z</time>
      </trkpt>
      <trkpt lat="48.2676" lon="1.08858">
        <ele>222.253716</ele>
        <time>2021-09-07T09:52:53.000Z</time>
      </trkpt>
      <trkpt lat="48.26757" lon="1.08865">
        <ele>222.948659</ele>
        <time>2021-09-07T09:52:55.000Z</time>
      </trkpt>
      <trkpt lat="48.26754" lon="1.0887">
        <ele>223.422749</ele>
        <time>2021-09-07T09:52:56.000Z</time>
      </trkpt>
      <trkpt lat="48.2675" lon="1.08876">
        <ele>223.967357</ele>
        <time>2021-09-07T09:52:57.000Z</time>
      </trkpt>
      <trkpt lat="48.26743" lon="1.08886">
        <ele>225.043083</ele>
        <time>2021-09-07T09:52:59.000Z</time>
      </trkpt>
      <trkpt lat="48.26737" lon="1.08896">
        <ele>226.036835</ele>
        <time>2021-09-07T09:53:01.000Z</time>
      </trkpt>
      <trkpt lat="48.26727" lon="1.08913">
        <ele>227.704748</ele>
        <time>2021-09-07T09:53:05.000Z</time>
      </trkpt>
      <trkpt lat="48.2671" lon="1.08941">
        <ele>230.389613</ele>
        <time>2021-09-07T09:53:10.000Z</time>
      </trkpt>
      <trkpt lat="48.26704" lon="1.08953">
        <ele>231.51906</ele>
        <time>2021-09-07T09:53:12.000Z</time>
      </trkpt>
      <trkpt lat="48.26695" lon="1.08969">
        <ele>233.03499</ele>
        <time>2021-09-07T09:53:15.000Z</time>
      </trkpt>
      <trkpt lat="48.26682" lon="1.08994">
        <ele>235.292902</ele>
        <time>2021-09-07T09:53:20.000Z</time>
      </trkpt>
      <trkpt lat="48.26667" lon="1.09018">
        <ele>237.759157</ele>
        <time>2021-09-07T09:53:25.000Z</time>
      </trkpt>
      <trkpt lat="48.26664" lon="1.09023">
        <ele>238.256319</ele>
        <time>2021-09-07T09:53:26.000Z</time>
      </trkpt>
      <trkpt lat="48.26653" lon="1.09046">
        <ele>240.454508</ele>
        <time>2021-09-07T09:53:30.000Z</time>
      </trkpt>
      <trkpt lat="48.26645" lon="1.09057">
        <ele>241.605748</ele>
        <time>2021-09-07T09:53:32.000Z</time>
      </trkpt>
      <trkpt lat="48.26634" lon="1.09076">
        <ele>243.579512</ele>
        <time>2021-09-07T09:53:35.000Z</time>
      </trkpt>
      <trkpt lat="48.26611" lon="1.09116">
        <ele>247.534295</ele>
        <time>2021-09-07T09:53:42.000Z</time>
      </trkpt>
      <trkpt lat="48.26601" lon="1.09135">
        <ele>249.434558</ele>
        <time>2021-09-07T09:53:46.000Z</time>
      </trkpt>
      <trkpt lat="48.26595" lon="1.09146">
        <ele>250.41572</ele>
        <time>2021-09-07T09:53:48.000Z</time>
      </trkpt>
      <trkpt lat="48.26592" lon="1.0915">
        <ele>250.882843</ele>
        <time>2021-09-07T09:53:49.000Z</time>
      </trkpt>
      <trkpt lat="48.2659" lon="1.09154">
        <ele>251.306765</ele>
        <time>2021-09-07T09:53:50.000Z</time>
      </trkpt>
      <trkpt lat="48.2658" lon="1.09175">
        <ele>253.277957</ele>
        <time>2021-09-07T09:53:54.000Z</time>
      </trkpt>
      <trkpt lat="48.26567" lon="1.09203">
        <ele>255.85981</ele>
        <time>2021-09-07T09:53:59.000Z</time>
      </trkpt>
      <trkpt lat="48.26557" lon="1.09218">
        <ele>257.509929</ele>
        <time>2021-09-07T09:54:02.000Z</time>
      </trkpt>
      <trkpt lat="48.26551" lon="1.09228">
        <ele>258.160431</ele>
        <time>2021-09-07T09:54:04.000Z</time>
      </trkpt>
      <trkpt lat="48.26539" lon="1.09248">
        <ele>259.283923</ele>
        <time>2021-09-07T09:54:08.000Z</time>
      </trkpt>
      <trkpt lat="48.26534" lon="1.0926">
        <ele>259.866341</ele>
        <time>2021-09-07T09:54:10.000Z</time>
      </trkpt>
      <trkpt lat="48.26524" lon="1.09277">
        <ele>260.787535</ele>
        <time>2021-09-07T09:54:13.000Z</time>
      </trkpt>
      <trkpt lat="48.26521" lon="1.09283">
        <ele>261.106839</ele>
        <time>2021-09-07T09:54:14.000Z</time>
      </trkpt>
      <trkpt lat="48.26513" lon="1.09305">
        <ele>262.162583</ele>
        <time>2021-09-07T09:54:17.000Z</time>
      </trkpt>
      <trkpt lat="48.26501" lon="1.09336">
        <ele>263.660992</ele>
        <time>2021-09-07T09:54:21.000Z</time>
      </trkpt>
      <trkpt lat="48.26494" lon="1.09361">
        <ele>264.760655</ele>
        <time>2021-09-07T09:54:24.000Z</time>
      </trkpt>
      <trkpt lat="48.26487" lon="1.09369">
        <ele>265.318034</ele>
        <time>2021-09-07T09:54:26.000Z</time>
      </trkpt>
      <trkpt lat="48.26485" lon="1.09374">
        <ele>265.588298</ele>
        <time>2021-09-07T09:54:27.000Z</time>
      </trkpt>
      <trkpt lat="48.26476" lon="1.09394">
        <ele>266.561738</ele>
        <time>2021-09-07T09:54:30.000Z</time>
      </trkpt>
      <trkpt lat="48.26472" lon="1.09402">
        <ele>266.974302</ele>
        <time>2021-09-07T09:54:31.000Z</time>
      </trkpt>
      <trkpt lat="48.26463" lon="1.09418">
        <ele>267.85144</ele>
        <time>2021-09-07T09:54:33.000Z</time>
      </trkpt>
      <trkpt lat="48.26459" lon="1.09427">
        <ele>268.330171</ele>
        <time>2021-09-07T09:54:34.000Z</time>
      </trkpt>
      <trkpt lat="48.26454" lon="1.09436">
        <ele>268.797755</ele>
        <time>2021-09-07T09:54:35.000Z</time>
      </trkpt>
      <trkpt lat="48.26438" lon="1.09475">
        <ele>268.793668</ele>
        <time>2021-09-07T09:54:39.000Z</time>
      </trkpt>
      <trkpt lat="48.26435" lon="1.09486">
        <ele>268.733313</ele>
        <time>2021-09-07T09:54:40.000Z</time>
      </trkpt>
      <trkpt lat="48.26427" lon="1.09504">
        <ele>268.631376</ele>
        <time>2021-09-07T09:54:42.000Z</time>
      </trkpt>
      <trkpt lat="48.26424" lon="1.09512">
        <ele>268.579634</ele>
        <time>2021-09-07T09:54:43.000Z</time>
      </trkpt>
      <trkpt lat="48.26416" lon="1.09529">
        <ele>268.483134</ele>
        <time>2021-09-07T09:54:45.000Z</time>
      </trkpt>
      <trkpt lat="48.26409" lon="1.09544">
        <ele>268.389804</ele>
        <time>2021-09-07T09:54:47.000Z</time>
      </trkpt>
      <trkpt lat="48.26396" lon="1.0957">
        <ele>268.22688</ele>
        <time>2021-09-07T09:54:50.000Z</time>
      </trkpt>
      <trkpt lat="48.26392" lon="1.09591">
        <ele>268.120922</ele>
        <time>2021-09-07T09:54:52.000Z</time>
      </trkpt>
      <trkpt lat="48.2639" lon="1.09628">
        <ele>267.937426</ele>
        <time>2021-09-07T09:54:56.000Z</time>
      </trkpt>
      <trkpt lat="48.26392" lon="1.0966">
        <ele>267.779503</ele>
        <time>2021-09-07T09:54:59.000Z</time>
      </trkpt>
      <trkpt lat="48.26392" lon="1.09678">
        <ele>267.690214</ele>
        <time>2021-09-07T09:55:01.000Z</time>
      </trkpt>
      <trkpt lat="48.26394" lon="1.09722">
        <ele>264.224496</ele>
        <time>2021-09-07T09:55:06.000Z</time>
      </trkpt>
      <trkpt lat="48.26401" lon="1.09786">
        <ele>258.37592</ele>
        <time>2021-09-07T09:55:12.000Z</time>
      </trkpt>
      <trkpt lat="48.26402" lon="1.09798">
        <ele>257.32878</ele>
        <time>2021-09-07T09:55:13.000Z</time>
      </trkpt>
      <trkpt lat="48.26403" lon="1.09823">
        <ele>255.10664</ele>
        <time>2021-09-07T09:55:16.000Z</time>
      </trkpt>
      <trkpt lat="48.26404" lon="1.09868">
        <ele>250.992838</ele>
        <time>2021-09-07T09:55:22.000Z</time>
      </trkpt>
      <trkpt lat="48.26404" lon="1.09928">
        <ele>245.659289</ele>
        <time>2021-09-07T09:55:29.000Z</time>
      </trkpt>
      <trkpt lat="48.26402" lon="1.09953">
        <ele>243.364293</ele>
        <time>2021-09-07T09:55:32.000Z</time>
      </trkpt>
      <trkpt lat="48.26402" lon="1.0997">
        <ele>241.753122</ele>
        <time>2021-09-07T09:55:34.000Z</time>
      </trkpt>
      <trkpt lat="48.26401" lon="1.10025">
        <ele>236.414881</ele>
        <time>2021-09-07T09:55:41.000Z</time>
      </trkpt>
      <trkpt lat="48.26401" lon="1.10069">
        <ele>232.106183</ele>
        <time>2021-09-07T09:55:48.000Z</time>
      </trkpt>
      <trkpt lat="48.264" lon="1.10111">
        <ele>228.021108</ele>
        <time>2021-09-07T09:55:56.000Z</time>
      </trkpt>
      <trkpt lat="48.264" lon="1.1015">
        <ele>224.236967</ele>
        <time>2021-09-07T09:56:04.000Z</time>
      </trkpt>
      <trkpt lat="48.264" lon="1.1019">
        <ele>220.394754</ele>
        <time>2021-09-07T09:56:12.000Z</time>
      </trkpt>
      <trkpt lat="48.26402" lon="1.10237">
        <ele>216.532402</ele>
        <time>2021-09-07T09:56:21.000Z</time>
      </trkpt>
      <trkpt lat="48.26404" lon="1.10282">
        <ele>214.36999</ele>
        <time>2021-09-07T09:56:30.000Z</time>
      </trkpt>
      <trkpt lat="48.26407" lon="1.10332">
        <ele>211.96446</ele>
        <time>2021-09-07T09:56:39.000Z</time>
      </trkpt>
      <trkpt lat="48.2641" lon="1.10381">
        <ele>209.611748</ele>
        <time>2021-09-07T09:56:47.000Z</time>
      </trkpt>
      <trkpt lat="48.26412" lon="1.10406">
        <ele>208.411019</ele>
        <time>2021-09-07T09:56:51.000Z</time>
      </trkpt>
      <trkpt lat="48.26412" lon="1.10426">
        <ele>207.485836</ele>
        <time>2021-09-07T09:56:54.000Z</time>
      </trkpt>
      <trkpt lat="48.26416" lon="1.10477">
        <ele>205.015189</ele>
        <time>2021-09-07T09:57:02.000Z</time>
      </trkpt>
      <trkpt lat="48.26419" lon="1.1053">
        <ele>203.429234</ele>
        <time>2021-09-07T09:57:10.000Z</time>
      </trkpt>
      <trkpt lat="48.26422" lon="1.10584">
        <ele>202.176709</ele>
        <time>2021-09-07T09:57:18.000Z</time>
      </trkpt>
      <trkpt lat="48.26428" lon="1.10657">
        <ele>200.49348</ele>
        <time>2021-09-07T09:57:28.000Z</time>
      </trkpt>
      <trkpt lat="48.26436" lon="1.10702">
        <ele>199.421923</ele>
        <time>2021-09-07T09:57:34.000Z</time>
      </trkpt>
      <trkpt lat="48.2645" lon="1.10765">
        <ele>197.969059</ele>
        <time>2021-09-07T09:57:43.000Z</time>
      </trkpt>
      <trkpt lat="48.26463" lon="1.10829">
        <ele>197.117897</ele>
        <time>2021-09-07T09:57:52.000Z</time>
      </trkpt>
      <trkpt lat="48.26469" lon="1.10857">
        <ele>196.749865</ele>
        <time>2021-09-07T09:57:56.000Z</time>
      </trkpt>
      <trkpt lat="48.26472" lon="1.1087">
        <ele>196.575444</ele>
        <time>2021-09-07T09:57:58.000Z</time>
      </trkpt>
      <trkpt lat="48.2648" lon="1.10911">
        <ele>196.03026</ele>
        <time>2021-09-07T09:58:04.000Z</time>
      </trkpt>
      <trkpt lat="48.26488" lon="1.10968">
        <ele>195.295047</ele>
        <time>2021-09-07T09:58:12.000Z</time>
      </trkpt>
      <trkpt lat="48.2649" lon="1.1102">
        <ele>194.648396</ele>
        <time>2021-09-07T09:58:19.000Z</time>
      </trkpt>
      <trkpt lat="48.26489" lon="1.11069">
        <ele>194.245848</ele>
        <time>2021-09-07T09:58:26.000Z</time>
      </trkpt>
      <trkpt lat="48.26487" lon="1.11122">
        <ele>193.815027</ele>
        <time>2021-09-07T09:58:33.000Z</time>
      </trkpt>
      <trkpt lat="48.26487" lon="1.11129">
        <ele>193.754249</ele>
        <time>2021-09-07T09:58:34.000Z</time>
      </trkpt>
      <trkpt lat="48.26487" lon="1.1118">
        <ele>193.337514</ele>
        <time>2021-09-07T09:58:40.000Z</time>
      </trkpt>
      <trkpt lat="48.26488" lon="1.11189">
        <ele>193.266875</ele>
        <time>2021-09-07T09:58:41.000Z</time>
      </trkpt>
      <trkpt lat="48.26491" lon="1.11222">
        <ele>192.996774</ele>
        <time>2021-09-07T09:58:45.000Z</time>
      </trkpt>
      <trkpt lat="48.26492" lon="1.11229">
        <ele>192.932813</ele>
        <time>2021-09-07T09:58:46.000Z</time>
      </trkpt>
      <trkpt lat="48.26501" lon="1.11291">
        <ele>192.401554</ele>
        <time>2021-09-07T09:58:53.000Z</time>
      </trkpt>
      <trkpt lat="48.26512" lon="1.11356">
        <ele>191.607601</ele>
        <time>2021-09-07T09:59:00.000Z</time>
      </trkpt>
      <trkpt lat="48.26525" lon="1.11443">
        <ele>190.556655</ele>
        <time>2021-09-07T09:59:09.000Z</time>
      </trkpt>
      <trkpt lat="48.26537" lon="1.11519">
        <ele>189.630885</ele>
        <time>2021-09-07T09:59:17.000Z</time>
      </trkpt>
      <trkpt lat="48.26548" lon="1.11583">
        <ele>188.932794</ele>
        <time>2021-09-07T09:59:24.000Z</time>
      </trkpt>
      <trkpt lat="48.26558" lon="1.11638">
        <ele>188.377026</ele>
        <time>2021-09-07T09:59:31.000Z</time>
      </trkpt>
      <trkpt lat="48.26574" lon="1.11715">
        <ele>187.604613</ele>
        <time>2021-09-07T09:59:42.000Z</time>
      </trkpt>
      <trkpt lat="48.26578" lon="1.11741">
        <ele>187.343817</ele>
        <time>2021-09-07T09:59:46.000Z</time>
      </trkpt>
      <trkpt lat="48.26581" lon="1.11753">
        <ele>187.214127</ele>
        <time>2021-09-07T09:59:48.000Z</time>
      </trkpt>
      <trkpt lat="48.26582" lon="1.1176">
        <ele>187.14804</ele>
        <time>2021-09-07T09:59:49.000Z</time>
      </trkpt>
      <trkpt lat="48.2659" lon="1.11797">
        <ele>186.771571</ele>
        <time>2021-09-07T09:59:55.000Z</time>
      </trkpt>
      <trkpt lat="48.26598" lon="1.11836">
        <ele>186.551262</ele>
        <time>2021-09-07T10:00:02.000Z</time>
      </trkpt>
      <trkpt lat="48.26608" lon="1.11886">
        <ele>186.364787</ele>
        <time>2021-09-07T10:00:11.000Z</time>
      </trkpt>
      <trkpt lat="48.26622" lon="1.11936">
        <ele>186.168837</ele>
        <time>2021-09-07T10:00:20.000Z</time>
      </trkpt>
      <trkpt lat="48.26638" lon="1.11988">
        <ele>185.965288</ele>
        <time>2021-09-07T10:00:29.000Z</time>
      </trkpt>
      <trkpt lat="48.26651" lon="1.1203">
        <ele>185.799072</ele>
        <time>2021-09-07T10:00:36.000Z</time>
      </trkpt>
      <trkpt lat="48.2666" lon="1.12061">
        <ele>185.67779</ele>
        <time>2021-09-07T10:00:41.000Z</time>
      </trkpt>
      <trkpt lat="48.26668" lon="1.12082">
        <ele>185.585368</ele>
        <time>2021-09-07T10:00:45.000Z</time>
      </trkpt>
      <trkpt lat="48.2668" lon="1.12109">
        <ele>185.463618</ele>
        <time>2021-09-07T10:00:50.000Z</time>
      </trkpt>
      <trkpt lat="48.26687" lon="1.1212">
        <ele>185.410084</ele>
        <time>2021-09-07T10:00:52.000Z</time>
      </trkpt>
      <trkpt lat="48.26715" lon="1.12161">
        <ele>185.190904</ele>
        <time>2021-09-07T10:01:00.000Z</time>
      </trkpt>
      <trkpt lat="48.26748" lon="1.12201">
        <ele>184.95043</ele>
        <time>2021-09-07T10:01:08.000Z</time>
      </trkpt>
      <trkpt lat="48.26775" lon="1.12231">
        <ele>184.766254</ele>
        <time>2021-09-07T10:01:14.000Z</time>
      </trkpt>
      <trkpt lat="48.26793" lon="1.12249">
        <ele>184.603909</ele>
        <time>2021-09-07T10:01:18.000Z</time>
      </trkpt>
      <trkpt lat="48.26807" lon="1.12261">
        <ele>184.423005</ele>
        <time>2021-09-07T10:01:21.000Z</time>
      </trkpt>
      <trkpt lat="48.26849" lon="1.12301">
        <ele>183.860455</ele>
        <time>2021-09-07T10:01:30.000Z</time>
      </trkpt>
      <trkpt lat="48.26878" lon="1.12341">
        <ele>183.417436</ele>
        <time>2021-09-07T10:01:37.000Z</time>
      </trkpt>
      <trkpt lat="48.26903" lon="1.12395">
        <ele>182.926977</ele>
        <time>2021-09-07T10:01:44.000Z</time>
      </trkpt>
      <trkpt lat="48.26917" lon="1.1245">
        <ele>182.408722</ele>
        <time>2021-09-07T10:01:50.000Z</time>
      </trkpt>
      <trkpt lat="48.26924" lon="1.12512">
        <ele>181.726465</ele>
        <time>2021-09-07T10:01:56.000Z</time>
      </trkpt>
      <trkpt lat="48.26933" lon="1.12594">
        <ele>180.814008</ele>
        <time>2021-09-07T10:02:04.000Z</time>
      </trkpt>
      <trkpt lat="48.26934" lon="1.12604">
        <ele>180.703606</ele>
        <time>2021-09-07T10:02:05.000Z</time>
      </trkpt>
      <trkpt lat="48.26942" lon="1.12682">
        <ele>179.845543</ele>
        <time>2021-09-07T10:02:13.000Z</time>
      </trkpt>
      <trkpt lat="48.2695" lon="1.12742">
        <ele>179.275162</ele>
        <time>2021-09-07T10:02:20.000Z</time>
      </trkpt>
      <trkpt lat="48.26957" lon="1.12807">
        <ele>178.684932</ele>
        <time>2021-09-07T10:02:28.000Z</time>
      </trkpt>
      <trkpt lat="48.26966" lon="1.12886">
        <ele>177.964728</ele>
        <time>2021-09-07T10:02:38.000Z</time>
      </trkpt>
      <trkpt lat="48.26986" lon="1.12962">
        <ele>177.296608</ele>
        <time>2021-09-07T10:02:48.000Z</time>
      </trkpt>
      <trkpt lat="48.27009" lon="1.13015">
        <ele>177.424462</ele>
        <time>2021-09-07T10:02:56.000Z</time>
      </trkpt>
      <trkpt lat="48.27033" lon="1.13062">
        <ele>177.544869</ele>
        <time>2021-09-07T10:03:04.000Z</time>
      </trkpt>
      <trkpt lat="48.2704" lon="1.13077">
        <ele>177.581954</ele>
        <time>2021-09-07T10:03:07.000Z</time>
      </trkpt>
      <trkpt lat="48.27046" lon="1.13092">
        <ele>177.61701</ele>
        <time>2021-09-07T10:03:10.000Z</time>
      </trkpt>
      <trkpt lat="48.27061" lon="1.13125">
        <ele>177.697783</ele>
        <time>2021-09-07T10:03:18.000Z</time>
      </trkpt>
      <trkpt lat="48.27073" lon="1.13156">
        <ele>177.770688</ele>
        <time>2021-09-07T10:03:26.000Z</time>
      </trkpt>
      <trkpt lat="48.27083" lon="1.13184">
        <ele>177.868933</ele>
        <time>2021-09-07T10:03:34.000Z</time>
      </trkpt>
      <trkpt lat="48.27096" lon="1.13216">
        <ele>178.736484</ele>
        <time>2021-09-07T10:03:43.000Z</time>
      </trkpt>
      <trkpt lat="48.27108" lon="1.13246">
        <ele>179.570467</ele>
        <time>2021-09-07T10:03:52.000Z</time>
      </trkpt>
      <trkpt lat="48.27119" lon="1.1327">
        <ele>180.284242</ele>
        <time>2021-09-07T10:04:00.000Z</time>
      </trkpt>
      <trkpt lat="48.27129" lon="1.13292">
        <ele>180.90631</ele>
        <time>2021-09-07T10:04:07.000Z</time>
      </trkpt>
      <trkpt lat="48.2714" lon="1.13315">
        <ele>181.604403</ele>
        <time>2021-09-07T10:04:15.000Z</time>
      </trkpt>
      <trkpt lat="48.27151" lon="1.13334">
        <ele>182.179969</ele>
        <time>2021-09-07T10:04:22.000Z</time>
      </trkpt>
      <trkpt lat="48.27158" lon="1.13352">
        <ele>182.705287</ele>
        <time>2021-09-07T10:04:28.000Z</time>
      </trkpt>
      <trkpt lat="48.27169" lon="1.13372">
        <ele>183.316582</ele>
        <time>2021-09-07T10:04:35.000Z</time>
      </trkpt>
      <trkpt lat="48.2718" lon="1.13392">
        <ele>183.930009</ele>
        <time>2021-09-07T10:04:42.000Z</time>
      </trkpt>
      <trkpt lat="48.27189" lon="1.13408">
        <ele>184.361667</ele>
        <time>2021-09-07T10:04:48.000Z</time>
      </trkpt>
      <trkpt lat="48.27197" lon="1.13421">
        <ele>184.601292</ele>
        <time>2021-09-07T10:04:53.000Z</time>
      </trkpt>
      <trkpt lat="48.2721" lon="1.13441">
        <ele>184.949744</ele>
        <time>2021-09-07T10:05:00.000Z</time>
      </trkpt>
      <trkpt lat="48.27221" lon="1.13453">
        <ele>185.211258</ele>
        <time>2021-09-07T10:05:06.000Z</time>
      </trkpt>
      <trkpt lat="48.27237" lon="1.13474">
        <ele>185.621091</ele>
        <time>2021-09-07T10:05:14.000Z</time>
      </trkpt>
      <trkpt lat="48.27248" lon="1.1349">
        <ele>185.911354</ele>
        <time>2021-09-07T10:05:20.000Z</time>
      </trkpt>
      <trkpt lat="48.27257" lon="1.13505">
        <ele>186.186745</ele>
        <time>2021-09-07T10:05:25.000Z</time>
      </trkpt>
      <trkpt lat="48.2727" lon="1.13525">
        <ele>186.543873</ele>
        <time>2021-09-07T10:05:31.000Z</time>
      </trkpt>
      <trkpt lat="48.27284" lon="1.13545">
        <ele>186.905531</ele>
        <time>2021-09-07T10:05:37.000Z</time>
      </trkpt>
      <trkpt lat="48.27303" lon="1.1357">
        <ele>187.401313</ele>
        <time>2021-09-07T10:05:45.000Z</time>
      </trkpt>
      <trkpt lat="48.27322" lon="1.13593">
        <ele>187.866463</ele>
        <time>2021-09-07T10:05:52.000Z</time>
      </trkpt>
      <trkpt lat="48.27332" lon="1.13609">
        <ele>188.13577</ele>
        <time>2021-09-07T10:05:56.000Z</time>
      </trkpt>
      <trkpt lat="48.27347" lon="1.13633">
        <ele>188.559476</ele>
        <time>2021-09-07T10:06:02.000Z</time>
      </trkpt>
      <trkpt lat="48.27369" lon="1.13662">
        <ele>189.091491</ele>
        <time>2021-09-07T10:06:09.000Z</time>
      </trkpt>
      <trkpt lat="48.27389" lon="1.13691">
        <ele>189.624493</ele>
        <time>2021-09-07T10:06:16.000Z</time>
      </trkpt>
      <trkpt lat="48.27407" lon="1.13716">
        <ele>190.074415</ele>
        <time>2021-09-07T10:06:22.000Z</time>
      </trkpt>
      <trkpt lat="48.27419" lon="1.13734">
        <ele>190.384653</ele>
        <time>2021-09-07T10:06:26.000Z</time>
      </trkpt>
      <trkpt lat="48.27427" lon="1.13747">
        <ele>190.618283</ele>
        <time>2021-09-07T10:06:29.000Z</time>
      </trkpt>
      <trkpt lat="48.27434" lon="1.13756">
        <ele>190.77713</ele>
        <time>2021-09-07T10:06:31.000Z</time>
      </trkpt>
      <trkpt lat="48.2745" lon="1.13777">
        <ele>191.138847</ele>
        <time>2021-09-07T10:06:36.000Z</time>
      </trkpt>
      <trkpt lat="48.27461" lon="1.13794">
        <ele>191.224957</ele>
        <time>2021-09-07T10:06:40.000Z</time>
      </trkpt>
      <trkpt lat="48.27465" lon="1.13798">
        <ele>191.2484</ele>
        <time>2021-09-07T10:06:41.000Z</time>
      </trkpt>
      <trkpt lat="48.27485" lon="1.13826">
        <ele>191.392011</ele>
        <time>2021-09-07T10:06:47.000Z</time>
      </trkpt>
      <trkpt lat="48.27512" lon="1.13863">
        <ele>191.57967</ele>
        <time>2021-09-07T10:06:54.000Z</time>
      </trkpt>
      <trkpt lat="48.27526" lon="1.13883">
        <ele>191.685112</ele>
        <time>2021-09-07T10:06:58.000Z</time>
      </trkpt>
      <trkpt lat="48.27538" lon="1.13898">
        <ele>191.764376</ele>
        <time>2021-09-07T10:07:01.000Z</time>
      </trkpt>
      <trkpt lat="48.27549" lon="1.13915">
        <ele>191.845557</ele>
        <time>2021-09-07T10:07:04.000Z</time>
      </trkpt>
      <trkpt lat="48.2756" lon="1.13932">
        <ele>191.927879</ele>
        <time>2021-09-07T10:07:07.000Z</time>
      </trkpt>
      <trkpt lat="48.27567" lon="1.13943">
        <ele>191.983077</ele>
        <time>2021-09-07T10:07:09.000Z</time>
      </trkpt>
      <trkpt lat="48.27586" lon="1.1397">
        <ele>192.127265</ele>
        <time>2021-09-07T10:07:14.000Z</time>
      </trkpt>
      <trkpt lat="48.27593" lon="1.13981">
        <ele>192.186561</ele>
        <time>2021-09-07T10:07:16.000Z</time>
      </trkpt>
      <trkpt lat="48.2761" lon="1.14004">
        <ele>192.32207</ele>
        <time>2021-09-07T10:07:21.000Z</time>
      </trkpt>
      <trkpt lat="48.27632" lon="1.14032">
        <ele>192.493545</ele>
        <time>2021-09-07T10:07:27.000Z</time>
      </trkpt>
      <trkpt lat="48.27635" lon="1.14038">
        <ele>192.522329</ele>
        <time>2021-09-07T10:07:28.000Z</time>
      </trkpt>
      <trkpt lat="48.27642" lon="1.14049">
        <ele>192.58093</ele>
        <time>2021-09-07T10:07:30.000Z</time>
      </trkpt>
      <trkpt lat="48.27656" lon="1.14069">
        <ele>192.692321</ele>
        <time>2021-09-07T10:07:34.000Z</time>
      </trkpt>
      <trkpt lat="48.27663" lon="1.14078">
        <ele>192.750485</ele>
        <time>2021-09-07T10:07:36.000Z</time>
      </trkpt>
      <trkpt lat="48.27667" lon="1.14084">
        <ele>192.780759</ele>
        <time>2021-09-07T10:07:37.000Z</time>
      </trkpt>
      <trkpt lat="48.27697" lon="1.14127">
        <ele>193.027806</ele>
        <time>2021-09-07T10:07:45.000Z</time>
      </trkpt>
      <trkpt lat="48.27722" lon="1.1416">
        <ele>193.160597</ele>
        <time>2021-09-07T10:07:51.000Z</time>
      </trkpt>
      <trkpt lat="48.27758" lon="1.14213">
        <ele>193.269419</ele>
        <time>2021-09-07T10:08:00.000Z</time>
      </trkpt>
      <trkpt lat="48.27796" lon="1.14268">
        <ele>193.38236</ele>
        <time>2021-09-07T10:08:09.000Z</time>
      </trkpt>
      <trkpt lat="48.27831" lon="1.14319">
        <ele>193.486098</ele>
        <time>2021-09-07T10:08:17.000Z</time>
      </trkpt>
      <trkpt lat="48.2784" lon="1.14331">
        <ele>193.50855</ele>
        <time>2021-09-07T10:08:19.000Z</time>
      </trkpt>
      <trkpt lat="48.27852" lon="1.14348">
        <ele>193.423921</ele>
        <time>2021-09-07T10:08:22.000Z</time>
      </trkpt>
      <trkpt lat="48.27881" lon="1.1439">
        <ele>193.222372</ele>
        <time>2021-09-07T10:08:29.000Z</time>
      </trkpt>
      <trkpt lat="48.27889" lon="1.14402">
        <ele>193.163952</ele>
        <time>2021-09-07T10:08:31.000Z</time>
      </trkpt>
      <trkpt lat="48.27903" lon="1.14422">
        <ele>193.067341</ele>
        <time>2021-09-07T10:08:34.000Z</time>
      </trkpt>
      <trkpt lat="48.27921" lon="1.14448">
        <ele>192.938541</ele>
        <time>2021-09-07T10:08:38.000Z</time>
      </trkpt>
      <trkpt lat="48.2793" lon="1.14461">
        <ele>192.87426</ele>
        <time>2021-09-07T10:08:40.000Z</time>
      </trkpt>
      <trkpt lat="48.2796" lon="1.14504">
        <ele>192.666853</ele>
        <time>2021-09-07T10:08:47.000Z</time>
      </trkpt>
      <trkpt lat="48.27991" lon="1.14547">
        <ele>192.271966</ele>
        <time>2021-09-07T10:08:54.000Z</time>
      </trkpt>
      <trkpt lat="48.28" lon="1.14561">
        <ele>192.126612</ele>
        <time>2021-09-07T10:08:56.000Z</time>
      </trkpt>
      <trkpt lat="48.28009" lon="1.14575">
        <ele>191.984374</ele>
        <time>2021-09-07T10:08:58.000Z</time>
      </trkpt>
      <trkpt lat="48.28036" lon="1.14614">
        <ele>191.56481</ele>
        <time>2021-09-07T10:09:04.000Z</time>
      </trkpt>
      <trkpt lat="48.28059" lon="1.14647">
        <ele>191.203567</ele>
        <time>2021-09-07T10:09:09.000Z</time>
      </trkpt>
      <trkpt lat="48.2809" lon="1.14691">
        <ele>190.732044</ele>
        <time>2021-09-07T10:09:15.000Z</time>
      </trkpt>
      <trkpt lat="48.28115" lon="1.14727">
        <ele>190.257853</ele>
        <time>2021-09-07T10:09:20.000Z</time>
      </trkpt>
      <trkpt lat="48.28126" lon="1.14741">
        <ele>190.049777</ele>
        <time>2021-09-07T10:09:22.000Z</time>
      </trkpt>
      <trkpt lat="48.28147" lon="1.1477">
        <ele>189.625942</ele>
        <time>2021-09-07T10:09:26.000Z</time>
      </trkpt>
      <trkpt lat="48.28152" lon="1.14777">
        <ele>189.520152</ele>
        <time>2021-09-07T10:09:27.000Z</time>
      </trkpt>
      <trkpt lat="48.28184" lon="1.14824">
        <ele>188.868401</ele>
        <time>2021-09-07T10:09:33.000Z</time>
      </trkpt>
      <trkpt lat="48.28206" lon="1.14858">
        <ele>188.394121</ele>
        <time>2021-09-07T10:09:37.000Z</time>
      </trkpt>
      <trkpt lat="48.28243" lon="1.14932">
        <ele>187.219288</ele>
        <time>2021-09-07T10:09:44.000Z</time>
      </trkpt>
      <trkpt lat="48.28252" lon="1.14954">
        <ele>186.817505</ele>
        <time>2021-09-07T10:09:46.000Z</time>
      </trkpt>
      <trkpt lat="48.28262" lon="1.14988">
        <ele>186.213638</ele>
        <time>2021-09-07T10:09:49.000Z</time>
      </trkpt>
      <trkpt lat="48.28281" lon="1.15069">
        <ele>184.850525</ele>
        <time>2021-09-07T10:09:56.000Z</time>
      </trkpt>
      <trkpt lat="48.28295" lon="1.1514">
        <ele>183.678187</ele>
        <time>2021-09-07T10:10:03.000Z</time>
      </trkpt>
      <trkpt lat="48.28299" lon="1.15157">
        <ele>183.404348</ele>
        <time>2021-09-07T10:10:05.000Z</time>
      </trkpt>
      <trkpt lat="48.28308" lon="1.15177">
        <ele>183.036948</ele>
        <time>2021-09-07T10:10:08.000Z</time>
      </trkpt>
      <trkpt lat="48.28332" lon="1.15228">
        <ele>182.10865</ele>
        <time>2021-09-07T10:10:16.000Z</time>
      </trkpt>
      <trkpt lat="48.28353" lon="1.15273">
        <ele>181.294339</ele>
        <time>2021-09-07T10:10:24.000Z</time>
      </trkpt>
      <trkpt lat="48.2837" lon="1.15304">
        <ele>180.704951</ele>
        <time>2021-09-07T10:10:31.000Z</time>
      </trkpt>
      <trkpt lat="48.28383" lon="1.15333">
        <ele>180.176585</ele>
        <time>2021-09-07T10:10:39.000Z</time>
      </trkpt>
      <trkpt lat="48.28395" lon="1.15357">
        <ele>179.73797</ele>
        <time>2021-09-07T10:10:47.000Z</time>
      </trkpt>
      <trkpt lat="48.28401" lon="1.1537">
        <ele>179.645495</ele>
        <time>2021-09-07T10:10:52.000Z</time>
      </trkpt>
      <trkpt lat="48.28402" lon="1.15376">
        <ele>179.678255</ele>
        <time>2021-09-07T10:10:54.000Z</time>
      </trkpt>
      <trkpt lat="48.28407" lon="1.1539">
        <ele>179.765252</ele>
        <time>2021-09-07T10:10:59.000Z</time>
      </trkpt>
      <trkpt lat="48.28407" lon="1.15393">
        <ele>179.782457</ele>
        <time>2021-09-07T10:11:00.000Z</time>
      </trkpt>
      <trkpt lat="48.28408" lon="1.15396">
        <ele>179.801285</ele>
        <time>2021-09-07T10:11:01.000Z</time>
      </trkpt>
      <trkpt lat="48.2841" lon="1.15405">
        <ele>179.853868</ele>
        <time>2021-09-07T10:11:04.000Z</time>
      </trkpt>
      <trkpt lat="48.28416" lon="1.15425">
        <ele>179.976694</ele>
        <time>2021-09-07T10:11:11.000Z</time>
      </trkpt>
      <trkpt lat="48.28424" lon="1.15445">
        <ele>180.105305</ele>
        <time>2021-09-07T10:11:17.000Z</time>
      </trkpt>
      <trkpt lat="48.28431" lon="1.15466">
        <ele>180.233984</ele>
        <time>2021-09-07T10:11:23.000Z</time>
      </trkpt>
      <trkpt lat="48.28436" lon="1.15489">
        <ele>180.37123</ele>
        <time>2021-09-07T10:11:30.000Z</time>
      </trkpt>
      <trkpt lat="48.28437" lon="1.15495">
        <ele>180.407653</ele>
        <time>2021-09-07T10:11:32.000Z</time>
      </trkpt>
      <trkpt lat="48.28439" lon="1.15501">
        <ele>180.441975</ele>
        <time>2021-09-07T10:11:34.000Z</time>
      </trkpt>
      <trkpt lat="48.28444" lon="1.15522">
        <ele>180.565973</ele>
        <time>2021-09-07T10:11:40.000Z</time>
      </trkpt>
      <trkpt lat="48.28449" lon="1.15539">
        <ele>180.668356</ele>
        <time>2021-09-07T10:11:45.000Z</time>
      </trkpt>
      <trkpt lat="48.28454" lon="1.15558">
        <ele>180.785224</ele>
        <time>2021-09-07T10:11:51.000Z</time>
      </trkpt>
      <trkpt lat="48.2846" lon="1.15583">
        <ele>180.929865</ele>
        <time>2021-09-07T10:11:58.000Z</time>
      </trkpt>
      <trkpt lat="48.28465" lon="1.15609">
        <ele>181.079015</ele>
        <time>2021-09-07T10:12:05.000Z</time>
      </trkpt>
      <trkpt lat="48.28471" lon="1.15632">
        <ele>181.118473</ele>
        <time>2021-09-07T10:12:11.000Z</time>
      </trkpt>
      <trkpt lat="48.28476" lon="1.15655">
        <ele>181.131584</ele>
        <time>2021-09-07T10:12:17.000Z</time>
      </trkpt>
      <trkpt lat="48.28481" lon="1.15684">
        <ele>181.147495</ele>
        <time>2021-09-07T10:12:24.000Z</time>
      </trkpt>
      <trkpt lat="48.28484" lon="1.1572">
        <ele>181.166459</ele>
        <time>2021-09-07T10:12:32.000Z</time>
      </trkpt>
      <trkpt lat="48.28484" lon="1.15751">
        <ele>181.183184</ele>
        <time>2021-09-07T10:12:38.000Z</time>
      </trkpt>
      <trkpt lat="48.28479" lon="1.15793">
        <ele>181.206217</ele>
        <time>2021-09-07T10:12:45.000Z</time>
      </trkpt>
      <trkpt lat="48.28472" lon="1.15842">
        <ele>181.232388</ele>
        <time>2021-09-07T10:12:52.000Z</time>
      </trkpt>
      <trkpt lat="48.28464" lon="1.15891">
        <ele>181.154475</ele>
        <time>2021-09-07T10:12:59.000Z</time>
      </trkpt>
      <trkpt lat="48.28455" lon="1.1595">
        <ele>180.736889</ele>
        <time>2021-09-07T10:13:07.000Z</time>
      </trkpt>
      <trkpt lat="48.28447" lon="1.16008">
        <ele>180.329604</ele>
        <time>2021-09-07T10:13:15.000Z</time>
      </trkpt>
      <trkpt lat="48.28439" lon="1.16062">
        <ele>179.949276</ele>
        <time>2021-09-07T10:13:23.000Z</time>
      </trkpt>
      <trkpt lat="48.28433" lon="1.16108">
        <ele>179.619871</ele>
        <time>2021-09-07T10:13:30.000Z</time>
      </trkpt>
      <trkpt lat="48.28425" lon="1.1617">
        <ele>179.175773</ele>
        <time>2021-09-07T10:13:39.000Z</time>
      </trkpt>
      <trkpt lat="48.28425" lon="1.16177">
        <ele>179.12547</ele>
        <time>2021-09-07T10:13:40.000Z</time>
      </trkpt>
      <trkpt lat="48.28424" lon="1.16218">
        <ele>178.822485</ele>
        <time>2021-09-07T10:13:46.000Z</time>
      </trkpt>
      <trkpt lat="48.28428" lon="1.16267">
        <ele>178.457937</ele>
        <time>2021-09-07T10:13:53.000Z</time>
      </trkpt>
      <trkpt lat="48.28434" lon="1.16321">
        <ele>178.053191</ele>
        <time>2021-09-07T10:14:00.000Z</time>
      </trkpt>
      <trkpt lat="48.2844" lon="1.1637">
        <ele>177.688101</ele>
        <time>2021-09-07T10:14:06.000Z</time>
      </trkpt>
      <trkpt lat="48.28447" lon="1.16428">
        <ele>177.217553</ele>
        <time>2021-09-07T10:14:13.000Z</time>
      </trkpt>
      <trkpt lat="48.28456" lon="1.16508">
        <ele>176.478706</ele>
        <time>2021-09-07T10:14:22.000Z</time>
      </trkpt>
      <trkpt lat="48.28465" lon="1.16577">
        <ele>175.845379</ele>
        <time>2021-09-07T10:14:30.000Z</time>
      </trkpt>
      <trkpt lat="48.28473" lon="1.16649">
        <ele>175.178307</ele>
        <time>2021-09-07T10:14:39.000Z</time>
      </trkpt>
      <trkpt lat="48.28482" lon="1.16722">
        <ele>174.477276</ele>
        <time>2021-09-07T10:14:48.000Z</time>
      </trkpt>
      <trkpt lat="48.28489" lon="1.16786">
        <ele>173.848042</ele>
        <time>2021-09-07T10:14:56.000Z</time>
      </trkpt>
      <trkpt lat="48.28501" lon="1.1686">
        <ele>173.103201</ele>
        <time>2021-09-07T10:15:06.000Z</time>
      </trkpt>
      <trkpt lat="48.28512" lon="1.16909">
        <ele>172.597576</ele>
        <time>2021-09-07T10:15:13.000Z</time>
      </trkpt>
      <trkpt lat="48.28531" lon="1.16966">
        <ele>172.031638</ele>
        <time>2021-09-07T10:15:22.000Z</time>
      </trkpt>
      <trkpt lat="48.28553" lon="1.17026">
        <ele>171.476035</ele>
        <time>2021-09-07T10:15:32.000Z</time>
      </trkpt>
      <trkpt lat="48.28578" lon="1.17093">
        <ele>170.856852</ele>
        <time>2021-09-07T10:15:44.000Z</time>
      </trkpt>
      <trkpt lat="48.28598" lon="1.17149">
        <ele>170.343083</ele>
        <time>2021-09-07T10:15:54.000Z</time>
      </trkpt>
      <trkpt lat="48.28612" lon="1.17188">
        <ele>170.058738</ele>
        <time>2021-09-07T10:16:01.000Z</time>
      </trkpt>
      <trkpt lat="48.28638" lon="1.17257">
        <ele>169.794111</ele>
        <time>2021-09-07T10:16:13.000Z</time>
      </trkpt>
      <trkpt lat="48.28652" lon="1.17297">
        <ele>169.642691</ele>
        <time>2021-09-07T10:16:20.000Z</time>
      </trkpt>
      <trkpt lat="48.28665" lon="1.17332">
        <ele>169.507455</ele>
        <time>2021-09-07T10:16:27.000Z</time>
      </trkpt>
      <trkpt lat="48.28677" lon="1.17365">
        <ele>169.378508</ele>
        <time>2021-09-07T10:16:34.000Z</time>
      </trkpt>
      <trkpt lat="48.28692" lon="1.17407">
        <ele>169.216075</ele>
        <time>2021-09-07T10:16:43.000Z</time>
      </trkpt>
      <trkpt lat="48.2871" lon="1.17457">
        <ele>169.117614</ele>
        <time>2021-09-07T10:16:53.000Z</time>
      </trkpt>
      <trkpt lat="48.28727" lon="1.17501">
        <ele>169.033102</ele>
        <time>2021-09-07T10:17:02.000Z</time>
      </trkpt>
      <trkpt lat="48.28746" lon="1.17556">
        <ele>168.929793</ele>
        <time>2021-09-07T10:17:13.000Z</time>
      </trkpt>
      <trkpt lat="48.28761" lon="1.17596">
        <ele>168.853928</ele>
        <time>2021-09-07T10:17:21.000Z</time>
      </trkpt>
      <trkpt lat="48.28778" lon="1.17642">
        <ele>168.76541</ele>
        <time>2021-09-07T10:17:30.000Z</time>
      </trkpt>
      <trkpt lat="48.28798" lon="1.17696">
        <ele>168.465416</ele>
        <time>2021-09-07T10:17:40.000Z</time>
      </trkpt>
      <trkpt lat="48.28817" lon="1.17749">
        <ele>168.154986</ele>
        <time>2021-09-07T10:17:49.000Z</time>
      </trkpt>
      <trkpt lat="48.28837" lon="1.178">
        <ele>167.847359</ele>
        <time>2021-09-07T10:17:57.000Z</time>
      </trkpt>
      <trkpt lat="48.28859" lon="1.17864">
        <ele>167.470727</ele>
        <time>2021-09-07T10:18:06.000Z</time>
      </trkpt>
      <trkpt lat="48.28884" lon="1.17932">
        <ele>166.951833</ele>
        <time>2021-09-07T10:18:16.000Z</time>
      </trkpt>
      <trkpt lat="48.28905" lon="1.17991">
        <ele>166.458244</ele>
        <time>2021-09-07T10:18:25.000Z</time>
      </trkpt>
      <trkpt lat="48.28924" lon="1.18038">
        <ele>166.05797</ele>
        <time>2021-09-07T10:18:33.000Z</time>
      </trkpt>
      <trkpt lat="48.28942" lon="1.18093">
        <ele>165.604522</ele>
        <time>2021-09-07T10:18:42.000Z</time>
      </trkpt>
      <trkpt lat="48.28954" lon="1.18145">
        <ele>165.203056</ele>
        <time>2021-09-07T10:18:50.000Z</time>
      </trkpt>
      <trkpt lat="48.28959" lon="1.18203">
        <ele>164.786381</ele>
        <time>2021-09-07T10:18:58.000Z</time>
      </trkpt>
      <trkpt lat="48.28961" lon="1.18269">
        <ele>164.316495</ele>
        <time>2021-09-07T10:19:07.000Z</time>
      </trkpt>
      <trkpt lat="48.28962" lon="1.18306">
        <ele>164.053512</ele>
        <time>2021-09-07T10:19:12.000Z</time>
      </trkpt>
      <trkpt lat="48.28962" lon="1.18321">
        <ele>163.950948</ele>
        <time>2021-09-07T10:19:14.000Z</time>
      </trkpt>
      <trkpt lat="48.28964" lon="1.18378">
        <ele>163.544579</ele>
        <time>2021-09-07T10:19:22.000Z</time>
      </trkpt>
      <trkpt lat="48.28967" lon="1.18445">
        <ele>163.114417</ele>
        <time>2021-09-07T10:19:31.000Z</time>
      </trkpt>
      <trkpt lat="48.28968" lon="1.18473">
        <ele>162.935577</ele>
        <time>2021-09-07T10:19:35.000Z</time>
      </trkpt>
      <trkpt lat="48.28968" lon="1.18495">
        <ele>162.802717</ele>
        <time>2021-09-07T10:19:38.000Z</time>
      </trkpt>
      <trkpt lat="48.2897" lon="1.18545">
        <ele>162.488275</ele>
        <time>2021-09-07T10:19:45.000Z</time>
      </trkpt>
      <trkpt lat="48.28973" lon="1.18602">
        <ele>162.130531</ele>
        <time>2021-09-07T10:19:53.000Z</time>
      </trkpt>
      <trkpt lat="48.28975" lon="1.18631">
        <ele>161.951933</ele>
        <time>2021-09-07T10:19:57.000Z</time>
      </trkpt>
      <trkpt lat="48.28979" lon="1.18651">
        <ele>161.822123</ele>
        <time>2021-09-07T10:20:00.000Z</time>
      </trkpt>
      <trkpt lat="48.28992" lon="1.18699">
        <ele>161.623842</ele>
        <time>2021-09-07T10:20:07.000Z</time>
      </trkpt>
      <trkpt lat="48.29016" lon="1.18748">
        <ele>161.426883</ele>
        <time>2021-09-07T10:20:15.000Z</time>
      </trkpt>
      <trkpt lat="48.29043" lon="1.18801">
        <ele>161.208275</ele>
        <time>2021-09-07T10:20:24.000Z</time>
      </trkpt>
      <trkpt lat="48.29067" lon="1.18849">
        <ele>161.016142</ele>
        <time>2021-09-07T10:20:32.000Z</time>
      </trkpt>
      <trkpt lat="48.29095" lon="1.18904">
        <ele>160.891257</ele>
        <time>2021-09-07T10:20:41.000Z</time>
      </trkpt>
      <trkpt lat="48.29117" lon="1.18946">
        <ele>160.903212</ele>
        <time>2021-09-07T10:20:48.000Z</time>
      </trkpt>
      <trkpt lat="48.29142" lon="1.18995">
        <ele>160.916951</ele>
        <time>2021-09-07T10:20:56.000Z</time>
      </trkpt>
      <trkpt lat="48.29164" lon="1.19039">
        <ele>160.92923</ele>
        <time>2021-09-07T10:21:03.000Z</time>
      </trkpt>
      <trkpt lat="48.29168" lon="1.19046">
        <ele>160.931136</ele>
        <time>2021-09-07T10:21:04.000Z</time>
      </trkpt>
      <trkpt lat="48.29182" lon="1.19073">
        <ele>160.938808</ele>
        <time>2021-09-07T10:21:08.000Z</time>
      </trkpt>
      <trkpt lat="48.29186" lon="1.19081">
        <ele>160.940875</ele>
        <time>2021-09-07T10:21:09.000Z</time>
      </trkpt>
      <trkpt lat="48.29205" lon="1.19121">
        <ele>161.012151</ele>
        <time>2021-09-07T10:21:15.000Z</time>
      </trkpt>
      <trkpt lat="48.29226" lon="1.19163">
        <ele>161.123144</ele>
        <time>2021-09-07T10:21:21.000Z</time>
      </trkpt>
      <trkpt lat="48.29247" lon="1.19202">
        <ele>161.229405</ele>
        <time>2021-09-07T10:21:27.000Z</time>
      </trkpt>
      <trkpt lat="48.2928" lon="1.19254">
        <ele>161.382126</ele>
        <time>2021-09-07T10:21:35.000Z</time>
      </trkpt>
      <trkpt lat="48.2932" lon="1.19307">
        <ele>161.555546</ele>
        <time>2021-09-07T10:21:44.000Z</time>
      </trkpt>
      <trkpt lat="48.29354" lon="1.19349">
        <ele>161.713029</ele>
        <time>2021-09-07T10:21:52.000Z</time>
      </trkpt>
      <trkpt lat="48.29383" lon="1.19386">
        <ele>161.846544</ele>
        <time>2021-09-07T10:21:59.000Z</time>
      </trkpt>
      <trkpt lat="48.29417" lon="1.19431">
        <ele>162.007649</ele>
        <time>2021-09-07T10:22:07.000Z</time>
      </trkpt>
      <trkpt lat="48.29451" lon="1.19477">
        <ele>162.137629</ele>
        <time>2021-09-07T10:22:15.000Z</time>
      </trkpt>
      <trkpt lat="48.2949" lon="1.1953">
        <ele>161.848676</ele>
        <time>2021-09-07T10:22:24.000Z</time>
      </trkpt>
      <trkpt lat="48.29525" lon="1.19577">
        <ele>161.59589</ele>
        <time>2021-09-07T10:22:32.000Z</time>
      </trkpt>
      <trkpt lat="48.29569" lon="1.19637">
        <ele>161.27351</ele>
        <time>2021-09-07T10:22:42.000Z</time>
      </trkpt>
      <trkpt lat="48.29603" lon="1.19682">
        <ele>160.967166</ele>
        <time>2021-09-07T10:22:50.000Z</time>
      </trkpt>
      <trkpt lat="48.29644" lon="1.19735">
        <ele>160.559133</ele>
        <time>2021-09-07T10:23:00.000Z</time>
      </trkpt>
      <trkpt lat="48.29677" lon="1.19778">
        <ele>160.226693</ele>
        <time>2021-09-07T10:23:08.000Z</time>
      </trkpt>
      <trkpt lat="48.29715" lon="1.19828">
        <ele>159.845333</ele>
        <time>2021-09-07T10:23:17.000Z</time>
      </trkpt>
      <trkpt lat="48.29753" lon="1.19878">
        <ele>159.673319</ele>
        <time>2021-09-07T10:23:26.000Z</time>
      </trkpt>
      <trkpt lat="48.29784" lon="1.19919">
        <ele>159.546628</ele>
        <time>2021-09-07T10:23:34.000Z</time>
      </trkpt>
      <trkpt lat="48.29809" lon="1.1996">
        <ele>159.434945</ele>
        <time>2021-09-07T10:23:41.000Z</time>
      </trkpt>
      <trkpt lat="48.29827" lon="1.20008">
        <ele>159.324071</ele>
        <time>2021-09-07T10:23:48.000Z</time>
      </trkpt>
      <trkpt lat="48.29842" lon="1.20076">
        <ele>159.128737</ele>
        <time>2021-09-07T10:23:57.000Z</time>
      </trkpt>
      <trkpt lat="48.29854" lon="1.20144">
        <ele>158.903542</ele>
        <time>2021-09-07T10:24:06.000Z</time>
      </trkpt>
      <trkpt lat="48.29865" lon="1.20198">
        <ele>158.72608</ele>
        <time>2021-09-07T10:24:13.000Z</time>
      </trkpt>
      <trkpt lat="48.29866" lon="1.20205">
        <ele>158.701053</ele>
        <time>2021-09-07T10:24:14.000Z</time>
      </trkpt>
      <trkpt lat="48.29877" lon="1.20259">
        <ele>158.524336</ele>
        <time>2021-09-07T10:24:21.000Z</time>
      </trkpt>
      <trkpt lat="48.29879" lon="1.20273">
        <ele>158.476491</ele>
        <time>2021-09-07T10:24:23.000Z</time>
      </trkpt>
      <trkpt lat="48.29887" lon="1.2031">
        <ele>158.292286</ele>
        <time>2021-09-07T10:24:28.000Z</time>
      </trkpt>
      <trkpt lat="48.29892" lon="1.20363">
        <ele>157.936868</ele>
        <time>2021-09-07T10:24:35.000Z</time>
      </trkpt>
      <trkpt lat="48.29891" lon="1.20409">
        <ele>157.634937</ele>
        <time>2021-09-07T10:24:41.000Z</time>
      </trkpt>
      <trkpt lat="48.29889" lon="1.20424">
        <ele>157.534347</ele>
        <time>2021-09-07T10:24:43.000Z</time>
      </trkpt>
      <trkpt lat="48.29885" lon="1.20453">
        <ele>157.335792</ele>
        <time>2021-09-07T10:24:47.000Z</time>
      </trkpt>
      <trkpt lat="48.29875" lon="1.20512">
        <ele>156.930749</ele>
        <time>2021-09-07T10:24:55.000Z</time>
      </trkpt>
      <trkpt lat="48.29874" lon="1.2052">
        <ele>156.878832</ele>
        <time>2021-09-07T10:24:56.000Z</time>
      </trkpt>
      <trkpt lat="48.29868" lon="1.20542">
        <ele>156.71828</ele>
        <time>2021-09-07T10:24:59.000Z</time>
      </trkpt>
      <trkpt lat="48.29854" lon="1.20587">
        <ele>156.56594</ele>
        <time>2021-09-07T10:25:05.000Z</time>
      </trkpt>
      <trkpt lat="48.29852" lon="1.20594">
        <ele>156.554038</ele>
        <time>2021-09-07T10:25:06.000Z</time>
      </trkpt>
      <trkpt lat="48.29851" lon="1.206">
        <ele>156.542794</ele>
        <time>2021-09-07T10:25:07.000Z</time>
      </trkpt>
      <trkpt lat="48.29841" lon="1.20628">
        <ele>156.494742</ele>
        <time>2021-09-07T10:25:11.000Z</time>
      </trkpt>
      <trkpt lat="48.29822" lon="1.20687">
        <ele>156.3939</ele>
        <time>2021-09-07T10:25:19.000Z</time>
      </trkpt>
      <trkpt lat="48.29808" lon="1.20738">
        <ele>156.308331</ele>
        <time>2021-09-07T10:25:26.000Z</time>
      </trkpt>
      <trkpt lat="48.29806" lon="1.20746">
        <ele>156.296093</ele>
        <time>2021-09-07T10:25:27.000Z</time>
      </trkpt>
      <trkpt lat="48.29798" lon="1.2079">
        <ele>156.224659</ele>
        <time>2021-09-07T10:25:33.000Z</time>
      </trkpt>
      <trkpt lat="48.29793" lon="1.20819">
        <ele>156.190169</ele>
        <time>2021-09-07T10:25:37.000Z</time>
      </trkpt>
      <trkpt lat="48.29791" lon="1.20832">
        <ele>156.179668</ele>
        <time>2021-09-07T10:25:39.000Z</time>
      </trkpt>
      <trkpt lat="48.29783" lon="1.20876">
        <ele>156.145596</ele>
        <time>2021-09-07T10:25:46.000Z</time>
      </trkpt>
      <trkpt lat="48.29782" lon="1.20882">
        <ele>156.140739</ele>
        <time>2021-09-07T10:25:47.000Z</time>
      </trkpt>
      <trkpt lat="48.2978" lon="1.20932">
        <ele>156.103302</ele>
        <time>2021-09-07T10:25:55.000Z</time>
      </trkpt>
      <trkpt lat="48.29785" lon="1.20968">
        <ele>156.075554</ele>
        <time>2021-09-07T10:26:01.000Z</time>
      </trkpt>
      <trkpt lat="48.29786" lon="1.20974">
        <ele>156.070878</ele>
        <time>2021-09-07T10:26:02.000Z</time>
      </trkpt>
      <trkpt lat="48.29795" lon="1.21009">
        <ele>156.04268</ele>
        <time>2021-09-07T10:26:08.000Z</time>
      </trkpt>
      <trkpt lat="48.29801" lon="1.21026">
        <ele>156.028657</ele>
        <time>2021-09-07T10:26:11.000Z</time>
      </trkpt>
      <trkpt lat="48.2981" lon="1.21048">
        <ele>156.008943</ele>
        <time>2021-09-07T10:26:15.000Z</time>
      </trkpt>
      <trkpt lat="48.29827" lon="1.21087">
        <ele>155.942784</ele>
        <time>2021-09-07T10:26:22.000Z</time>
      </trkpt>
      <trkpt lat="48.29846" lon="1.2113">
        <ele>155.850752</ele>
        <time>2021-09-07T10:26:30.000Z</time>
      </trkpt>
      <trkpt lat="48.29848" lon="1.21135">
        <ele>155.839193</ele>
        <time>2021-09-07T10:26:31.000Z</time>
      </trkpt>
      <trkpt lat="48.2986" lon="1.21162">
        <ele>155.781099</ele>
        <time>2021-09-07T10:26:36.000Z</time>
      </trkpt>
      <trkpt lat="48.29883" lon="1.21211">
        <ele>155.675274</ele>
        <time>2021-09-07T10:26:45.000Z</time>
      </trkpt>
      <trkpt lat="48.29885" lon="1.21216">
        <ele>155.663998</ele>
        <time>2021-09-07T10:26:46.000Z</time>
      </trkpt>
      <trkpt lat="48.29906" lon="1.21265">
        <ele>155.561436</ele>
        <time>2021-09-07T10:26:55.000Z</time>
      </trkpt>
      <trkpt lat="48.29923" lon="1.21299">
        <ele>155.511973</ele>
        <time>2021-09-07T10:27:02.000Z</time>
      </trkpt>
      <trkpt lat="48.29947" lon="1.21344">
        <ele>155.49788</ele>
        <time>2021-09-07T10:27:12.000Z</time>
      </trkpt>
      <trkpt lat="48.29968" lon="1.21385">
        <ele>155.485179</ele>
        <time>2021-09-07T10:27:21.000Z</time>
      </trkpt>
      <trkpt lat="48.29984" lon="1.21424">
        <ele>155.473907</ele>
        <time>2021-09-07T10:27:29.000Z</time>
      </trkpt>
      <trkpt lat="48.29991" lon="1.21456">
        <ele>155.465863</ele>
        <time>2021-09-07T10:27:35.000Z</time>
      </trkpt>
      <trkpt lat="48.29996" lon="1.21502">
        <ele>155.454426</ele>
        <time>2021-09-07T10:27:44.000Z</time>
      </trkpt>
      <trkpt lat="48.30001" lon="1.21541">
        <ele>155.473784</ele>
        <time>2021-09-07T10:27:52.000Z</time>
      </trkpt>
      <trkpt lat="48.30006" lon="1.21575">
        <ele>155.511778</ele>
        <time>2021-09-07T10:27:59.000Z</time>
      </trkpt>
      <trkpt lat="48.30012" lon="1.2162">
        <ele>155.560527</ele>
        <time>2021-09-07T10:28:08.000Z</time>
      </trkpt>
      <trkpt lat="48.30017" lon="1.21658">
        <ele>155.603076</ele>
        <time>2021-09-07T10:28:16.000Z</time>
      </trkpt>
      <trkpt lat="48.30023" lon="1.21697">
        <ele>155.645932</ele>
        <time>2021-09-07T10:28:24.000Z</time>
      </trkpt>
      <trkpt lat="48.30032" lon="1.21739">
        <ele>155.692982</ele>
        <time>2021-09-07T10:28:33.000Z</time>
      </trkpt>
      <trkpt lat="48.30046" lon="1.21785">
        <ele>155.753555</ele>
        <time>2021-09-07T10:28:43.000Z</time>
      </trkpt>
      <trkpt lat="48.30055" lon="1.21816">
        <ele>155.829524</ele>
        <time>2021-09-07T10:28:50.000Z</time>
      </trkpt>
      <trkpt lat="48.30064" lon="1.2185">
        <ele>155.907904</ele>
        <time>2021-09-07T10:28:57.000Z</time>
      </trkpt>
      <trkpt lat="48.30072" lon="1.21893">
        <ele>156.004859</ele>
        <time>2021-09-07T10:29:06.000Z</time>
      </trkpt>
      <trkpt lat="48.30077" lon="1.2193">
        <ele>156.089405</ele>
        <time>2021-09-07T10:29:14.000Z</time>
      </trkpt>
      <trkpt lat="48.30081" lon="1.21965">
        <ele>156.166755</ele>
        <time>2021-09-07T10:29:22.000Z</time>
      </trkpt>
      <trkpt lat="48.30083" lon="1.22013">
        <ele>156.271752</ele>
        <time>2021-09-07T10:29:32.000Z</time>
      </trkpt>
      <trkpt lat="48.30084" lon="1.22058">
        <ele>156.387968</ele>
        <time>2021-09-07T10:29:41.000Z</time>
      </trkpt>
      <trkpt lat="48.30085" lon="1.22097">
        <ele>156.515942</ele>
        <time>2021-09-07T10:29:49.000Z</time>
      </trkpt>
      <trkpt lat="48.30086" lon="1.22135">
        <ele>156.638049</ele>
        <time>2021-09-07T10:29:57.000Z</time>
      </trkpt>
      <trkpt lat="48.30087" lon="1.22178">
        <ele>156.778721</ele>
        <time>2021-09-07T10:30:06.000Z</time>
      </trkpt>
      <trkpt lat="48.30088" lon="1.22196">
        <ele>156.838193</ele>
        <time>2021-09-07T10:30:12.000Z</time>
      </trkpt>
      <trkpt lat="48.30088" lon="1.22218">
        <ele>156.910303</ele>
        <time>2021-09-07T10:30:19.000Z</time>
      </trkpt>
      <trkpt lat="48.30089" lon="1.22267">
        <ele>157.070914</ele>
        <time>2021-09-07T10:30:29.000Z</time>
      </trkpt>
      <trkpt lat="48.3009" lon="1.22312">
        <ele>157.217254</ele>
        <time>2021-09-07T10:30:38.000Z</time>
      </trkpt>
      <trkpt lat="48.30091" lon="1.22349">
        <ele>157.316535</ele>
        <time>2021-09-07T10:30:45.000Z</time>
      </trkpt>
      <trkpt lat="48.30091" lon="1.22388">
        <ele>157.422222</ele>
        <time>2021-09-07T10:30:52.000Z</time>
      </trkpt>
      <trkpt lat="48.30092" lon="1.22435">
        <ele>157.549457</ele>
        <time>2021-09-07T10:31:00.000Z</time>
      </trkpt>
      <trkpt lat="48.30093" lon="1.22478">
        <ele>157.663203</ele>
        <time>2021-09-07T10:31:08.000Z</time>
      </trkpt>
      <trkpt lat="48.30095" lon="1.22529">
        <ele>157.802636</ele>
        <time>2021-09-07T10:31:18.000Z</time>
      </trkpt>
      <trkpt lat="48.30095" lon="1.22564">
        <ele>157.895666</ele>
        <time>2021-09-07T10:31:25.000Z</time>
      </trkpt>
      <trkpt lat="48.30096" lon="1.22603">
        <ele>158.060384</ele>
        <time>2021-09-07T10:31:33.000Z</time>
      </trkpt>
      <trkpt lat="48.30097" lon="1.22637">
        <ele>158.243272</ele>
        <time>2021-09-07T10:31:40.000Z</time>
      </trkpt>
      <trkpt lat="48.30101" lon="1.22669">
        <ele>158.417868</ele>
        <time>2021-09-07T10:31:47.000Z</time>
      </trkpt>
      <trkpt lat="48.30104" lon="1.227">
        <ele>158.583675</ele>
        <time>2021-09-07T10:31:53.000Z</time>
      </trkpt>
      <trkpt lat="48.30109" lon="1.2274">
        <ele>158.801139</ele>
        <time>2021-09-07T10:32:01.000Z</time>
      </trkpt>
      <trkpt lat="48.30114" lon="1.22775">
        <ele>158.996579</ele>
        <time>2021-09-07T10:32:08.000Z</time>
      </trkpt>
      <trkpt lat="48.3012" lon="1.22814">
        <ele>159.211779</ele>
        <time>2021-09-07T10:32:16.000Z</time>
      </trkpt>
      <trkpt lat="48.30126" lon="1.22849">
        <ele>159.407452</ele>
        <time>2021-09-07T10:32:23.000Z</time>
      </trkpt>
      <trkpt lat="48.30134" lon="1.22899">
        <ele>159.698183</ele>
        <time>2021-09-07T10:32:32.000Z</time>
      </trkpt>
      <trkpt lat="48.30143" lon="1.22958">
        <ele>160.043604</ele>
        <time>2021-09-07T10:32:42.000Z</time>
      </trkpt>
      <trkpt lat="48.30149" lon="1.22999">
        <ele>160.284461</ele>
        <time>2021-09-07T10:32:49.000Z</time>
      </trkpt>
      <trkpt lat="48.30156" lon="1.23041">
        <ele>160.53257</ele>
        <time>2021-09-07T10:32:57.000Z</time>
      </trkpt>
      <trkpt lat="48.30162" lon="1.2309">
        <ele>160.819318</ele>
        <time>2021-09-07T10:33:06.000Z</time>
      </trkpt>
      <trkpt lat="48.30163" lon="1.23136">
        <ele>161.011125</ele>
        <time>2021-09-07T10:33:14.000Z</time>
      </trkpt>
      <trkpt lat="48.30156" lon="1.23175">
        <ele>161.128443</ele>
        <time>2021-09-07T10:33:21.000Z</time>
      </trkpt>
      <trkpt lat="48.30143" lon="1.23214">
        <ele>161.253258</ele>
        <time>2021-09-07T10:33:29.000Z</time>
      </trkpt>
      <trkpt lat="48.30133" lon="1.2325">
        <ele>161.366393</ele>
        <time>2021-09-07T10:33:36.000Z</time>
      </trkpt>
      <trkpt lat="48.3012" lon="1.2329">
        <ele>161.495337</ele>
        <time>2021-09-07T10:33:44.000Z</time>
      </trkpt>
      <trkpt lat="48.30108" lon="1.2333">
        <ele>161.62228</ele>
        <time>2021-09-07T10:33:52.000Z</time>
      </trkpt>
      <trkpt lat="48.30098" lon="1.23364">
        <ele>161.709962</ele>
        <time>2021-09-07T10:33:59.000Z</time>
      </trkpt>
      <trkpt lat="48.30088" lon="1.23397">
        <ele>161.567876</ele>
        <time>2021-09-07T10:34:06.000Z</time>
      </trkpt>
      <trkpt lat="48.30077" lon="1.2343">
        <ele>161.424747</ele>
        <time>2021-09-07T10:34:13.000Z</time>
      </trkpt>
      <trkpt lat="48.30067" lon="1.23461">
        <ele>161.293135</ele>
        <time>2021-09-07T10:34:19.000Z</time>
      </trkpt>
      <trkpt lat="48.3006" lon="1.23488">
        <ele>161.177479</ele>
        <time>2021-09-07T10:34:24.000Z</time>
      </trkpt>
      <trkpt lat="48.30057" lon="1.23501">
        <ele>161.126234</ele>
        <time>2021-09-07T10:34:26.000Z</time>
      </trkpt>
      <trkpt lat="48.30047" lon="1.23535">
        <ele>160.980226</ele>
        <time>2021-09-07T10:34:31.000Z</time>
      </trkpt>
      <trkpt lat="48.30043" lon="1.23551">
        <ele>160.913635</ele>
        <time>2021-09-07T10:34:33.000Z</time>
      </trkpt>
      <trkpt lat="48.30038" lon="1.23577">
        <ele>160.808557</ele>
        <time>2021-09-07T10:34:36.000Z</time>
      </trkpt>
      <trkpt lat="48.30029" lon="1.23631">
        <ele>160.414201</ele>
        <time>2021-09-07T10:34:42.000Z</time>
      </trkpt>
      <trkpt lat="48.30026" lon="1.23669">
        <ele>159.908231</ele>
        <time>2021-09-07T10:34:46.000Z</time>
      </trkpt>
      <trkpt lat="48.30029" lon="1.23689">
        <ele>159.646438</ele>
        <time>2021-09-07T10:34:48.000Z</time>
      </trkpt>
      <trkpt lat="48.30043" lon="1.23738">
        <ele>158.947456</ele>
        <time>2021-09-07T10:34:53.000Z</time>
      </trkpt>
      <trkpt lat="48.30045" lon="1.23749">
        <ele>158.795829</ele>
        <time>2021-09-07T10:34:54.000Z</time>
      </trkpt>
      <trkpt lat="48.30046" lon="1.23771">
        <ele>158.509321</ele>
        <time>2021-09-07T10:34:56.000Z</time>
      </trkpt>
      <trkpt lat="48.30044" lon="1.23782">
        <ele>158.361408</ele>
        <time>2021-09-07T10:34:57.000Z</time>
      </trkpt>
      <trkpt lat="48.3004" lon="1.23802">
        <ele>158.08112</ele>
        <time>2021-09-07T10:34:59.000Z</time>
      </trkpt>
      <trkpt lat="48.30033" lon="1.2382">
        <ele>157.8168</ele>
        <time>2021-09-07T10:35:01.000Z</time>
      </trkpt>
      <trkpt lat="48.30024" lon="1.23834">
        <ele>157.555702</ele>
        <time>2021-09-07T10:35:03.000Z</time>
      </trkpt>
      <trkpt lat="48.30014" lon="1.23845">
        <ele>157.306077</ele>
        <time>2021-09-07T10:35:05.000Z</time>
      </trkpt>
      <trkpt lat="48.29981" lon="1.23876">
        <ele>156.407358</ele>
        <time>2021-09-07T10:35:12.000Z</time>
      </trkpt>
      <trkpt lat="48.29969" lon="1.23886">
        <ele>156.076552</ele>
        <time>2021-09-07T10:35:15.000Z</time>
      </trkpt>
      <trkpt lat="48.29964" lon="1.23894">
        <ele>155.894058</ele>
        <time>2021-09-07T10:35:17.000Z</time>
      </trkpt>
      <trkpt lat="48.29965" lon="1.2391">
        <ele>155.63245</ele>
        <time>2021-09-07T10:35:20.000Z</time>
      </trkpt>
      <trkpt lat="48.29971" lon="1.23953">
        <ele>154.922299</ele>
        <time>2021-09-07T10:35:28.000Z</time>
      </trkpt>
      <trkpt lat="48.2997" lon="1.23977">
        <ele>154.533996</ele>
        <time>2021-09-07T10:35:32.000Z</time>
      </trkpt>
      <trkpt lat="48.29968" lon="1.23983">
        <ele>154.435196</ele>
        <time>2021-09-07T10:35:33.000Z</time>
      </trkpt>
      <trkpt lat="48.29958" lon="1.24011">
        <ele>153.918586</ele>
        <time>2021-09-07T10:35:38.000Z</time>
      </trkpt>
      <trkpt lat="48.29956" lon="1.24016">
        <ele>153.815936</ele>
        <time>2021-09-07T10:35:39.000Z</time>
      </trkpt>
      <trkpt lat="48.29953" lon="1.24021">
        <ele>153.712001</ele>
        <time>2021-09-07T10:35:40.000Z</time>
      </trkpt>
      <trkpt lat="48.29944" lon="1.24045">
        <ele>153.259274</ele>
        <time>2021-09-07T10:35:45.000Z</time>
      </trkpt>
      <trkpt lat="48.29934" lon="1.24082">
        <ele>152.781117</ele>
        <time>2021-09-07T10:35:53.000Z</time>
      </trkpt>
      <trkpt lat="48.29928" lon="1.24113">
        <ele>152.943777</ele>
        <time>2021-09-07T10:36:01.000Z</time>
      </trkpt>
      <trkpt lat="48.29928" lon="1.24119">
        <ele>152.975142</ele>
        <time>2021-09-07T10:36:03.000Z</time>
      </trkpt>
      <trkpt lat="48.29927" lon="1.24124">
        <ele>152.999656</ele>
        <time>2021-09-07T10:36:05.000Z</time>
      </trkpt>
      <trkpt lat="48.29928" lon="1.24127">
        <ele>153.018211</ele>
        <time>2021-09-07T10:36:07.000Z</time>
      </trkpt>
      <trkpt lat="48.2993" lon="1.24132">
        <ele>153.044684</ele>
        <time>2021-09-07T10:36:10.000Z</time>
      </trkpt>
      <trkpt lat="48.2993" lon="1.24136">
        <ele>153.064376</ele>
        <time>2021-09-07T10:36:12.000Z</time>
      </trkpt>
      <trkpt lat="48.29931" lon="1.24146">
        <ele>153.119256</ele>
        <time>2021-09-07T10:36:16.000Z</time>
      </trkpt>
      <trkpt lat="48.29936" lon="1.2417">
        <ele>153.241884</ele>
        <time>2021-09-07T10:36:24.000Z</time>
      </trkpt>
      <trkpt lat="48.29943" lon="1.24203">
        <ele>153.419992</ele>
        <time>2021-09-07T10:36:33.000Z</time>
      </trkpt>
      <trkpt lat="48.2995" lon="1.24235">
        <ele>153.586844</ele>
        <time>2021-09-07T10:36:40.000Z</time>
      </trkpt>
      <trkpt lat="48.2996" lon="1.24263">
        <ele>153.748368</ele>
        <time>2021-09-07T10:36:47.000Z</time>
      </trkpt>
      <trkpt lat="48.29972" lon="1.24285">
        <ele>153.893696</ele>
        <time>2021-09-07T10:36:54.000Z</time>
      </trkpt>
      <trkpt lat="48.29985" lon="1.24307">
        <ele>154.037921</ele>
        <time>2021-09-07T10:37:01.000Z</time>
      </trkpt>
      <trkpt lat="48.29993" lon="1.24326">
        <ele>154.190052</ele>
        <time>2021-09-07T10:37:07.000Z</time>
      </trkpt>
      <trkpt lat="48.29997" lon="1.24332">
        <ele>154.275673</ele>
        <time>2021-09-07T10:37:10.000Z</time>
      </trkpt>
      <trkpt lat="48.29999" lon="1.24335">
        <ele>154.310863</ele>
        <time>2021-09-07T10:37:12.000Z</time>
      </trkpt>
      <trkpt lat="48.30006" lon="1.24334">
        <ele>154.420451</ele>
        <time>2021-09-07T10:37:17.000Z</time>
      </trkpt>
      <trkpt lat="48.30018" lon="1.2432">
        <ele>154.634696</ele>
        <time>2021-09-07T10:37:24.000Z</time>
      </trkpt>
      <trkpt lat="48.30028" lon="1.24311">
        <ele>154.800227</ele>
        <time>2021-09-07T10:37:30.000Z</time>
      </trkpt>
      <trkpt lat="48.30032" lon="1.24308">
        <ele>154.864039</ele>
        <time>2021-09-07T10:37:35.000Z</time>
      </trkpt>
      <trkpt lat="48.30027" lon="1.24306">
        <ele>154.945238</ele>
        <time>2021-09-07T10:44:41.000Z</time>
      </trkpt>
      <trkpt lat="48.30024" lon="1.2431">
        <ele>154.998332</ele>
        <time>2021-09-07T10:44:43.000Z</time>
      </trkpt>
      <trkpt lat="48.30013" lon="1.24319">
        <ele>155.171417</ele>
        <time>2021-09-07T10:44:48.000Z</time>
      </trkpt>
      <trkpt lat="48.29997" lon="1.24333">
        <ele>155.436215</ele>
        <time>2021-09-07T10:44:53.000Z</time>
      </trkpt>
      <trkpt lat="48.29978" lon="1.24351">
        <ele>155.758767</ele>
        <time>2021-09-07T10:44:59.000Z</time>
      </trkpt>
      <trkpt lat="48.2996" lon="1.24368">
        <ele>156.054581</ele>
        <time>2021-09-07T10:45:04.000Z</time>
      </trkpt>
      <trkpt lat="48.29954" lon="1.24375">
        <ele>156.164528</ele>
        <time>2021-09-07T10:45:06.000Z</time>
      </trkpt>
      <trkpt lat="48.29953" lon="1.24379">
        <ele>156.204486</ele>
        <time>2021-09-07T10:45:07.000Z</time>
      </trkpt>
      <trkpt lat="48.29954" lon="1.24383">
        <ele>156.247907</ele>
        <time>2021-09-07T10:45:08.000Z</time>
      </trkpt>
      <trkpt lat="48.29957" lon="1.24395">
        <ele>156.365193</ele>
        <time>2021-09-07T10:45:11.000Z</time>
      </trkpt>
      <trkpt lat="48.29962" lon="1.24419">
        <ele>156.603724</ele>
        <time>2021-09-07T10:45:19.000Z</time>
      </trkpt>
      <trkpt lat="48.29962" lon="1.24435">
        <ele>156.80367</ele>
        <time>2021-09-07T10:45:25.000Z</time>
      </trkpt>
      <trkpt lat="48.29961" lon="1.24437">
        <ele>156.843655</ele>
        <time>2021-09-07T10:45:26.000Z</time>
      </trkpt>
      <trkpt lat="48.29959" lon="1.24446">
        <ele>156.968279</ele>
        <time>2021-09-07T10:45:29.000Z</time>
      </trkpt>
      <trkpt lat="48.29959" lon="1.24455">
        <ele>157.092767</ele>
        <time>2021-09-07T10:45:32.000Z</time>
      </trkpt>
      <trkpt lat="48.29959" lon="1.2446">
        <ele>157.174263</ele>
        <time>2021-09-07T10:45:34.000Z</time>
      </trkpt>
      <trkpt lat="48.29958" lon="1.24475">
        <ele>157.382321</ele>
        <time>2021-09-07T10:45:39.000Z</time>
      </trkpt>
      <trkpt lat="48.29958" lon="1.24478">
        <ele>157.417437</ele>
        <time>2021-09-07T10:45:40.000Z</time>
      </trkpt>
      <trkpt lat="48.29958" lon="1.24481">
        <ele>157.459453</ele>
        <time>2021-09-07T10:45:41.000Z</time>
      </trkpt>
      <trkpt lat="48.29957" lon="1.2449">
        <ele>157.593493</ele>
        <time>2021-09-07T10:45:44.000Z</time>
      </trkpt>
      <trkpt lat="48.29957" lon="1.2451">
        <ele>157.86769</ele>
        <time>2021-09-07T10:45:51.000Z</time>
      </trkpt>
      <trkpt lat="48.29957" lon="1.24511">
        <ele>157.892565</ele>
        <time>2021-09-07T10:45:53.000Z</time>
      </trkpt>
      <trkpt lat="48.2996" lon="1.24516">
        <ele>157.980315</ele>
        <time>2021-09-07T10:45:56.000Z</time>
      </trkpt>
      <trkpt lat="48.29957" lon="1.24528">
        <ele>158.15651</ele>
        <time>2021-09-07T10:46:01.000Z</time>
      </trkpt>
      <trkpt lat="48.2996" lon="1.24528">
        <ele>158.218528</ele>
        <time>2021-09-07T10:46:04.000Z</time>
      </trkpt>
      <trkpt lat="48.29959" lon="1.24524">
        <ele>158.270511</ele>
        <time>2021-09-07T10:46:05.000Z</time>
      </trkpt>
      <trkpt lat="48.29958" lon="1.24508">
        <ele>158.501647</ele>
        <time>2021-09-07T10:46:10.000Z</time>
      </trkpt>
      <trkpt lat="48.29956" lon="1.24503">
        <ele>158.583752</ele>
        <time>2021-09-07T10:46:13.000Z</time>
      </trkpt>
      <trkpt lat="48.29955" lon="1.245">
        <ele>158.625937</ele>
        <time>2021-09-07T10:46:14.000Z</time>
      </trkpt>
      <trkpt lat="48.29953" lon="1.24485">
        <ele>158.842799</ele>
        <time>2021-09-07T10:46:19.000Z</time>
      </trkpt>
      <trkpt lat="48.29953" lon="1.24483">
        <ele>158.875175</ele>
        <time>2021-09-07T10:46:20.000Z</time>
      </trkpt>
      <trkpt lat="48.29952" lon="1.24478">
        <ele>158.935993</ele>
        <time>2021-09-07T10:46:24.000Z</time>
      </trkpt>
      <trkpt lat="48.29956" lon="1.24488">
        <ele>159.089687</ele>
        <time>2021-09-07T11:10:18.000Z</time>
      </trkpt>
      <trkpt lat="48.29956" lon="1.24494">
        <ele>159.178824</ele>
        <time>2021-09-07T11:10:20.000Z</time>
      </trkpt>
      <trkpt lat="48.2996" lon="1.24512">
        <ele>159.434159</ele>
        <time>2021-09-07T11:10:27.000Z</time>
      </trkpt>
      <trkpt lat="48.2996" lon="1.24514">
        <ele>159.458131</ele>
        <time>2021-09-07T11:10:28.000Z</time>
      </trkpt>
      <trkpt lat="48.29957" lon="1.24522">
        <ele>159.593832</ele>
        <time>2021-09-07T11:10:32.000Z</time>
      </trkpt>
      <trkpt lat="48.29955" lon="1.2455">
        <ele>159.979523</ele>
        <time>2021-09-07T11:10:40.000Z</time>
      </trkpt>
      <trkpt lat="48.29949" lon="1.24574">
        <ele>160.337476</ele>
        <time>2021-09-07T11:10:47.000Z</time>
      </trkpt>
      <trkpt lat="48.29947" lon="1.24585">
        <ele>160.425276</ele>
        <time>2021-09-07T11:10:50.000Z</time>
      </trkpt>
      <trkpt lat="48.29945" lon="1.24592">
        <ele>160.360005</ele>
        <time>2021-09-07T11:10:52.000Z</time>
      </trkpt>
      <trkpt lat="48.29943" lon="1.24595">
        <ele>160.323635</ele>
        <time>2021-09-07T11:10:56.000Z</time>
      </trkpt>
      <trkpt lat="48.2994" lon="1.24593">
        <ele>160.283311</ele>
        <time>2021-09-07T11:11:04.000Z</time>
      </trkpt>
      <trkpt lat="48.29934" lon="1.24591">
        <ele>160.21465</ele>
        <time>2021-09-07T11:11:06.000Z</time>
      </trkpt>
      <trkpt lat="48.29921" lon="1.24593">
        <ele>160.044545</ele>
        <time>2021-09-07T11:11:10.000Z</time>
      </trkpt>
      <trkpt lat="48.29903" lon="1.24604">
        <ele>159.806207</ele>
        <time>2021-09-07T11:11:15.000Z</time>
      </trkpt>
      <trkpt lat="48.29899" lon="1.24606">
        <ele>159.75109</ele>
        <time>2021-09-07T11:11:16.000Z</time>
      </trkpt>
      <trkpt lat="48.2988" lon="1.24617">
        <ele>159.49837</ele>
        <time>2021-09-07T11:11:20.000Z</time>
      </trkpt>
      <trkpt lat="48.29871" lon="1.24621">
        <ele>159.382194</ele>
        <time>2021-09-07T11:11:22.000Z</time>
      </trkpt>
      <trkpt lat="48.29867" lon="1.24623">
        <ele>159.330122</ele>
        <time>2021-09-07T11:11:23.000Z</time>
      </trkpt>
      <trkpt lat="48.29849" lon="1.24625">
        <ele>159.102831</ele>
        <time>2021-09-07T11:11:27.000Z</time>
      </trkpt>
      <trkpt lat="48.29817" lon="1.24629">
        <ele>158.700782</ele>
        <time>2021-09-07T11:11:34.000Z</time>
      </trkpt>
      <trkpt lat="48.29789" lon="1.24637">
        <ele>158.334505</ele>
        <time>2021-09-07T11:11:41.000Z</time>
      </trkpt>
      <trkpt lat="48.29768" lon="1.24633">
        <ele>158.004121</ele>
        <time>2021-09-07T11:11:46.000Z</time>
      </trkpt>
      <trkpt lat="48.29743" lon="1.24625">
        <ele>157.486904</ele>
        <time>2021-09-07T11:11:51.000Z</time>
      </trkpt>
      <trkpt lat="48.29721" lon="1.24628">
        <ele>157.069059</ele>
        <time>2021-09-07T11:11:55.000Z</time>
      </trkpt>
      <trkpt lat="48.29692" lon="1.24634">
        <ele>156.48887</ele>
        <time>2021-09-07T11:12:01.000Z</time>
      </trkpt>
      <trkpt lat="48.29668" lon="1.24638">
        <ele>156.005713</ele>
        <time>2021-09-07T11:12:06.000Z</time>
      </trkpt>
      <trkpt lat="48.29653" lon="1.24641">
        <ele>155.713972</ele>
        <time>2021-09-07T11:12:09.000Z</time>
      </trkpt>
      <trkpt lat="48.29621" lon="1.24649">
        <ele>155.066638</ele>
        <time>2021-09-07T11:12:16.000Z</time>
      </trkpt>
      <trkpt lat="48.29597" lon="1.24654">
        <ele>154.645241</ele>
        <time>2021-09-07T11:12:21.000Z</time>
      </trkpt>
      <trkpt lat="48.29564" lon="1.24661">
        <ele>154.600214</ele>
        <time>2021-09-07T11:12:29.000Z</time>
      </trkpt>
      <trkpt lat="48.29561" lon="1.24662">
        <ele>154.595134</ele>
        <time>2021-09-07T11:12:30.000Z</time>
      </trkpt>
      <trkpt lat="48.29544" lon="1.24668">
        <ele>154.57108</ele>
        <time>2021-09-07T11:12:35.000Z</time>
      </trkpt>
      <trkpt lat="48.29521" lon="1.24679">
        <ele>154.538672</ele>
        <time>2021-09-07T11:12:42.000Z</time>
      </trkpt>
      <trkpt lat="48.29496" lon="1.24696">
        <ele>154.500764</ele>
        <time>2021-09-07T11:12:49.000Z</time>
      </trkpt>
      <trkpt lat="48.29469" lon="1.24716">
        <ele>154.458959</ele>
        <time>2021-09-07T11:12:57.000Z</time>
      </trkpt>
      <trkpt lat="48.29442" lon="1.24737">
        <ele>154.416583</ele>
        <time>2021-09-07T11:13:05.000Z</time>
      </trkpt>
      <trkpt lat="48.29419" lon="1.24763">
        <ele>154.404104</ele>
        <time>2021-09-07T11:13:12.000Z</time>
      </trkpt>
      <trkpt lat="48.29391" lon="1.24795">
        <ele>154.40739</ele>
        <time>2021-09-07T11:13:20.000Z</time>
      </trkpt>
      <trkpt lat="48.29368" lon="1.2482">
        <ele>154.409984</ele>
        <time>2021-09-07T11:13:26.000Z</time>
      </trkpt>
      <trkpt lat="48.29354" lon="1.24837">
        <ele>154.41167</ele>
        <time>2021-09-07T11:13:30.000Z</time>
      </trkpt>
      <trkpt lat="48.29345" lon="1.24845">
        <ele>154.412598</ele>
        <time>2021-09-07T11:13:32.000Z</time>
      </trkpt>
      <trkpt lat="48.29321" lon="1.24861">
        <ele>154.41501</ele>
        <time>2021-09-07T11:13:37.000Z</time>
      </trkpt>
      <trkpt lat="48.29306" lon="1.24866">
        <ele>154.41643</ele>
        <time>2021-09-07T11:13:40.000Z</time>
      </trkpt>
      <trkpt lat="48.29298" lon="1.24869">
        <ele>154.417221</ele>
        <time>2021-09-07T11:13:42.000Z</time>
      </trkpt>
      <trkpt lat="48.29263" lon="1.24895">
        <ele>154.285209</ele>
        <time>2021-09-07T11:13:50.000Z</time>
      </trkpt>
      <trkpt lat="48.29221" lon="1.24921">
        <ele>153.974079</ele>
        <time>2021-09-07T11:13:57.000Z</time>
      </trkpt>
      <trkpt lat="48.29177" lon="1.24948">
        <ele>153.644623</ele>
        <time>2021-09-07T11:14:04.000Z</time>
      </trkpt>
      <trkpt lat="48.29139" lon="1.24965">
        <ele>153.368889</ele>
        <time>2021-09-07T11:14:10.000Z</time>
      </trkpt>
      <trkpt lat="48.29112" lon="1.24974">
        <ele>153.180138</ele>
        <time>2021-09-07T11:14:15.000Z</time>
      </trkpt>
      <trkpt lat="48.29094" lon="1.24981">
        <ele>153.060959</ele>
        <time>2021-09-07T11:14:19.000Z</time>
      </trkpt>
      <trkpt lat="48.2908" lon="1.24986">
        <ele>152.965906</ele>
        <time>2021-09-07T11:14:22.000Z</time>
      </trkpt>
      <trkpt lat="48.29075" lon="1.24988">
        <ele>152.93383</ele>
        <time>2021-09-07T11:14:23.000Z</time>
      </trkpt>
      <trkpt lat="48.29071" lon="1.24989">
        <ele>152.902925</ele>
        <time>2021-09-07T11:14:24.000Z</time>
      </trkpt>
      <trkpt lat="48.29053" lon="1.24996">
        <ele>152.783842</ele>
        <time>2021-09-07T11:14:28.000Z</time>
      </trkpt>
      <trkpt lat="48.29028" lon="1.25003">
        <ele>152.620251</ele>
        <time>2021-09-07T11:14:34.000Z</time>
      </trkpt>
      <trkpt lat="48.2901" lon="1.25008">
        <ele>152.496977</ele>
        <time>2021-09-07T11:14:39.000Z</time>
      </trkpt>
      <trkpt lat="48.28983" lon="1.25015">
        <ele>152.319294</ele>
        <time>2021-09-07T11:14:47.000Z</time>
      </trkpt>
      <trkpt lat="48.28955" lon="1.2502">
        <ele>152.13593</ele>
        <time>2021-09-07T11:14:55.000Z</time>
      </trkpt>
      <trkpt lat="48.2893" lon="1.25023">
        <ele>152.027939</ele>
        <time>2021-09-07T11:15:02.000Z</time>
      </trkpt>
      <trkpt lat="48.28898" lon="1.25025">
        <ele>152.185769</ele>
        <time>2021-09-07T11:15:11.000Z</time>
      </trkpt>
      <trkpt lat="48.28868" lon="1.25027">
        <ele>152.335569</ele>
        <time>2021-09-07T11:15:19.000Z</time>
      </trkpt>
      <trkpt lat="48.28837" lon="1.25024">
        <ele>152.487445</ele>
        <time>2021-09-07T11:15:27.000Z</time>
      </trkpt>
      <trkpt lat="48.28808" lon="1.2502">
        <ele>152.628878</ele>
        <time>2021-09-07T11:15:34.000Z</time>
      </trkpt>
      <trkpt lat="48.28772" lon="1.25015">
        <ele>152.808561</ele>
        <time>2021-09-07T11:15:43.000Z</time>
      </trkpt>
      <trkpt lat="48.28744" lon="1.25012">
        <ele>153.02141</ele>
        <time>2021-09-07T11:15:50.000Z</time>
      </trkpt>
      <trkpt lat="48.28711" lon="1.25012">
        <ele>153.412844</ele>
        <time>2021-09-07T11:15:58.000Z</time>
      </trkpt>
      <trkpt lat="48.2868" lon="1.25013">
        <ele>153.766967</ele>
        <time>2021-09-07T11:16:05.000Z</time>
      </trkpt>
      <trkpt lat="48.28647" lon="1.25016">
        <ele>154.159394</ele>
        <time>2021-09-07T11:16:13.000Z</time>
      </trkpt>
      <trkpt lat="48.28622" lon="1.25021">
        <ele>154.449144</ele>
        <time>2021-09-07T11:16:19.000Z</time>
      </trkpt>
      <trkpt lat="48.28589" lon="1.25028">
        <ele>154.842968</ele>
        <time>2021-09-07T11:16:27.000Z</time>
      </trkpt>
      <trkpt lat="48.28556" lon="1.25034">
        <ele>155.029214</ele>
        <time>2021-09-07T11:16:35.000Z</time>
      </trkpt>
      <trkpt lat="48.2852" lon="1.25042">
        <ele>155.096461</ele>
        <time>2021-09-07T11:16:43.000Z</time>
      </trkpt>
      <trkpt lat="48.28491" lon="1.25048">
        <ele>155.151147</ele>
        <time>2021-09-07T11:16:49.000Z</time>
      </trkpt>
      <trkpt lat="48.28454" lon="1.25055">
        <ele>155.220055</ele>
        <time>2021-09-07T11:16:56.000Z</time>
      </trkpt>
      <trkpt lat="48.2842" lon="1.25062">
        <ele>155.284</ele>
        <time>2021-09-07T11:17:02.000Z</time>
      </trkpt>
      <trkpt lat="48.28369" lon="1.25072">
        <ele>154.876505</ele>
        <time>2021-09-07T11:17:10.000Z</time>
      </trkpt>
      <trkpt lat="48.28319" lon="1.25082">
        <ele>154.120032</ele>
        <time>2021-09-07T11:17:17.000Z</time>
      </trkpt>
      <trkpt lat="48.28286" lon="1.25086">
        <ele>153.614759</ele>
        <time>2021-09-07T11:17:22.000Z</time>
      </trkpt>
      <trkpt lat="48.2826" lon="1.25089">
        <ele>153.224368</ele>
        <time>2021-09-07T11:17:26.000Z</time>
      </trkpt>
      <trkpt lat="48.28233" lon="1.25092">
        <ele>152.811802</ele>
        <time>2021-09-07T11:17:30.000Z</time>
      </trkpt>
      <trkpt lat="48.28212" lon="1.25098">
        <ele>152.463715</ele>
        <time>2021-09-07T11:17:33.000Z</time>
      </trkpt>
      <trkpt lat="48.28197" lon="1.25104">
        <ele>152.212867</ele>
        <time>2021-09-07T11:17:35.000Z</time>
      </trkpt>
      <trkpt lat="48.28158" lon="1.25133">
        <ele>151.468302</ele>
        <time>2021-09-07T11:17:41.000Z</time>
      </trkpt>
      <trkpt lat="48.28118" lon="1.25175">
        <ele>150.642633</ele>
        <time>2021-09-07T11:17:48.000Z</time>
      </trkpt>
      <trkpt lat="48.28076" lon="1.25224">
        <ele>149.726811</ele>
        <time>2021-09-07T11:17:56.000Z</time>
      </trkpt>
      <trkpt lat="48.28047" lon="1.25257">
        <ele>148.906977</ele>
        <time>2021-09-07T11:18:02.000Z</time>
      </trkpt>
      <trkpt lat="48.28037" lon="1.25266">
        <ele>148.632698</ele>
        <time>2021-09-07T11:18:04.000Z</time>
      </trkpt>
      <trkpt lat="48.28029" lon="1.25275">
        <ele>148.36762</ele>
        <time>2021-09-07T11:18:06.000Z</time>
      </trkpt>
      <trkpt lat="48.28013" lon="1.25294">
        <ele>147.869498</ele>
        <time>2021-09-07T11:18:10.000Z</time>
      </trkpt>
      <trkpt lat="48.28006" lon="1.25304">
        <ele>147.635332</ele>
        <time>2021-09-07T11:18:12.000Z</time>
      </trkpt>
      <trkpt lat="48.28003" lon="1.25309">
        <ele>147.513256</ele>
        <time>2021-09-07T11:18:13.000Z</time>
      </trkpt>
      <trkpt lat="48.27988" lon="1.2533">
        <ele>147.005878</ele>
        <time>2021-09-07T11:18:17.000Z</time>
      </trkpt>
      <trkpt lat="48.27966" lon="1.25372">
        <ele>146.119031</ele>
        <time>2021-09-07T11:18:24.000Z</time>
      </trkpt>
      <trkpt lat="48.27951" lon="1.254">
        <ele>145.525922</ele>
        <time>2021-09-07T11:18:29.000Z</time>
      </trkpt>
      <trkpt lat="48.27945" lon="1.25409">
        <ele>145.316843</ele>
        <time>2021-09-07T11:18:31.000Z</time>
      </trkpt>
      <trkpt lat="48.2793" lon="1.25426">
        <ele>144.98899</ele>
        <time>2021-09-07T11:18:36.000Z</time>
      </trkpt>
      <trkpt lat="48.27913" lon="1.25437">
        <ele>144.847591</ele>
        <time>2021-09-07T11:18:40.000Z</time>
      </trkpt>
      <trkpt lat="48.27904" lon="1.25441">
        <ele>144.773513</ele>
        <time>2021-09-07T11:18:42.000Z</time>
      </trkpt>
      <trkpt lat="48.27895" lon="1.25445">
        <ele>144.695172</ele>
        <time>2021-09-07T11:18:44.000Z</time>
      </trkpt>
      <trkpt lat="48.27875" lon="1.25455">
        <ele>144.530977</ele>
        <time>2021-09-07T11:18:48.000Z</time>
      </trkpt>
      <trkpt lat="48.27836" lon="1.2548">
        <ele>144.198441</ele>
        <time>2021-09-07T11:18:56.000Z</time>
      </trkpt>
      <trkpt lat="48.27831" lon="1.25484">
        <ele>144.158077</ele>
        <time>2021-09-07T11:18:57.000Z</time>
      </trkpt>
      <trkpt lat="48.27806" lon="1.25501">
        <ele>143.938127</ele>
        <time>2021-09-07T11:19:02.000Z</time>
      </trkpt>
      <trkpt lat="48.27772" lon="1.25525">
        <ele>143.649864</ele>
        <time>2021-09-07T11:19:09.000Z</time>
      </trkpt>
      <trkpt lat="48.27733" lon="1.25556">
        <ele>143.630062</ele>
        <time>2021-09-07T11:19:17.000Z</time>
      </trkpt>
      <trkpt lat="48.27724" lon="1.25565">
        <ele>143.625262</ele>
        <time>2021-09-07T11:19:19.000Z</time>
      </trkpt>
      <trkpt lat="48.27716" lon="1.25575">
        <ele>143.620534</ele>
        <time>2021-09-07T11:19:21.000Z</time>
      </trkpt>
      <trkpt lat="48.27689" lon="1.25619">
        <ele>143.602481</ele>
        <time>2021-09-07T11:19:29.000Z</time>
      </trkpt>
      <trkpt lat="48.27666" lon="1.25666">
        <ele>143.584838</ele>
        <time>2021-09-07T11:19:37.000Z</time>
      </trkpt>
      <trkpt lat="48.27639" lon="1.25718">
        <ele>143.531243</ele>
        <time>2021-09-07T11:19:46.000Z</time>
      </trkpt>
      <trkpt lat="48.27619" lon="1.25758">
        <ele>143.385075</ele>
        <time>2021-09-07T11:19:53.000Z</time>
      </trkpt>
      <trkpt lat="48.276" lon="1.25794">
        <ele>143.247472</ele>
        <time>2021-09-07T11:20:00.000Z</time>
      </trkpt>
      <trkpt lat="48.27575" lon="1.25841">
        <ele>143.070824</ele>
        <time>2021-09-07T11:20:09.000Z</time>
      </trkpt>
      <trkpt lat="48.27548" lon="1.25888">
        <ele>142.888217</ele>
        <time>2021-09-07T11:20:18.000Z</time>
      </trkpt>
      <trkpt lat="48.2752" lon="1.25931">
        <ele>142.71134</ele>
        <time>2021-09-07T11:20:27.000Z</time>
      </trkpt>
      <trkpt lat="48.27491" lon="1.25971">
        <ele>142.526229</ele>
        <time>2021-09-07T11:20:36.000Z</time>
      </trkpt>
      <trkpt lat="48.27461" lon="1.2601">
        <ele>142.340151</ele>
        <time>2021-09-07T11:20:45.000Z</time>
      </trkpt>
      <trkpt lat="48.27434" lon="1.26045">
        <ele>142.173855</ele>
        <time>2021-09-07T11:20:53.000Z</time>
      </trkpt>
      <trkpt lat="48.27407" lon="1.26079">
        <ele>142.011647</ele>
        <time>2021-09-07T11:21:01.000Z</time>
      </trkpt>
      <trkpt lat="48.27379" lon="1.26115">
        <ele>141.959917</ele>
        <time>2021-09-07T11:21:10.000Z</time>
      </trkpt>
      <trkpt lat="48.27358" lon="1.26142">
        <ele>141.992037</ele>
        <time>2021-09-07T11:21:17.000Z</time>
      </trkpt>
      <trkpt lat="48.27333" lon="1.26177">
        <ele>142.031851</ele>
        <time>2021-09-07T11:21:25.000Z</time>
      </trkpt>
      <trkpt lat="48.27308" lon="1.2622">
        <ele>142.076245</ele>
        <time>2021-09-07T11:21:33.000Z</time>
      </trkpt>
      <trkpt lat="48.27305" lon="1.26226">
        <ele>142.081741</ele>
        <time>2021-09-07T11:21:34.000Z</time>
      </trkpt>
      <trkpt lat="48.27302" lon="1.26231">
        <ele>142.087084</ele>
        <time>2021-09-07T11:21:35.000Z</time>
      </trkpt>
      <trkpt lat="48.27288" lon="1.26258">
        <ele>142.114081</ele>
        <time>2021-09-07T11:21:40.000Z</time>
      </trkpt>
      <trkpt lat="48.27265" lon="1.26303">
        <ele>142.151863</ele>
        <time>2021-09-07T11:21:49.000Z</time>
      </trkpt>
      <trkpt lat="48.27251" lon="1.26331">
        <ele>142.164886</ele>
        <time>2021-09-07T11:21:55.000Z</time>
      </trkpt>
      <trkpt lat="48.27236" lon="1.2636">
        <ele>142.178852</ele>
        <time>2021-09-07T11:22:01.000Z</time>
      </trkpt>
      <trkpt lat="48.2723" lon="1.26376">
        <ele>142.185973</ele>
        <time>2021-09-07T11:22:04.000Z</time>
      </trkpt>
      <trkpt lat="48.27221" lon="1.26397">
        <ele>142.195528</ele>
        <time>2021-09-07T11:22:08.000Z</time>
      </trkpt>
      <trkpt lat="48.27204" lon="1.26433">
        <ele>142.212181</ele>
        <time>2021-09-07T11:22:15.000Z</time>
      </trkpt>
      <trkpt lat="48.27187" lon="1.26462">
        <ele>142.226914</ele>
        <time>2021-09-07T11:22:21.000Z</time>
      </trkpt>
      <trkpt lat="48.27184" lon="1.26467">
        <ele>142.229414</ele>
        <time>2021-09-07T11:22:22.000Z</time>
      </trkpt>
      <trkpt lat="48.27181" lon="1.26472">
        <ele>142.231868</ele>
        <time>2021-09-07T11:22:23.000Z</time>
      </trkpt>
      <trkpt lat="48.27162" lon="1.26505">
        <ele>142.247417</ele>
        <time>2021-09-07T11:22:30.000Z</time>
      </trkpt>
      <trkpt lat="48.27144" lon="1.2654">
        <ele>142.206262</ele>
        <time>2021-09-07T11:22:37.000Z</time>
      </trkpt>
      <trkpt lat="48.27132" lon="1.26572">
        <ele>142.171065</ele>
        <time>2021-09-07T11:22:43.000Z</time>
      </trkpt>
      <trkpt lat="48.27121" lon="1.26617">
        <ele>142.125506</ele>
        <time>2021-09-07T11:22:51.000Z</time>
      </trkpt>
      <trkpt lat="48.27114" lon="1.26662">
        <ele>142.082103</ele>
        <time>2021-09-07T11:22:58.000Z</time>
      </trkpt>
      <trkpt lat="48.27107" lon="1.26708">
        <ele>142.036508</ele>
        <time>2021-09-07T11:23:05.000Z</time>
      </trkpt>
      <trkpt lat="48.27105" lon="1.26721">
        <ele>142.024209</ele>
        <time>2021-09-07T11:23:07.000Z</time>
      </trkpt>
      <trkpt lat="48.27097" lon="1.26763">
        <ele>141.986473</ele>
        <time>2021-09-07T11:23:14.000Z</time>
      </trkpt>
      <trkpt lat="48.27087" lon="1.26814">
        <ele>141.958856</ele>
        <time>2021-09-07T11:23:22.000Z</time>
      </trkpt>
      <trkpt lat="48.27083" lon="1.26858">
        <ele>141.93549</ele>
        <time>2021-09-07T11:23:29.000Z</time>
      </trkpt>
      <trkpt lat="48.27081" lon="1.2687">
        <ele>141.928653</ele>
        <time>2021-09-07T11:23:31.000Z</time>
      </trkpt>
      <trkpt lat="48.27078" lon="1.2689">
        <ele>141.917748</ele>
        <time>2021-09-07T11:23:34.000Z</time>
      </trkpt>
      <trkpt lat="48.27075" lon="1.26903">
        <ele>141.910537</ele>
        <time>2021-09-07T11:23:36.000Z</time>
      </trkpt>
      <trkpt lat="48.27072" lon="1.26915">
        <ele>141.903923</ele>
        <time>2021-09-07T11:23:38.000Z</time>
      </trkpt>
      <trkpt lat="48.27073" lon="1.26922">
        <ele>141.900489</ele>
        <time>2021-09-07T11:23:39.000Z</time>
      </trkpt>
      <trkpt lat="48.27076" lon="1.26962">
        <ele>141.878807</ele>
        <time>2021-09-07T11:23:45.000Z</time>
      </trkpt>
      <trkpt lat="48.27076" lon="1.27014">
        <ele>141.851362</ele>
        <time>2021-09-07T11:23:53.000Z</time>
      </trkpt>
      <trkpt lat="48.27076" lon="1.27041">
        <ele>141.853985</ele>
        <time>2021-09-07T11:23:57.000Z</time>
      </trkpt>
      <trkpt lat="48.27076" lon="1.27061">
        <ele>141.858446</ele>
        <time>2021-09-07T11:24:00.000Z</time>
      </trkpt>
      <trkpt lat="48.27075" lon="1.27119">
        <ele>141.871158</ele>
        <time>2021-09-07T11:24:09.000Z</time>
      </trkpt>
      <trkpt lat="48.27073" lon="1.27159">
        <ele>141.87997</ele>
        <time>2021-09-07T11:24:15.000Z</time>
      </trkpt>
      <trkpt lat="48.27074" lon="1.27185">
        <ele>141.885727</ele>
        <time>2021-09-07T11:24:19.000Z</time>
      </trkpt>
      <trkpt lat="48.27074" lon="1.27199">
        <ele>141.88869</ele>
        <time>2021-09-07T11:24:21.000Z</time>
      </trkpt>
      <trkpt lat="48.27074" lon="1.27206">
        <ele>141.890226</ele>
        <time>2021-09-07T11:24:22.000Z</time>
      </trkpt>
      <trkpt lat="48.27074" lon="1.27239">
        <ele>141.897601</ele>
        <time>2021-09-07T11:24:27.000Z</time>
      </trkpt>
      <trkpt lat="48.27073" lon="1.27279">
        <ele>141.906426</ele>
        <time>2021-09-07T11:24:33.000Z</time>
      </trkpt>
      <trkpt lat="48.27073" lon="1.27339">
        <ele>141.950856</ele>
        <time>2021-09-07T11:24:42.000Z</time>
      </trkpt>
      <trkpt lat="48.27073" lon="1.27383">
        <ele>141.988149</ele>
        <time>2021-09-07T11:24:49.000Z</time>
      </trkpt>
      <trkpt lat="48.27072" lon="1.2739">
        <ele>141.993643</ele>
        <time>2021-09-07T11:24:50.000Z</time>
      </trkpt>
      <trkpt lat="48.27073" lon="1.27396">
        <ele>141.999204</ele>
        <time>2021-09-07T11:24:51.000Z</time>
      </trkpt>
      <trkpt lat="48.27072" lon="1.27421">
        <ele>142.020172</ele>
        <time>2021-09-07T11:24:55.000Z</time>
      </trkpt>
      <trkpt lat="48.27073" lon="1.27427">
        <ele>142.025345</ele>
        <time>2021-09-07T11:24:56.000Z</time>
      </trkpt>
      <trkpt lat="48.27071" lon="1.27451">
        <ele>142.045103</ele>
        <time>2021-09-07T11:25:00.000Z</time>
      </trkpt>
      <trkpt lat="48.27058" lon="1.27498">
        <ele>142.088176</ele>
        <time>2021-09-07T11:25:08.000Z</time>
      </trkpt>
      <trkpt lat="48.27055" lon="1.27504">
        <ele>142.093643</ele>
        <time>2021-09-07T11:25:09.000Z</time>
      </trkpt>
      <trkpt lat="48.27039" lon="1.27534">
        <ele>142.126528</ele>
        <time>2021-09-07T11:25:15.000Z</time>
      </trkpt>
      <trkpt lat="48.27015" lon="1.27579">
        <ele>142.179144</ele>
        <time>2021-09-07T11:25:24.000Z</time>
      </trkpt>
      <trkpt lat="48.26994" lon="1.27618">
        <ele>142.226517</ele>
        <time>2021-09-07T11:25:32.000Z</time>
      </trkpt>
      <trkpt lat="48.26977" lon="1.2765">
        <ele>142.264239</ele>
        <time>2021-09-07T11:25:39.000Z</time>
      </trkpt>
      <trkpt lat="48.26956" lon="1.27689">
        <ele>142.310716</ele>
        <time>2021-09-07T11:25:47.000Z</time>
      </trkpt>
      <trkpt lat="48.26941" lon="1.27726">
        <ele>142.351282</ele>
        <time>2021-09-07T11:25:54.000Z</time>
      </trkpt>
      <trkpt lat="48.26937" lon="1.27737">
        <ele>142.362701</ele>
        <time>2021-09-07T11:25:56.000Z</time>
      </trkpt>
      <trkpt lat="48.2692" lon="1.27783">
        <ele>142.415186</ele>
        <time>2021-09-07T11:26:05.000Z</time>
      </trkpt>
      <trkpt lat="48.26911" lon="1.27812">
        <ele>142.449933</ele>
        <time>2021-09-07T11:26:11.000Z</time>
      </trkpt>
      <trkpt lat="48.26897" lon="1.27852">
        <ele>142.49787</ele>
        <time>2021-09-07T11:26:19.000Z</time>
      </trkpt>
      <trkpt lat="48.26882" lon="1.27893">
        <ele>142.547888</ele>
        <time>2021-09-07T11:26:27.000Z</time>
      </trkpt>
      <trkpt lat="48.26871" lon="1.27927">
        <ele>142.5884</ele>
        <time>2021-09-07T11:26:34.000Z</time>
      </trkpt>
      <trkpt lat="48.26856" lon="1.27967">
        <ele>142.637437</ele>
        <time>2021-09-07T11:26:42.000Z</time>
      </trkpt>
      <trkpt lat="48.26844" lon="1.28002">
        <ele>142.672979</ele>
        <time>2021-09-07T11:26:49.000Z</time>
      </trkpt>
      <trkpt lat="48.26829" lon="1.28045">
        <ele>142.608372</ele>
        <time>2021-09-07T11:26:58.000Z</time>
      </trkpt>
      <trkpt lat="48.26818" lon="1.28077">
        <ele>142.559207</ele>
        <time>2021-09-07T11:27:05.000Z</time>
      </trkpt>
      <trkpt lat="48.26807" lon="1.28106">
        <ele>142.514436</ele>
        <time>2021-09-07T11:27:12.000Z</time>
      </trkpt>
      <trkpt lat="48.26797" lon="1.28137">
        <ele>142.468908</ele>
        <time>2021-09-07T11:27:19.000Z</time>
      </trkpt>
      <trkpt lat="48.26784" lon="1.28172">
        <ele>142.415369</ele>
        <time>2021-09-07T11:27:27.000Z</time>
      </trkpt>
      <trkpt lat="48.26771" lon="1.2821">
        <ele>142.3575</ele>
        <time>2021-09-07T11:27:35.000Z</time>
      </trkpt>
      <trkpt lat="48.26761" lon="1.28239">
        <ele>142.311109</ele>
        <time>2021-09-07T11:27:41.000Z</time>
      </trkpt>
      <trkpt lat="48.2675" lon="1.28274">
        <ele>142.131745</ele>
        <time>2021-09-07T11:27:48.000Z</time>
      </trkpt>
      <trkpt lat="48.26729" lon="1.28323">
        <ele>141.857565</ele>
        <time>2021-09-07T11:27:58.000Z</time>
      </trkpt>
      <trkpt lat="48.26711" lon="1.28346">
        <ele>141.692539</ele>
        <time>2021-09-07T11:28:04.000Z</time>
      </trkpt>
      <trkpt lat="48.26688" lon="1.28371">
        <ele>141.489592</ele>
        <time>2021-09-07T11:28:11.000Z</time>
      </trkpt>
      <trkpt lat="48.26661" lon="1.28399">
        <ele>141.2571</ele>
        <time>2021-09-07T11:28:19.000Z</time>
      </trkpt>
      <trkpt lat="48.26643" lon="1.28417">
        <ele>141.105196</ele>
        <time>2021-09-07T11:28:24.000Z</time>
      </trkpt>
      <trkpt lat="48.26639" lon="1.28422">
        <ele>141.072443</ele>
        <time>2021-09-07T11:28:25.000Z</time>
      </trkpt>
      <trkpt lat="48.26636" lon="1.28425">
        <ele>141.042108</ele>
        <time>2021-09-07T11:28:26.000Z</time>
      </trkpt>
      <trkpt lat="48.26613" lon="1.28448">
        <ele>140.888343</ele>
        <time>2021-09-07T11:28:32.000Z</time>
      </trkpt>
      <trkpt lat="48.26585" lon="1.28478">
        <ele>140.688926</ele>
        <time>2021-09-07T11:28:40.000Z</time>
      </trkpt>
      <trkpt lat="48.26547" lon="1.28516">
        <ele>140.429315</ele>
        <time>2021-09-07T11:28:50.000Z</time>
      </trkpt>
      <trkpt lat="48.26511" lon="1.28554">
        <ele>140.17537</ele>
        <time>2021-09-07T11:29:00.000Z</time>
      </trkpt>
      <trkpt lat="48.26476" lon="1.28591">
        <ele>139.971083</ele>
        <time>2021-09-07T11:29:10.000Z</time>
      </trkpt>
      <trkpt lat="48.26446" lon="1.28623">
        <ele>139.861448</ele>
        <time>2021-09-07T11:29:19.000Z</time>
      </trkpt>
      <trkpt lat="48.26419" lon="1.2865">
        <ele>139.76771</ele>
        <time>2021-09-07T11:29:26.000Z</time>
      </trkpt>
      <trkpt lat="48.26394" lon="1.28677">
        <ele>139.675719</ele>
        <time>2021-09-07T11:29:33.000Z</time>
      </trkpt>
      <trkpt lat="48.26369" lon="1.28703">
        <ele>139.585715</ele>
        <time>2021-09-07T11:29:40.000Z</time>
      </trkpt>
      <trkpt lat="48.26343" lon="1.28728">
        <ele>139.494191</ele>
        <time>2021-09-07T11:29:47.000Z</time>
      </trkpt>
      <trkpt lat="48.26319" lon="1.28756">
        <ele>139.321776</ele>
        <time>2021-09-07T11:29:54.000Z</time>
      </trkpt>
      <trkpt lat="48.263" lon="1.28776">
        <ele>139.185039</ele>
        <time>2021-09-07T11:29:59.000Z</time>
      </trkpt>
      <trkpt lat="48.2629" lon="1.28788">
        <ele>139.106259</ele>
        <time>2021-09-07T11:30:02.000Z</time>
      </trkpt>
      <trkpt lat="48.26278" lon="1.28805">
        <ele>139.003898</ele>
        <time>2021-09-07T11:30:06.000Z</time>
      </trkpt>
      <trkpt lat="48.26266" lon="1.28822">
        <ele>138.90352</ele>
        <time>2021-09-07T11:30:10.000Z</time>
      </trkpt>
      <trkpt lat="48.26246" lon="1.28851">
        <ele>138.737507</ele>
        <time>2021-09-07T11:30:17.000Z</time>
      </trkpt>
      <trkpt lat="48.26221" lon="1.28888">
        <ele>138.525592</ele>
        <time>2021-09-07T11:30:25.000Z</time>
      </trkpt>
      <trkpt lat="48.262" lon="1.28924">
        <ele>138.353004</ele>
        <time>2021-09-07T11:30:32.000Z</time>
      </trkpt>
      <trkpt lat="48.26197" lon="1.28929">
        <ele>138.333528</ele>
        <time>2021-09-07T11:30:33.000Z</time>
      </trkpt>
      <trkpt lat="48.26179" lon="1.28969">
        <ele>138.199125</ele>
        <time>2021-09-07T11:30:40.000Z</time>
      </trkpt>
      <trkpt lat="48.26166" lon="1.29004">
        <ele>138.087819</ele>
        <time>2021-09-07T11:30:46.000Z</time>
      </trkpt>
      <trkpt lat="48.26151" lon="1.29055">
        <ele>137.934395</ele>
        <time>2021-09-07T11:30:54.000Z</time>
      </trkpt>
      <trkpt lat="48.26141" lon="1.29097">
        <ele>137.80792</ele>
        <time>2021-09-07T11:31:01.000Z</time>
      </trkpt>
      <trkpt lat="48.26127" lon="1.2916">
        <ele>137.623547</ele>
        <time>2021-09-07T11:31:11.000Z</time>
      </trkpt>
      <trkpt lat="48.26121" lon="1.29185">
        <ele>137.545077</ele>
        <time>2021-09-07T11:31:15.000Z</time>
      </trkpt>
      <trkpt lat="48.26118" lon="1.29196">
        <ele>137.508595</ele>
        <time>2021-09-07T11:31:17.000Z</time>
      </trkpt>
      <trkpt lat="48.26117" lon="1.29201">
        <ele>137.490362</ele>
        <time>2021-09-07T11:31:18.000Z</time>
      </trkpt>
      <trkpt lat="48.26109" lon="1.29237">
        <ele>137.37901</ele>
        <time>2021-09-07T11:31:24.000Z</time>
      </trkpt>
      <trkpt lat="48.26108" lon="1.29243">
        <ele>137.360495</ele>
        <time>2021-09-07T11:31:25.000Z</time>
      </trkpt>
      <trkpt lat="48.26095" lon="1.29298">
        <ele>137.182778</ele>
        <time>2021-09-07T11:31:35.000Z</time>
      </trkpt>
      <trkpt lat="48.26085" lon="1.29339">
        <ele>137.054608</ele>
        <time>2021-09-07T11:31:43.000Z</time>
      </trkpt>
      <trkpt lat="48.26071" lon="1.29386">
        <ele>136.900539</ele>
        <time>2021-09-07T11:31:52.000Z</time>
      </trkpt>
      <trkpt lat="48.26054" lon="1.2943">
        <ele>136.840323</ele>
        <time>2021-09-07T11:32:00.000Z</time>
      </trkpt>
      <trkpt lat="48.26035" lon="1.29473">
        <ele>136.849764</ele>
        <time>2021-09-07T11:32:07.000Z</time>
      </trkpt>
      <trkpt lat="48.26008" lon="1.29528">
        <ele>136.862545</ele>
        <time>2021-09-07T11:32:16.000Z</time>
      </trkpt>
      <trkpt lat="48.25988" lon="1.2957">
        <ele>136.871991</ele>
        <time>2021-09-07T11:32:23.000Z</time>
      </trkpt>
      <trkpt lat="48.25973" lon="1.29603">
        <ele>136.879463</ele>
        <time>2021-09-07T11:32:29.000Z</time>
      </trkpt>
      <trkpt lat="48.25955" lon="1.29642">
        <ele>136.848266</ele>
        <time>2021-09-07T11:32:37.000Z</time>
      </trkpt>
      <trkpt lat="48.25939" lon="1.29676">
        <ele>136.764697</ele>
        <time>2021-09-07T11:32:44.000Z</time>
      </trkpt>
      <trkpt lat="48.25924" lon="1.29708">
        <ele>136.683467</ele>
        <time>2021-09-07T11:32:51.000Z</time>
      </trkpt>
      <trkpt lat="48.25904" lon="1.29752">
        <ele>136.575779</ele>
        <time>2021-09-07T11:33:00.000Z</time>
      </trkpt>
      <trkpt lat="48.25882" lon="1.29798">
        <ele>136.461503</ele>
        <time>2021-09-07T11:33:09.000Z</time>
      </trkpt>
      <trkpt lat="48.25864" lon="1.29837">
        <ele>136.365103</ele>
        <time>2021-09-07T11:33:17.000Z</time>
      </trkpt>
      <trkpt lat="48.25846" lon="1.29876">
        <ele>136.204222</ele>
        <time>2021-09-07T11:33:25.000Z</time>
      </trkpt>
      <trkpt lat="48.25827" lon="1.29916">
        <ele>136.012668</ele>
        <time>2021-09-07T11:33:33.000Z</time>
      </trkpt>
      <trkpt lat="48.25807" lon="1.29953">
        <ele>135.823924</ele>
        <time>2021-09-07T11:33:41.000Z</time>
      </trkpt>
      <trkpt lat="48.25789" lon="1.29986">
        <ele>135.658645</ele>
        <time>2021-09-07T11:33:48.000Z</time>
      </trkpt>
      <trkpt lat="48.25762" lon="1.30029">
        <ele>135.426112</ele>
        <time>2021-09-07T11:33:57.000Z</time>
      </trkpt>
      <trkpt lat="48.25739" lon="1.30063">
        <ele>135.264044</ele>
        <time>2021-09-07T11:34:05.000Z</time>
      </trkpt>
      <trkpt lat="48.25715" lon="1.30096">
        <ele>135.195635</ele>
        <time>2021-09-07T11:34:13.000Z</time>
      </trkpt>
      <trkpt lat="48.25687" lon="1.30136">
        <ele>135.114696</ele>
        <time>2021-09-07T11:34:22.000Z</time>
      </trkpt>
      <trkpt lat="48.25662" lon="1.30174">
        <ele>135.037862</ele>
        <time>2021-09-07T11:34:31.000Z</time>
      </trkpt>
      <trkpt lat="48.25636" lon="1.30216">
        <ele>134.957397</ele>
        <time>2021-09-07T11:34:40.000Z</time>
      </trkpt>
      <trkpt lat="48.25611" lon="1.30259">
        <ele>134.881001</ele>
        <time>2021-09-07T11:34:49.000Z</time>
      </trkpt>
      <trkpt lat="48.25591" lon="1.30293">
        <ele>134.831653</ele>
        <time>2021-09-07T11:34:56.000Z</time>
      </trkpt>
      <trkpt lat="48.25568" lon="1.30334">
        <ele>134.771948</ele>
        <time>2021-09-07T11:35:04.000Z</time>
      </trkpt>
      <trkpt lat="48.25546" lon="1.30374">
        <ele>134.713585</ele>
        <time>2021-09-07T11:35:12.000Z</time>
      </trkpt>
      <trkpt lat="48.25521" lon="1.30418">
        <ele>134.64892</ele>
        <time>2021-09-07T11:35:21.000Z</time>
      </trkpt>
      <trkpt lat="48.25497" lon="1.30461">
        <ele>134.590925</ele>
        <time>2021-09-07T11:35:29.000Z</time>
      </trkpt>
      <trkpt lat="48.25472" lon="1.30506">
        <ele>134.550166</ele>
        <time>2021-09-07T11:35:37.000Z</time>
      </trkpt>
      <trkpt lat="48.25459" lon="1.30528">
        <ele>134.530055</ele>
        <time>2021-09-07T11:35:41.000Z</time>
      </trkpt>
      <trkpt lat="48.2545" lon="1.30544">
        <ele>134.515469</ele>
        <time>2021-09-07T11:35:44.000Z</time>
      </trkpt>
      <trkpt lat="48.25427" lon="1.30584">
        <ele>134.477858</ele>
        <time>2021-09-07T11:35:52.000Z</time>
      </trkpt>
      <trkpt lat="48.25404" lon="1.30624">
        <ele>134.441215</ele>
        <time>2021-09-07T11:36:00.000Z</time>
      </trkpt>
      <trkpt lat="48.25376" lon="1.30673">
        <ele>134.40394</ele>
        <time>2021-09-07T11:36:10.000Z</time>
      </trkpt>
      <trkpt lat="48.25354" lon="1.30715">
        <ele>134.38864</ele>
        <time>2021-09-07T11:36:18.000Z</time>
      </trkpt>
      <trkpt lat="48.25336" lon="1.30768">
        <ele>134.371615</ele>
        <time>2021-09-07T11:36:27.000Z</time>
      </trkpt>
      <trkpt lat="48.25328" lon="1.30805">
        <ele>134.36036</ele>
        <time>2021-09-07T11:36:33.000Z</time>
      </trkpt>
      <trkpt lat="48.25327" lon="1.30811">
        <ele>134.358521</ele>
        <time>2021-09-07T11:36:34.000Z</time>
      </trkpt>
      <trkpt lat="48.25321" lon="1.30866">
        <ele>134.342557</ele>
        <time>2021-09-07T11:36:43.000Z</time>
      </trkpt>
      <trkpt lat="48.25315" lon="1.30917">
        <ele>134.310258</ele>
        <time>2021-09-07T11:36:52.000Z</time>
      </trkpt>
      <trkpt lat="48.2531" lon="1.3096">
        <ele>134.244798</ele>
        <time>2021-09-07T11:37:00.000Z</time>
      </trkpt>
      <trkpt lat="48.25306" lon="1.30991">
        <ele>134.196918</ele>
        <time>2021-09-07T11:37:06.000Z</time>
      </trkpt>
      <trkpt lat="48.25299" lon="1.3105">
        <ele>134.1073</ele>
        <time>2021-09-07T11:37:17.000Z</time>
      </trkpt>
      <trkpt lat="48.25291" lon="1.31103">
        <ele>134.027118</ele>
        <time>2021-09-07T11:37:27.000Z</time>
      </trkpt>
      <trkpt lat="48.25281" lon="1.31155">
        <ele>133.945317</ele>
        <time>2021-09-07T11:37:37.000Z</time>
      </trkpt>
      <trkpt lat="48.2527" lon="1.31207">
        <ele>133.793736</ele>
        <time>2021-09-07T11:37:47.000Z</time>
      </trkpt>
      <trkpt lat="48.25258" lon="1.31263">
        <ele>133.61194</ele>
        <time>2021-09-07T11:37:57.000Z</time>
      </trkpt>
      <trkpt lat="48.25247" lon="1.31309">
        <ele>133.462265</ele>
        <time>2021-09-07T11:38:05.000Z</time>
      </trkpt>
      <trkpt lat="48.25239" lon="1.31347">
        <ele>133.336749</ele>
        <time>2021-09-07T11:38:12.000Z</time>
      </trkpt>
      <trkpt lat="48.25231" lon="1.31393">
        <ele>133.188329</ele>
        <time>2021-09-07T11:38:20.000Z</time>
      </trkpt>
      <trkpt lat="48.25226" lon="1.31446">
        <ele>133.117147</ele>
        <time>2021-09-07T11:38:29.000Z</time>
      </trkpt>
      <trkpt lat="48.25227" lon="1.31488">
        <ele>133.172634</ele>
        <time>2021-09-07T11:38:36.000Z</time>
      </trkpt>
      <trkpt lat="48.25229" lon="1.31536">
        <ele>133.235398</ele>
        <time>2021-09-07T11:38:44.000Z</time>
      </trkpt>
      <trkpt lat="48.2523" lon="1.31542">
        <ele>133.243803</ele>
        <time>2021-09-07T11:38:45.000Z</time>
      </trkpt>
      <trkpt lat="48.25233" lon="1.31585">
        <ele>133.300287</ele>
        <time>2021-09-07T11:38:52.000Z</time>
      </trkpt>
      <trkpt lat="48.25237" lon="1.31635">
        <ele>133.366701</ele>
        <time>2021-09-07T11:39:00.000Z</time>
      </trkpt>
      <trkpt lat="48.2524" lon="1.31683">
        <ele>133.430073</ele>
        <time>2021-09-07T11:39:08.000Z</time>
      </trkpt>
      <trkpt lat="48.25243" lon="1.31738">
        <ele>133.507173</ele>
        <time>2021-09-07T11:39:17.000Z</time>
      </trkpt>
      <trkpt lat="48.25243" lon="1.31749">
        <ele>133.52406</ele>
        <time>2021-09-07T11:39:19.000Z</time>
      </trkpt>
      <trkpt lat="48.25242" lon="1.31762">
        <ele>133.541813</ele>
        <time>2021-09-07T11:39:21.000Z</time>
      </trkpt>
      <trkpt lat="48.2524" lon="1.31775">
        <ele>133.560839</ele>
        <time>2021-09-07T11:39:23.000Z</time>
      </trkpt>
      <trkpt lat="48.25238" lon="1.31788">
        <ele>133.580065</ele>
        <time>2021-09-07T11:39:25.000Z</time>
      </trkpt>
      <trkpt lat="48.2523" lon="1.31811">
        <ele>133.616364</ele>
        <time>2021-09-07T11:39:29.000Z</time>
      </trkpt>
      <trkpt lat="48.25227" lon="1.31816">
        <ele>133.624869</ele>
        <time>2021-09-07T11:39:30.000Z</time>
      </trkpt>
      <trkpt lat="48.25216" lon="1.31832">
        <ele>133.658456</ele>
        <time>2021-09-07T11:39:34.000Z</time>
      </trkpt>
      <trkpt lat="48.25189" lon="1.31864">
        <ele>133.732259</ele>
        <time>2021-09-07T11:39:42.000Z</time>
      </trkpt>
      <trkpt lat="48.25166" lon="1.31891">
        <ele>133.794295</ele>
        <time>2021-09-07T11:39:49.000Z</time>
      </trkpt>
      <trkpt lat="48.25143" lon="1.31915">
        <ele>133.876731</ele>
        <time>2021-09-07T11:39:56.000Z</time>
      </trkpt>
      <trkpt lat="48.2514" lon="1.31919">
        <ele>133.892692</ele>
        <time>2021-09-07T11:39:57.000Z</time>
      </trkpt>
      <trkpt lat="48.25127" lon="1.31933">
        <ele>133.9559</ele>
        <time>2021-09-07T11:40:01.000Z</time>
      </trkpt>
      <trkpt lat="48.25114" lon="1.31949">
        <ele>134.021075</ele>
        <time>2021-09-07T11:40:05.000Z</time>
      </trkpt>
      <trkpt lat="48.25104" lon="1.31961">
        <ele>134.072746</ele>
        <time>2021-09-07T11:40:08.000Z</time>
      </trkpt>
      <trkpt lat="48.2509" lon="1.31978">
        <ele>134.142479</ele>
        <time>2021-09-07T11:40:12.000Z</time>
      </trkpt>
      <trkpt lat="48.25082" lon="1.31993">
        <ele>134.194615</ele>
        <time>2021-09-07T11:40:15.000Z</time>
      </trkpt>
      <trkpt lat="48.25069" lon="1.32036">
        <ele>134.317528</ele>
        <time>2021-09-07T11:40:22.000Z</time>
      </trkpt>
      <trkpt lat="48.2506" lon="1.32079">
        <ele>134.438122</ele>
        <time>2021-09-07T11:40:29.000Z</time>
      </trkpt>
      <trkpt lat="48.25047" lon="1.32111">
        <ele>134.536053</ele>
        <time>2021-09-07T11:40:35.000Z</time>
      </trkpt>
      <trkpt lat="48.25031" lon="1.32147">
        <ele>134.524677</ele>
        <time>2021-09-07T11:40:42.000Z</time>
      </trkpt>
      <trkpt lat="48.25028" lon="1.32152">
        <ele>134.522479</ele>
        <time>2021-09-07T11:40:43.000Z</time>
      </trkpt>
      <trkpt lat="48.25014" lon="1.32189">
        <ele>134.508175</ele>
        <time>2021-09-07T11:40:50.000Z</time>
      </trkpt>
      <trkpt lat="48.25007" lon="1.32202">
        <ele>134.502473</ele>
        <time>2021-09-07T11:40:53.000Z</time>
      </trkpt>
      <trkpt lat="48.25004" lon="1.32203">
        <ele>134.500672</ele>
        <time>2021-09-07T11:40:54.000Z</time>
      </trkpt>
      <trkpt lat="48.25001" lon="1.32206">
        <ele>134.499107</ele>
        <time>2021-09-07T11:40:55.000Z</time>
      </trkpt>
      <trkpt lat="48.25001" lon="1.3221">
        <ele>134.497684</ele>
        <time>2021-09-07T11:40:56.000Z</time>
      </trkpt>
      <trkpt lat="48.25012" lon="1.32227">
        <ele>134.490044</ele>
        <time>2021-09-07T11:41:00.000Z</time>
      </trkpt>
      <trkpt lat="48.25021" lon="1.32239">
        <ele>134.483795</ele>
        <time>2021-09-07T11:41:03.000Z</time>
      </trkpt>
      <trkpt lat="48.25033" lon="1.32249">
        <ele>134.476797</ele>
        <time>2021-09-07T11:41:06.000Z</time>
      </trkpt>
      <trkpt lat="48.25056" lon="1.32272">
        <ele>134.462532</ele>
        <time>2021-09-07T11:41:12.000Z</time>
      </trkpt>
      <trkpt lat="48.2508" lon="1.32292">
        <ele>134.448979</ele>
        <time>2021-09-07T11:41:18.000Z</time>
      </trkpt>
      <trkpt lat="48.25107" lon="1.3231">
        <ele>134.34839</ele>
        <time>2021-09-07T11:41:25.000Z</time>
      </trkpt>
      <trkpt lat="48.25109" lon="1.32322">
        <ele>134.318681</ele>
        <time>2021-09-07T11:41:27.000Z</time>
      </trkpt>
      <trkpt lat="48.25101" lon="1.32347">
        <ele>134.249438</ele>
        <time>2021-09-07T11:41:32.000Z</time>
      </trkpt>
      <trkpt lat="48.25087" lon="1.32386">
        <ele>134.14226</ele>
        <time>2021-09-07T11:41:40.000Z</time>
      </trkpt>
      <trkpt lat="48.25074" lon="1.32423">
        <ele>134.038478</ele>
        <time>2021-09-07T11:41:48.000Z</time>
      </trkpt>
      <trkpt lat="48.25058" lon="1.32471">
        <ele>133.907659</ele>
        <time>2021-09-07T11:41:58.000Z</time>
      </trkpt>
      <trkpt lat="48.25043" lon="1.32519">
        <ele>133.76865</ele>
        <time>2021-09-07T11:42:08.000Z</time>
      </trkpt>
      <trkpt lat="48.2503" lon="1.32557">
        <ele>133.533649</ele>
        <time>2021-09-07T11:42:16.000Z</time>
      </trkpt>
      <trkpt lat="48.25017" lon="1.32598">
        <ele>133.284274</ele>
        <time>2021-09-07T11:42:24.000Z</time>
      </trkpt>
      <trkpt lat="48.25004" lon="1.32635">
        <ele>133.051639</ele>
        <time>2021-09-07T11:42:32.000Z</time>
      </trkpt>
      <trkpt lat="48.24992" lon="1.32675">
        <ele>132.809748</ele>
        <time>2021-09-07T11:42:40.000Z</time>
      </trkpt>
      <trkpt lat="48.2498" lon="1.3271">
        <ele>132.596674</ele>
        <time>2021-09-07T11:42:47.000Z</time>
      </trkpt>
      <trkpt lat="48.24968" lon="1.32749">
        <ele>132.356268</ele>
        <time>2021-09-07T11:42:55.000Z</time>
      </trkpt>
      <trkpt lat="48.24954" lon="1.32786">
        <ele>132.277227</ele>
        <time>2021-09-07T11:43:03.000Z</time>
      </trkpt>
      <trkpt lat="48.24945" lon="1.32814">
        <ele>132.254705</ele>
        <time>2021-09-07T11:43:10.000Z</time>
      </trkpt>
      <trkpt lat="48.24933" lon="1.32839">
        <ele>132.233024</ele>
        <time>2021-09-07T11:43:17.000Z</time>
      </trkpt>
      <trkpt lat="48.24931" lon="1.32841">
        <ele>132.230844</ele>
        <time>2021-09-07T11:43:18.000Z</time>
      </trkpt>
      <trkpt lat="48.24925" lon="1.32846">
        <ele>132.22364</ele>
        <time>2021-09-07T11:43:22.000Z</time>
      </trkpt>
      <trkpt lat="48.24917" lon="1.32849">
        <ele>132.214252</ele>
        <time>2021-09-07T11:43:30.000Z</time>
      </trkpt>
      <trkpt lat="48.24914" lon="1.32849">
        <ele>132.211146</ele>
        <time>2021-09-07T11:43:33.000Z</time>
      </trkpt>
      <trkpt lat="48.2491" lon="1.32847">
        <ele>132.206909</ele>
        <time>2021-09-07T11:43:35.000Z</time>
      </trkpt>
      <trkpt lat="48.24896" lon="1.32845">
        <ele>132.191243</ele>
        <time>2021-09-07T11:43:40.000Z</time>
      </trkpt>
      <trkpt lat="48.24875" lon="1.32847">
        <ele>132.169418</ele>
        <time>2021-09-07T11:43:46.000Z</time>
      </trkpt>
      <trkpt lat="48.24862" lon="1.32858">
        <ele>132.153543</ele>
        <time>2021-09-07T11:43:52.000Z</time>
      </trkpt>
      <trkpt lat="48.24855" lon="1.32871">
        <ele>132.141236</ele>
        <time>2021-09-07T11:43:58.000Z</time>
      </trkpt>
      <trkpt lat="48.24851" lon="1.32886">
        <ele>132.130026</ele>
        <time>2021-09-07T11:44:05.000Z</time>
      </trkpt>
      <trkpt lat="48.24846" lon="1.32901">
        <ele>132.118185</ele>
        <time>2021-09-07T11:44:11.000Z</time>
      </trkpt>
      <trkpt lat="48.24838" lon="1.32923">
        <ele>132.150956</ele>
        <time>2021-09-07T11:44:18.000Z</time>
      </trkpt>
      <trkpt lat="48.24832" lon="1.32938">
        <ele>132.22419</ele>
        <time>2021-09-07T11:44:23.000Z</time>
      </trkpt>
      <trkpt lat="48.2483" lon="1.3294">
        <ele>132.239456</ele>
        <time>2021-09-07T11:44:24.000Z</time>
      </trkpt>
      <trkpt lat="48.24817" lon="1.32951">
        <ele>132.331289</ele>
        <time>2021-09-07T11:44:29.000Z</time>
      </trkpt>
      <trkpt lat="48.24793" lon="1.32963">
        <ele>132.487229</ele>
        <time>2021-09-07T11:44:37.000Z</time>
      </trkpt>
      <trkpt lat="48.2478" lon="1.32977">
        <ele>132.586826</ele>
        <time>2021-09-07T11:44:42.000Z</time>
      </trkpt>
      <trkpt lat="48.24777" lon="1.33002">
        <ele>132.692388</ele>
        <time>2021-09-07T11:44:48.000Z</time>
      </trkpt>
      <trkpt lat="48.24779" lon="1.33009">
        <ele>132.722695</ele>
        <time>2021-09-07T11:44:50.000Z</time>
      </trkpt>
      <trkpt lat="48.24781" lon="1.33015">
        <ele>132.755144</ele>
        <time>2021-09-07T11:44:52.000Z</time>
      </trkpt>
      <trkpt lat="48.24787" lon="1.33043">
        <ele>132.874758</ele>
        <time>2021-09-07T11:44:59.000Z</time>
      </trkpt>
      <trkpt lat="48.24789" lon="1.3307">
        <ele>132.989223</ele>
        <time>2021-09-07T11:45:05.000Z</time>
      </trkpt>
      <trkpt lat="48.24792" lon="1.33092">
        <ele>133.081811</ele>
        <time>2021-09-07T11:45:10.000Z</time>
      </trkpt>
      <trkpt lat="48.24794" lon="1.33128">
        <ele>133.227816</ele>
        <time>2021-09-07T11:45:17.000Z</time>
      </trkpt>
      <trkpt lat="48.24796" lon="1.33166">
        <ele>133.234136</ele>
        <time>2021-09-07T11:45:24.000Z</time>
      </trkpt>
      <trkpt lat="48.248" lon="1.33223">
        <ele>133.243947</ele>
        <time>2021-09-07T11:45:34.000Z</time>
      </trkpt>
      <trkpt lat="48.24803" lon="1.33256">
        <ele>133.249579</ele>
        <time>2021-09-07T11:45:40.000Z</time>
      </trkpt>
      <trkpt lat="48.24808" lon="1.33297">
        <ele>133.256614</ele>
        <time>2021-09-07T11:45:48.000Z</time>
      </trkpt>
      <trkpt lat="48.24814" lon="1.33314">
        <ele>133.259863</ele>
        <time>2021-09-07T11:45:52.000Z</time>
      </trkpt>
      <trkpt lat="48.2483" lon="1.33335">
        <ele>133.265159</ele>
        <time>2021-09-07T11:45:58.000Z</time>
      </trkpt>
      <trkpt lat="48.24843" lon="1.33351">
        <ele>133.269572</ele>
        <time>2021-09-07T11:46:03.000Z</time>
      </trkpt>
      <trkpt lat="48.24867" lon="1.33374">
        <ele>133.293903</ele>
        <time>2021-09-07T11:46:11.000Z</time>
      </trkpt>
      <trkpt lat="48.24888" lon="1.33393">
        <ele>133.331975</ele>
        <time>2021-09-07T11:46:18.000Z</time>
      </trkpt>
      <trkpt lat="48.24914" lon="1.33423">
        <ele>133.383209</ele>
        <time>2021-09-07T11:46:28.000Z</time>
      </trkpt>
      <trkpt lat="48.24934" lon="1.33447">
        <ele>133.422619</ele>
        <time>2021-09-07T11:46:36.000Z</time>
      </trkpt>
      <trkpt lat="48.24947" lon="1.33469">
        <ele>133.452572</ele>
        <time>2021-09-07T11:46:44.000Z</time>
      </trkpt>
      <trkpt lat="48.24955" lon="1.33487">
        <ele>133.475473</ele>
        <time>2021-09-07T11:46:50.000Z</time>
      </trkpt>
      <trkpt lat="48.24964" lon="1.3351">
        <ele>133.502688</ele>
        <time>2021-09-07T11:46:57.000Z</time>
      </trkpt>
      <trkpt lat="48.24976" lon="1.33538">
        <ele>133.536319</ele>
        <time>2021-09-07T11:47:05.000Z</time>
      </trkpt>
      <trkpt lat="48.24987" lon="1.33564">
        <ele>133.676666</ele>
        <time>2021-09-07T11:47:13.000Z</time>
      </trkpt>
      <trkpt lat="48.24996" lon="1.33587">
        <ele>133.889042</ele>
        <time>2021-09-07T11:47:20.000Z</time>
      </trkpt>
      <trkpt lat="48.25002" lon="1.336">
        <ele>134.014262</ele>
        <time>2021-09-07T11:47:24.000Z</time>
      </trkpt>
      <trkpt lat="48.25014" lon="1.3363">
        <ele>134.290899</ele>
        <time>2021-09-07T11:47:33.000Z</time>
      </trkpt>
      <trkpt lat="48.25026" lon="1.33659">
        <ele>134.558223</ele>
        <time>2021-09-07T11:47:42.000Z</time>
      </trkpt>
      <trkpt lat="48.25037" lon="1.33688">
        <ele>134.821203</ele>
        <time>2021-09-07T11:47:51.000Z</time>
      </trkpt>
      <trkpt lat="48.25035" lon="1.33711">
        <ele>134.998761</ele>
        <time>2021-09-07T11:47:57.000Z</time>
      </trkpt>
      <trkpt lat="48.25025" lon="1.3374">
        <ele>135.257548</ele>
        <time>2021-09-07T11:48:05.000Z</time>
      </trkpt>
      <trkpt lat="48.25021" lon="1.33757">
        <ele>135.401816</ele>
        <time>2021-09-07T11:48:10.000Z</time>
      </trkpt>
      <trkpt lat="48.25013" lon="1.33782">
        <ele>135.61238</ele>
        <time>2021-09-07T11:48:17.000Z</time>
      </trkpt>
      <trkpt lat="48.25007" lon="1.33803">
        <ele>135.767565</ele>
        <time>2021-09-07T11:48:23.000Z</time>
      </trkpt>
      <trkpt lat="48.25" lon="1.33839">
        <ele>135.998965</ele>
        <time>2021-09-07T11:48:33.000Z</time>
      </trkpt>
      <trkpt lat="48.24993" lon="1.33867">
        <ele>136.178857</ele>
        <time>2021-09-07T11:48:41.000Z</time>
      </trkpt>
      <trkpt lat="48.24986" lon="1.339">
        <ele>136.384676</ele>
        <time>2021-09-07T11:48:50.000Z</time>
      </trkpt>
      <trkpt lat="48.24979" lon="1.33939">
        <ele>136.632297</ele>
        <time>2021-09-07T11:49:01.000Z</time>
      </trkpt>
      <trkpt lat="48.24973" lon="1.33963">
        <ele>136.789525</ele>
        <time>2021-09-07T11:49:08.000Z</time>
      </trkpt>
      <trkpt lat="48.24966" lon="1.33993">
        <ele>136.97893</ele>
        <time>2021-09-07T11:49:16.000Z</time>
      </trkpt>
      <trkpt lat="48.2496" lon="1.3403">
        <ele>137.214599</ele>
        <time>2021-09-07T11:49:25.000Z</time>
      </trkpt>
      <trkpt lat="48.24954" lon="1.34059">
        <ele>137.203005</ele>
        <time>2021-09-07T11:49:30.000Z</time>
      </trkpt>
      <trkpt lat="48.24938" lon="1.34114">
        <ele>136.69605</ele>
        <time>2021-09-07T11:49:38.000Z</time>
      </trkpt>
      <trkpt lat="48.24921" lon="1.34167">
        <ele>136.198708</ele>
        <time>2021-09-07T11:49:46.000Z</time>
      </trkpt>
      <trkpt lat="48.24909" lon="1.34205">
        <ele>135.845686</ele>
        <time>2021-09-07T11:49:53.000Z</time>
      </trkpt>
      <trkpt lat="48.24894" lon="1.34244">
        <ele>135.464093</ele>
        <time>2021-09-07T11:50:01.000Z</time>
      </trkpt>
      <trkpt lat="48.24874" lon="1.3429">
        <ele>135.001262</ele>
        <time>2021-09-07T11:50:11.000Z</time>
      </trkpt>
      <trkpt lat="48.24863" lon="1.34312">
        <ele>134.759049</ele>
        <time>2021-09-07T11:50:17.000Z</time>
      </trkpt>
      <trkpt lat="48.24852" lon="1.34338">
        <ele>134.484744</ele>
        <time>2021-09-07T11:50:25.000Z</time>
      </trkpt>
      <trkpt lat="48.2484" lon="1.3437">
        <ele>134.160799</ele>
        <time>2021-09-07T11:50:32.000Z</time>
      </trkpt>
      <trkpt lat="48.24826" lon="1.34403">
        <ele>133.822562</ele>
        <time>2021-09-07T11:50:39.000Z</time>
      </trkpt>
      <trkpt lat="48.24812" lon="1.34436">
        <ele>133.48092</ele>
        <time>2021-09-07T11:50:46.000Z</time>
      </trkpt>
      <trkpt lat="48.24804" lon="1.34454">
        <ele>133.284109</ele>
        <time>2021-09-07T11:50:50.000Z</time>
      </trkpt>
      <trkpt lat="48.24784" lon="1.34497">
        <ele>132.824343</ele>
        <time>2021-09-07T11:50:59.000Z</time>
      </trkpt>
      <trkpt lat="48.24777" lon="1.34511">
        <ele>132.663974</ele>
        <time>2021-09-07T11:51:02.000Z</time>
      </trkpt>
      <trkpt lat="48.2477" lon="1.34527">
        <ele>132.581876</ele>
        <time>2021-09-07T11:51:05.000Z</time>
      </trkpt>
      <trkpt lat="48.24752" lon="1.34566">
        <ele>132.376763</ele>
        <time>2021-09-07T11:51:13.000Z</time>
      </trkpt>
      <trkpt lat="48.24733" lon="1.3461">
        <ele>132.148539</ele>
        <time>2021-09-07T11:51:22.000Z</time>
      </trkpt>
      <trkpt lat="48.24723" lon="1.34633">
        <ele>132.028289</ele>
        <time>2021-09-07T11:51:28.000Z</time>
      </trkpt>
      <trkpt lat="48.24706" lon="1.34663">
        <ele>131.85795</ele>
        <time>2021-09-07T11:51:35.000Z</time>
      </trkpt>
      <trkpt lat="48.24683" lon="1.34697">
        <ele>131.649989</ele>
        <time>2021-09-07T11:51:44.000Z</time>
      </trkpt>
      <trkpt lat="48.24661" lon="1.3473">
        <ele>131.530876</ele>
        <time>2021-09-07T11:51:53.000Z</time>
      </trkpt>
      <trkpt lat="48.24636" lon="1.34765">
        <ele>131.779432</ele>
        <time>2021-09-07T11:52:03.000Z</time>
      </trkpt>
      <trkpt lat="48.24614" lon="1.34798">
        <ele>132.00569</ele>
        <time>2021-09-07T11:52:13.000Z</time>
      </trkpt>
      <trkpt lat="48.24601" lon="1.34818">
        <ele>132.144666</ele>
        <time>2021-09-07T11:52:20.000Z</time>
      </trkpt>
      <trkpt lat="48.24583" lon="1.3485">
        <ele>132.347048</ele>
        <time>2021-09-07T11:52:30.000Z</time>
      </trkpt>
      <trkpt lat="48.24571" lon="1.34874">
        <ele>132.489821</ele>
        <time>2021-09-07T11:52:37.000Z</time>
      </trkpt>
      <trkpt lat="48.24561" lon="1.34893">
        <ele>132.610854</ele>
        <time>2021-09-07T11:52:43.000Z</time>
      </trkpt>
      <trkpt lat="48.24548" lon="1.34918">
        <ele>132.76289</ele>
        <time>2021-09-07T11:52:50.000Z</time>
      </trkpt>
      <trkpt lat="48.24534" lon="1.34944">
        <ele>132.774747</ele>
        <time>2021-09-07T11:52:58.000Z</time>
      </trkpt>
      <trkpt lat="48.24519" lon="1.34974">
        <ele>132.743348</ele>
        <time>2021-09-07T11:53:05.000Z</time>
      </trkpt>
      <trkpt lat="48.24514" lon="1.34983">
        <ele>132.733233</ele>
        <time>2021-09-07T11:53:07.000Z</time>
      </trkpt>
      <trkpt lat="48.24503" lon="1.34996">
        <ele>132.716225</ele>
        <time>2021-09-07T11:53:10.000Z</time>
      </trkpt>
      <trkpt lat="48.24499" lon="1.35">
        <ele>132.710271</ele>
        <time>2021-09-07T11:53:11.000Z</time>
      </trkpt>
      <trkpt lat="48.24483" lon="1.35009">
        <ele>132.689104</ele>
        <time>2021-09-07T11:53:15.000Z</time>
      </trkpt>
      <trkpt lat="48.24457" lon="1.35011">
        <ele>132.655408</ele>
        <time>2021-09-07T11:53:22.000Z</time>
      </trkpt>
      <trkpt lat="48.24436" lon="1.35008">
        <ele>132.62928</ele>
        <time>2021-09-07T11:53:28.000Z</time>
      </trkpt>
      <trkpt lat="48.24408" lon="1.3501">
        <ele>132.59495</ele>
        <time>2021-09-07T11:53:35.000Z</time>
      </trkpt>
      <trkpt lat="48.24378" lon="1.35015">
        <ele>132.428947</ele>
        <time>2021-09-07T11:53:41.000Z</time>
      </trkpt>
      <trkpt lat="48.24348" lon="1.35024">
        <ele>132.047463</ele>
        <time>2021-09-07T11:53:46.000Z</time>
      </trkpt>
      <trkpt lat="48.24343" lon="1.35028">
        <ele>131.973522</ele>
        <time>2021-09-07T11:53:47.000Z</time>
      </trkpt>
      <trkpt lat="48.24335" lon="1.35039">
        <ele>131.835985</ele>
        <time>2021-09-07T11:53:49.000Z</time>
      </trkpt>
      <trkpt lat="48.24323" lon="1.35054">
        <ele>131.647748</ele>
        <time>2021-09-07T11:53:52.000Z</time>
      </trkpt>
      <trkpt lat="48.24303" lon="1.35078">
        <ele>131.321969</ele>
        <time>2021-09-07T11:53:58.000Z</time>
      </trkpt>
      <trkpt lat="48.24275" lon="1.35104">
        <ele>130.911478</ele>
        <time>2021-09-07T11:54:06.000Z</time>
      </trkpt>
      <trkpt lat="48.24249" lon="1.35128">
        <ele>130.53113</ele>
        <time>2021-09-07T11:54:14.000Z</time>
      </trkpt>
      <trkpt lat="48.2422" lon="1.35152">
        <ele>130.332901</ele>
        <time>2021-09-07T11:54:23.000Z</time>
      </trkpt>
      <trkpt lat="48.24192" lon="1.35175">
        <ele>130.335859</ele>
        <time>2021-09-07T11:54:32.000Z</time>
      </trkpt>
      <trkpt lat="48.24166" lon="1.35197">
        <ele>130.33857</ele>
        <time>2021-09-07T11:54:41.000Z</time>
      </trkpt>
      <trkpt lat="48.24145" lon="1.35215">
        <ele>130.340843</ele>
        <time>2021-09-07T11:54:49.000Z</time>
      </trkpt>
      <trkpt lat="48.24123" lon="1.35235">
        <ele>130.343178</ele>
        <time>2021-09-07T11:54:57.000Z</time>
      </trkpt>
      <trkpt lat="48.24103" lon="1.35256">
        <ele>130.34546</ele>
        <time>2021-09-07T11:55:05.000Z</time>
      </trkpt>
      <trkpt lat="48.24083" lon="1.35283">
        <ele>130.347929</ele>
        <time>2021-09-07T11:55:14.000Z</time>
      </trkpt>
      <trkpt lat="48.24069" lon="1.35303">
        <ele>130.30029</ele>
        <time>2021-09-07T11:55:20.000Z</time>
      </trkpt>
      <trkpt lat="48.24048" lon="1.35331">
        <ele>130.234861</ele>
        <time>2021-09-07T11:55:28.000Z</time>
      </trkpt>
      <trkpt lat="48.24032" lon="1.35353">
        <ele>130.180925</ele>
        <time>2021-09-07T11:55:35.000Z</time>
      </trkpt>
      <trkpt lat="48.24012" lon="1.35372">
        <ele>130.124895</ele>
        <time>2021-09-07T11:55:41.000Z</time>
      </trkpt>
      <trkpt lat="48.23984" lon="1.35398">
        <ele>130.044562</ele>
        <time>2021-09-07T11:55:49.000Z</time>
      </trkpt>
      <trkpt lat="48.2395" lon="1.35434">
        <ele>129.944462</ele>
        <time>2021-09-07T11:55:59.000Z</time>
      </trkpt>
      <trkpt lat="48.23929" lon="1.3547">
        <ele>129.85844</ele>
        <time>2021-09-07T11:56:07.000Z</time>
      </trkpt>
      <trkpt lat="48.23913" lon="1.35503">
        <ele>129.780147</ele>
        <time>2021-09-07T11:56:14.000Z</time>
      </trkpt>
      <trkpt lat="48.23898" lon="1.35543">
        <ele>129.692033</ele>
        <time>2021-09-07T11:56:22.000Z</time>
      </trkpt>
      <trkpt lat="48.23889" lon="1.35585">
        <ele>129.606423</ele>
        <time>2021-09-07T11:56:31.000Z</time>
      </trkpt>
      <trkpt lat="48.2388" lon="1.35626">
        <ele>129.523832</ele>
        <time>2021-09-07T11:56:41.000Z</time>
      </trkpt>
      <trkpt lat="48.23869" lon="1.35659">
        <ele>129.452524</ele>
        <time>2021-09-07T11:56:50.000Z</time>
      </trkpt>
      <trkpt lat="48.23855" lon="1.3569">
        <ele>129.380535</ele>
        <time>2021-09-07T11:56:58.000Z</time>
      </trkpt>
      <trkpt lat="48.23838" lon="1.35725">
        <ele>129.301831</ele>
        <time>2021-09-07T11:57:06.000Z</time>
      </trkpt>
      <trkpt lat="48.23821" lon="1.35755">
        <ele>129.230694</ele>
        <time>2021-09-07T11:57:13.000Z</time>
      </trkpt>
      <trkpt lat="48.23801" lon="1.35792">
        <ele>129.143428</ele>
        <time>2021-09-07T11:57:22.000Z</time>
      </trkpt>
      <trkpt lat="48.23783" lon="1.35824">
        <ele>129.067275</ele>
        <time>2021-09-07T11:57:31.000Z</time>
      </trkpt>
      <trkpt lat="48.2377" lon="1.35849">
        <ele>129.01062</ele>
        <time>2021-09-07T11:57:39.000Z</time>
      </trkpt>
      <trkpt lat="48.23757" lon="1.35872">
        <ele>128.955609</ele>
        <time>2021-09-07T11:57:47.000Z</time>
      </trkpt>
      <trkpt lat="48.23741" lon="1.35899">
        <ele>128.914413</ele>
        <time>2021-09-07T11:57:56.000Z</time>
      </trkpt>
      <trkpt lat="48.23726" lon="1.35925">
        <ele>128.968988</ele>
        <time>2021-09-07T11:58:05.000Z</time>
      </trkpt>
      <trkpt lat="48.23712" lon="1.35947">
        <ele>129.017548</ele>
        <time>2021-09-07T11:58:13.000Z</time>
      </trkpt>
      <trkpt lat="48.23696" lon="1.35971">
        <ele>129.070066</ele>
        <time>2021-09-07T11:58:22.000Z</time>
      </trkpt>
      <trkpt lat="48.23682" lon="1.35995">
        <ele>129.121031</ele>
        <time>2021-09-07T11:58:31.000Z</time>
      </trkpt>
      <trkpt lat="48.2367" lon="1.36013">
        <ele>129.160643</ele>
        <time>2021-09-07T11:58:38.000Z</time>
      </trkpt>
      <trkpt lat="48.23663" lon="1.36027">
        <ele>129.189169</ele>
        <time>2021-09-07T11:58:43.000Z</time>
      </trkpt>
      <trkpt lat="48.23651" lon="1.36051">
        <ele>129.2362</ele>
        <time>2021-09-07T11:58:51.000Z</time>
      </trkpt>
      <trkpt lat="48.23638" lon="1.3608">
        <ele>129.291329</ele>
        <time>2021-09-07T11:59:00.000Z</time>
      </trkpt>
      <trkpt lat="48.23624" lon="1.36112">
        <ele>129.309826</ele>
        <time>2021-09-07T11:59:09.000Z</time>
      </trkpt>
      <trkpt lat="48.23609" lon="1.36143">
        <ele>129.255314</ele>
        <time>2021-09-07T11:59:18.000Z</time>
      </trkpt>
      <trkpt lat="48.23594" lon="1.36177">
        <ele>129.197706</ele>
        <time>2021-09-07T11:59:27.000Z</time>
      </trkpt>
      <trkpt lat="48.23584" lon="1.36203">
        <ele>129.153942</ele>
        <time>2021-09-07T11:59:34.000Z</time>
      </trkpt>
      <trkpt lat="48.23571" lon="1.36236">
        <ele>129.097926</ele>
        <time>2021-09-07T11:59:43.000Z</time>
      </trkpt>
      <trkpt lat="48.23559" lon="1.36268">
        <ele>129.045966</ele>
        <time>2021-09-07T11:59:51.000Z</time>
      </trkpt>
      <trkpt lat="48.23547" lon="1.363">
        <ele>128.992943</ele>
        <time>2021-09-07T11:59:59.000Z</time>
      </trkpt>
      <trkpt lat="48.23535" lon="1.3633">
        <ele>128.943161</ele>
        <time>2021-09-07T12:00:07.000Z</time>
      </trkpt>
      <trkpt lat="48.23526" lon="1.36355">
        <ele>128.859957</ele>
        <time>2021-09-07T12:00:14.000Z</time>
      </trkpt>
      <trkpt lat="48.23514" lon="1.36386">
        <ele>128.758864</ele>
        <time>2021-09-07T12:00:23.000Z</time>
      </trkpt>
      <trkpt lat="48.23506" lon="1.36412">
        <ele>128.677287</ele>
        <time>2021-09-07T12:00:31.000Z</time>
      </trkpt>
      <trkpt lat="48.23496" lon="1.36438">
        <ele>128.592777</ele>
        <time>2021-09-07T12:00:39.000Z</time>
      </trkpt>
      <trkpt lat="48.23485" lon="1.36467">
        <ele>128.496659</ele>
        <time>2021-09-07T12:00:47.000Z</time>
      </trkpt>
      <trkpt lat="48.23477" lon="1.36491">
        <ele>128.417775</ele>
        <time>2021-09-07T12:00:54.000Z</time>
      </trkpt>
      <trkpt lat="48.23469" lon="1.36518">
        <ele>128.334764</ele>
        <time>2021-09-07T12:01:01.000Z</time>
      </trkpt>
      <trkpt lat="48.23461" lon="1.36546">
        <ele>128.245293</ele>
        <time>2021-09-07T12:01:08.000Z</time>
      </trkpt>
      <trkpt lat="48.23454" lon="1.36574">
        <ele>128.16898</ele>
        <time>2021-09-07T12:01:16.000Z</time>
      </trkpt>
      <trkpt lat="48.23447" lon="1.36595">
        <ele>128.170494</ele>
        <time>2021-09-07T12:01:23.000Z</time>
      </trkpt>
      <trkpt lat="48.23445" lon="1.36617">
        <ele>128.172038</ele>
        <time>2021-09-07T12:01:30.000Z</time>
      </trkpt>
      <trkpt lat="48.23442" lon="1.3664">
        <ele>128.173544</ele>
        <time>2021-09-07T12:01:36.000Z</time>
      </trkpt>
      <trkpt lat="48.23439" lon="1.36668">
        <ele>128.175452</ele>
        <time>2021-09-07T12:01:43.000Z</time>
      </trkpt>
      <trkpt lat="48.23437" lon="1.36692">
        <ele>128.177059</ele>
        <time>2021-09-07T12:01:49.000Z</time>
      </trkpt>
      <trkpt lat="48.23433" lon="1.36716">
        <ele>128.178685</ele>
        <time>2021-09-07T12:01:56.000Z</time>
      </trkpt>
      <trkpt lat="48.23426" lon="1.3674">
        <ele>128.180458</ele>
        <time>2021-09-07T12:02:04.000Z</time>
      </trkpt>
      <trkpt lat="48.23419" lon="1.36761">
        <ele>128.182037</ele>
        <time>2021-09-07T12:02:12.000Z</time>
      </trkpt>
      <trkpt lat="48.23409" lon="1.36784">
        <ele>128.183814</ele>
        <time>2021-09-07T12:02:20.000Z</time>
      </trkpt>
      <trkpt lat="48.23392" lon="1.36807">
        <ele>128.186136</ele>
        <time>2021-09-07T12:02:28.000Z</time>
      </trkpt>
      <trkpt lat="48.23371" lon="1.36822">
        <ele>128.098809</ele>
        <time>2021-09-07T12:02:36.000Z</time>
      </trkpt>
      <trkpt lat="48.23343" lon="1.36842">
        <ele>127.94116</ele>
        <time>2021-09-07T12:02:45.000Z</time>
      </trkpt>
      <trkpt lat="48.2331" lon="1.36872">
        <ele>127.743963</ele>
        <time>2021-09-07T12:02:55.000Z</time>
      </trkpt>
      <trkpt lat="48.23295" lon="1.36884">
        <ele>127.657722</ele>
        <time>2021-09-07T12:02:59.000Z</time>
      </trkpt>
      <trkpt lat="48.23287" lon="1.36888">
        <ele>127.615861</ele>
        <time>2021-09-07T12:03:01.000Z</time>
      </trkpt>
      <trkpt lat="48.23272" lon="1.36882">
        <ele>127.535137</ele>
        <time>2021-09-07T12:03:05.000Z</time>
      </trkpt>
      <trkpt lat="48.23247" lon="1.36874">
        <ele>127.404791</ele>
        <time>2021-09-07T12:03:12.000Z</time>
      </trkpt>
      <trkpt lat="48.23226" lon="1.36876">
        <ele>127.29492</ele>
        <time>2021-09-07T12:03:18.000Z</time>
      </trkpt>
      <trkpt lat="48.23207" lon="1.36882">
        <ele>127.19533</ele>
        <time>2021-09-07T12:03:24.000Z</time>
      </trkpt>
      <trkpt lat="48.23189" lon="1.36893">
        <ele>127.0891</ele>
        <time>2021-09-07T12:03:31.000Z</time>
      </trkpt>
      <trkpt lat="48.23163" lon="1.36908">
        <ele>126.944321</ele>
        <time>2021-09-07T12:03:40.000Z</time>
      </trkpt>
      <trkpt lat="48.23146" lon="1.36919">
        <ele>126.842223</ele>
        <time>2021-09-07T12:03:47.000Z</time>
      </trkpt>
      <trkpt lat="48.2313" lon="1.36929">
        <ele>126.751345</ele>
        <time>2021-09-07T12:03:54.000Z</time>
      </trkpt>
      <trkpt lat="48.23107" lon="1.36942">
        <ele>126.622034</ele>
        <time>2021-09-07T12:04:03.000Z</time>
      </trkpt>
      <trkpt lat="48.23089" lon="1.36953">
        <ele>126.514719</ele>
        <time>2021-09-07T12:04:12.000Z</time>
      </trkpt>
      <trkpt lat="48.23073" lon="1.36962">
        <ele>126.426156</ele>
        <time>2021-09-07T12:04:20.000Z</time>
      </trkpt>
      <trkpt lat="48.2306" lon="1.36969">
        <ele>126.353695</ele>
        <time>2021-09-07T12:04:26.000Z</time>
      </trkpt>
      <trkpt lat="48.23046" lon="1.36976">
        <ele>126.275954</ele>
        <time>2021-09-07T12:04:33.000Z</time>
      </trkpt>
      <trkpt lat="48.23031" lon="1.36986">
        <ele>126.194682</ele>
        <time>2021-09-07T12:04:40.000Z</time>
      </trkpt>
      <trkpt lat="48.2301" lon="1.36998">
        <ele>126.086248</ele>
        <time>2021-09-07T12:04:49.000Z</time>
      </trkpt>
      <trkpt lat="48.22997" lon="1.37007">
        <ele>126.011696</ele>
        <time>2021-09-07T12:04:56.000Z</time>
      </trkpt>
      <trkpt lat="48.22983" lon="1.37016">
        <ele>125.937862</ele>
        <time>2021-09-07T12:05:03.000Z</time>
      </trkpt>
      <trkpt lat="48.22966" lon="1.37031">
        <ele>125.840005</ele>
        <time>2021-09-07T12:05:12.000Z</time>
      </trkpt>
      <trkpt lat="48.22956" lon="1.3704">
        <ele>125.78412</ele>
        <time>2021-09-07T12:05:17.000Z</time>
      </trkpt>
      <trkpt lat="48.22948" lon="1.37055">
        <ele>125.720403</ele>
        <time>2021-09-07T12:05:22.000Z</time>
      </trkpt>
      <trkpt lat="48.22945" lon="1.37078">
        <ele>125.645085</ele>
        <time>2021-09-07T12:05:29.000Z</time>
      </trkpt>
      <trkpt lat="48.22942" lon="1.37093">
        <ele>125.593222</ele>
        <time>2021-09-07T12:05:34.000Z</time>
      </trkpt>
      <trkpt lat="48.22936" lon="1.37115">
        <ele>125.513654</ele>
        <time>2021-09-07T12:05:41.000Z</time>
      </trkpt>
      <trkpt lat="48.22932" lon="1.37136">
        <ele>125.442297</ele>
        <time>2021-09-07T12:05:47.000Z</time>
      </trkpt>
      <trkpt lat="48.22925" lon="1.37165">
        <ele>125.444512</ele>
        <time>2021-09-07T12:05:56.000Z</time>
      </trkpt>
      <trkpt lat="48.2292" lon="1.37188">
        <ele>125.467163</ele>
        <time>2021-09-07T12:06:02.000Z</time>
      </trkpt>
      <trkpt lat="48.22914" lon="1.37217">
        <ele>125.496099</ele>
        <time>2021-09-07T12:06:09.000Z</time>
      </trkpt>
      <trkpt lat="48.22909" lon="1.37238">
        <ele>125.516495</ele>
        <time>2021-09-07T12:06:15.000Z</time>
      </trkpt>
      <trkpt lat="48.22904" lon="1.3726">
        <ele>125.53843</ele>
        <time>2021-09-07T12:06:21.000Z</time>
      </trkpt>
      <trkpt lat="48.22901" lon="1.37283">
        <ele>125.559342</ele>
        <time>2021-09-07T12:06:27.000Z</time>
      </trkpt>
      <trkpt lat="48.22893" lon="1.37306">
        <ele>125.583907</ele>
        <time>2021-09-07T12:06:34.000Z</time>
      </trkpt>
      <trkpt lat="48.22889" lon="1.37329">
        <ele>125.605728</ele>
        <time>2021-09-07T12:06:40.000Z</time>
      </trkpt>
      <trkpt lat="48.22884" lon="1.37345">
        <ele>125.621511</ele>
        <time>2021-09-07T12:06:45.000Z</time>
      </trkpt>
      <trkpt lat="48.2288" lon="1.37365">
        <ele>125.641462</ele>
        <time>2021-09-07T12:06:51.000Z</time>
      </trkpt>
      <trkpt lat="48.22875" lon="1.37387">
        <ele>125.66291</ele>
        <time>2021-09-07T12:06:58.000Z</time>
      </trkpt>
      <trkpt lat="48.2287" lon="1.3741">
        <ele>125.58326</ele>
        <time>2021-09-07T12:07:05.000Z</time>
      </trkpt>
      <trkpt lat="48.22865" lon="1.37435">
        <ele>125.399895</ele>
        <time>2021-09-07T12:07:11.000Z</time>
      </trkpt>
      <trkpt lat="48.22858" lon="1.37466">
        <ele>125.176813</ele>
        <time>2021-09-07T12:07:18.000Z</time>
      </trkpt>
      <trkpt lat="48.22855" lon="1.37494">
        <ele>124.984641</ele>
        <time>2021-09-07T12:07:25.000Z</time>
      </trkpt>
      <trkpt lat="48.22853" lon="1.37518">
        <ele>124.816835</ele>
        <time>2021-09-07T12:07:31.000Z</time>
      </trkpt>
      <trkpt lat="48.22852" lon="1.37542">
        <ele>124.652673</ele>
        <time>2021-09-07T12:07:38.000Z</time>
      </trkpt>
      <trkpt lat="48.22848" lon="1.3756">
        <ele>124.525655</ele>
        <time>2021-09-07T12:07:43.000Z</time>
      </trkpt>
      <trkpt lat="48.22844" lon="1.37574">
        <ele>124.416454</ele>
        <time>2021-09-07T12:07:49.000Z</time>
      </trkpt>
      <trkpt lat="48.22838" lon="1.37584">
        <ele>124.330537</ele>
        <time>2021-09-07T12:07:54.000Z</time>
      </trkpt>
      <trkpt lat="48.22838" lon="1.37585">
        <ele>124.323122</ele>
        <time>2021-09-07T12:07:56.000Z</time>
      </trkpt>
      <trkpt lat="48.22838" lon="1.37583">
        <ele>124.309739</ele>
        <time>2021-09-07T12:30:49.000Z</time>
      </trkpt>
      <trkpt lat="48.22839" lon="1.37587">
        <ele>124.280881</ele>
        <time>2021-09-07T12:34:39.000Z</time>
      </trkpt>
      <trkpt lat="48.22838" lon="1.37588">
        <ele>124.270802</ele>
        <time>2021-09-07T12:34:40.000Z</time>
      </trkpt>
      <trkpt lat="48.22837" lon="1.37587">
        <ele>124.254183</ele>
        <time>2021-09-07T12:34:42.000Z</time>
      </trkpt>
      <trkpt lat="48.22836" lon="1.37584">
        <ele>124.228308</ele>
        <time>2021-09-07T12:34:44.000Z</time>
      </trkpt>
      <trkpt lat="48.22836" lon="1.37582">
        <ele>124.215952</ele>
        <time>2021-09-07T12:34:45.000Z</time>
      </trkpt>
      <trkpt lat="48.22835" lon="1.37575">
        <ele>124.170532</ele>
        <time>2021-09-07T12:34:48.000Z</time>
      </trkpt>
      <trkpt lat="48.22836" lon="1.37573">
        <ele>124.152278</ele>
        <time>2021-09-07T12:34:49.000Z</time>
      </trkpt>
      <trkpt lat="48.22842" lon="1.37565">
        <ele>124.07301</ele>
        <time>2021-09-07T12:34:54.000Z</time>
      </trkpt>
      <trkpt lat="48.22839" lon="1.37564">
        <ele>124.040238</ele>
        <time>2021-09-07T12:34:57.000Z</time>
      </trkpt>
      <trkpt lat="48.22827" lon="1.37562">
        <ele>123.91569</ele>
        <time>2021-09-07T12:35:03.000Z</time>
      </trkpt>
      <trkpt lat="48.22817" lon="1.37551">
        <ele>123.843369</ele>
        <time>2021-09-07T12:35:07.000Z</time>
      </trkpt>
      <trkpt lat="48.22805" lon="1.37532">
        <ele>123.958123</ele>
        <time>2021-09-07T12:35:12.000Z</time>
      </trkpt>
      <trkpt lat="48.22789" lon="1.37535">
        <ele>124.059201</ele>
        <time>2021-09-07T12:35:16.000Z</time>
      </trkpt>
      <trkpt lat="48.22761" lon="1.37545">
        <ele>124.245448</ele>
        <time>2021-09-07T12:35:23.000Z</time>
      </trkpt>
      <trkpt lat="48.22737" lon="1.37555">
        <ele>124.407928</ele>
        <time>2021-09-07T12:35:29.000Z</time>
      </trkpt>
      <trkpt lat="48.22707" lon="1.37572">
        <ele>124.616723</ele>
        <time>2021-09-07T12:35:37.000Z</time>
      </trkpt>
      <trkpt lat="48.22685" lon="1.37584">
        <ele>124.763333</ele>
        <time>2021-09-07T12:35:43.000Z</time>
      </trkpt>
      <trkpt lat="48.22656" lon="1.37601">
        <ele>124.966528</ele>
        <time>2021-09-07T12:35:51.000Z</time>
      </trkpt>
      <trkpt lat="48.22637" lon="1.37612">
        <ele>125.025489</ele>
        <time>2021-09-07T12:35:56.000Z</time>
      </trkpt>
      <trkpt lat="48.22627" lon="1.37616">
        <ele>125.046931</ele>
        <time>2021-09-07T12:35:58.000Z</time>
      </trkpt>
      <trkpt lat="48.22591" lon="1.37629">
        <ele>125.131081</ele>
        <time>2021-09-07T12:36:05.000Z</time>
      </trkpt>
      <trkpt lat="48.22554" lon="1.37638">
        <ele>125.217025</ele>
        <time>2021-09-07T12:36:12.000Z</time>
      </trkpt>
      <trkpt lat="48.22511" lon="1.37637">
        <ele>125.31356</ele>
        <time>2021-09-07T12:36:20.000Z</time>
      </trkpt>
      <trkpt lat="48.22496" lon="1.37633">
        <ele>125.349692</ele>
        <time>2021-09-07T12:36:23.000Z</time>
      </trkpt>
      <trkpt lat="48.22479" lon="1.37627">
        <ele>125.387974</ele>
        <time>2021-09-07T12:36:26.000Z</time>
      </trkpt>
      <trkpt lat="48.22435" lon="1.376">
        <ele>125.197711</ele>
        <time>2021-09-07T12:36:34.000Z</time>
      </trkpt>
      <trkpt lat="48.22404" lon="1.37577">
        <ele>125.049639</ele>
        <time>2021-09-07T12:36:40.000Z</time>
      </trkpt>
      <trkpt lat="48.22399" lon="1.37574">
        <ele>125.025714</ele>
        <time>2021-09-07T12:36:41.000Z</time>
      </trkpt>
      <trkpt lat="48.22393" lon="1.37573">
        <ele>125.001867</ele>
        <time>2021-09-07T12:36:42.000Z</time>
      </trkpt>
      <trkpt lat="48.22383" lon="1.37576">
        <ele>124.95665</ele>
        <time>2021-09-07T12:36:44.000Z</time>
      </trkpt>
      <trkpt lat="48.22374" lon="1.37585">
        <ele>124.909908</ele>
        <time>2021-09-07T12:36:46.000Z</time>
      </trkpt>
      <trkpt lat="48.22366" lon="1.37596">
        <ele>124.863215</ele>
        <time>2021-09-07T12:36:48.000Z</time>
      </trkpt>
      <trkpt lat="48.22344" lon="1.37627">
        <ele>124.734031</ele>
        <time>2021-09-07T12:36:54.000Z</time>
      </trkpt>
      <trkpt lat="48.22319" lon="1.3766">
        <ele>124.589577</ele>
        <time>2021-09-07T12:37:01.000Z</time>
      </trkpt>
      <trkpt lat="48.22307" lon="1.37674">
        <ele>124.523951</ele>
        <time>2021-09-07T12:37:04.000Z</time>
      </trkpt>
      <trkpt lat="48.22292" lon="1.37691">
        <ele>124.437391</ele>
        <time>2021-09-07T12:37:08.000Z</time>
      </trkpt>
      <trkpt lat="48.2227" lon="1.37705">
        <ele>124.332081</ele>
        <time>2021-09-07T12:37:13.000Z</time>
      </trkpt>
      <trkpt lat="48.22265" lon="1.37706">
        <ele>124.309834</ele>
        <time>2021-09-07T12:37:14.000Z</time>
      </trkpt>
      <trkpt lat="48.22251" lon="1.37707">
        <ele>124.248372</ele>
        <time>2021-09-07T12:37:17.000Z</time>
      </trkpt>
      <trkpt lat="48.22238" lon="1.37703">
        <ele>124.185967</ele>
        <time>2021-09-07T12:37:20.000Z</time>
      </trkpt>
      <trkpt lat="48.22206" lon="1.37682">
        <ele>124.031944</ele>
        <time>2021-09-07T12:37:27.000Z</time>
      </trkpt>
      <trkpt lat="48.22178" lon="1.37659">
        <ele>123.888048</ele>
        <time>2021-09-07T12:37:34.000Z</time>
      </trkpt>
      <trkpt lat="48.22156" lon="1.3764">
        <ele>123.840861</ele>
        <time>2021-09-07T12:37:40.000Z</time>
      </trkpt>
      <trkpt lat="48.2213" lon="1.37621">
        <ele>123.911701</ele>
        <time>2021-09-07T12:37:46.000Z</time>
      </trkpt>
      <trkpt lat="48.22125" lon="1.3762">
        <ele>123.925189</ele>
        <time>2021-09-07T12:37:47.000Z</time>
      </trkpt>
      <trkpt lat="48.22113" lon="1.3762">
        <ele>123.954082</ele>
        <time>2021-09-07T12:37:49.000Z</time>
      </trkpt>
      <trkpt lat="48.22107" lon="1.37622">
        <ele>123.967595</ele>
        <time>2021-09-07T12:37:50.000Z</time>
      </trkpt>
      <trkpt lat="48.22093" lon="1.37625">
        <ele>124.002662</ele>
        <time>2021-09-07T12:37:53.000Z</time>
      </trkpt>
      <trkpt lat="48.22084" lon="1.37629">
        <ele>124.026096</ele>
        <time>2021-09-07T12:37:55.000Z</time>
      </trkpt>
      <trkpt lat="48.22061" lon="1.37638">
        <ele>124.081824</ele>
        <time>2021-09-07T12:38:00.000Z</time>
      </trkpt>
      <trkpt lat="48.2203" lon="1.3765">
        <ele>124.159993</ele>
        <time>2021-09-07T12:38:07.000Z</time>
      </trkpt>
      <trkpt lat="48.22012" lon="1.37658">
        <ele>124.205419</ele>
        <time>2021-09-07T12:38:12.000Z</time>
      </trkpt>
      <trkpt lat="48.21995" lon="1.37665">
        <ele>124.249779</ele>
        <time>2021-09-07T12:38:16.000Z</time>
      </trkpt>
      <trkpt lat="48.2197" lon="1.37675">
        <ele>124.486723</ele>
        <time>2021-09-07T12:38:21.000Z</time>
      </trkpt>
      <trkpt lat="48.21951" lon="1.37682">
        <ele>124.681344</ele>
        <time>2021-09-07T12:38:25.000Z</time>
      </trkpt>
      <trkpt lat="48.2194" lon="1.37685">
        <ele>124.784923</ele>
        <time>2021-09-07T12:38:27.000Z</time>
      </trkpt>
      <trkpt lat="48.21915" lon="1.37695">
        <ele>125.042252</ele>
        <time>2021-09-07T12:38:32.000Z</time>
      </trkpt>
      <trkpt lat="48.21886" lon="1.37706">
        <ele>125.336161</ele>
        <time>2021-09-07T12:38:38.000Z</time>
      </trkpt>
      <trkpt lat="48.21853" lon="1.37719">
        <ele>125.668756</ele>
        <time>2021-09-07T12:38:45.000Z</time>
      </trkpt>
      <trkpt lat="48.2182" lon="1.37731">
        <ele>125.99592</ele>
        <time>2021-09-07T12:38:52.000Z</time>
      </trkpt>
      <trkpt lat="48.21801" lon="1.3774">
        <ele>125.992178</ele>
        <time>2021-09-07T12:38:56.000Z</time>
      </trkpt>
      <trkpt lat="48.21788" lon="1.37744">
        <ele>125.975032</ele>
        <time>2021-09-07T12:38:59.000Z</time>
      </trkpt>
      <trkpt lat="48.21775" lon="1.37755">
        <ele>125.956005</ele>
        <time>2021-09-07T12:39:03.000Z</time>
      </trkpt>
      <trkpt lat="48.2177" lon="1.37785">
        <ele>125.929409</ele>
        <time>2021-09-07T12:39:08.000Z</time>
      </trkpt>
      <trkpt lat="48.21757" lon="1.37848">
        <ele>125.873498</ele>
        <time>2021-09-07T12:39:18.000Z</time>
      </trkpt>
      <trkpt lat="48.21745" lon="1.37907">
        <ele>125.820709</ele>
        <time>2021-09-07T12:39:27.000Z</time>
      </trkpt>
      <trkpt lat="48.21732" lon="1.37967">
        <ele>125.67163</ele>
        <time>2021-09-07T12:39:36.000Z</time>
      </trkpt>
      <trkpt lat="48.21721" lon="1.38021">
        <ele>125.378343</ele>
        <time>2021-09-07T12:39:44.000Z</time>
      </trkpt>
      <trkpt lat="48.21708" lon="1.38082">
        <ele>125.050127</ele>
        <time>2021-09-07T12:39:53.000Z</time>
      </trkpt>
      <trkpt lat="48.21699" lon="1.38128">
        <ele>124.799911</ele>
        <time>2021-09-07T12:40:00.000Z</time>
      </trkpt>
      <trkpt lat="48.2169" lon="1.38174">
        <ele>124.553544</ele>
        <time>2021-09-07T12:40:07.000Z</time>
      </trkpt>
      <trkpt lat="48.21682" lon="1.3821">
        <ele>124.407199</ele>
        <time>2021-09-07T12:40:13.000Z</time>
      </trkpt>
      <trkpt lat="48.21681" lon="1.38217">
        <ele>124.430433</ele>
        <time>2021-09-07T12:40:14.000Z</time>
      </trkpt>
      <trkpt lat="48.21674" lon="1.38257">
        <ele>124.574924</ele>
        <time>2021-09-07T12:40:21.000Z</time>
      </trkpt>
      <trkpt lat="48.21671" lon="1.38279">
        <ele>124.651813</ele>
        <time>2021-09-07T12:40:26.000Z</time>
      </trkpt>
      <trkpt lat="48.21666" lon="1.38312">
        <ele>124.769296</ele>
        <time>2021-09-07T12:40:32.000Z</time>
      </trkpt>
      <trkpt lat="48.21659" lon="1.38339">
        <ele>124.871018</ele>
        <time>2021-09-07T12:40:37.000Z</time>
      </trkpt>
      <trkpt lat="48.21654" lon="1.3835">
        <ele>124.915426</ele>
        <time>2021-09-07T12:40:39.000Z</time>
      </trkpt>
      <trkpt lat="48.21646" lon="1.38356">
        <ele>124.964785</ele>
        <time>2021-09-07T12:40:41.000Z</time>
      </trkpt>
      <trkpt lat="48.21617" lon="1.38341">
        <ele>125.121071</ele>
        <time>2021-09-07T12:40:48.000Z</time>
      </trkpt>
      <trkpt lat="48.21609" lon="1.38336">
        <ele>125.166505</ele>
        <time>2021-09-07T12:40:50.000Z</time>
      </trkpt>
      <trkpt lat="48.216" lon="1.38335">
        <ele>125.213456</ele>
        <time>2021-09-07T12:40:52.000Z</time>
      </trkpt>
      <trkpt lat="48.21595" lon="1.38336">
        <ele>125.237497</ele>
        <time>2021-09-07T12:40:53.000Z</time>
      </trkpt>
      <trkpt lat="48.21591" lon="1.38338">
        <ele>125.259913</ele>
        <time>2021-09-07T12:40:54.000Z</time>
      </trkpt>
      <trkpt lat="48.21584" lon="1.38344">
        <ele>125.302849</ele>
        <time>2021-09-07T12:40:56.000Z</time>
      </trkpt>
      <trkpt lat="48.2158" lon="1.38347">
        <ele>125.331464</ele>
        <time>2021-09-07T12:40:57.000Z</time>
      </trkpt>
      <trkpt lat="48.21555" lon="1.38373">
        <ele>125.721523</ele>
        <time>2021-09-07T12:41:05.000Z</time>
      </trkpt>
      <trkpt lat="48.21522" lon="1.38396">
        <ele>126.178938</ele>
        <time>2021-09-07T12:41:14.000Z</time>
      </trkpt>
      <trkpt lat="48.21484" lon="1.38405">
        <ele>126.657725</ele>
        <time>2021-09-07T12:41:23.000Z</time>
      </trkpt>
      <trkpt lat="48.21443" lon="1.38406">
        <ele>127.172475</ele>
        <time>2021-09-07T12:41:32.000Z</time>
      </trkpt>
      <trkpt lat="48.21403" lon="1.38406">
        <ele>127.648028</ele>
        <time>2021-09-07T12:41:41.000Z</time>
      </trkpt>
      <trkpt lat="48.21377" lon="1.38406">
        <ele>127.88292</ele>
        <time>2021-09-07T12:41:47.000Z</time>
      </trkpt>
      <trkpt lat="48.21368" lon="1.38406">
        <ele>127.961933</ele>
        <time>2021-09-07T12:41:49.000Z</time>
      </trkpt>
      <trkpt lat="48.21335" lon="1.38406">
        <ele>128.251737</ele>
        <time>2021-09-07T12:41:57.000Z</time>
      </trkpt>
      <trkpt lat="48.21297" lon="1.38406">
        <ele>128.59293</ele>
        <time>2021-09-07T12:42:07.000Z</time>
      </trkpt>
      <trkpt lat="48.21264" lon="1.38405">
        <ele>128.883759</ele>
        <time>2021-09-07T12:42:15.000Z</time>
      </trkpt>
      <trkpt lat="48.2126" lon="1.38404">
        <ele>128.919251</ele>
        <time>2021-09-07T12:42:16.000Z</time>
      </trkpt>
      <trkpt lat="48.21235" lon="1.38403">
        <ele>129.144458</ele>
        <time>2021-09-07T12:42:22.000Z</time>
      </trkpt>
      <trkpt lat="48.21194" lon="1.38402">
        <ele>129.149542</ele>
        <time>2021-09-07T12:42:31.000Z</time>
      </trkpt>
      <trkpt lat="48.21158" lon="1.38399">
        <ele>129.120886</ele>
        <time>2021-09-07T12:42:39.000Z</time>
      </trkpt>
      <trkpt lat="48.21118" lon="1.38393">
        <ele>129.088324</ele>
        <time>2021-09-07T12:42:47.000Z</time>
      </trkpt>
      <trkpt lat="48.21074" lon="1.38382">
        <ele>129.052663</ele>
        <time>2021-09-07T12:42:55.000Z</time>
      </trkpt>
      <trkpt lat="48.21035" lon="1.3837">
        <ele>128.942272</ele>
        <time>2021-09-07T12:43:02.000Z</time>
      </trkpt>
      <trkpt lat="48.20985" lon="1.38356">
        <ele>128.676155</ele>
        <time>2021-09-07T12:43:11.000Z</time>
      </trkpt>
      <trkpt lat="48.20929" lon="1.38341">
        <ele>128.382415</ele>
        <time>2021-09-07T12:43:21.000Z</time>
      </trkpt>
      <trkpt lat="48.20924" lon="1.3834">
        <ele>128.351778</ele>
        <time>2021-09-07T12:43:22.000Z</time>
      </trkpt>
      <trkpt lat="48.20912" lon="1.38337">
        <ele>128.290451</ele>
        <time>2021-09-07T12:43:24.000Z</time>
      </trkpt>
      <trkpt lat="48.20884" lon="1.3833">
        <ele>128.14321</ele>
        <time>2021-09-07T12:43:29.000Z</time>
      </trkpt>
      <trkpt lat="48.20836" lon="1.38317">
        <ele>127.873796</ele>
        <time>2021-09-07T12:43:38.000Z</time>
      </trkpt>
      <trkpt lat="48.20796" lon="1.38309">
        <ele>127.646713</ele>
        <time>2021-09-07T12:43:46.000Z</time>
      </trkpt>
      <trkpt lat="48.20759" lon="1.383">
        <ele>127.43551</ele>
        <time>2021-09-07T12:43:53.000Z</time>
      </trkpt>
      <trkpt lat="48.20711" lon="1.38288">
        <ele>127.161549</ele>
        <time>2021-09-07T12:44:01.000Z</time>
      </trkpt>
      <trkpt lat="48.20676" lon="1.38273">
        <ele>126.881918</ele>
        <time>2021-09-07T12:44:07.000Z</time>
      </trkpt>
      <trkpt lat="48.20631" lon="1.38254">
        <ele>126.474178</ele>
        <time>2021-09-07T12:44:15.000Z</time>
      </trkpt>
      <trkpt lat="48.20594" lon="1.38244">
        <ele>126.137454</ele>
        <time>2021-09-07T12:44:22.000Z</time>
      </trkpt>
      <trkpt lat="48.20559" lon="1.38234">
        <ele>125.824725</ele>
        <time>2021-09-07T12:44:29.000Z</time>
      </trkpt>
      <trkpt lat="48.20554" lon="1.38233">
        <ele>125.783058</ele>
        <time>2021-09-07T12:44:30.000Z</time>
      </trkpt>
      <trkpt lat="48.20546" lon="1.38227">
        <ele>125.70453</ele>
        <time>2021-09-07T12:44:32.000Z</time>
      </trkpt>
      <trkpt lat="48.20542" lon="1.38223">
        <ele>125.662427</ele>
        <time>2021-09-07T12:44:33.000Z</time>
      </trkpt>
      <trkpt lat="48.2054" lon="1.38216">
        <ele>125.618522</ele>
        <time>2021-09-07T12:44:34.000Z</time>
      </trkpt>
      <trkpt lat="48.20535" lon="1.38193">
        <ele>125.483005</ele>
        <time>2021-09-07T12:44:37.000Z</time>
      </trkpt>
      <trkpt lat="48.20527" lon="1.38139">
        <ele>125.268571</ele>
        <time>2021-09-07T12:44:43.000Z</time>
      </trkpt>
      <trkpt lat="48.20516" lon="1.38076">
        <ele>125.014501</ele>
        <time>2021-09-07T12:44:50.000Z</time>
      </trkpt>
      <trkpt lat="48.20507" lon="1.38026">
        <ele>124.812292</ele>
        <time>2021-09-07T12:44:56.000Z</time>
      </trkpt>
      <trkpt lat="48.20503" lon="1.38021">
        <ele>124.780447</ele>
        <time>2021-09-07T12:44:57.000Z</time>
      </trkpt>
      <trkpt lat="48.20497" lon="1.38019">
        <ele>124.747002</ele>
        <time>2021-09-07T12:44:58.000Z</time>
      </trkpt>
      <trkpt lat="48.20486" lon="1.38023">
        <ele>124.677414</ele>
        <time>2021-09-07T12:45:00.000Z</time>
      </trkpt>
      <trkpt lat="48.20446" lon="1.38045">
        <ele>124.459703</ele>
        <time>2021-09-07T12:45:07.000Z</time>
      </trkpt>
      <trkpt lat="48.20404" lon="1.38069">
        <ele>124.6284</ele>
        <time>2021-09-07T12:45:15.000Z</time>
      </trkpt>
      <trkpt lat="48.20372" lon="1.38086">
        <ele>124.754737</ele>
        <time>2021-09-07T12:45:22.000Z</time>
      </trkpt>
      <trkpt lat="48.20353" lon="1.38096">
        <ele>124.828816</ele>
        <time>2021-09-07T12:45:27.000Z</time>
      </trkpt>
      <trkpt lat="48.20334" lon="1.38107">
        <ele>124.907875</ele>
        <time>2021-09-07T12:45:32.000Z</time>
      </trkpt>
      <trkpt lat="48.2032" lon="1.38115">
        <ele>124.964311</ele>
        <time>2021-09-07T12:45:36.000Z</time>
      </trkpt>
      <trkpt lat="48.20304" lon="1.38123">
        <ele>125.023594</ele>
        <time>2021-09-07T12:45:40.000Z</time>
      </trkpt>
      <trkpt lat="48.20301" lon="1.38125">
        <ele>125.038887</ele>
        <time>2021-09-07T12:45:41.000Z</time>
      </trkpt>
      <trkpt lat="48.20281" lon="1.38136">
        <ele>125.115238</ele>
        <time>2021-09-07T12:45:46.000Z</time>
      </trkpt>
      <trkpt lat="48.20262" lon="1.3815">
        <ele>125.18297</ele>
        <time>2021-09-07T12:45:51.000Z</time>
      </trkpt>
      <trkpt lat="48.20232" lon="1.38174">
        <ele>125.286135</ele>
        <time>2021-09-07T12:45:57.000Z</time>
      </trkpt>
      <trkpt lat="48.20204" lon="1.38204">
        <ele>125.393676</ele>
        <time>2021-09-07T12:46:03.000Z</time>
      </trkpt>
      <trkpt lat="48.2017" lon="1.38241">
        <ele>125.521599</ele>
        <time>2021-09-07T12:46:10.000Z</time>
      </trkpt>
      <trkpt lat="48.20123" lon="1.38292">
        <ele>125.660388</ele>
        <time>2021-09-07T12:46:20.000Z</time>
      </trkpt>
      <trkpt lat="48.20098" lon="1.38321">
        <ele>125.617381</ele>
        <time>2021-09-07T12:46:26.000Z</time>
      </trkpt>
      <trkpt lat="48.20093" lon="1.38325">
        <ele>125.610135</ele>
        <time>2021-09-07T12:46:27.000Z</time>
      </trkpt>
      <trkpt lat="48.20061" lon="1.38356">
        <ele>125.558401</ele>
        <time>2021-09-07T12:46:34.000Z</time>
      </trkpt>
      <trkpt lat="48.20034" lon="1.38376">
        <ele>125.518182</ele>
        <time>2021-09-07T12:46:39.000Z</time>
      </trkpt>
      <trkpt lat="48.20029" lon="1.38379">
        <ele>125.509998</ele>
        <time>2021-09-07T12:46:40.000Z</time>
      </trkpt>
      <trkpt lat="48.20023" lon="1.38383">
        <ele>125.501723</ele>
        <time>2021-09-07T12:46:41.000Z</time>
      </trkpt>
      <trkpt lat="48.20013" lon="1.3839">
        <ele>125.486468</ele>
        <time>2021-09-07T12:46:43.000Z</time>
      </trkpt>
      <trkpt lat="48.20007" lon="1.38392">
        <ele>125.479025</ele>
        <time>2021-09-07T12:46:44.000Z</time>
      </trkpt>
      <trkpt lat="48.20002" lon="1.38393">
        <ele>125.471406</ele>
        <time>2021-09-07T12:46:45.000Z</time>
      </trkpt>
      <trkpt lat="48.19991" lon="1.38398">
        <ele>125.456361</ele>
        <time>2021-09-07T12:46:47.000Z</time>
      </trkpt>
      <trkpt lat="48.1996" lon="1.38416">
        <ele>125.450115</ele>
        <time>2021-09-07T12:46:53.000Z</time>
      </trkpt>
      <trkpt lat="48.19933" lon="1.38425">
        <ele>125.493896</ele>
        <time>2021-09-07T12:46:59.000Z</time>
      </trkpt>
      <trkpt lat="48.19897" lon="1.3843">
        <ele>125.550055</ele>
        <time>2021-09-07T12:47:08.000Z</time>
      </trkpt>
      <trkpt lat="48.19861" lon="1.38435">
        <ele>125.606663</ele>
        <time>2021-09-07T12:47:17.000Z</time>
      </trkpt>
      <trkpt lat="48.19828" lon="1.38437">
        <ele>125.658267</ele>
        <time>2021-09-07T12:47:24.000Z</time>
      </trkpt>
      <trkpt lat="48.19798" lon="1.38441">
        <ele>125.705163</ele>
        <time>2021-09-07T12:47:30.000Z</time>
      </trkpt>
      <trkpt lat="48.19756" lon="1.3845">
        <ele>125.606544</ele>
        <time>2021-09-07T12:47:38.000Z</time>
      </trkpt>
      <trkpt lat="48.19713" lon="1.38449">
        <ele>125.49115</ele>
        <time>2021-09-07T12:47:46.000Z</time>
      </trkpt>
      <trkpt lat="48.19665" lon="1.3844">
        <ele>125.361305</ele>
        <time>2021-09-07T12:47:55.000Z</time>
      </trkpt>
      <trkpt lat="48.19608" lon="1.38426">
        <ele>125.191807</ele>
        <time>2021-09-07T12:48:06.000Z</time>
      </trkpt>
      <trkpt lat="48.19599" lon="1.38424">
        <ele>125.151629</ele>
        <time>2021-09-07T12:48:08.000Z</time>
      </trkpt>
      <trkpt lat="48.19579" lon="1.38417">
        <ele>125.058565</ele>
        <time>2021-09-07T12:48:13.000Z</time>
      </trkpt>
      <trkpt lat="48.19571" lon="1.38415">
        <ele>125.020553</ele>
        <time>2021-09-07T12:48:15.000Z</time>
      </trkpt>
      <trkpt lat="48.19562" lon="1.38411">
        <ele>124.981371</ele>
        <time>2021-09-07T12:48:17.000Z</time>
      </trkpt>
      <trkpt lat="48.19558" lon="1.3841">
        <ele>124.959792</ele>
        <time>2021-09-07T12:48:18.000Z</time>
      </trkpt>
      <trkpt lat="48.19523" lon="1.38393">
        <ele>124.7935</ele>
        <time>2021-09-07T12:48:25.000Z</time>
      </trkpt>
      <trkpt lat="48.19467" lon="1.38366">
        <ele>124.529549</ele>
        <time>2021-09-07T12:48:36.000Z</time>
      </trkpt>
      <trkpt lat="48.19462" lon="1.38364">
        <ele>124.507627</ele>
        <time>2021-09-07T12:48:37.000Z</time>
      </trkpt>
      <trkpt lat="48.19453" lon="1.38361">
        <ele>124.464218</ele>
        <time>2021-09-07T12:48:39.000Z</time>
      </trkpt>
      <trkpt lat="48.19428" lon="1.38355">
        <ele>124.463427</ele>
        <time>2021-09-07T12:48:44.000Z</time>
      </trkpt>
      <trkpt lat="48.19389" lon="1.38352">
        <ele>124.583296</ele>
        <time>2021-09-07T12:48:52.000Z</time>
      </trkpt>
      <trkpt lat="48.19352" lon="1.38357">
        <ele>124.695542</ele>
        <time>2021-09-07T12:49:00.000Z</time>
      </trkpt>
      <trkpt lat="48.19331" lon="1.38362">
        <ele>124.761955</ele>
        <time>2021-09-07T12:49:05.000Z</time>
      </trkpt>
      <trkpt lat="48.19322" lon="1.38363">
        <ele>124.789091</ele>
        <time>2021-09-07T12:49:07.000Z</time>
      </trkpt>
      <trkpt lat="48.19317" lon="1.38364">
        <ele>124.802257</ele>
        <time>2021-09-07T12:49:08.000Z</time>
      </trkpt>
      <trkpt lat="48.19271" lon="1.38369">
        <ele>124.944267</ele>
        <time>2021-09-07T12:49:19.000Z</time>
      </trkpt>
      <trkpt lat="48.19221" lon="1.38373">
        <ele>125.238151</ele>
        <time>2021-09-07T12:49:30.000Z</time>
      </trkpt>
      <trkpt lat="48.19181" lon="1.38377">
        <ele>125.497574</ele>
        <time>2021-09-07T12:49:39.000Z</time>
      </trkpt>
      <trkpt lat="48.19139" lon="1.38371">
        <ele>125.771613</ele>
        <time>2021-09-07T12:49:48.000Z</time>
      </trkpt>
      <trkpt lat="48.19098" lon="1.38363">
        <ele>126.037649</ele>
        <time>2021-09-07T12:49:56.000Z</time>
      </trkpt>
      <trkpt lat="48.19058" lon="1.38358">
        <ele>126.274021</ele>
        <time>2021-09-07T12:50:04.000Z</time>
      </trkpt>
      <trkpt lat="48.19034" lon="1.38358">
        <ele>126.412906</ele>
        <time>2021-09-07T12:50:10.000Z</time>
      </trkpt>
      <trkpt lat="48.1902" lon="1.38356">
        <ele>126.498225</ele>
        <time>2021-09-07T12:50:15.000Z</time>
      </trkpt>
      <trkpt lat="48.18996" lon="1.38355">
        <ele>126.633729</ele>
        <time>2021-09-07T12:50:21.000Z</time>
      </trkpt>
      <trkpt lat="48.18962" lon="1.3835">
        <ele>126.830163</ele>
        <time>2021-09-07T12:50:28.000Z</time>
      </trkpt>
      <trkpt lat="48.18918" lon="1.38345">
        <ele>127.089581</ele>
        <time>2021-09-07T12:50:37.000Z</time>
      </trkpt>
      <trkpt lat="48.18874" lon="1.38339">
        <ele>127.200961</ele>
        <time>2021-09-07T12:50:46.000Z</time>
      </trkpt>
      <trkpt lat="48.18847" lon="1.38338">
        <ele>127.235518</ele>
        <time>2021-09-07T12:50:51.000Z</time>
      </trkpt>
      <trkpt lat="48.18807" lon="1.38335">
        <ele>127.286097</ele>
        <time>2021-09-07T12:50:58.000Z</time>
      </trkpt>
      <trkpt lat="48.18765" lon="1.38323">
        <ele>127.339267</ele>
        <time>2021-09-07T12:51:06.000Z</time>
      </trkpt>
      <trkpt lat="48.18729" lon="1.38309">
        <ele>127.386524</ele>
        <time>2021-09-07T12:51:13.000Z</time>
      </trkpt>
      <trkpt lat="48.18681" lon="1.38294">
        <ele>127.144552</ele>
        <time>2021-09-07T12:51:22.000Z</time>
      </trkpt>
      <trkpt lat="48.18653" lon="1.38288">
        <ele>127.002975</ele>
        <time>2021-09-07T12:51:27.000Z</time>
      </trkpt>
      <trkpt lat="48.18647" lon="1.38287">
        <ele>126.973638</ele>
        <time>2021-09-07T12:51:28.000Z</time>
      </trkpt>
      <trkpt lat="48.18612" lon="1.38291">
        <ele>126.798337</ele>
        <time>2021-09-07T12:51:34.000Z</time>
      </trkpt>
      <trkpt lat="48.18564" lon="1.38294">
        <ele>126.550775</ele>
        <time>2021-09-07T12:51:42.000Z</time>
      </trkpt>
      <trkpt lat="48.18525" lon="1.38282">
        <ele>126.265233</ele>
        <time>2021-09-07T12:51:48.000Z</time>
      </trkpt>
      <trkpt lat="48.18486" lon="1.38257">
        <ele>125.912954</ele>
        <time>2021-09-07T12:51:54.000Z</time>
      </trkpt>
      <trkpt lat="48.18453" lon="1.38231">
        <ele>125.59113</ele>
        <time>2021-09-07T12:52:00.000Z</time>
      </trkpt>
      <trkpt lat="48.18423" lon="1.38208">
        <ele>125.309075</ele>
        <time>2021-09-07T12:52:06.000Z</time>
      </trkpt>
      <trkpt lat="48.18417" lon="1.38204">
        <ele>125.258296</ele>
        <time>2021-09-07T12:52:07.000Z</time>
      </trkpt>
      <trkpt lat="48.18384" lon="1.38184">
        <ele>124.959373</ele>
        <time>2021-09-07T12:52:13.000Z</time>
      </trkpt>
      <trkpt lat="48.18351" lon="1.38161">
        <ele>124.873846</ele>
        <time>2021-09-07T12:52:19.000Z</time>
      </trkpt>
      <trkpt lat="48.18347" lon="1.38156">
        <ele>124.860901</ele>
        <time>2021-09-07T12:52:20.000Z</time>
      </trkpt>
      <trkpt lat="48.18339" lon="1.38147">
        <ele>124.837345</ele>
        <time>2021-09-07T12:52:22.000Z</time>
      </trkpt>
      <trkpt lat="48.18335" lon="1.38146">
        <ele>124.826968</ele>
        <time>2021-09-07T12:52:23.000Z</time>
      </trkpt>
      <trkpt lat="48.18331" lon="1.38149">
        <ele>124.817527</ele>
        <time>2021-09-07T12:52:24.000Z</time>
      </trkpt>
      <trkpt lat="48.18329" lon="1.38155">
        <ele>124.806808</ele>
        <time>2021-09-07T12:52:25.000Z</time>
      </trkpt>
      <trkpt lat="48.18319" lon="1.38191">
        <ele>124.744033</ele>
        <time>2021-09-07T12:52:31.000Z</time>
      </trkpt>
      <trkpt lat="48.18303" lon="1.38245">
        <ele>124.650727</ele>
        <time>2021-09-07T12:52:39.000Z</time>
      </trkpt>
      <trkpt lat="48.18289" lon="1.38289">
        <ele>124.573173</ele>
        <time>2021-09-07T12:52:46.000Z</time>
      </trkpt>
      <trkpt lat="48.18276" lon="1.38325">
        <ele>124.47379</ele>
        <time>2021-09-07T12:52:52.000Z</time>
      </trkpt>
      <trkpt lat="48.18267" lon="1.38354">
        <ele>124.352797</ele>
        <time>2021-09-07T12:52:57.000Z</time>
      </trkpt>
      <trkpt lat="48.18253" lon="1.3839">
        <ele>124.192183</ele>
        <time>2021-09-07T12:53:03.000Z</time>
      </trkpt>
      <trkpt lat="48.1825" lon="1.38395">
        <ele>124.164312</ele>
        <time>2021-09-07T12:53:04.000Z</time>
      </trkpt>
      <trkpt lat="48.18236" lon="1.38421">
        <ele>124.037486</ele>
        <time>2021-09-07T12:53:09.000Z</time>
      </trkpt>
      <trkpt lat="48.18222" lon="1.38448">
        <ele>123.906843</ele>
        <time>2021-09-07T12:53:14.000Z</time>
      </trkpt>
      <trkpt lat="48.182" lon="1.38484">
        <ele>123.721126</ele>
        <time>2021-09-07T12:53:21.000Z</time>
      </trkpt>
      <trkpt lat="48.18188" lon="1.38499">
        <ele>123.631555</ele>
        <time>2021-09-07T12:53:24.000Z</time>
      </trkpt>
      <trkpt lat="48.18185" lon="1.38505">
        <ele>123.60347</ele>
        <time>2021-09-07T12:53:25.000Z</time>
      </trkpt>
      <trkpt lat="48.18179" lon="1.38516">
        <ele>123.549056</ele>
        <time>2021-09-07T12:53:27.000Z</time>
      </trkpt>
      <trkpt lat="48.18172" lon="1.38526">
        <ele>123.494354</ele>
        <time>2021-09-07T12:53:29.000Z</time>
      </trkpt>
      <trkpt lat="48.18169" lon="1.38531">
        <ele>123.468512</ele>
        <time>2021-09-07T12:53:30.000Z</time>
      </trkpt>
      <trkpt lat="48.18145" lon="1.38575">
        <ele>123.267519</ele>
        <time>2021-09-07T12:53:38.000Z</time>
      </trkpt>
      <trkpt lat="48.18129" lon="1.38604">
        <ele>123.136195</ele>
        <time>2021-09-07T12:53:44.000Z</time>
      </trkpt>
      <trkpt lat="48.18118" lon="1.38618">
        <ele>123.058785</ele>
        <time>2021-09-07T12:53:49.000Z</time>
      </trkpt>
      <trkpt lat="48.18115" lon="1.38617">
        <ele>123.043607</ele>
        <time>2021-09-07T12:53:50.000Z</time>
      </trkpt>
      <trkpt lat="48.1811" lon="1.38611">
        <ele>123.008008</ele>
        <time>2021-09-07T12:53:52.000Z</time>
      </trkpt>
      <trkpt lat="48.18097" lon="1.38593">
        <ele>122.914184</ele>
        <time>2021-09-07T12:53:56.000Z</time>
      </trkpt>
      <trkpt lat="48.18092" lon="1.38582">
        <ele>122.866322</ele>
        <time>2021-09-07T12:53:58.000Z</time>
      </trkpt>
      <trkpt lat="48.18076" lon="1.38539">
        <ele>122.692624</ele>
        <time>2021-09-07T12:54:05.000Z</time>
      </trkpt>
      <trkpt lat="48.18052" lon="1.38478">
        <ele>122.517094</ele>
        <time>2021-09-07T12:54:14.000Z</time>
      </trkpt>
      <trkpt lat="48.18035" lon="1.38432">
        <ele>122.464842</ele>
        <time>2021-09-07T12:54:21.000Z</time>
      </trkpt>
      <trkpt lat="48.18018" lon="1.3839">
        <ele>122.414628</ele>
        <time>2021-09-07T12:54:28.000Z</time>
      </trkpt>
      <trkpt lat="48.17995" lon="1.38337">
        <ele>122.351862</ele>
        <time>2021-09-07T12:54:35.000Z</time>
      </trkpt>
      <trkpt lat="48.17971" lon="1.38285">
        <ele>122.288513</ele>
        <time>2021-09-07T12:54:42.000Z</time>
      </trkpt>
      <trkpt lat="48.17969" lon="1.38279">
        <ele>122.281089</ele>
        <time>2021-09-07T12:54:43.000Z</time>
      </trkpt>
      <trkpt lat="48.17961" lon="1.38271">
        <ele>122.361524</ele>
        <time>2021-09-07T12:54:45.000Z</time>
      </trkpt>
      <trkpt lat="48.17957" lon="1.38268">
        <ele>122.422334</ele>
        <time>2021-09-07T12:54:46.000Z</time>
      </trkpt>
      <trkpt lat="48.17942" lon="1.38261">
        <ele>122.6345</ele>
        <time>2021-09-07T12:54:50.000Z</time>
      </trkpt>
      <trkpt lat="48.17935" lon="1.38257">
        <ele>122.739306</ele>
        <time>2021-09-07T12:54:52.000Z</time>
      </trkpt>
      <trkpt lat="48.17906" lon="1.38236">
        <ele>123.166659</ele>
        <time>2021-09-07T12:55:01.000Z</time>
      </trkpt>
      <trkpt lat="48.17878" lon="1.38219">
        <ele>123.580005</ele>
        <time>2021-09-07T12:55:10.000Z</time>
      </trkpt>
      <trkpt lat="48.17853" lon="1.38203">
        <ele>123.944749</ele>
        <time>2021-09-07T12:55:17.000Z</time>
      </trkpt>
      <trkpt lat="48.17828" lon="1.38188">
        <ele>124.303242</ele>
        <time>2021-09-07T12:55:24.000Z</time>
      </trkpt>
      <trkpt lat="48.17801" lon="1.38171">
        <ele>124.698236</ele>
        <time>2021-09-07T12:55:31.000Z</time>
      </trkpt>
      <trkpt lat="48.17772" lon="1.38153">
        <ele>124.907636</ele>
        <time>2021-09-07T12:55:38.000Z</time>
      </trkpt>
      <trkpt lat="48.17768" lon="1.38149">
        <ele>124.937209</ele>
        <time>2021-09-07T12:55:39.000Z</time>
      </trkpt>
      <trkpt lat="48.17758" lon="1.38137">
        <ele>125.024521</ele>
        <time>2021-09-07T12:55:42.000Z</time>
      </trkpt>
      <trkpt lat="48.17747" lon="1.38127">
        <ele>125.112951</ele>
        <time>2021-09-07T12:55:45.000Z</time>
      </trkpt>
      <trkpt lat="48.17735" lon="1.38114">
        <ele>125.209347</ele>
        <time>2021-09-07T12:55:48.000Z</time>
      </trkpt>
      <trkpt lat="48.1773" lon="1.3811">
        <ele>125.243428</ele>
        <time>2021-09-07T12:55:49.000Z</time>
      </trkpt>
      <trkpt lat="48.17707" lon="1.38081">
        <ele>125.445707</ele>
        <time>2021-09-07T12:55:55.000Z</time>
      </trkpt>
      <trkpt lat="48.17703" lon="1.38076">
        <ele>125.478193</ele>
        <time>2021-09-07T12:55:56.000Z</time>
      </trkpt>
      <trkpt lat="48.17691" lon="1.38063">
        <ele>125.576922</ele>
        <time>2021-09-07T12:55:59.000Z</time>
      </trkpt>
      <trkpt lat="48.17688" lon="1.38058">
        <ele>125.608612</ele>
        <time>2021-09-07T12:56:00.000Z</time>
      </trkpt>
      <trkpt lat="48.17666" lon="1.38032">
        <ele>125.792667</ele>
        <time>2021-09-07T12:56:06.000Z</time>
      </trkpt>
      <trkpt lat="48.17659" lon="1.38023">
        <ele>125.854456</ele>
        <time>2021-09-07T12:56:08.000Z</time>
      </trkpt>
      <trkpt lat="48.17635" lon="1.38">
        <ele>125.775977</ele>
        <time>2021-09-07T12:56:14.000Z</time>
      </trkpt>
      <trkpt lat="48.17631" lon="1.37996">
        <ele>125.750553</ele>
        <time>2021-09-07T12:56:15.000Z</time>
      </trkpt>
      <trkpt lat="48.17624" lon="1.37987">
        <ele>125.699292</ele>
        <time>2021-09-07T12:56:17.000Z</time>
      </trkpt>
      <trkpt lat="48.17615" lon="1.37981">
        <ele>125.647236</ele>
        <time>2021-09-07T12:56:19.000Z</time>
      </trkpt>
      <trkpt lat="48.17605" lon="1.37974">
        <ele>125.593694</ele>
        <time>2021-09-07T12:56:21.000Z</time>
      </trkpt>
      <trkpt lat="48.1759" lon="1.37968">
        <ele>125.510572</ele>
        <time>2021-09-07T12:56:24.000Z</time>
      </trkpt>
      <trkpt lat="48.1758" lon="1.37966">
        <ele>125.454854</ele>
        <time>2021-09-07T12:56:26.000Z</time>
      </trkpt>
      <trkpt lat="48.17564" lon="1.37966">
        <ele>125.371892</ele>
        <time>2021-09-07T12:56:29.000Z</time>
      </trkpt>
      <trkpt lat="48.17558" lon="1.37968">
        <ele>125.341619</ele>
        <time>2021-09-07T12:56:30.000Z</time>
      </trkpt>
      <trkpt lat="48.17547" lon="1.37973">
        <ele>125.281059</ele>
        <time>2021-09-07T12:56:32.000Z</time>
      </trkpt>
      <trkpt lat="48.17537" lon="1.37978">
        <ele>125.224757</ele>
        <time>2021-09-07T12:56:34.000Z</time>
      </trkpt>
      <trkpt lat="48.17527" lon="1.37981">
        <ele>125.169454</ele>
        <time>2021-09-07T12:56:36.000Z</time>
      </trkpt>
      <trkpt lat="48.17516" lon="1.37979">
        <ele>125.115295</ele>
        <time>2021-09-07T12:56:38.000Z</time>
      </trkpt>
      <trkpt lat="48.17507" lon="1.3797">
        <ele>125.056841</ele>
        <time>2021-09-07T12:56:40.000Z</time>
      </trkpt>
      <trkpt lat="48.17503" lon="1.37963">
        <ele>125.02631</ele>
        <time>2021-09-07T12:56:41.000Z</time>
      </trkpt>
      <trkpt lat="48.17472" lon="1.37908">
        <ele>124.687702</ele>
        <time>2021-09-07T12:56:49.000Z</time>
      </trkpt>
      <trkpt lat="48.17439" lon="1.37851">
        <ele>124.301309</ele>
        <time>2021-09-07T12:56:57.000Z</time>
      </trkpt>
      <trkpt lat="48.1741" lon="1.37802">
        <ele>123.965651</ele>
        <time>2021-09-07T12:57:04.000Z</time>
      </trkpt>
      <trkpt lat="48.17393" lon="1.37773">
        <ele>123.771392</ele>
        <time>2021-09-07T12:57:08.000Z</time>
      </trkpt>
      <trkpt lat="48.17386" lon="1.37758">
        <ele>123.673533</ele>
        <time>2021-09-07T12:57:10.000Z</time>
      </trkpt>
      <trkpt lat="48.17381" lon="1.3775">
        <ele>123.623449</ele>
        <time>2021-09-07T12:57:11.000Z</time>
      </trkpt>
      <trkpt lat="48.17361" lon="1.37715">
        <ele>123.492256</ele>
        <time>2021-09-07T12:57:16.000Z</time>
      </trkpt>
      <trkpt lat="48.17353" lon="1.37701">
        <ele>123.454812</ele>
        <time>2021-09-07T12:57:18.000Z</time>
      </trkpt>
      <trkpt lat="48.17336" lon="1.37677">
        <ele>123.380088</ele>
        <time>2021-09-07T12:57:22.000Z</time>
      </trkpt>
      <trkpt lat="48.17328" lon="1.37665">
        <ele>123.343692</ele>
        <time>2021-09-07T12:57:24.000Z</time>
      </trkpt>
      <trkpt lat="48.17316" lon="1.37647">
        <ele>123.290483</ele>
        <time>2021-09-07T12:57:27.000Z</time>
      </trkpt>
      <trkpt lat="48.1728" lon="1.37596">
        <ele>123.133476</ele>
        <time>2021-09-07T12:57:36.000Z</time>
      </trkpt>
      <trkpt lat="48.17243" lon="1.37548">
        <ele>123.000759</ele>
        <time>2021-09-07T12:57:45.000Z</time>
      </trkpt>
      <trkpt lat="48.17239" lon="1.37543">
        <ele>123.001416</ele>
        <time>2021-09-07T12:57:46.000Z</time>
      </trkpt>
      <trkpt lat="48.17212" lon="1.3751">
        <ele>123.005779</ele>
        <time>2021-09-07T12:57:53.000Z</time>
      </trkpt>
      <trkpt lat="48.17208" lon="1.37506">
        <ele>123.006443</ele>
        <time>2021-09-07T12:57:54.000Z</time>
      </trkpt>
      <trkpt lat="48.17203" lon="1.37501">
        <ele>123.007145</ele>
        <time>2021-09-07T12:57:55.000Z</time>
      </trkpt>
      <trkpt lat="48.17185" lon="1.37482">
        <ele>123.00992</ele>
        <time>2021-09-07T12:57:59.000Z</time>
      </trkpt>
      <trkpt lat="48.17159" lon="1.37461">
        <ele>123.013583</ele>
        <time>2021-09-07T12:58:04.000Z</time>
      </trkpt>
      <trkpt lat="48.17153" lon="1.37457">
        <ele>123.014292</ele>
        <time>2021-09-07T12:58:05.000Z</time>
      </trkpt>
      <trkpt lat="48.17132" lon="1.37436">
        <ele>123.017432</ele>
        <time>2021-09-07T12:58:10.000Z</time>
      </trkpt>
      <trkpt lat="48.17118" lon="1.37425">
        <ele>123.019462</ele>
        <time>2021-09-07T12:58:13.000Z</time>
      </trkpt>
      <trkpt lat="48.17108" lon="1.37415">
        <ele>123.020896</ele>
        <time>2021-09-07T12:58:15.000Z</time>
      </trkpt>
      <trkpt lat="48.17066" lon="1.37388">
        <ele>122.878995</ele>
        <time>2021-09-07T12:58:23.000Z</time>
      </trkpt>
      <trkpt lat="48.17031" lon="1.37376">
        <ele>122.726531</ele>
        <time>2021-09-07T12:58:29.000Z</time>
      </trkpt>
      <trkpt lat="48.16997" lon="1.37364">
        <ele>122.578974</ele>
        <time>2021-09-07T12:58:35.000Z</time>
      </trkpt>
      <trkpt lat="48.16963" lon="1.37353">
        <ele>122.432556</ele>
        <time>2021-09-07T12:58:41.000Z</time>
      </trkpt>
      <trkpt lat="48.1693" lon="1.37345">
        <ele>122.293501</ele>
        <time>2021-09-07T12:58:46.000Z</time>
      </trkpt>
      <trkpt lat="48.16894" lon="1.37338">
        <ele>122.571681</ele>
        <time>2021-09-07T12:58:51.000Z</time>
      </trkpt>
      <trkpt lat="48.16873" lon="1.37336">
        <ele>122.785394</ele>
        <time>2021-09-07T12:58:54.000Z</time>
      </trkpt>
      <trkpt lat="48.16848" lon="1.37335">
        <ele>123.045188</ele>
        <time>2021-09-07T12:58:58.000Z</time>
      </trkpt>
      <trkpt lat="48.16822" lon="1.37331">
        <ele>123.308857</ele>
        <time>2021-09-07T12:59:02.000Z</time>
      </trkpt>
      <trkpt lat="48.16816" lon="1.37332">
        <ele>123.374532</ele>
        <time>2021-09-07T12:59:03.000Z</time>
      </trkpt>
      <trkpt lat="48.16781" lon="1.37329">
        <ele>123.727939</ele>
        <time>2021-09-07T12:59:09.000Z</time>
      </trkpt>
      <trkpt lat="48.1675" lon="1.37328">
        <ele>124.050097</ele>
        <time>2021-09-07T12:59:16.000Z</time>
      </trkpt>
      <trkpt lat="48.16721" lon="1.3733">
        <ele>125.929855</ele>
        <time>2021-09-07T12:59:23.000Z</time>
      </trkpt>
      <trkpt lat="48.16718" lon="1.3733">
        <ele>126.115933</ele>
        <time>2021-09-07T12:59:24.000Z</time>
      </trkpt>
      <trkpt lat="48.16717" lon="1.3733">
        <ele>126.200924</ele>
        <time>2021-09-07T12:59:26.000Z</time>
      </trkpt>
      <trkpt lat="48.16716" lon="1.3733">
        <ele>126.255254</ele>
        <time>2021-09-07T12:59:28.000Z</time>
      </trkpt>
      <trkpt lat="48.16712" lon="1.37324">
        <ele>126.683777</ele>
        <time>2021-09-07T12:59:55.000Z</time>
      </trkpt>
      <trkpt lat="48.16711" lon="1.37324">
        <ele>126.793047</ele>
        <time>2021-09-07T12:59:56.000Z</time>
      </trkpt>
      <trkpt lat="48.167" lon="1.37321">
        <ele>127.635071</ele>
        <time>2021-09-07T13:00:01.000Z</time>
      </trkpt>
      <trkpt lat="48.16681" lon="1.37315">
        <ele>129.180592</ele>
        <time>2021-09-07T13:00:08.000Z</time>
      </trkpt>
      <trkpt lat="48.16664" lon="1.37314">
        <ele>130.466173</ele>
        <time>2021-09-07T13:00:14.000Z</time>
      </trkpt>
      <trkpt lat="48.16649" lon="1.37318">
        <ele>131.669871</ele>
        <time>2021-09-07T13:00:20.000Z</time>
      </trkpt>
      <trkpt lat="48.16641" lon="1.37323">
        <ele>132.33368</ele>
        <time>2021-09-07T13:00:26.000Z</time>
      </trkpt>
      <trkpt lat="48.16634" lon="1.37328">
        <ele>132.889692</ele>
        <time>2021-09-07T13:00:31.000Z</time>
      </trkpt>
      <trkpt lat="48.16623" lon="1.37335">
        <ele>133.846742</ele>
        <time>2021-09-07T13:00:38.000Z</time>
      </trkpt>
      <trkpt lat="48.16616" lon="1.3734">
        <ele>134.3975</ele>
        <time>2021-09-07T13:00:43.000Z</time>
      </trkpt>
      <trkpt lat="48.16611" lon="1.37344">
        <ele>134.869317</ele>
        <time>2021-09-07T13:00:48.000Z</time>
      </trkpt>
      <trkpt lat="48.16548" lon="1.37397">
        <ele>139.556488</ele>
        <time>2021-09-07T13:01:31.000Z</time>
      </trkpt>
      <trkpt lat="48.1654" lon="1.37404">
        <ele>139.963238</ele>
        <time>2021-09-07T13:01:37.000Z</time>
      </trkpt>
      <trkpt lat="48.16536" lon="1.37411">
        <ele>140.26447</ele>
        <time>2021-09-07T13:01:42.000Z</time>
      </trkpt>
      <trkpt lat="48.16529" lon="1.37419">
        <ele>140.708108</ele>
        <time>2021-09-07T13:01:48.000Z</time>
      </trkpt>
      <trkpt lat="48.16523" lon="1.37421">
        <ele>140.967673</ele>
        <time>2021-09-07T13:01:51.000Z</time>
      </trkpt>
      <trkpt lat="48.16521" lon="1.37423">
        <ele>141.112825</ele>
        <time>2021-09-07T13:01:53.000Z</time>
      </trkpt>
      <trkpt lat="48.16509" lon="1.37436">
        <ele>141.801292</ele>
        <time>2021-09-07T13:01:59.000Z</time>
      </trkpt>
      <trkpt lat="48.16505" lon="1.37441">
        <ele>142.084747</ele>
        <time>2021-09-07T13:02:02.000Z</time>
      </trkpt>
      <trkpt lat="48.16503" lon="1.37445">
        <ele>142.23569</ele>
        <time>2021-09-07T13:02:04.000Z</time>
      </trkpt>
      <trkpt lat="48.16502" lon="1.37451">
        <ele>142.446409</ele>
        <time>2021-09-07T13:02:07.000Z</time>
      </trkpt>
      <trkpt lat="48.16499" lon="1.37457">
        <ele>142.649681</ele>
        <time>2021-09-07T13:02:10.000Z</time>
      </trkpt>
      <trkpt lat="48.16489" lon="1.37473">
        <ele>143.378062</ele>
        <time>2021-09-07T13:02:19.000Z</time>
      </trkpt>
      <trkpt lat="48.16479" lon="1.37471">
        <ele>143.832766</ele>
        <time>2021-09-07T13:02:25.000Z</time>
      </trkpt>
      <trkpt lat="48.16468" lon="1.37455">
        <ele>144.583921</ele>
        <time>2021-09-07T13:02:33.000Z</time>
      </trkpt>
      <trkpt lat="48.16462" lon="1.37442">
        <ele>145.097534</ele>
        <time>2021-09-07T13:02:38.000Z</time>
      </trkpt>
      <trkpt lat="48.16451" lon="1.37429">
        <ele>145.772474</ele>
        <time>2021-09-07T13:02:44.000Z</time>
      </trkpt>
      <trkpt lat="48.16445" lon="1.37425">
        <ele>146.108824</ele>
        <time>2021-09-07T13:02:47.000Z</time>
      </trkpt>
      <trkpt lat="48.1644" lon="1.37426">
        <ele>146.334441</ele>
        <time>2021-09-07T13:02:49.000Z</time>
      </trkpt>
      <trkpt lat="48.16422" lon="1.37434">
        <ele>146.662367</ele>
        <time>2021-09-07T13:02:55.000Z</time>
      </trkpt>
      <trkpt lat="48.16398" lon="1.37437">
        <ele>146.631872</ele>
        <time>2021-09-07T13:03:03.000Z</time>
      </trkpt>
      <trkpt lat="48.16368" lon="1.3744">
        <ele>146.595238</ele>
        <time>2021-09-07T13:03:12.000Z</time>
      </trkpt>
      <trkpt lat="48.16342" lon="1.37443">
        <ele>146.562944</ele>
        <time>2021-09-07T13:03:20.000Z</time>
      </trkpt>
      <trkpt lat="48.1632" lon="1.37444">
        <ele>146.536243</ele>
        <time>2021-09-07T13:03:27.000Z</time>
      </trkpt>
      <trkpt lat="48.16301" lon="1.37444">
        <ele>146.512649</ele>
        <time>2021-09-07T13:03:33.000Z</time>
      </trkpt>
      <trkpt lat="48.16281" lon="1.37444">
        <ele>146.487948</ele>
        <time>2021-09-07T13:03:38.000Z</time>
      </trkpt>
      <trkpt lat="48.16274" lon="1.37444">
        <ele>146.478438</ele>
        <time>2021-09-07T13:03:40.000Z</time>
      </trkpt>
      <trkpt lat="48.16246" lon="1.37444">
        <ele>146.432958</ele>
        <time>2021-09-07T13:03:47.000Z</time>
      </trkpt>
      <trkpt lat="48.16223" lon="1.37439">
        <ele>146.369327</ele>
        <time>2021-09-07T13:03:53.000Z</time>
      </trkpt>
      <trkpt lat="48.16178" lon="1.37423">
        <ele>146.245567</ele>
        <time>2021-09-07T13:04:04.000Z</time>
      </trkpt>
      <trkpt lat="48.1615" lon="1.37411">
        <ele>146.167536</ele>
        <time>2021-09-07T13:04:11.000Z</time>
      </trkpt>
      <trkpt lat="48.16119" lon="1.37396">
        <ele>146.079033</ele>
        <time>2021-09-07T13:04:19.000Z</time>
      </trkpt>
      <trkpt lat="48.16088" lon="1.3738">
        <ele>145.99083</ele>
        <time>2021-09-07T13:04:27.000Z</time>
      </trkpt>
      <trkpt lat="48.16061" lon="1.37366">
        <ele>145.847998</ele>
        <time>2021-09-07T13:04:34.000Z</time>
      </trkpt>
      <trkpt lat="48.16037" lon="1.37354">
        <ele>145.706033</ele>
        <time>2021-09-07T13:04:40.000Z</time>
      </trkpt>
      <trkpt lat="48.16011" lon="1.3734">
        <ele>145.546296</ele>
        <time>2021-09-07T13:04:47.000Z</time>
      </trkpt>
      <trkpt lat="48.1597" lon="1.37323">
        <ele>145.302158</ele>
        <time>2021-09-07T13:04:56.000Z</time>
      </trkpt>
      <trkpt lat="48.15965" lon="1.37321">
        <ele>145.273139</ele>
        <time>2021-09-07T13:04:57.000Z</time>
      </trkpt>
      <trkpt lat="48.15941" lon="1.37313">
        <ele>145.130901</ele>
        <time>2021-09-07T13:05:02.000Z</time>
      </trkpt>
      <trkpt lat="48.15902" lon="1.37301">
        <ele>144.893489</ele>
        <time>2021-09-07T13:05:10.000Z</time>
      </trkpt>
      <trkpt lat="48.15862" lon="1.37292">
        <ele>144.614565</ele>
        <time>2021-09-07T13:05:18.000Z</time>
      </trkpt>
      <trkpt lat="48.15822" lon="1.37282">
        <ele>144.337069</ele>
        <time>2021-09-07T13:05:26.000Z</time>
      </trkpt>
      <trkpt lat="48.1578" lon="1.3727">
        <ele>144.044076</ele>
        <time>2021-09-07T13:05:34.000Z</time>
      </trkpt>
      <trkpt lat="48.15737" lon="1.37256">
        <ele>143.743871</ele>
        <time>2021-09-07T13:05:42.000Z</time>
      </trkpt>
      <trkpt lat="48.15715" lon="1.37254">
        <ele>143.581518</ele>
        <time>2021-09-07T13:05:46.000Z</time>
      </trkpt>
      <trkpt lat="48.15704" lon="1.37258">
        <ele>143.498012</ele>
        <time>2021-09-07T13:05:48.000Z</time>
      </trkpt>
      <trkpt lat="48.15681" lon="1.37278">
        <ele>143.291464</ele>
        <time>2021-09-07T13:05:53.000Z</time>
      </trkpt>
      <trkpt lat="48.1566" lon="1.373">
        <ele>143.096355</ele>
        <time>2021-09-07T13:05:58.000Z</time>
      </trkpt>
      <trkpt lat="48.15651" lon="1.37307">
        <ele>143.021818</ele>
        <time>2021-09-07T13:06:00.000Z</time>
      </trkpt>
      <trkpt lat="48.15625" lon="1.37322">
        <ele>142.810831</ele>
        <time>2021-09-07T13:06:06.000Z</time>
      </trkpt>
      <trkpt lat="48.1562" lon="1.37324">
        <ele>142.77645</ele>
        <time>2021-09-07T13:06:07.000Z</time>
      </trkpt>
      <trkpt lat="48.15594" lon="1.37336">
        <ele>142.564065</ele>
        <time>2021-09-07T13:06:13.000Z</time>
      </trkpt>
      <trkpt lat="48.15559" lon="1.37351">
        <ele>142.294989</ele>
        <time>2021-09-07T13:06:20.000Z</time>
      </trkpt>
      <trkpt lat="48.15518" lon="1.3737">
        <ele>142.002932</ele>
        <time>2021-09-07T13:06:28.000Z</time>
      </trkpt>
      <trkpt lat="48.15482" lon="1.37385">
        <ele>141.749532</ele>
        <time>2021-09-07T13:06:35.000Z</time>
      </trkpt>
      <trkpt lat="48.15443" lon="1.37399">
        <ele>141.475452</ele>
        <time>2021-09-07T13:06:42.000Z</time>
      </trkpt>
      <trkpt lat="48.15409" lon="1.37411">
        <ele>141.231685</ele>
        <time>2021-09-07T13:06:49.000Z</time>
      </trkpt>
      <trkpt lat="48.154" lon="1.37413">
        <ele>141.168463</ele>
        <time>2021-09-07T13:06:51.000Z</time>
      </trkpt>
      <trkpt lat="48.15382" lon="1.37415">
        <ele>141.040058</ele>
        <time>2021-09-07T13:06:55.000Z</time>
      </trkpt>
      <trkpt lat="48.15335" lon="1.37417">
        <ele>140.694311</ele>
        <time>2021-09-07T13:07:05.000Z</time>
      </trkpt>
      <trkpt lat="48.15294" lon="1.37419">
        <ele>140.392185</ele>
        <time>2021-09-07T13:07:13.000Z</time>
      </trkpt>
      <trkpt lat="48.15248" lon="1.37412">
        <ele>140.049397</ele>
        <time>2021-09-07T13:07:21.000Z</time>
      </trkpt>
      <trkpt lat="48.15205" lon="1.37411">
        <ele>139.677553</ele>
        <time>2021-09-07T13:07:28.000Z</time>
      </trkpt>
      <trkpt lat="48.15169" lon="1.37411">
        <ele>139.103328</ele>
        <time>2021-09-07T13:07:33.000Z</time>
      </trkpt>
      <trkpt lat="48.15162" lon="1.3741">
        <ele>138.984653</ele>
        <time>2021-09-07T13:07:34.000Z</time>
      </trkpt>
      <trkpt lat="48.15115" lon="1.37407">
        <ele>138.21892</ele>
        <time>2021-09-07T13:07:40.000Z</time>
      </trkpt>
      <trkpt lat="48.15098" lon="1.37407">
        <ele>137.948784</ele>
        <time>2021-09-07T13:07:42.000Z</time>
      </trkpt>
      <trkpt lat="48.15072" lon="1.37402">
        <ele>137.526519</ele>
        <time>2021-09-07T13:07:45.000Z</time>
      </trkpt>
      <trkpt lat="48.15038" lon="1.37397">
        <ele>136.962543</ele>
        <time>2021-09-07T13:07:49.000Z</time>
      </trkpt>
      <trkpt lat="48.15029" lon="1.37398">
        <ele>136.802854</ele>
        <time>2021-09-07T13:07:50.000Z</time>
      </trkpt>
      <trkpt lat="48.15022" lon="1.374">
        <ele>136.59124</ele>
        <time>2021-09-07T13:07:51.000Z</time>
      </trkpt>
      <trkpt lat="48.15007" lon="1.37408">
        <ele>136.179822</ele>
        <time>2021-09-07T13:07:53.000Z</time>
      </trkpt>
      <trkpt lat="48.15" lon="1.37413">
        <ele>135.969434</ele>
        <time>2021-09-07T13:07:54.000Z</time>
      </trkpt>
      <trkpt lat="48.14993" lon="1.3742">
        <ele>135.753039</ele>
        <time>2021-09-07T13:07:55.000Z</time>
      </trkpt>
      <trkpt lat="48.14975" lon="1.37447">
        <ele>135.067465</ele>
        <time>2021-09-07T13:07:58.000Z</time>
      </trkpt>
      <trkpt lat="48.14936" lon="1.37499">
        <ele>133.683889</ele>
        <time>2021-09-07T13:08:04.000Z</time>
      </trkpt>
      <trkpt lat="48.14901" lon="1.37544">
        <ele>132.465038</ele>
        <time>2021-09-07T13:08:10.000Z</time>
      </trkpt>
      <trkpt lat="48.14864" lon="1.37573">
        <ele>131.377926</ele>
        <time>2021-09-07T13:08:16.000Z</time>
      </trkpt>
      <trkpt lat="48.14815" lon="1.37607">
        <ele>129.998189</ele>
        <time>2021-09-07T13:08:24.000Z</time>
      </trkpt>
      <trkpt lat="48.1477" lon="1.37639">
        <ele>128.699818</ele>
        <time>2021-09-07T13:08:32.000Z</time>
      </trkpt>
      <trkpt lat="48.14731" lon="1.37672">
        <ele>127.566824</ele>
        <time>2021-09-07T13:08:40.000Z</time>
      </trkpt>
      <trkpt lat="48.14699" lon="1.37703">
        <ele>127.21917</ele>
        <time>2021-09-07T13:08:48.000Z</time>
      </trkpt>
      <trkpt lat="48.14681" lon="1.37729">
        <ele>127.038476</ele>
        <time>2021-09-07T13:08:53.000Z</time>
      </trkpt>
      <trkpt lat="48.14676" lon="1.37735">
        <ele>126.995655</ele>
        <time>2021-09-07T13:08:54.000Z</time>
      </trkpt>
      <trkpt lat="48.14671" lon="1.37738">
        <ele>126.953226</ele>
        <time>2021-09-07T13:08:55.000Z</time>
      </trkpt>
      <trkpt lat="48.14666" lon="1.37737">
        <ele>126.91658</ele>
        <time>2021-09-07T13:08:56.000Z</time>
      </trkpt>
      <trkpt lat="48.14662" lon="1.37733">
        <ele>126.885125</ele>
        <time>2021-09-07T13:08:57.000Z</time>
      </trkpt>
      <trkpt lat="48.14655" lon="1.37715">
        <ele>126.783318</ele>
        <time>2021-09-07T13:09:01.000Z</time>
      </trkpt>
      <trkpt lat="48.14644" lon="1.37692">
        <ele>126.647973</ele>
        <time>2021-09-07T13:09:09.000Z</time>
      </trkpt>
      <trkpt lat="48.14638" lon="1.37677">
        <ele>126.560263</ele>
        <time>2021-09-07T13:09:16.000Z</time>
      </trkpt>
      <trkpt lat="48.1463" lon="1.3766">
        <ele>126.460087</ele>
        <time>2021-09-07T13:09:23.000Z</time>
      </trkpt>
      <trkpt lat="48.14623" lon="1.37645">
        <ele>126.372024</ele>
        <time>2021-09-07T13:09:29.000Z</time>
      </trkpt>
      <trkpt lat="48.14611" lon="1.37625">
        <ele>126.23861</ele>
        <time>2021-09-07T13:09:38.000Z</time>
      </trkpt>
      <trkpt lat="48.14597" lon="1.37609">
        <ele>126.304573</ele>
        <time>2021-09-07T13:09:47.000Z</time>
      </trkpt>
      <trkpt lat="48.14583" lon="1.37598">
        <ele>126.589077</ele>
        <time>2021-09-07T13:09:54.000Z</time>
      </trkpt>
      <trkpt lat="48.14569" lon="1.37583">
        <ele>126.920028</ele>
        <time>2021-09-07T13:10:02.000Z</time>
      </trkpt>
      <trkpt lat="48.14552" lon="1.37568">
        <ele>127.280877</ele>
        <time>2021-09-07T13:10:09.000Z</time>
      </trkpt>
      <trkpt lat="48.1453" lon="1.37552">
        <ele>127.743634</ele>
        <time>2021-09-07T13:10:17.000Z</time>
      </trkpt>
      <trkpt lat="48.14505" lon="1.37545">
        <ele>128.201677</ele>
        <time>2021-09-07T13:10:25.000Z</time>
      </trkpt>
      <trkpt lat="48.14487" lon="1.37538">
        <ele>128.547861</ele>
        <time>2021-09-07T13:10:31.000Z</time>
      </trkpt>
      <trkpt lat="48.14461" lon="1.37525">
        <ele>129.068869</ele>
        <time>2021-09-07T13:10:39.000Z</time>
      </trkpt>
      <trkpt lat="48.14434" lon="1.37508">
        <ele>129.575382</ele>
        <time>2021-09-07T13:10:47.000Z</time>
      </trkpt>
      <trkpt lat="48.14411" lon="1.3748">
        <ele>129.915596</ele>
        <time>2021-09-07T13:10:55.000Z</time>
      </trkpt>
      <trkpt lat="48.14395" lon="1.37442">
        <ele>130.251033</ele>
        <time>2021-09-07T13:11:03.000Z</time>
      </trkpt>
      <trkpt lat="48.14374" lon="1.37392">
        <ele>130.693868</ele>
        <time>2021-09-07T13:11:13.000Z</time>
      </trkpt>
      <trkpt lat="48.14359" lon="1.37368">
        <ele>130.947189</ele>
        <time>2021-09-07T13:11:19.000Z</time>
      </trkpt>
      <trkpt lat="48.1434" lon="1.37369">
        <ele>131.155879</ele>
        <time>2021-09-07T13:11:24.000Z</time>
      </trkpt>
      <trkpt lat="48.1431" lon="1.37369">
        <ele>131.498589</ele>
        <time>2021-09-07T13:11:31.000Z</time>
      </trkpt>
      <trkpt lat="48.14279" lon="1.37358">
        <ele>131.96756</ele>
        <time>2021-09-07T13:11:38.000Z</time>
      </trkpt>
      <trkpt lat="48.14246" lon="1.37343">
        <ele>132.491146</ele>
        <time>2021-09-07T13:11:46.000Z</time>
      </trkpt>
      <trkpt lat="48.14211" lon="1.37328">
        <ele>133.050124</ele>
        <time>2021-09-07T13:11:55.000Z</time>
      </trkpt>
      <trkpt lat="48.14174" lon="1.37311">
        <ele>133.638113</ele>
        <time>2021-09-07T13:12:05.000Z</time>
      </trkpt>
      <trkpt lat="48.14141" lon="1.37291">
        <ele>134.176562</ele>
        <time>2021-09-07T13:12:14.000Z</time>
      </trkpt>
      <trkpt lat="48.1411" lon="1.37268">
        <ele>134.730023</ele>
        <time>2021-09-07T13:12:23.000Z</time>
      </trkpt>
      <trkpt lat="48.14077" lon="1.37242">
        <ele>135.31768</ele>
        <time>2021-09-07T13:12:32.000Z</time>
      </trkpt>
      <trkpt lat="48.14063" lon="1.37229">
        <ele>135.581679</ele>
        <time>2021-09-07T13:12:36.000Z</time>
      </trkpt>
      <trkpt lat="48.14049" lon="1.37217">
        <ele>135.839052</ele>
        <time>2021-09-07T13:12:40.000Z</time>
      </trkpt>
      <trkpt lat="48.14025" lon="1.37194">
        <ele>136.296131</ele>
        <time>2021-09-07T13:12:48.000Z</time>
      </trkpt>
      <trkpt lat="48.14008" lon="1.37181">
        <ele>136.597342</ele>
        <time>2021-09-07T13:12:53.000Z</time>
      </trkpt>
      <trkpt lat="48.14004" lon="1.37179">
        <ele>136.661378</ele>
        <time>2021-09-07T13:12:54.000Z</time>
      </trkpt>
      <trkpt lat="48.13993" lon="1.37174">
        <ele>136.840944</ele>
        <time>2021-09-07T13:12:57.000Z</time>
      </trkpt>
      <trkpt lat="48.13989" lon="1.37172">
        <ele>136.909209</ele>
        <time>2021-09-07T13:12:58.000Z</time>
      </trkpt>
      <trkpt lat="48.13981" lon="1.37168">
        <ele>137.041463</ele>
        <time>2021-09-07T13:13:00.000Z</time>
      </trkpt>
      <trkpt lat="48.13974" lon="1.37161">
        <ele>137.176397</ele>
        <time>2021-09-07T13:13:02.000Z</time>
      </trkpt>
      <trkpt lat="48.1397" lon="1.37159">
        <ele>137.239765</ele>
        <time>2021-09-07T13:13:03.000Z</time>
      </trkpt>
      <trkpt lat="48.13962" lon="1.37155">
        <ele>137.366501</ele>
        <time>2021-09-07T13:13:05.000Z</time>
      </trkpt>
      <trkpt lat="48.13945" lon="1.37146">
        <ele>137.622824</ele>
        <time>2021-09-07T13:13:09.000Z</time>
      </trkpt>
      <trkpt lat="48.13907" lon="1.37129">
        <ele>138.193754</ele>
        <time>2021-09-07T13:13:18.000Z</time>
      </trkpt>
      <trkpt lat="48.1387" lon="1.37116">
        <ele>138.746736</ele>
        <time>2021-09-07T13:13:27.000Z</time>
      </trkpt>
      <trkpt lat="48.13832" lon="1.37107">
        <ele>139.317361</ele>
        <time>2021-09-07T13:13:37.000Z</time>
      </trkpt>
      <trkpt lat="48.13803" lon="1.37102">
        <ele>139.740246</ele>
        <time>2021-09-07T13:13:45.000Z</time>
      </trkpt>
      <trkpt lat="48.13783" lon="1.37097">
        <ele>139.957549</ele>
        <time>2021-09-07T13:13:51.000Z</time>
      </trkpt>
      <trkpt lat="48.13752" lon="1.37092">
        <ele>140.293979</ele>
        <time>2021-09-07T13:14:00.000Z</time>
      </trkpt>
      <trkpt lat="48.1372" lon="1.37085">
        <ele>140.631563</ele>
        <time>2021-09-07T13:14:09.000Z</time>
      </trkpt>
      <trkpt lat="48.13697" lon="1.37082">
        <ele>140.873771</ele>
        <time>2021-09-07T13:14:15.000Z</time>
      </trkpt>
      <trkpt lat="48.13663" lon="1.37074">
        <ele>141.241085</ele>
        <time>2021-09-07T13:14:24.000Z</time>
      </trkpt>
      <trkpt lat="48.13645" lon="1.37072">
        <ele>141.434248</ele>
        <time>2021-09-07T13:14:29.000Z</time>
      </trkpt>
      <trkpt lat="48.13616" lon="1.37064">
        <ele>141.688512</ele>
        <time>2021-09-07T13:14:36.000Z</time>
      </trkpt>
      <trkpt lat="48.13589" lon="1.37053">
        <ele>141.750689</ele>
        <time>2021-09-07T13:14:43.000Z</time>
      </trkpt>
      <trkpt lat="48.13546" lon="1.37028">
        <ele>141.850543</ele>
        <time>2021-09-07T13:14:53.000Z</time>
      </trkpt>
      <trkpt lat="48.13516" lon="1.37002">
        <ele>141.926576</ele>
        <time>2021-09-07T13:15:00.000Z</time>
      </trkpt>
      <trkpt lat="48.13484" lon="1.3697">
        <ele>142.009781</ele>
        <time>2021-09-07T13:15:08.000Z</time>
      </trkpt>
      <trkpt lat="48.13457" lon="1.36941">
        <ele>142.055705</ele>
        <time>2021-09-07T13:15:15.000Z</time>
      </trkpt>
      <trkpt lat="48.13429" lon="1.36909">
        <ele>141.997108</ele>
        <time>2021-09-07T13:15:23.000Z</time>
      </trkpt>
      <trkpt lat="48.13406" lon="1.36881">
        <ele>141.94908</ele>
        <time>2021-09-07T13:15:30.000Z</time>
      </trkpt>
      <trkpt lat="48.13381" lon="1.36841">
        <ele>141.888504</ele>
        <time>2021-09-07T13:15:38.000Z</time>
      </trkpt>
      <trkpt lat="48.13354" lon="1.36798">
        <ele>141.823915</ele>
        <time>2021-09-07T13:15:46.000Z</time>
      </trkpt>
      <trkpt lat="48.13347" lon="1.36786">
        <ele>141.806521</ele>
        <time>2021-09-07T13:15:48.000Z</time>
      </trkpt>
      <trkpt lat="48.13338" lon="1.36777">
        <ele>141.789269</ele>
        <time>2021-09-07T13:15:50.000Z</time>
      </trkpt>
      <trkpt lat="48.13334" lon="1.36772">
        <ele>141.780768</ele>
        <time>2021-09-07T13:15:51.000Z</time>
      </trkpt>
      <trkpt lat="48.13319" lon="1.36756">
        <ele>141.661188</ele>
        <time>2021-09-07T13:15:55.000Z</time>
      </trkpt>
      <trkpt lat="48.1331" lon="1.36749">
        <ele>141.577299</ele>
        <time>2021-09-07T13:15:57.000Z</time>
      </trkpt>
      <trkpt lat="48.13287" lon="1.36735">
        <ele>141.374924</ele>
        <time>2021-09-07T13:16:02.000Z</time>
      </trkpt>
      <trkpt lat="48.13283" lon="1.36733">
        <ele>141.337833</ele>
        <time>2021-09-07T13:16:03.000Z</time>
      </trkpt>
      <trkpt lat="48.13262" lon="1.36721">
        <ele>141.156778</ele>
        <time>2021-09-07T13:16:08.000Z</time>
      </trkpt>
      <trkpt lat="48.13258" lon="1.36718">
        <ele>141.119297</ele>
        <time>2021-09-07T13:16:09.000Z</time>
      </trkpt>
      <trkpt lat="48.13235" lon="1.36706">
        <ele>140.923454</ele>
        <time>2021-09-07T13:16:14.000Z</time>
      </trkpt>
      <trkpt lat="48.13214" lon="1.36692">
        <ele>140.73076</ele>
        <time>2021-09-07T13:16:19.000Z</time>
      </trkpt>
      <trkpt lat="48.13209" lon="1.3669">
        <ele>140.692934</ele>
        <time>2021-09-07T13:16:20.000Z</time>
      </trkpt>
      <trkpt lat="48.13191" lon="1.36679">
        <ele>140.528378</ele>
        <time>2021-09-07T13:16:24.000Z</time>
      </trkpt>
      <trkpt lat="48.1318" lon="1.36674">
        <ele>140.44102</ele>
        <time>2021-09-07T13:16:26.000Z</time>
      </trkpt>
      <trkpt lat="48.1317" lon="1.36669">
        <ele>140.351277</ele>
        <time>2021-09-07T13:16:28.000Z</time>
      </trkpt>
      <trkpt lat="48.1315" lon="1.3666">
        <ele>139.955995</ele>
        <time>2021-09-07T13:16:32.000Z</time>
      </trkpt>
      <trkpt lat="48.13126" lon="1.36647">
        <ele>139.352232</ele>
        <time>2021-09-07T13:16:37.000Z</time>
      </trkpt>
      <trkpt lat="48.13087" lon="1.36626">
        <ele>138.38958</ele>
        <time>2021-09-07T13:16:44.000Z</time>
      </trkpt>
      <trkpt lat="48.13075" lon="1.36621">
        <ele>138.087877</ele>
        <time>2021-09-07T13:16:46.000Z</time>
      </trkpt>
      <trkpt lat="48.13063" lon="1.36616">
        <ele>137.801062</ele>
        <time>2021-09-07T13:16:48.000Z</time>
      </trkpt>
      <trkpt lat="48.13058" lon="1.36612">
        <ele>137.659776</ele>
        <time>2021-09-07T13:16:49.000Z</time>
      </trkpt>
      <trkpt lat="48.13047" lon="1.36603">
        <ele>137.370628</ele>
        <time>2021-09-07T13:16:51.000Z</time>
      </trkpt>
      <trkpt lat="48.13043" lon="1.36596">
        <ele>137.232676</ele>
        <time>2021-09-07T13:16:52.000Z</time>
      </trkpt>
      <trkpt lat="48.13036" lon="1.36582">
        <ele>136.953155</ele>
        <time>2021-09-07T13:16:54.000Z</time>
      </trkpt>
      <trkpt lat="48.13029" lon="1.3657">
        <ele>136.705079</ele>
        <time>2021-09-07T13:16:56.000Z</time>
      </trkpt>
      <trkpt lat="48.13026" lon="1.36566">
        <ele>136.592739</ele>
        <time>2021-09-07T13:16:57.000Z</time>
      </trkpt>
      <trkpt lat="48.13021" lon="1.36563">
        <ele>136.480657</ele>
        <time>2021-09-07T13:16:58.000Z</time>
      </trkpt>
      <trkpt lat="48.13009" lon="1.36566">
        <ele>136.199942</ele>
        <time>2021-09-07T13:17:00.000Z</time>
      </trkpt>
      <trkpt lat="48.12977" lon="1.36569">
        <ele>135.211343</ele>
        <time>2021-09-07T13:17:04.000Z</time>
      </trkpt>
      <trkpt lat="48.12929" lon="1.36574">
        <ele>133.651968</ele>
        <time>2021-09-07T13:17:09.000Z</time>
      </trkpt>
      <trkpt lat="48.12908" lon="1.3658">
        <ele>132.958835</ele>
        <time>2021-09-07T13:17:11.000Z</time>
      </trkpt>
      <trkpt lat="48.12886" lon="1.36589">
        <ele>132.2158</ele>
        <time>2021-09-07T13:17:13.000Z</time>
      </trkpt>
      <trkpt lat="48.12844" lon="1.36615">
        <ele>130.761759</ele>
        <time>2021-09-07T13:17:17.000Z</time>
      </trkpt>
      <trkpt lat="48.12809" lon="1.36638">
        <ele>129.419805</ele>
        <time>2021-09-07T13:17:21.000Z</time>
      </trkpt>
      <trkpt lat="48.12802" lon="1.36643">
        <ele>129.112257</ele>
        <time>2021-09-07T13:17:22.000Z</time>
      </trkpt>
      <trkpt lat="48.12778" lon="1.36651">
        <ele>128.175653</ele>
        <time>2021-09-07T13:17:25.000Z</time>
      </trkpt>
      <trkpt lat="48.1274" lon="1.36655">
        <ele>126.757216</ele>
        <time>2021-09-07T13:17:30.000Z</time>
      </trkpt>
      <trkpt lat="48.12719" lon="1.36656">
        <ele>125.96664</ele>
        <time>2021-09-07T13:17:33.000Z</time>
      </trkpt>
      <trkpt lat="48.12705" lon="1.36655">
        <ele>125.439466</ele>
        <time>2021-09-07T13:17:35.000Z</time>
      </trkpt>
      <trkpt lat="48.12674" lon="1.3665">
        <ele>124.275862</ele>
        <time>2021-09-07T13:17:40.000Z</time>
      </trkpt>
      <trkpt lat="48.12662" lon="1.36646">
        <ele>123.793588</ele>
        <time>2021-09-07T13:17:42.000Z</time>
      </trkpt>
      <trkpt lat="48.12657" lon="1.3664">
        <ele>123.570184</ele>
        <time>2021-09-07T13:17:43.000Z</time>
      </trkpt>
      <trkpt lat="48.12656" lon="1.36622">
        <ele>123.130391</ele>
        <time>2021-09-07T13:17:45.000Z</time>
      </trkpt>
      <trkpt lat="48.12659" lon="1.36603">
        <ele>122.683054</ele>
        <time>2021-09-07T13:17:47.000Z</time>
      </trkpt>
      <trkpt lat="48.12659" lon="1.36585">
        <ele>122.266718</ele>
        <time>2021-09-07T13:17:49.000Z</time>
      </trkpt>
      <trkpt lat="48.12657" lon="1.36578">
        <ele>122.080194</ele>
        <time>2021-09-07T13:17:50.000Z</time>
      </trkpt>
      <trkpt lat="48.12654" lon="1.36572">
        <ele>121.915041</ele>
        <time>2021-09-07T13:17:51.000Z</time>
      </trkpt>
      <trkpt lat="48.12647" lon="1.36566">
        <ele>121.651497</ele>
        <time>2021-09-07T13:17:53.000Z</time>
      </trkpt>
      <trkpt lat="48.12632" lon="1.36564">
        <ele>121.137527</ele>
        <time>2021-09-07T13:17:57.000Z</time>
      </trkpt>
      <trkpt lat="48.12628" lon="1.36564">
        <ele>120.994686</ele>
        <time>2021-09-07T13:17:58.000Z</time>
      </trkpt>
      <trkpt lat="48.12624" lon="1.36564">
        <ele>120.855173</ele>
        <time>2021-09-07T13:17:59.000Z</time>
      </trkpt>
      <trkpt lat="48.12616" lon="1.36563">
        <ele>120.571637</ele>
        <time>2021-09-07T13:18:01.000Z</time>
      </trkpt>
      <trkpt lat="48.12609" lon="1.36563">
        <ele>120.310285</ele>
        <time>2021-09-07T13:18:03.000Z</time>
      </trkpt>
      <trkpt lat="48.12594" lon="1.3656">
        <ele>119.787182</ele>
        <time>2021-09-07T13:18:07.000Z</time>
      </trkpt>
      <trkpt lat="48.1259" lon="1.36558">
        <ele>119.633845</ele>
        <time>2021-09-07T13:18:08.000Z</time>
      </trkpt>
      <trkpt lat="48.12585" lon="1.36555">
        <ele>119.465446</ele>
        <time>2021-09-07T13:18:09.000Z</time>
      </trkpt>
      <trkpt lat="48.1257" lon="1.36545">
        <ele>118.885545</ele>
        <time>2021-09-07T13:18:12.000Z</time>
      </trkpt>
      <trkpt lat="48.12553" lon="1.36544">
        <ele>118.282458</ele>
        <time>2021-09-07T13:18:15.000Z</time>
      </trkpt>
      <trkpt lat="48.12547" lon="1.36545">
        <ele>118.075349</ele>
        <time>2021-09-07T13:18:16.000Z</time>
      </trkpt>
      <trkpt lat="48.12506" lon="1.36557">
        <ele>116.968779</ele>
        <time>2021-09-07T13:18:23.000Z</time>
      </trkpt>
      <trkpt lat="48.12475" lon="1.36566">
        <ele>116.493736</ele>
        <time>2021-09-07T13:18:29.000Z</time>
      </trkpt>
      <trkpt lat="48.12441" lon="1.36576">
        <ele>115.982949</ele>
        <time>2021-09-07T13:18:36.000Z</time>
      </trkpt>
      <trkpt lat="48.12418" lon="1.36582">
        <ele>115.645886</ele>
        <time>2021-09-07T13:18:41.000Z</time>
      </trkpt>
      <trkpt lat="48.1241" lon="1.36582">
        <ele>115.523224</ele>
        <time>2021-09-07T13:18:43.000Z</time>
      </trkpt>
      <trkpt lat="48.12406" lon="1.3658">
        <ele>115.457979</ele>
        <time>2021-09-07T13:18:44.000Z</time>
      </trkpt>
      <trkpt lat="48.12402" lon="1.36578">
        <ele>115.391894</ele>
        <time>2021-09-07T13:18:45.000Z</time>
      </trkpt>
      <trkpt lat="48.12387" lon="1.36565">
        <ele>115.143153</ele>
        <time>2021-09-07T13:18:49.000Z</time>
      </trkpt>
      <trkpt lat="48.12365" lon="1.36541">
        <ele>114.729644</ele>
        <time>2021-09-07T13:18:57.000Z</time>
      </trkpt>
      <trkpt lat="48.1234" lon="1.36528">
        <ele>114.80685</ele>
        <time>2021-09-07T13:19:06.000Z</time>
      </trkpt>
      <trkpt lat="48.12316" lon="1.36526">
        <ele>115.226263</ele>
        <time>2021-09-07T13:19:15.000Z</time>
      </trkpt>
      <trkpt lat="48.12292" lon="1.36525">
        <ele>115.651813</ele>
        <time>2021-09-07T13:19:25.000Z</time>
      </trkpt>
      <trkpt lat="48.12272" lon="1.36527">
        <ele>116.003133</ele>
        <time>2021-09-07T13:19:34.000Z</time>
      </trkpt>
      <trkpt lat="48.12254" lon="1.36526">
        <ele>116.300349</ele>
        <time>2021-09-07T13:19:42.000Z</time>
      </trkpt>
      <trkpt lat="48.12239" lon="1.36526">
        <ele>116.574762</ele>
        <time>2021-09-07T13:19:49.000Z</time>
      </trkpt>
      <trkpt lat="48.12221" lon="1.36524">
        <ele>116.884335</ele>
        <time>2021-09-07T13:19:57.000Z</time>
      </trkpt>
      <trkpt lat="48.122" lon="1.36524">
        <ele>117.240422</ele>
        <time>2021-09-07T13:20:06.000Z</time>
      </trkpt>
      <trkpt lat="48.12181" lon="1.36525">
        <ele>117.575749</ele>
        <time>2021-09-07T13:20:14.000Z</time>
      </trkpt>
      <trkpt lat="48.12162" lon="1.36528">
        <ele>117.940275</ele>
        <time>2021-09-07T13:20:21.000Z</time>
      </trkpt>
      <trkpt lat="48.1214" lon="1.36536">
        <ele>118.397288</ele>
        <time>2021-09-07T13:20:28.000Z</time>
      </trkpt>
      <trkpt lat="48.12119" lon="1.36544">
        <ele>118.831612</ele>
        <time>2021-09-07T13:20:35.000Z</time>
      </trkpt>
      <trkpt lat="48.12098" lon="1.36554">
        <ele>119.281683</ele>
        <time>2021-09-07T13:20:43.000Z</time>
      </trkpt>
      <trkpt lat="48.12079" lon="1.36564">
        <ele>119.68257</ele>
        <time>2021-09-07T13:20:50.000Z</time>
      </trkpt>
      <trkpt lat="48.12058" lon="1.36572">
        <ele>120.110858</ele>
        <time>2021-09-07T13:20:56.000Z</time>
      </trkpt>
      <trkpt lat="48.1203" lon="1.36584">
        <ele>120.703056</ele>
        <time>2021-09-07T13:21:04.000Z</time>
      </trkpt>
      <trkpt lat="48.12002" lon="1.36596">
        <ele>121.271411</ele>
        <time>2021-09-07T13:21:11.000Z</time>
      </trkpt>
      <trkpt lat="48.11969" lon="1.36613">
        <ele>121.399872</ele>
        <time>2021-09-07T13:21:19.000Z</time>
      </trkpt>
      <trkpt lat="48.11932" lon="1.3664">
        <ele>121.532551</ele>
        <time>2021-09-07T13:21:27.000Z</time>
      </trkpt>
      <trkpt lat="48.11899" lon="1.36665">
        <ele>121.652197</ele>
        <time>2021-09-07T13:21:34.000Z</time>
      </trkpt>
      <trkpt lat="48.11865" lon="1.36687">
        <ele>121.77415</ele>
        <time>2021-09-07T13:21:41.000Z</time>
      </trkpt>
      <trkpt lat="48.11828" lon="1.36705">
        <ele>121.882521</ele>
        <time>2021-09-07T13:21:49.000Z</time>
      </trkpt>
      <trkpt lat="48.11795" lon="1.3672">
        <ele>121.930264</ele>
        <time>2021-09-07T13:21:57.000Z</time>
      </trkpt>
      <trkpt lat="48.11751" lon="1.36741">
        <ele>121.992514</ele>
        <time>2021-09-07T13:22:06.000Z</time>
      </trkpt>
      <trkpt lat="48.11716" lon="1.36768">
        <ele>122.045943</ele>
        <time>2021-09-07T13:22:14.000Z</time>
      </trkpt>
      <trkpt lat="48.1169" lon="1.36803">
        <ele>122.093836</ele>
        <time>2021-09-07T13:22:21.000Z</time>
      </trkpt>
      <trkpt lat="48.11665" lon="1.3684">
        <ele>122.098448</ele>
        <time>2021-09-07T13:22:28.000Z</time>
      </trkpt>
      <trkpt lat="48.11653" lon="1.36858">
        <ele>122.081822</ele>
        <time>2021-09-07T13:22:32.000Z</time>
      </trkpt>
      <trkpt lat="48.11647" lon="1.36866">
        <ele>122.074038</ele>
        <time>2021-09-07T13:22:34.000Z</time>
      </trkpt>
      <trkpt lat="48.11623" lon="1.369">
        <ele>122.042683</ele>
        <time>2021-09-07T13:22:43.000Z</time>
      </trkpt>
      <trkpt lat="48.116" lon="1.36934">
        <ele>122.011803</ele>
        <time>2021-09-07T13:22:52.000Z</time>
      </trkpt>
      <trkpt lat="48.11579" lon="1.36968">
        <ele>121.982391</ele>
        <time>2021-09-07T13:23:00.000Z</time>
      </trkpt>
      <trkpt lat="48.11567" lon="1.36994">
        <ele>121.962336</ele>
        <time>2021-09-07T13:23:05.000Z</time>
      </trkpt>
      <trkpt lat="48.11563" lon="1.37005">
        <ele>121.954305</ele>
        <time>2021-09-07T13:23:07.000Z</time>
      </trkpt>
      <trkpt lat="48.11558" lon="1.37021">
        <ele>121.924167</ele>
        <time>2021-09-07T13:23:10.000Z</time>
      </trkpt>
      <trkpt lat="48.11555" lon="1.3704">
        <ele>121.753858</ele>
        <time>2021-09-07T13:23:13.000Z</time>
      </trkpt>
      <trkpt lat="48.11557" lon="1.37079">
        <ele>121.396035</ele>
        <time>2021-09-07T13:23:20.000Z</time>
      </trkpt>
      <trkpt lat="48.11559" lon="1.37119">
        <ele>121.034943</ele>
        <time>2021-09-07T13:23:27.000Z</time>
      </trkpt>
      <trkpt lat="48.1156" lon="1.37138">
        <ele>120.872085</ele>
        <time>2021-09-07T13:23:30.000Z</time>
      </trkpt>
      <trkpt lat="48.11555" lon="1.37149">
        <ele>120.747889</ele>
        <time>2021-09-07T13:23:32.000Z</time>
      </trkpt>
      <trkpt lat="48.11544" lon="1.3715">
        <ele>120.603596</ele>
        <time>2021-09-07T13:23:34.000Z</time>
      </trkpt>
      <trkpt lat="48.11506" lon="1.37136">
        <ele>120.085401</ele>
        <time>2021-09-07T13:23:40.000Z</time>
      </trkpt>
      <trkpt lat="48.11499" lon="1.37135">
        <ele>119.985561</ele>
        <time>2021-09-07T13:23:41.000Z</time>
      </trkpt>
      <trkpt lat="48.11483" lon="1.37139">
        <ele>119.767984</ele>
        <time>2021-09-07T13:23:43.000Z</time>
      </trkpt>
      <trkpt lat="48.11442" lon="1.37162">
        <ele>119.04864</ele>
        <time>2021-09-07T13:23:48.000Z</time>
      </trkpt>
      <trkpt lat="48.11408" lon="1.37182">
        <ele>118.406567</ele>
        <time>2021-09-07T13:23:52.000Z</time>
      </trkpt>
      <trkpt lat="48.11399" lon="1.37184">
        <ele>118.239864</ele>
        <time>2021-09-07T13:23:53.000Z</time>
      </trkpt>
      <trkpt lat="48.11364" lon="1.37188">
        <ele>117.597673</ele>
        <time>2021-09-07T13:23:57.000Z</time>
      </trkpt>
      <trkpt lat="48.11323" lon="1.37199">
        <ele>116.844212</ele>
        <time>2021-09-07T13:24:02.000Z</time>
      </trkpt>
      <trkpt lat="48.11288" lon="1.37208">
        <ele>116.203071</ele>
        <time>2021-09-07T13:24:07.000Z</time>
      </trkpt>
      <trkpt lat="48.11281" lon="1.3721">
        <ele>116.081542</ele>
        <time>2021-09-07T13:24:08.000Z</time>
      </trkpt>
      <trkpt lat="48.11255" lon="1.37216">
        <ele>115.59191</ele>
        <time>2021-09-07T13:24:12.000Z</time>
      </trkpt>
      <trkpt lat="48.11217" lon="1.37225">
        <ele>114.868386</ele>
        <time>2021-09-07T13:24:18.000Z</time>
      </trkpt>
      <trkpt lat="48.11205" lon="1.37229">
        <ele>114.648683</ele>
        <time>2021-09-07T13:24:20.000Z</time>
      </trkpt>
      <trkpt lat="48.11188" lon="1.37231">
        <ele>114.321466</ele>
        <time>2021-09-07T13:24:23.000Z</time>
      </trkpt>
      <trkpt lat="48.11148" lon="1.3723">
        <ele>113.574476</ele>
        <time>2021-09-07T13:24:30.000Z</time>
      </trkpt>
      <trkpt lat="48.11108" lon="1.37228">
        <ele>112.932489</ele>
        <time>2021-09-07T13:24:37.000Z</time>
      </trkpt>
      <trkpt lat="48.11096" lon="1.37227">
        <ele>112.937429</ele>
        <time>2021-09-07T13:24:39.000Z</time>
      </trkpt>
      <trkpt lat="48.11073" lon="1.37222">
        <ele>112.947433</ele>
        <time>2021-09-07T13:24:43.000Z</time>
      </trkpt>
      <trkpt lat="48.11035" lon="1.37208">
        <ele>112.963513</ele>
        <time>2021-09-07T13:24:50.000Z</time>
      </trkpt>
      <trkpt lat="48.11018" lon="1.37199">
        <ele>112.970989</ele>
        <time>2021-09-07T13:24:54.000Z</time>
      </trkpt>
      <trkpt lat="48.11005" lon="1.37192">
        <ele>112.976675</ele>
        <time>2021-09-07T13:24:57.000Z</time>
      </trkpt>
      <trkpt lat="48.10983" lon="1.37181">
        <ele>112.98667</ele>
        <time>2021-09-07T13:25:03.000Z</time>
      </trkpt>
      <trkpt lat="48.10967" lon="1.37173">
        <ele>112.993655</ele>
        <time>2021-09-07T13:25:09.000Z</time>
      </trkpt>
      <trkpt lat="48.10958" lon="1.37168">
        <ele>112.997668</ele>
        <time>2021-09-07T13:25:15.000Z</time>
      </trkpt>
      <trkpt lat="48.10954" lon="1.3716">
        <ele>113.000468</ele>
        <time>2021-09-07T13:25:20.000Z</time>
      </trkpt>
      <trkpt lat="48.10952" lon="1.37155">
        <ele>113.002167</ele>
        <time>2021-09-07T13:25:23.000Z</time>
      </trkpt>
      <trkpt lat="48.10949" lon="1.37151">
        <ele>113.003684</ele>
        <time>2021-09-07T13:25:25.000Z</time>
      </trkpt>
      <trkpt lat="48.10945" lon="1.37145">
        <ele>113.077268</ele>
        <time>2021-09-07T13:25:28.000Z</time>
      </trkpt>
      <trkpt lat="48.10942" lon="1.3714">
        <ele>113.310283</ele>
        <time>2021-09-07T13:25:30.000Z</time>
      </trkpt>
      <trkpt lat="48.1093" lon="1.37123">
        <ele>114.165936</ele>
        <time>2021-09-07T13:25:39.000Z</time>
      </trkpt>
      <trkpt lat="48.10923" lon="1.37112">
        <ele>114.65191</ele>
        <time>2021-09-07T13:25:45.000Z</time>
      </trkpt>
      <trkpt lat="48.10913" lon="1.37097">
        <ele>115.378864</ele>
        <time>2021-09-07T13:25:54.000Z</time>
      </trkpt>
      <trkpt lat="48.10903" lon="1.3708">
        <ele>116.163688</ele>
        <time>2021-09-07T13:26:04.000Z</time>
      </trkpt>
      <trkpt lat="48.10894" lon="1.37067">
        <ele>116.798138</ele>
        <time>2021-09-07T13:26:12.000Z</time>
      </trkpt>
      <trkpt lat="48.1088" lon="1.37054">
        <ele>117.617379</ele>
        <time>2021-09-07T13:26:21.000Z</time>
      </trkpt>
      <trkpt lat="48.10869" lon="1.37044">
        <ele>118.294624</ele>
        <time>2021-09-07T13:26:29.000Z</time>
      </trkpt>
      <trkpt lat="48.10858" lon="1.37033">
        <ele>118.954116</ele>
        <time>2021-09-07T13:26:37.000Z</time>
      </trkpt>
      <trkpt lat="48.10847" lon="1.37021">
        <ele>119.638993</ele>
        <time>2021-09-07T13:26:45.000Z</time>
      </trkpt>
      <trkpt lat="48.10835" lon="1.3701">
        <ele>120.377465</ele>
        <time>2021-09-07T13:26:53.000Z</time>
      </trkpt>
      <trkpt lat="48.10822" lon="1.36995">
        <ele>121.217247</ele>
        <time>2021-09-07T13:27:01.000Z</time>
      </trkpt>
      <trkpt lat="48.10808" lon="1.36978">
        <ele>122.11164</ele>
        <time>2021-09-07T13:27:08.000Z</time>
      </trkpt>
      <trkpt lat="48.10792" lon="1.3696">
        <ele>122.8121</ele>
        <time>2021-09-07T13:27:16.000Z</time>
      </trkpt>
      <trkpt lat="48.10773" lon="1.36937">
        <ele>123.627288</ele>
        <time>2021-09-07T13:27:25.000Z</time>
      </trkpt>
      <trkpt lat="48.10761" lon="1.36922">
        <ele>124.166079</ele>
        <time>2021-09-07T13:27:31.000Z</time>
      </trkpt>
      <trkpt lat="48.10742" lon="1.36901">
        <ele>124.960533</ele>
        <time>2021-09-07T13:27:39.000Z</time>
      </trkpt>
      <trkpt lat="48.10724" lon="1.36884">
        <ele>125.646695</ele>
        <time>2021-09-07T13:27:46.000Z</time>
      </trkpt>
      <trkpt lat="48.10707" lon="1.36887">
        <ele>126.222268</ele>
        <time>2021-09-07T13:27:52.000Z</time>
      </trkpt>
      <trkpt lat="48.10699" lon="1.36887">
        <ele>126.483831</ele>
        <time>2021-09-07T13:27:55.000Z</time>
      </trkpt>
      <trkpt lat="48.10696" lon="1.36885">
        <ele>126.603854</ele>
        <time>2021-09-07T13:27:56.000Z</time>
      </trkpt>
      <trkpt lat="48.10688" lon="1.36868">
        <ele>127.072288</ele>
        <time>2021-09-07T13:28:00.000Z</time>
      </trkpt>
      <trkpt lat="48.10685" lon="1.36837">
        <ele>127.782779</ele>
        <time>2021-09-07T13:28:05.000Z</time>
      </trkpt>
      <trkpt lat="48.10683" lon="1.3683">
        <ele>127.93228</ele>
        <time>2021-09-07T13:28:06.000Z</time>
      </trkpt>
      <trkpt lat="48.10672" lon="1.36793">
        <ele>128.371796</ele>
        <time>2021-09-07T13:28:12.000Z</time>
      </trkpt>
      <trkpt lat="48.1067" lon="1.36788">
        <ele>128.414222</ele>
        <time>2021-09-07T13:28:13.000Z</time>
      </trkpt>
      <trkpt lat="48.10664" lon="1.36771">
        <ele>128.538665</ele>
        <time>2021-09-07T13:28:16.000Z</time>
      </trkpt>
      <trkpt lat="48.10658" lon="1.36761">
        <ele>128.625169</ele>
        <time>2021-09-07T13:28:18.000Z</time>
      </trkpt>
      <trkpt lat="48.10642" lon="1.36728">
        <ele>128.886316</ele>
        <time>2021-09-07T13:28:24.000Z</time>
      </trkpt>
      <trkpt lat="48.1064" lon="1.36722">
        <ele>128.92919</ele>
        <time>2021-09-07T13:28:25.000Z</time>
      </trkpt>
      <trkpt lat="48.10627" lon="1.36693">
        <ele>129.158564</ele>
        <time>2021-09-07T13:28:30.000Z</time>
      </trkpt>
      <trkpt lat="48.10618" lon="1.36667">
        <ele>129.344552</ele>
        <time>2021-09-07T13:28:34.000Z</time>
      </trkpt>
      <trkpt lat="48.10614" lon="1.36654">
        <ele>129.435724</ele>
        <time>2021-09-07T13:28:36.000Z</time>
      </trkpt>
      <trkpt lat="48.10604" lon="1.36604">
        <ele>129.772689</ele>
        <time>2021-09-07T13:28:43.000Z</time>
      </trkpt>
      <trkpt lat="48.10595" lon="1.36535">
        <ele>130.033913</ele>
        <time>2021-09-07T13:28:52.000Z</time>
      </trkpt>
      <trkpt lat="48.10589" lon="1.36475">
        <ele>130.176189</ele>
        <time>2021-09-07T13:29:00.000Z</time>
      </trkpt>
      <trkpt lat="48.10583" lon="1.3643">
        <ele>130.286289</ele>
        <time>2021-09-07T13:29:06.000Z</time>
      </trkpt>
      <trkpt lat="48.10569" lon="1.3637">
        <ele>130.436426</ele>
        <time>2021-09-07T13:29:14.000Z</time>
      </trkpt>
      <trkpt lat="48.10561" lon="1.36348">
        <ele>130.495453</ele>
        <time>2021-09-07T13:29:17.000Z</time>
      </trkpt>
      <trkpt lat="48.10556" lon="1.36333">
        <ele>130.534807</ele>
        <time>2021-09-07T13:29:19.000Z</time>
      </trkpt>
      <trkpt lat="48.10536" lon="1.36283">
        <ele>130.523476</ele>
        <time>2021-09-07T13:29:26.000Z</time>
      </trkpt>
      <trkpt lat="48.10509" lon="1.36224">
        <ele>130.468436</ele>
        <time>2021-09-07T13:29:34.000Z</time>
      </trkpt>
      <trkpt lat="48.1048" lon="1.3616">
        <ele>130.409031</ele>
        <time>2021-09-07T13:29:43.000Z</time>
      </trkpt>
      <trkpt lat="48.10456" lon="1.361">
        <ele>130.355135</ele>
        <time>2021-09-07T13:29:51.000Z</time>
      </trkpt>
      <trkpt lat="48.10437" lon="1.36054">
        <ele>130.207405</ele>
        <time>2021-09-07T13:29:56.000Z</time>
      </trkpt>
      <trkpt lat="48.10418" lon="1.3601">
        <ele>130.058285</ele>
        <time>2021-09-07T13:30:00.000Z</time>
      </trkpt>
      <trkpt lat="48.10415" lon="1.35997">
        <ele>130.019224</ele>
        <time>2021-09-07T13:30:01.000Z</time>
      </trkpt>
      <trkpt lat="48.10412" lon="1.35985">
        <ele>129.981092</ele>
        <time>2021-09-07T13:30:02.000Z</time>
      </trkpt>
      <trkpt lat="48.10408" lon="1.35949">
        <ele>129.879033</ele>
        <time>2021-09-07T13:30:05.000Z</time>
      </trkpt>
      <trkpt lat="48.10406" lon="1.35903">
        <ele>129.747059</ele>
        <time>2021-09-07T13:30:10.000Z</time>
      </trkpt>
      <trkpt lat="48.10396" lon="1.35826">
        <ele>129.742626</ele>
        <time>2021-09-07T13:30:19.000Z</time>
      </trkpt>
      <trkpt lat="48.10384" lon="1.35777">
        <ele>130.136209</ele>
        <time>2021-09-07T13:30:26.000Z</time>
      </trkpt>
      <trkpt lat="48.10368" lon="1.35718">
        <ele>130.612875</ele>
        <time>2021-09-07T13:30:36.000Z</time>
      </trkpt>
      <trkpt lat="48.10351" lon="1.35652">
        <ele>131.135869</ele>
        <time>2021-09-07T13:30:48.000Z</time>
      </trkpt>
      <trkpt lat="48.10338" lon="1.35594">
        <ele>131.593595</ele>
        <time>2021-09-07T13:30:58.000Z</time>
      </trkpt>
      <trkpt lat="48.10316" lon="1.35525">
        <ele>132.14832</ele>
        <time>2021-09-07T13:31:10.000Z</time>
      </trkpt>
      <trkpt lat="48.10299" lon="1.35487">
        <ele>132.483724</ele>
        <time>2021-09-07T13:31:17.000Z</time>
      </trkpt>
      <trkpt lat="48.10293" lon="1.35476">
        <ele>132.587615</ele>
        <time>2021-09-07T13:31:19.000Z</time>
      </trkpt>
      <trkpt lat="48.10264" lon="1.35431">
        <ele>133.043287</ele>
        <time>2021-09-07T13:31:27.000Z</time>
      </trkpt>
      <trkpt lat="48.10236" lon="1.35394">
        <ele>133.447079</ele>
        <time>2021-09-07T13:31:34.000Z</time>
      </trkpt>
      <trkpt lat="48.10202" lon="1.35355">
        <ele>133.755931</ele>
        <time>2021-09-07T13:31:42.000Z</time>
      </trkpt>
      <trkpt lat="48.10172" lon="1.35323">
        <ele>133.982059</ele>
        <time>2021-09-07T13:31:49.000Z</time>
      </trkpt>
      <trkpt lat="48.10132" lon="1.35285">
        <ele>134.277218</ele>
        <time>2021-09-07T13:31:58.000Z</time>
      </trkpt>
      <trkpt lat="48.10086" lon="1.35245">
        <ele>134.607988</ele>
        <time>2021-09-07T13:32:07.000Z</time>
      </trkpt>
      <trkpt lat="48.10041" lon="1.3521">
        <ele>134.665489</ele>
        <time>2021-09-07T13:32:15.000Z</time>
      </trkpt>
      <trkpt lat="48.10008" lon="1.35188">
        <ele>134.666151</ele>
        <time>2021-09-07T13:32:21.000Z</time>
      </trkpt>
      <trkpt lat="48.09956" lon="1.3515">
        <ele>134.667172</ele>
        <time>2021-09-07T13:32:30.000Z</time>
      </trkpt>
      <trkpt lat="48.09911" lon="1.3511">
        <ele>134.663183</ele>
        <time>2021-09-07T13:32:38.000Z</time>
      </trkpt>
      <trkpt lat="48.09873" lon="1.35069">
        <ele>134.633393</ele>
        <time>2021-09-07T13:32:45.000Z</time>
      </trkpt>
      <trkpt lat="48.09826" lon="1.35011">
        <ele>134.595138</ele>
        <time>2021-09-07T13:32:54.000Z</time>
      </trkpt>
      <trkpt lat="48.09821" lon="1.35005">
        <ele>134.591006</ele>
        <time>2021-09-07T13:32:55.000Z</time>
      </trkpt>
      <trkpt lat="48.09796" lon="1.34974">
        <ele>134.570305</ele>
        <time>2021-09-07T13:33:00.000Z</time>
      </trkpt>
      <trkpt lat="48.09751" lon="1.34918">
        <ele>134.697715</ele>
        <time>2021-09-07T13:33:09.000Z</time>
      </trkpt>
      <trkpt lat="48.09736" lon="1.34901">
        <ele>134.779801</ele>
        <time>2021-09-07T13:33:12.000Z</time>
      </trkpt>
      <trkpt lat="48.09696" lon="1.3486">
        <ele>134.989144</ele>
        <time>2021-09-07T13:33:20.000Z</time>
      </trkpt>
      <trkpt lat="48.09662" lon="1.34834">
        <ele>135.154276</ele>
        <time>2021-09-07T13:33:27.000Z</time>
      </trkpt>
      <trkpt lat="48.09622" lon="1.34808">
        <ele>135.369102</ele>
        <time>2021-09-07T13:33:36.000Z</time>
      </trkpt>
      <trkpt lat="48.09579" lon="1.34787">
        <ele>135.996817</ele>
        <time>2021-09-07T13:33:45.000Z</time>
      </trkpt>
      <trkpt lat="48.09555" lon="1.34778">
        <ele>136.347981</ele>
        <time>2021-09-07T13:33:50.000Z</time>
      </trkpt>
      <trkpt lat="48.09546" lon="1.34775">
        <ele>136.480915</ele>
        <time>2021-09-07T13:33:52.000Z</time>
      </trkpt>
      <trkpt lat="48.09511" lon="1.34764">
        <ele>136.978731</ele>
        <time>2021-09-07T13:34:01.000Z</time>
      </trkpt>
      <trkpt lat="48.09481" lon="1.34755">
        <ele>137.402032</ele>
        <time>2021-09-07T13:34:10.000Z</time>
      </trkpt>
      <trkpt lat="48.09455" lon="1.34747">
        <ele>137.779342</ele>
        <time>2021-09-07T13:34:18.000Z</time>
      </trkpt>
      <trkpt lat="48.09434" lon="1.34742">
        <ele>137.902035</ele>
        <time>2021-09-07T13:34:24.000Z</time>
      </trkpt>
      <trkpt lat="48.09403" lon="1.34732">
        <ele>137.988652</ele>
        <time>2021-09-07T13:34:32.000Z</time>
      </trkpt>
      <trkpt lat="48.09372" lon="1.34721">
        <ele>138.078677</ele>
        <time>2021-09-07T13:34:39.000Z</time>
      </trkpt>
      <trkpt lat="48.09342" lon="1.34707">
        <ele>138.163446</ele>
        <time>2021-09-07T13:34:44.000Z</time>
      </trkpt>
      <trkpt lat="48.0933" lon="1.347">
        <ele>138.201654</ele>
        <time>2021-09-07T13:34:46.000Z</time>
      </trkpt>
      <trkpt lat="48.0931" lon="1.34686">
        <ele>138.260921</ele>
        <time>2021-09-07T13:34:49.000Z</time>
      </trkpt>
      <trkpt lat="48.09278" lon="1.3466">
        <ele>138.356956</ele>
        <time>2021-09-07T13:34:54.000Z</time>
      </trkpt>
      <trkpt lat="48.09265" lon="1.3465">
        <ele>138.361265</ele>
        <time>2021-09-07T13:34:56.000Z</time>
      </trkpt>
      <trkpt lat="48.09228" lon="1.34623">
        <ele>138.37384</ele>
        <time>2021-09-07T13:35:02.000Z</time>
      </trkpt>
      <trkpt lat="48.0919" lon="1.346">
        <ele>138.386018</ele>
        <time>2021-09-07T13:35:08.000Z</time>
      </trkpt>
      <trkpt lat="48.09172" lon="1.3459">
        <ele>138.39189</ele>
        <time>2021-09-07T13:35:11.000Z</time>
      </trkpt>
      <trkpt lat="48.09154" lon="1.34582">
        <ele>138.397535</ele>
        <time>2021-09-07T13:35:14.000Z</time>
      </trkpt>
      <trkpt lat="48.09127" lon="1.34567">
        <ele>138.406159</ele>
        <time>2021-09-07T13:35:19.000Z</time>
      </trkpt>
      <trkpt lat="48.09122" lon="1.34562">
        <ele>138.407849</ele>
        <time>2021-09-07T13:35:20.000Z</time>
      </trkpt>
      <trkpt lat="48.09103" lon="1.34545">
        <ele>138.423035</ele>
        <time>2021-09-07T13:35:24.000Z</time>
      </trkpt>
      <trkpt lat="48.09098" lon="1.3454">
        <ele>138.427972</ele>
        <time>2021-09-07T13:35:25.000Z</time>
      </trkpt>
      <trkpt lat="48.09079" lon="1.34522">
        <ele>138.447974</ele>
        <time>2021-09-07T13:35:29.000Z</time>
      </trkpt>
      <trkpt lat="48.09055" lon="1.345">
        <ele>138.473504</ele>
        <time>2021-09-07T13:35:34.000Z</time>
      </trkpt>
      <trkpt lat="48.09045" lon="1.34492">
        <ele>138.483993</ele>
        <time>2021-09-07T13:35:36.000Z</time>
      </trkpt>
      <trkpt lat="48.09015" lon="1.34466">
        <ele>138.514313</ele>
        <time>2021-09-07T13:35:42.000Z</time>
      </trkpt>
      <trkpt lat="48.08985" lon="1.34438">
        <ele>138.546378</ele>
        <time>2021-09-07T13:35:49.000Z</time>
      </trkpt>
      <trkpt lat="48.0896" lon="1.34413">
        <ele>138.568114</ele>
        <time>2021-09-07T13:35:55.000Z</time>
      </trkpt>
      <trkpt lat="48.08944" lon="1.34397">
        <ele>138.544547</ele>
        <time>2021-09-07T13:35:59.000Z</time>
      </trkpt>
      <trkpt lat="48.08936" lon="1.34388">
        <ele>138.532211</ele>
        <time>2021-09-07T13:36:01.000Z</time>
      </trkpt>
      <trkpt lat="48.08911" lon="1.34359">
        <ele>138.493905</ele>
        <time>2021-09-07T13:36:07.000Z</time>
      </trkpt>
      <trkpt lat="48.08906" lon="1.34353">
        <ele>138.487127</ele>
        <time>2021-09-07T13:36:08.000Z</time>
      </trkpt>
      <trkpt lat="48.08887" lon="1.34323">
        <ele>138.452538</ele>
        <time>2021-09-07T13:36:13.000Z</time>
      </trkpt>
      <trkpt lat="48.08883" lon="1.34317">
        <ele>138.445764</ele>
        <time>2021-09-07T13:36:14.000Z</time>
      </trkpt>
      <trkpt lat="48.08853" lon="1.3427">
        <ele>138.39372</ele>
        <time>2021-09-07T13:36:21.000Z</time>
      </trkpt>
      <trkpt lat="48.08815" lon="1.3421">
        <ele>138.283388</ele>
        <time>2021-09-07T13:36:29.000Z</time>
      </trkpt>
      <trkpt lat="48.0878" lon="1.34157">
        <ele>138.1229</ele>
        <time>2021-09-07T13:36:36.000Z</time>
      </trkpt>
      <trkpt lat="48.08737" lon="1.34101">
        <ele>137.939566</ele>
        <time>2021-09-07T13:36:44.000Z</time>
      </trkpt>
      <trkpt lat="48.08696" lon="1.34053">
        <ele>137.768815</ele>
        <time>2021-09-07T13:36:51.000Z</time>
      </trkpt>
      <trkpt lat="48.08656" lon="1.34007">
        <ele>137.465732</ele>
        <time>2021-09-07T13:36:58.000Z</time>
      </trkpt>
      <trkpt lat="48.08636" lon="1.33976">
        <ele>137.290397</ele>
        <time>2021-09-07T13:37:02.000Z</time>
      </trkpt>
      <trkpt lat="48.08632" lon="1.33967">
        <ele>137.24613</ele>
        <time>2021-09-07T13:37:03.000Z</time>
      </trkpt>
      <trkpt lat="48.08628" lon="1.33957">
        <ele>137.201435</ele>
        <time>2021-09-07T13:37:04.000Z</time>
      </trkpt>
      <trkpt lat="48.0862" lon="1.33926">
        <ele>137.068921</ele>
        <time>2021-09-07T13:37:07.000Z</time>
      </trkpt>
      <trkpt lat="48.08617" lon="1.33916">
        <ele>137.025051</ele>
        <time>2021-09-07T13:37:08.000Z</time>
      </trkpt>
      <trkpt lat="48.08609" lon="1.33901">
        <ele>136.943934</ele>
        <time>2021-09-07T13:37:10.000Z</time>
      </trkpt>
      <trkpt lat="48.08596" lon="1.33895">
        <ele>136.862014</ele>
        <time>2021-09-07T13:37:12.000Z</time>
      </trkpt>
      <trkpt lat="48.08589" lon="1.33895">
        <ele>136.820867</ele>
        <time>2021-09-07T13:37:13.000Z</time>
      </trkpt>
      <trkpt lat="48.08582" lon="1.33895">
        <ele>136.780412</ele>
        <time>2021-09-07T13:37:14.000Z</time>
      </trkpt>
      <trkpt lat="48.08558" lon="1.339">
        <ele>136.590689</ele>
        <time>2021-09-07T13:37:18.000Z</time>
      </trkpt>
      <trkpt lat="48.08541" lon="1.33906">
        <ele>136.410602</ele>
        <time>2021-09-07T13:37:21.000Z</time>
      </trkpt>
      <trkpt lat="48.08531" lon="1.33912">
        <ele>136.299184</ele>
        <time>2021-09-07T13:37:23.000Z</time>
      </trkpt>
      <trkpt lat="48.08525" lon="1.33923">
        <ele>136.19565</ele>
        <time>2021-09-07T13:37:25.000Z</time>
      </trkpt>
      <trkpt lat="48.08521" lon="1.33936">
        <ele>136.098059</ele>
        <time>2021-09-07T13:37:27.000Z</time>
      </trkpt>
      <trkpt lat="48.08519" lon="1.33942">
        <ele>136.050716</ele>
        <time>2021-09-07T13:37:28.000Z</time>
      </trkpt>
      <trkpt lat="48.08514" lon="1.33954">
        <ele>135.953375</ele>
        <time>2021-09-07T13:37:30.000Z</time>
      </trkpt>
      <trkpt lat="48.08509" lon="1.33958">
        <ele>135.901163</ele>
        <time>2021-09-07T13:37:31.000Z</time>
      </trkpt>
      <trkpt lat="48.08505" lon="1.3396">
        <ele>135.848005</ele>
        <time>2021-09-07T13:37:32.000Z</time>
      </trkpt>
      <trkpt lat="48.08494" lon="1.33958">
        <ele>135.738147</ele>
        <time>2021-09-07T13:37:34.000Z</time>
      </trkpt>
      <trkpt lat="48.08461" lon="1.33935">
        <ele>135.355482</ele>
        <time>2021-09-07T13:37:41.000Z</time>
      </trkpt>
      <trkpt lat="48.08424" lon="1.33926">
        <ele>134.971954</ele>
        <time>2021-09-07T13:37:47.000Z</time>
      </trkpt>
      <trkpt lat="48.08393" lon="1.33922">
        <ele>134.473431</ele>
        <time>2021-09-07T13:37:52.000Z</time>
      </trkpt>
      <trkpt lat="48.08384" lon="1.33917">
        <ele>134.275097</ele>
        <time>2021-09-07T13:37:54.000Z</time>
      </trkpt>
      <trkpt lat="48.0838" lon="1.33913">
        <ele>134.181374</ele>
        <time>2021-09-07T13:37:55.000Z</time>
      </trkpt>
      <trkpt lat="48.08378" lon="1.33898">
        <ele>133.976038</ele>
        <time>2021-09-07T13:37:57.000Z</time>
      </trkpt>
      <trkpt lat="48.08381" lon="1.33881">
        <ele>133.730478</ele>
        <time>2021-09-07T13:37:59.000Z</time>
      </trkpt>
      <trkpt lat="48.08385" lon="1.33856">
        <ele>133.38411</ele>
        <time>2021-09-07T13:38:02.000Z</time>
      </trkpt>
      <trkpt lat="48.08383" lon="1.33839">
        <ele>133.155974</ele>
        <time>2021-09-07T13:38:04.000Z</time>
      </trkpt>
      <trkpt lat="48.0838" lon="1.33824">
        <ele>132.938198</ele>
        <time>2021-09-07T13:38:06.000Z</time>
      </trkpt>
      <trkpt lat="48.08372" lon="1.33808">
        <ele>132.663017</ele>
        <time>2021-09-07T13:38:09.000Z</time>
      </trkpt>
      <trkpt lat="48.08365" lon="1.338">
        <ele>132.473752</ele>
        <time>2021-09-07T13:38:11.000Z</time>
      </trkpt>
      <trkpt lat="48.08356" lon="1.33794">
        <ele>132.283234</ele>
        <time>2021-09-07T13:38:13.000Z</time>
      </trkpt>
      <trkpt lat="48.08332" lon="1.33787">
        <ele>131.772518</ele>
        <time>2021-09-07T13:38:18.000Z</time>
      </trkpt>
      <trkpt lat="48.08315" lon="1.33786">
        <ele>131.436777</ele>
        <time>2021-09-07T13:38:21.000Z</time>
      </trkpt>
      <trkpt lat="48.08304" lon="1.33786">
        <ele>131.207676</ele>
        <time>2021-09-07T13:38:23.000Z</time>
      </trkpt>
      <trkpt lat="48.08299" lon="1.33786">
        <ele>131.115205</ele>
        <time>2021-09-07T13:38:24.000Z</time>
      </trkpt>
      <trkpt lat="48.08269" lon="1.33786">
        <ele>130.790167</ele>
        <time>2021-09-07T13:38:30.000Z</time>
      </trkpt>
      <trkpt lat="48.08243" lon="1.33785">
        <ele>130.504729</ele>
        <time>2021-09-07T13:38:35.000Z</time>
      </trkpt>
      <trkpt lat="48.08238" lon="1.33785">
        <ele>130.44633</ele>
        <time>2021-09-07T13:38:36.000Z</time>
      </trkpt>
      <trkpt lat="48.08193" lon="1.33782">
        <ele>129.947804</ele>
        <time>2021-09-07T13:38:44.000Z</time>
      </trkpt>
      <trkpt lat="48.08159" lon="1.3378">
        <ele>129.571779</ele>
        <time>2021-09-07T13:38:50.000Z</time>
      </trkpt>
      <trkpt lat="48.08129" lon="1.33781">
        <ele>129.242265</ele>
        <time>2021-09-07T13:38:56.000Z</time>
      </trkpt>
      <trkpt lat="48.08123" lon="1.33781">
        <ele>129.175053</ele>
        <time>2021-09-07T13:38:58.000Z</time>
      </trkpt>
      <trkpt lat="48.08118" lon="1.33781">
        <ele>129.140658</ele>
        <time>2021-09-07T13:38:59.000Z</time>
      </trkpt>
      <trkpt lat="48.08097" lon="1.33779">
        <ele>129.050315</ele>
        <time>2021-09-07T13:39:03.000Z</time>
      </trkpt>
      <trkpt lat="48.08085" lon="1.33778">
        <ele>129.000546</ele>
        <time>2021-09-07T13:39:05.000Z</time>
      </trkpt>
      <trkpt lat="48.0804" lon="1.33777">
        <ele>128.811446</ele>
        <time>2021-09-07T13:39:12.000Z</time>
      </trkpt>
      <trkpt lat="48.08028" lon="1.33774">
        <ele>128.757187</ele>
        <time>2021-09-07T13:39:14.000Z</time>
      </trkpt>
      <trkpt lat="48.08022" lon="1.33769">
        <ele>128.730205</ele>
        <time>2021-09-07T13:39:15.000Z</time>
      </trkpt>
      <trkpt lat="48.08012" lon="1.3376">
        <ele>128.678871</ele>
        <time>2021-09-07T13:39:17.000Z</time>
      </trkpt>
      <trkpt lat="48.08002" lon="1.33756">
        <ele>128.633171</ele>
        <time>2021-09-07T13:39:19.000Z</time>
      </trkpt>
      <trkpt lat="48.07964" lon="1.3375">
        <ele>128.472944</ele>
        <time>2021-09-07T13:39:27.000Z</time>
      </trkpt>
      <trkpt lat="48.07926" lon="1.33742">
        <ele>128.616127</ele>
        <time>2021-09-07T13:39:37.000Z</time>
      </trkpt>
      <trkpt lat="48.07905" lon="1.33736">
        <ele>128.891287</ele>
        <time>2021-09-07T13:39:44.000Z</time>
      </trkpt>
      <trkpt lat="48.07887" lon="1.3373">
        <ele>129.114751</ele>
        <time>2021-09-07T13:39:50.000Z</time>
      </trkpt>
      <trkpt lat="48.07858" lon="1.33715">
        <ele>129.50023</ele>
        <time>2021-09-07T13:40:00.000Z</time>
      </trkpt>
      <trkpt lat="48.07836" lon="1.33702">
        <ele>129.796405</ele>
        <time>2021-09-07T13:40:07.000Z</time>
      </trkpt>
      <trkpt lat="48.0781" lon="1.33684">
        <ele>130.150136</ele>
        <time>2021-09-07T13:40:15.000Z</time>
      </trkpt>
      <trkpt lat="48.0779" lon="1.33669">
        <ele>130.433121</ele>
        <time>2021-09-07T13:40:21.000Z</time>
      </trkpt>
      <trkpt lat="48.07762" lon="1.33647">
        <ele>130.758981</ele>
        <time>2021-09-07T13:40:29.000Z</time>
      </trkpt>
      <trkpt lat="48.07748" lon="1.33635">
        <ele>130.887092</ele>
        <time>2021-09-07T13:40:33.000Z</time>
      </trkpt>
      <trkpt lat="48.07732" lon="1.33624">
        <ele>131.028245</ele>
        <time>2021-09-07T13:40:37.000Z</time>
      </trkpt>
      <trkpt lat="48.077" lon="1.33599">
        <ele>131.314352</ele>
        <time>2021-09-07T13:40:45.000Z</time>
      </trkpt>
      <trkpt lat="48.07676" lon="1.3358">
        <ele>131.534947</ele>
        <time>2021-09-07T13:40:51.000Z</time>
      </trkpt>
      <trkpt lat="48.07667" lon="1.33575">
        <ele>131.607377</ele>
        <time>2021-09-07T13:40:53.000Z</time>
      </trkpt>
      <trkpt lat="48.07655" lon="1.33567">
        <ele>131.711804</ele>
        <time>2021-09-07T13:40:56.000Z</time>
      </trkpt>
      <trkpt lat="48.07647" lon="1.33561">
        <ele>131.783091</ele>
        <time>2021-09-07T13:40:58.000Z</time>
      </trkpt>
      <trkpt lat="48.07643" lon="1.33558">
        <ele>131.819964</ele>
        <time>2021-09-07T13:40:59.000Z</time>
      </trkpt>
      <trkpt lat="48.07639" lon="1.33555">
        <ele>131.856924</ele>
        <time>2021-09-07T13:41:00.000Z</time>
      </trkpt>
      <trkpt lat="48.07621" lon="1.33541">
        <ele>132.0177</ele>
        <time>2021-09-07T13:41:04.000Z</time>
      </trkpt>
      <trkpt lat="48.07589" lon="1.33516">
        <ele>132.294201</ele>
        <time>2021-09-07T13:41:11.000Z</time>
      </trkpt>
      <trkpt lat="48.07561" lon="1.33493">
        <ele>132.535643</ele>
        <time>2021-09-07T13:41:18.000Z</time>
      </trkpt>
      <trkpt lat="48.0753" lon="1.33468">
        <ele>132.811329</ele>
        <time>2021-09-07T13:41:26.000Z</time>
      </trkpt>
      <trkpt lat="48.07522" lon="1.33461">
        <ele>132.880598</ele>
        <time>2021-09-07T13:41:28.000Z</time>
      </trkpt>
      <trkpt lat="48.07508" lon="1.33444">
        <ele>133.01632</ele>
        <time>2021-09-07T13:41:32.000Z</time>
      </trkpt>
      <trkpt lat="48.07483" lon="1.33415">
        <ele>133.257518</ele>
        <time>2021-09-07T13:41:39.000Z</time>
      </trkpt>
      <trkpt lat="48.07471" lon="1.33402">
        <ele>133.366096</ele>
        <time>2021-09-07T13:41:42.000Z</time>
      </trkpt>
      <trkpt lat="48.0746" lon="1.33389">
        <ele>133.499935</ele>
        <time>2021-09-07T13:41:45.000Z</time>
      </trkpt>
      <trkpt lat="48.07438" lon="1.33364">
        <ele>133.874177</ele>
        <time>2021-09-07T13:41:51.000Z</time>
      </trkpt>
      <trkpt lat="48.07435" lon="1.3336">
        <ele>133.935526</ele>
        <time>2021-09-07T13:41:52.000Z</time>
      </trkpt>
      <trkpt lat="48.07418" lon="1.3334">
        <ele>134.230672</ele>
        <time>2021-09-07T13:41:57.000Z</time>
      </trkpt>
      <trkpt lat="48.07414" lon="1.33336">
        <ele>134.288163</ele>
        <time>2021-09-07T13:41:58.000Z</time>
      </trkpt>
      <trkpt lat="48.07407" lon="1.33329">
        <ele>134.403699</ele>
        <time>2021-09-07T13:42:00.000Z</time>
      </trkpt>
      <trkpt lat="48.07401" lon="1.3332">
        <ele>134.518433</ele>
        <time>2021-09-07T13:42:02.000Z</time>
      </trkpt>
      <trkpt lat="48.07395" lon="1.33312">
        <ele>134.629934</ele>
        <time>2021-09-07T13:42:04.000Z</time>
      </trkpt>
      <trkpt lat="48.07388" lon="1.33304">
        <ele>134.744936</ele>
        <time>2021-09-07T13:42:06.000Z</time>
      </trkpt>
      <trkpt lat="48.07384" lon="1.33301">
        <ele>134.804103</ele>
        <time>2021-09-07T13:42:07.000Z</time>
      </trkpt>
      <trkpt lat="48.07375" lon="1.33288">
        <ele>134.972251</ele>
        <time>2021-09-07T13:42:10.000Z</time>
      </trkpt>
      <trkpt lat="48.07362" lon="1.33273">
        <ele>135.192567</ele>
        <time>2021-09-07T13:42:14.000Z</time>
      </trkpt>
      <trkpt lat="48.07341" lon="1.3324">
        <ele>135.610111</ele>
        <time>2021-09-07T13:42:22.000Z</time>
      </trkpt>
      <trkpt lat="48.07321" lon="1.33217">
        <ele>135.934274</ele>
        <time>2021-09-07T13:42:28.000Z</time>
      </trkpt>
      <trkpt lat="48.07318" lon="1.33212">
        <ele>135.978937</ele>
        <time>2021-09-07T13:42:29.000Z</time>
      </trkpt>
      <trkpt lat="48.0729" lon="1.3318">
        <ele>136.346721</ele>
        <time>2021-09-07T13:42:37.000Z</time>
      </trkpt>
      <trkpt lat="48.07264" lon="1.33146">
        <ele>136.700215</ele>
        <time>2021-09-07T13:42:45.000Z</time>
      </trkpt>
      <trkpt lat="48.07241" lon="1.33116">
        <ele>137.010843</ele>
        <time>2021-09-07T13:42:52.000Z</time>
      </trkpt>
      <trkpt lat="48.07219" lon="1.33087">
        <ele>137.316215</ele>
        <time>2021-09-07T13:42:59.000Z</time>
      </trkpt>
      <trkpt lat="48.07216" lon="1.33083">
        <ele>137.358333</ele>
        <time>2021-09-07T13:43:00.000Z</time>
      </trkpt>
      <trkpt lat="48.07193" lon="1.33055">
        <ele>137.661696</ele>
        <time>2021-09-07T13:43:08.000Z</time>
      </trkpt>
      <trkpt lat="48.07174" lon="1.33026">
        <ele>137.435445</ele>
        <time>2021-09-07T13:43:16.000Z</time>
      </trkpt>
      <trkpt lat="48.07162" lon="1.33008">
        <ele>137.187485</ele>
        <time>2021-09-07T13:43:22.000Z</time>
      </trkpt>
      <trkpt lat="48.07148" lon="1.32989">
        <ele>136.915622</ele>
        <time>2021-09-07T13:43:29.000Z</time>
      </trkpt>
      <trkpt lat="48.07139" lon="1.32976">
        <ele>136.732347</ele>
        <time>2021-09-07T13:43:34.000Z</time>
      </trkpt>
      <trkpt lat="48.07126" lon="1.32956">
        <ele>136.457287</ele>
        <time>2021-09-07T13:43:41.000Z</time>
      </trkpt>
      <trkpt lat="48.07109" lon="1.32937">
        <ele>136.1516</ele>
        <time>2021-09-07T13:43:47.000Z</time>
      </trkpt>
      <trkpt lat="48.0709" lon="1.32912">
        <ele>135.785861</ele>
        <time>2021-09-07T13:43:54.000Z</time>
      </trkpt>
      <trkpt lat="48.07076" lon="1.32891">
        <ele>135.491902</ele>
        <time>2021-09-07T13:44:00.000Z</time>
      </trkpt>
      <trkpt lat="48.07076" lon="1.32886">
        <ele>135.444002</ele>
        <time>2021-09-07T13:44:01.000Z</time>
      </trkpt>
      <trkpt lat="48.07076" lon="1.32859">
        <ele>135.182075</ele>
        <time>2021-09-07T13:44:06.000Z</time>
      </trkpt>
      <trkpt lat="48.07075" lon="1.32853">
        <ele>135.125377</ele>
        <time>2021-09-07T13:44:07.000Z</time>
      </trkpt>
      <trkpt lat="48.07074" lon="1.32831">
        <ele>135.260573</ele>
        <time>2021-09-07T13:44:11.000Z</time>
      </trkpt>
      <trkpt lat="48.07074" lon="1.32806">
        <ele>135.433704</ele>
        <time>2021-09-07T13:44:16.000Z</time>
      </trkpt>
      <trkpt lat="48.07075" lon="1.32802">
        <ele>135.463553</ele>
        <time>2021-09-07T13:44:17.000Z</time>
      </trkpt>
      <trkpt lat="48.07073" lon="1.32793">
        <ele>135.5217</ele>
        <time>2021-09-07T13:44:19.000Z</time>
      </trkpt>
      <trkpt lat="48.07071" lon="1.32778">
        <ele>135.633778</ele>
        <time>2021-09-07T13:44:24.000Z</time>
      </trkpt>
      <trkpt lat="48.07071" lon="1.32775">
        <ele>135.65326</ele>
        <time>2021-09-07T13:44:27.000Z</time>
      </trkpt>
      <trkpt lat="48.0707" lon="1.32778">
        <ele>135.673387</ele>
        <time>2021-09-07T13:45:54.000Z</time>
      </trkpt>
      <trkpt lat="48.07065" lon="1.32757">
        <ele>135.827322</ele>
        <time>2021-09-07T13:46:00.000Z</time>
      </trkpt>
      <trkpt lat="48.07059" lon="1.32719">
        <ele>136.096635</ele>
        <time>2021-09-07T13:46:09.000Z</time>
      </trkpt>
      <trkpt lat="48.07058" lon="1.32699">
        <ele>136.237777</ele>
        <time>2021-09-07T13:46:15.000Z</time>
      </trkpt>
      <trkpt lat="48.0706" lon="1.32691">
        <ele>136.294855</ele>
        <time>2021-09-07T13:46:20.000Z</time>
      </trkpt>
      <trkpt lat="48.07057" lon="1.32687">
        <ele>136.332358</ele>
        <time>2021-09-07T13:47:48.000Z</time>
      </trkpt>
      <trkpt lat="48.07056" lon="1.32681">
        <ele>136.377961</ele>
        <time>2021-09-07T13:47:50.000Z</time>
      </trkpt>
      <trkpt lat="48.07057" lon="1.3267">
        <ele>136.45383</ele>
        <time>2021-09-07T13:47:53.000Z</time>
      </trkpt>
      <trkpt lat="48.07053" lon="1.32657">
        <ele>136.551128</ele>
        <time>2021-09-07T13:47:56.000Z</time>
      </trkpt>
      <trkpt lat="48.0705" lon="1.32628">
        <ele>136.757</ele>
        <time>2021-09-07T13:48:01.000Z</time>
      </trkpt>
      <trkpt lat="48.07047" lon="1.32602">
        <ele>136.938828</ele>
        <time>2021-09-07T13:48:05.000Z</time>
      </trkpt>
      <trkpt lat="48.07045" lon="1.32589">
        <ele>136.92192</ele>
        <time>2021-09-07T13:48:07.000Z</time>
      </trkpt>
      <trkpt lat="48.07044" lon="1.32575">
        <ele>136.801107</ele>
        <time>2021-09-07T13:48:09.000Z</time>
      </trkpt>
      <trkpt lat="48.07043" lon="1.32555">
        <ele>136.62927</ele>
        <time>2021-09-07T13:48:12.000Z</time>
      </trkpt>
      <trkpt lat="48.07041" lon="1.32548">
        <ele>136.569823</ele>
        <time>2021-09-07T13:48:13.000Z</time>
      </trkpt>
      <trkpt lat="48.0704" lon="1.32541">
        <ele>136.506573</ele>
        <time>2021-09-07T13:48:14.000Z</time>
      </trkpt>
      <trkpt lat="48.07037" lon="1.3251">
        <ele>136.238261</ele>
        <time>2021-09-07T13:48:18.000Z</time>
      </trkpt>
      <trkpt lat="48.07034" lon="1.32481">
        <ele>135.992422</ele>
        <time>2021-09-07T13:48:22.000Z</time>
      </trkpt>
      <trkpt lat="48.07032" lon="1.32477">
        <ele>135.951206</ele>
        <time>2021-09-07T13:48:24.000Z</time>
      </trkpt>
      <trkpt lat="48.07029" lon="1.32477">
        <ele>135.920028</ele>
        <time>2021-09-07T13:48:26.000Z</time>
      </trkpt>
      <trkpt lat="48.0702" lon="1.32481">
        <ele>135.802248</ele>
        <time>2021-09-07T13:48:31.000Z</time>
      </trkpt>
      <trkpt lat="48.07014" lon="1.32487">
        <ele>135.707481</ele>
        <time>2021-09-07T13:48:34.000Z</time>
      </trkpt>
      <trkpt lat="48.07006" lon="1.3249">
        <ele>135.603647</ele>
        <time>2021-09-07T13:48:37.000Z</time>
      </trkpt>
      <trkpt lat="48.07001" lon="1.32491">
        <ele>135.539867</ele>
        <time>2021-09-07T13:48:39.000Z</time>
      </trkpt>
      <trkpt lat="48.06998" lon="1.32486">
        <ele>135.481661</ele>
        <time>2021-09-07T13:48:41.000Z</time>
      </trkpt>
      <trkpt lat="48.06988" lon="1.32469">
        <ele>135.289887</ele>
        <time>2021-09-07T13:48:47.000Z</time>
      </trkpt>
      <trkpt lat="48.06983" lon="1.32449">
        <ele>135.105176</ele>
        <time>2021-09-07T13:48:53.000Z</time>
      </trkpt>
      <trkpt lat="48.0698" lon="1.3243">
        <ele>134.936755</ele>
        <time>2021-09-07T13:48:58.000Z</time>
      </trkpt>
      <trkpt lat="48.06979" lon="1.32427">
        <ele>134.90769</ele>
        <time>2021-09-07T13:48:59.000Z</time>
      </trkpt>
      <trkpt lat="48.06976" lon="1.32418">
        <ele>134.822852</ele>
        <time>2021-09-07T13:49:02.000Z</time>
      </trkpt>
      <trkpt lat="48.06974" lon="1.32413">
        <ele>134.775872</ele>
        <time>2021-09-07T13:49:04.000Z</time>
      </trkpt>
      <trkpt lat="48.06977" lon="1.3239">
        <ele>134.12868</ele>
        <time>2021-09-07T13:49:10.000Z</time>
      </trkpt>
      <trkpt lat="48.06975" lon="1.32375">
        <ele>133.484337</ele>
        <time>2021-09-07T13:49:15.000Z</time>
      </trkpt>
      <trkpt lat="48.06974" lon="1.3236">
        <ele>132.81393</ele>
        <time>2021-09-07T13:49:21.000Z</time>
      </trkpt>
      <trkpt lat="48.06974" lon="1.32355">
        <ele>132.596217</ele>
        <time>2021-09-07T13:49:24.000Z</time>
      </trkpt>
      <trkpt lat="48.06978" lon="1.32348">
        <ele>132.201289</ele>
        <time>2021-09-07T13:49:44.000Z</time>
      </trkpt>
      <trkpt lat="48.06981" lon="1.32345">
        <ele>131.98688</ele>
        <time>2021-09-07T13:49:45.000Z</time>
      </trkpt>
      <trkpt lat="48.06993" lon="1.32333">
        <ele>131.054263</ele>
        <time>2021-09-07T13:49:48.000Z</time>
      </trkpt>
      <trkpt lat="48.06995" lon="1.32327">
        <ele>130.744913</ele>
        <time>2021-09-07T13:49:49.000Z</time>
      </trkpt>
      <trkpt lat="48.06997" lon="1.3232">
        <ele>130.435319</ele>
        <time>2021-09-07T13:49:50.000Z</time>
      </trkpt>
      <trkpt lat="48.07001" lon="1.32306">
        <ele>129.770609</ele>
        <time>2021-09-07T13:49:52.000Z</time>
      </trkpt>
      <trkpt lat="48.07004" lon="1.32299">
        <ele>129.398914</ele>
        <time>2021-09-07T13:49:53.000Z</time>
      </trkpt>
      <trkpt lat="48.07009" lon="1.32293">
        <ele>129.002007</ele>
        <time>2021-09-07T13:49:54.000Z</time>
      </trkpt>
      <trkpt lat="48.07027" lon="1.32275">
        <ele>127.603088</ele>
        <time>2021-09-07T13:49:57.000Z</time>
      </trkpt>
      <trkpt lat="48.07054" lon="1.32256">
        <ele>125.671257</ele>
        <time>2021-09-07T13:50:01.000Z</time>
      </trkpt>
      <trkpt lat="48.0706" lon="1.32253">
        <ele>125.263178</ele>
        <time>2021-09-07T13:50:02.000Z</time>
      </trkpt>
      <trkpt lat="48.07066" lon="1.32251">
        <ele>124.841031</ele>
        <time>2021-09-07T13:50:03.000Z</time>
      </trkpt>
      <trkpt lat="48.07079" lon="1.32257">
        <ele>123.964157</ele>
        <time>2021-09-07T13:50:05.000Z</time>
      </trkpt>
      <trkpt lat="48.07105" lon="1.32271">
        <ele>122.258295</ele>
        <time>2021-09-07T13:50:09.000Z</time>
      </trkpt>
      <trkpt lat="48.07111" lon="1.32272">
        <ele>121.859408</ele>
        <time>2021-09-07T13:50:10.000Z</time>
      </trkpt>
      <trkpt lat="48.07118" lon="1.32271">
        <ele>121.466274</ele>
        <time>2021-09-07T13:50:11.000Z</time>
      </trkpt>
      <trkpt lat="48.07134" lon="1.32267">
        <ele>120.498898</ele>
        <time>2021-09-07T13:50:14.000Z</time>
      </trkpt>
      <trkpt lat="48.07146" lon="1.32264">
        <ele>119.737007</ele>
        <time>2021-09-07T13:50:18.000Z</time>
      </trkpt>
      <trkpt lat="48.0716" lon="1.32261">
        <ele>118.920795</ele>
        <time>2021-09-07T13:50:24.000Z</time>
      </trkpt>
      <trkpt lat="48.07181" lon="1.32255">
        <ele>117.601867</ele>
        <time>2021-09-07T13:50:31.000Z</time>
      </trkpt>
      <trkpt lat="48.07189" lon="1.32251">
        <ele>117.102316</ele>
        <time>2021-09-07T13:50:33.000Z</time>
      </trkpt>
      <trkpt lat="48.07203" lon="1.32246">
        <ele>116.215406</ele>
        <time>2021-09-07T13:50:36.000Z</time>
      </trkpt>
      <trkpt lat="48.07233" lon="1.32229">
        <ele>114.275945</ele>
        <time>2021-09-07T13:50:42.000Z</time>
      </trkpt>
      <trkpt lat="48.07243" lon="1.32224">
        <ele>113.676779</ele>
        <time>2021-09-07T13:50:44.000Z</time>
      </trkpt>
      <trkpt lat="48.07256" lon="1.32217">
        <ele>112.853272</ele>
        <time>2021-09-07T13:50:47.000Z</time>
      </trkpt>
      <trkpt lat="48.07276" lon="1.32206">
        <ele>111.84484</ele>
        <time>2021-09-07T13:50:52.000Z</time>
      </trkpt>
      <trkpt lat="48.07292" lon="1.32199">
        <ele>111.262631</ele>
        <time>2021-09-07T13:50:57.000Z</time>
      </trkpt>
      <trkpt lat="48.073" lon="1.32196">
        <ele>110.999956</ele>
        <time>2021-09-07T13:50:59.000Z</time>
      </trkpt>
      <trkpt lat="48.07315" lon="1.32188">
        <ele>110.463665</ele>
        <time>2021-09-07T13:51:03.000Z</time>
      </trkpt>
      <trkpt lat="48.07334" lon="1.32186">
        <ele>109.846785</ele>
        <time>2021-09-07T13:51:08.000Z</time>
      </trkpt>
      <trkpt lat="48.07337" lon="1.32193">
        <ele>109.653287</ele>
        <time>2021-09-07T13:51:10.000Z</time>
      </trkpt>
      <trkpt lat="48.07337" lon="1.32198">
        <ele>109.547857</ele>
        <time>2021-09-07T13:51:11.000Z</time>
      </trkpt>
      <trkpt lat="48.07344" lon="1.32232">
        <ele>108.75141</ele>
        <time>2021-09-07T13:51:18.000Z</time>
      </trkpt>
      <trkpt lat="48.07349" lon="1.32259">
        <ele>108.117154</ele>
        <time>2021-09-07T13:51:23.000Z</time>
      </trkpt>
      <trkpt lat="48.07353" lon="1.32294">
        <ele>107.33141</ele>
        <time>2021-09-07T13:51:29.000Z</time>
      </trkpt>
      <trkpt lat="48.07365" lon="1.32332">
        <ele>106.39949</ele>
        <time>2021-09-07T13:51:36.000Z</time>
      </trkpt>
      <trkpt lat="48.07375" lon="1.32367">
        <ele>106.119995</ele>
        <time>2021-09-07T13:51:42.000Z</time>
      </trkpt>
      <trkpt lat="48.07376" lon="1.32373">
        <ele>106.10409</ele>
        <time>2021-09-07T13:51:43.000Z</time>
      </trkpt>
      <trkpt lat="48.07385" lon="1.32403">
        <ele>106.02115</ele>
        <time>2021-09-07T13:51:48.000Z</time>
      </trkpt>
      <trkpt lat="48.07392" lon="1.32427">
        <ele>105.956025</ele>
        <time>2021-09-07T13:51:52.000Z</time>
      </trkpt>
      <trkpt lat="48.07396" lon="1.32439">
        <ele>105.923704</ele>
        <time>2021-09-07T13:51:54.000Z</time>
      </trkpt>
      <trkpt lat="48.07404" lon="1.32462">
        <ele>105.859717</ele>
        <time>2021-09-07T13:51:58.000Z</time>
      </trkpt>
      <trkpt lat="48.07409" lon="1.32472">
        <ele>105.827441</ele>
        <time>2021-09-07T13:52:00.000Z</time>
      </trkpt>
      <trkpt lat="48.07426" lon="1.32508">
        <ele>105.716968</ele>
        <time>2021-09-07T13:52:07.000Z</time>
      </trkpt>
      <trkpt lat="48.07429" lon="1.32514">
        <ele>105.700658</ele>
        <time>2021-09-07T13:52:08.000Z</time>
      </trkpt>
      <trkpt lat="48.07441" lon="1.32551">
        <ele>105.597722</ele>
        <time>2021-09-07T13:52:14.000Z</time>
      </trkpt>
      <trkpt lat="48.07451" lon="1.32575">
        <ele>105.528488</ele>
        <time>2021-09-07T13:52:18.000Z</time>
      </trkpt>
      <trkpt lat="48.07455" lon="1.32586">
        <ele>105.559087</ele>
        <time>2021-09-07T13:52:20.000Z</time>
      </trkpt>
      <trkpt lat="48.07464" lon="1.32611">
        <ele>105.654371</ele>
        <time>2021-09-07T13:52:24.000Z</time>
      </trkpt>
      <trkpt lat="48.07471" lon="1.32628">
        <ele>105.722154</ele>
        <time>2021-09-07T13:52:27.000Z</time>
      </trkpt>
      <trkpt lat="48.07472" lon="1.32634">
        <ele>105.745411</ele>
        <time>2021-09-07T13:52:28.000Z</time>
      </trkpt>
      <trkpt lat="48.07477" lon="1.32645">
        <ele>105.790055</ele>
        <time>2021-09-07T13:52:30.000Z</time>
      </trkpt>
      <trkpt lat="48.07483" lon="1.32661">
        <ele>105.855098</ele>
        <time>2021-09-07T13:52:33.000Z</time>
      </trkpt>
      <trkpt lat="48.07504" lon="1.32709">
        <ele>106.051064</ele>
        <time>2021-09-07T13:52:42.000Z</time>
      </trkpt>
      <trkpt lat="48.07519" lon="1.32745">
        <ele>106.197005</ele>
        <time>2021-09-07T13:52:49.000Z</time>
      </trkpt>
      <trkpt lat="48.07526" lon="1.3276">
        <ele>106.261965</ele>
        <time>2021-09-07T13:52:52.000Z</time>
      </trkpt>
      <trkpt lat="48.07536" lon="1.3278">
        <ele>106.345793</ele>
        <time>2021-09-07T13:52:56.000Z</time>
      </trkpt>
      <trkpt lat="48.07554" lon="1.32813">
        <ele>106.474764</ele>
        <time>2021-09-07T13:53:03.000Z</time>
      </trkpt>
      <trkpt lat="48.07557" lon="1.32818">
        <ele>106.48726</ele>
        <time>2021-09-07T13:53:04.000Z</time>
      </trkpt>
      <trkpt lat="48.07575" lon="1.32852">
        <ele>106.57801</ele>
        <time>2021-09-07T13:53:11.000Z</time>
      </trkpt>
      <trkpt lat="48.07584" lon="1.32873">
        <ele>106.630117</ele>
        <time>2021-09-07T13:53:15.000Z</time>
      </trkpt>
      <trkpt lat="48.0759" lon="1.32883">
        <ele>106.658278</ele>
        <time>2021-09-07T13:53:17.000Z</time>
      </trkpt>
      <trkpt lat="48.07616" lon="1.32928">
        <ele>106.780981</ele>
        <time>2021-09-07T13:53:26.000Z</time>
      </trkpt>
      <trkpt lat="48.07618" lon="1.32934">
        <ele>106.794453</ele>
        <time>2021-09-07T13:53:27.000Z</time>
      </trkpt>
      <trkpt lat="48.07622" lon="1.32945">
        <ele>106.820425</ele>
        <time>2021-09-07T13:53:29.000Z</time>
      </trkpt>
      <trkpt lat="48.0763" lon="1.32959">
        <ele>106.859146</ele>
        <time>2021-09-07T13:53:32.000Z</time>
      </trkpt>
      <trkpt lat="48.07657" lon="1.33001">
        <ele>106.979652</ele>
        <time>2021-09-07T13:53:41.000Z</time>
      </trkpt>
      <trkpt lat="48.07684" lon="1.33036">
        <ele>106.785975</ele>
        <time>2021-09-07T13:53:50.000Z</time>
      </trkpt>
      <trkpt lat="48.07711" lon="1.33057">
        <ele>106.53364</ele>
        <time>2021-09-07T13:53:58.000Z</time>
      </trkpt>
      <trkpt lat="48.07732" lon="1.33072">
        <ele>106.342994</ele>
        <time>2021-09-07T13:54:04.000Z</time>
      </trkpt>
      <trkpt lat="48.07748" lon="1.33081">
        <ele>106.207881</ele>
        <time>2021-09-07T13:54:08.000Z</time>
      </trkpt>
      <trkpt lat="48.07756" lon="1.33083">
        <ele>106.136746</ele>
        <time>2021-09-07T13:54:10.000Z</time>
      </trkpt>
      <trkpt lat="48.07784" lon="1.33088">
        <ele>105.910189</ele>
        <time>2021-09-07T13:54:16.000Z</time>
      </trkpt>
      <trkpt lat="48.07815" lon="1.33098">
        <ele>105.648596</ele>
        <time>2021-09-07T13:54:23.000Z</time>
      </trkpt>
      <trkpt lat="48.07828" lon="1.33104">
        <ele>105.54174</ele>
        <time>2021-09-07T13:54:26.000Z</time>
      </trkpt>
      <trkpt lat="48.07845" lon="1.3311">
        <ele>105.536246</ele>
        <time>2021-09-07T13:54:30.000Z</time>
      </trkpt>
      <trkpt lat="48.07875" lon="1.33123">
        <ele>105.536246</ele>
        <time>2021-09-07T13:54:37.000Z</time>
      </trkpt>
      <trkpt lat="48.07887" lon="1.33131">
        <ele>105.536246</ele>
        <time>2021-09-07T13:54:40.000Z</time>
      </trkpt>
      <trkpt lat="48.07901" lon="1.33136">
        <ele>105.536246</ele>
        <time>2021-09-07T13:54:43.000Z</time>
      </trkpt>
      <trkpt lat="48.0793" lon="1.3315">
        <ele>105.536246</ele>
        <time>2021-09-07T13:54:50.000Z</time>
      </trkpt>
      <trkpt lat="48.07938" lon="1.33156">
        <ele>105.536246</ele>
        <time>2021-09-07T13:54:52.000Z</time>
      </trkpt>
      <trkpt lat="48.07951" lon="1.33163">
        <ele>105.536246</ele>
        <time>2021-09-07T13:54:55.000Z</time>
      </trkpt>
      <trkpt lat="48.07967" lon="1.33171">
        <ele>105.536246</ele>
        <time>2021-09-07T13:54:59.000Z</time>
      </trkpt>
      <trkpt lat="48.07987" lon="1.33183">
        <ele>105.536246</ele>
        <time>2021-09-07T13:55:04.000Z</time>
      </trkpt>
      <trkpt lat="48.07991" lon="1.33184">
        <ele>105.536246</ele>
        <time>2021-09-07T13:55:05.000Z</time>
      </trkpt>
      <trkpt lat="48.08007" lon="1.33192">
        <ele>105.536246</ele>
        <time>2021-09-07T13:55:10.000Z</time>
      </trkpt>
      <trkpt lat="48.08012" lon="1.33191">
        <ele>105.536246</ele>
        <time>2021-09-07T13:55:13.000Z</time>
      </trkpt>
      <trkpt lat="48.08013" lon="1.33189">
        <ele>105.536246</ele>
        <time>2021-09-07T13:55:14.000Z</time>
      </trkpt>
      <trkpt lat="48.08014" lon="1.33187">
        <ele>105.536246</ele>
        <time>2021-09-07T13:55:15.000Z</time>
      </trkpt>
      <trkpt lat="48.08017" lon="1.33179">
        <ele>105.536246</ele>
        <time>2021-09-07T13:55:19.000Z</time>
      </trkpt>
      <trkpt lat="48.08021" lon="1.33171">
        <ele>105.536246</ele>
        <time>2021-09-07T13:55:23.000Z</time>
      </trkpt>
      <trkpt lat="48.08022" lon="1.33169">
        <ele>105.536246</ele>
        <time>2021-09-07T13:55:24.000Z</time>
      </trkpt>
      <trkpt lat="48.08023" lon="1.33167">
        <ele>105.536246</ele>
        <time>2021-09-07T13:55:27.000Z</time>
      </trkpt>
    </trkseg>
  </trk>
</gpx>